<?xml version="1.0" encoding="UTF-8"?>
<gpx xmlns="http://www.topografix.com/GPX/1/1" xmlns:dkl="http://www.gpsware.de/DKL/1/1" xmlns:rtx="http://www.bike-gps.de/RTX/1/1" version="1.1" creator="KOMPASS Digital Map" xmlns:xsi="http://www.w3.org/2001/XMLSchema-instance" xsi:schemaLocation="http://www.topografix.com/GPX/1/1 http://www.topografix.com/GPX/1/1/gpx.xsd">
  <metadata>
    <name>KOMPASS Digital Map Track</name>
    <desc></desc>
    <time>2012-11-17T14:24:38Z</time>
    <bounds minlat="46.641789" minlon="14.727120" maxlat="47.022549" maxlon="14.956321"/>
  </metadata>
  <trk>
    <name>R10_Lavantradweg_25102012</name>
    <extensions>
      <dkl:dkl>
        <dkl:format_version>1.1</dkl:format_version>
        <dkl:format>
          <dkl:color>FF0000</dkl:color>
          <dkl:style>00000000</dkl:style>
          <dkl:strength>3</dkl:strength>
          <dkl:transparent>0</dkl:transparent>
        </dkl:format>
        <dkl:profile>
          <dkl:mode>0</dkl:mode>
          <dkl:smooth>0</dkl:smooth>
        </dkl:profile>
      </dkl:dkl>
    </extensions>
    <trkseg>
      <trkpt lat="47.022549" lon="14.727123">
        <ele>803.00</ele>
        <time>2012-10-24T12:16:04Z</time>
      </trkpt>
      <trkpt lat="47.022549" lon="14.727123">
        <ele>803.00</ele>
        <time>2012-10-24T12:16:09Z</time>
      </trkpt>
      <trkpt lat="47.022549" lon="14.727123">
        <ele>803.00</ele>
        <time>2012-10-24T12:16:10Z</time>
      </trkpt>
      <trkpt lat="47.022549" lon="14.727123">
        <ele>803.00</ele>
        <time>2012-10-24T12:16:11Z</time>
      </trkpt>
      <trkpt lat="47.022545" lon="14.727120">
        <ele>804.00</ele>
        <time>2012-10-24T12:16:12Z</time>
      </trkpt>
      <trkpt lat="47.022545" lon="14.727120">
        <ele>804.00</ele>
        <time>2012-10-24T12:16:13Z</time>
      </trkpt>
      <trkpt lat="47.022499" lon="14.727151">
        <ele>804.00</ele>
        <time>2012-10-24T12:16:16Z</time>
      </trkpt>
      <trkpt lat="47.022396" lon="14.727225">
        <ele>804.00</ele>
        <time>2012-10-24T12:16:19Z</time>
      </trkpt>
      <trkpt lat="47.022358" lon="14.727261">
        <ele>803.00</ele>
        <time>2012-10-24T12:16:20Z</time>
      </trkpt>
      <trkpt lat="47.022316" lon="14.727290">
        <ele>802.00</ele>
        <time>2012-10-24T12:16:21Z</time>
      </trkpt>
      <trkpt lat="47.022274" lon="14.727316">
        <ele>802.00</ele>
        <time>2012-10-24T12:16:22Z</time>
      </trkpt>
      <trkpt lat="47.022095" lon="14.727436">
        <ele>802.00</ele>
        <time>2012-10-24T12:16:26Z</time>
      </trkpt>
      <trkpt lat="47.021832" lon="14.727609">
        <ele>801.00</ele>
        <time>2012-10-24T12:16:32Z</time>
      </trkpt>
      <trkpt lat="47.021709" lon="14.727571">
        <ele>801.00</ele>
        <time>2012-10-24T12:16:35Z</time>
      </trkpt>
      <trkpt lat="47.021576" lon="14.727479">
        <ele>801.00</ele>
        <time>2012-10-24T12:16:38Z</time>
      </trkpt>
      <trkpt lat="47.021519" lon="14.727455">
        <ele>801.00</ele>
        <time>2012-10-24T12:16:39Z</time>
      </trkpt>
      <trkpt lat="47.021461" lon="14.727439">
        <ele>800.00</ele>
        <time>2012-10-24T12:16:40Z</time>
      </trkpt>
      <trkpt lat="47.021408" lon="14.727429">
        <ele>800.00</ele>
        <time>2012-10-24T12:16:41Z</time>
      </trkpt>
      <trkpt lat="47.021347" lon="14.727424">
        <ele>800.00</ele>
        <time>2012-10-24T12:16:42Z</time>
      </trkpt>
      <trkpt lat="47.021286" lon="14.727425">
        <ele>799.00</ele>
        <time>2012-10-24T12:16:43Z</time>
      </trkpt>
      <trkpt lat="47.021164" lon="14.727436">
        <ele>799.00</ele>
        <time>2012-10-24T12:16:45Z</time>
      </trkpt>
      <trkpt lat="47.020992" lon="14.727459">
        <ele>799.00</ele>
        <time>2012-10-24T12:16:48Z</time>
      </trkpt>
      <trkpt lat="47.020950" lon="14.727461">
        <ele>798.00</ele>
        <time>2012-10-24T12:16:49Z</time>
      </trkpt>
      <trkpt lat="47.020916" lon="14.727469">
        <ele>798.00</ele>
        <time>2012-10-24T12:16:50Z</time>
      </trkpt>
      <trkpt lat="47.020893" lon="14.727489">
        <ele>798.00</ele>
        <time>2012-10-24T12:16:51Z</time>
      </trkpt>
      <trkpt lat="47.020878" lon="14.727510">
        <ele>797.00</ele>
        <time>2012-10-24T12:16:52Z</time>
      </trkpt>
      <trkpt lat="47.020855" lon="14.727559">
        <ele>797.00</ele>
        <time>2012-10-24T12:16:54Z</time>
      </trkpt>
      <trkpt lat="47.020851" lon="14.727615">
        <ele>797.00</ele>
        <time>2012-10-24T12:16:57Z</time>
      </trkpt>
      <trkpt lat="47.020866" lon="14.727647">
        <ele>797.00</ele>
        <time>2012-10-24T12:16:59Z</time>
      </trkpt>
      <trkpt lat="47.020924" lon="14.727753">
        <ele>797.00</ele>
        <time>2012-10-24T12:17:04Z</time>
      </trkpt>
      <trkpt lat="47.020939" lon="14.727785">
        <ele>797.00</ele>
        <time>2012-10-24T12:17:08Z</time>
      </trkpt>
      <trkpt lat="47.020924" lon="14.727750">
        <ele>797.00</ele>
        <time>2012-10-24T12:17:10Z</time>
      </trkpt>
      <trkpt lat="47.020885" lon="14.727696">
        <ele>797.00</ele>
        <time>2012-10-24T12:17:13Z</time>
      </trkpt>
      <trkpt lat="47.020828" lon="14.727713">
        <ele>797.00</ele>
        <time>2012-10-24T12:17:18Z</time>
      </trkpt>
      <trkpt lat="47.020817" lon="14.727731">
        <ele>797.00</ele>
        <time>2012-10-24T12:17:19Z</time>
      </trkpt>
      <trkpt lat="47.020710" lon="14.727859">
        <ele>797.00</ele>
        <time>2012-10-24T12:17:24Z</time>
      </trkpt>
      <trkpt lat="47.020504" lon="14.727941">
        <ele>797.00</ele>
        <time>2012-10-24T12:17:29Z</time>
      </trkpt>
      <trkpt lat="47.020351" lon="14.728006">
        <ele>797.00</ele>
        <time>2012-10-24T12:17:32Z</time>
      </trkpt>
      <trkpt lat="47.020302" lon="14.728038">
        <ele>796.00</ele>
        <time>2012-10-24T12:17:33Z</time>
      </trkpt>
      <trkpt lat="47.020248" lon="14.728073">
        <ele>796.00</ele>
        <time>2012-10-24T12:17:34Z</time>
      </trkpt>
      <trkpt lat="47.020195" lon="14.728106">
        <ele>796.00</ele>
        <time>2012-10-24T12:17:35Z</time>
      </trkpt>
      <trkpt lat="47.020134" lon="14.728150">
        <ele>796.00</ele>
        <time>2012-10-24T12:17:36Z</time>
      </trkpt>
      <trkpt lat="47.020012" lon="14.728229">
        <ele>795.00</ele>
        <time>2012-10-24T12:17:38Z</time>
      </trkpt>
      <trkpt lat="47.019897" lon="14.728282">
        <ele>795.00</ele>
        <time>2012-10-24T12:17:40Z</time>
      </trkpt>
      <trkpt lat="47.019848" lon="14.728305">
        <ele>794.00</ele>
        <time>2012-10-24T12:17:41Z</time>
      </trkpt>
      <trkpt lat="47.019798" lon="14.728326">
        <ele>794.00</ele>
        <time>2012-10-24T12:17:42Z</time>
      </trkpt>
      <trkpt lat="47.019753" lon="14.728345">
        <ele>794.00</ele>
        <time>2012-10-24T12:17:43Z</time>
      </trkpt>
      <trkpt lat="47.019707" lon="14.728366">
        <ele>794.00</ele>
        <time>2012-10-24T12:17:44Z</time>
      </trkpt>
      <trkpt lat="47.019665" lon="14.728381">
        <ele>793.00</ele>
        <time>2012-10-24T12:17:45Z</time>
      </trkpt>
      <trkpt lat="47.019485" lon="14.728466">
        <ele>792.00</ele>
        <time>2012-10-24T12:17:49Z</time>
      </trkpt>
      <trkpt lat="47.019451" lon="14.728486">
        <ele>792.00</ele>
        <time>2012-10-24T12:17:52Z</time>
      </trkpt>
      <trkpt lat="47.019417" lon="14.728504">
        <ele>792.00</ele>
        <time>2012-10-24T12:17:53Z</time>
      </trkpt>
      <trkpt lat="47.019379" lon="14.728525">
        <ele>792.00</ele>
        <time>2012-10-24T12:17:54Z</time>
      </trkpt>
      <trkpt lat="47.019341" lon="14.728547">
        <ele>791.00</ele>
        <time>2012-10-24T12:17:55Z</time>
      </trkpt>
      <trkpt lat="47.019218" lon="14.728635">
        <ele>791.00</ele>
        <time>2012-10-24T12:17:58Z</time>
      </trkpt>
      <trkpt lat="47.019169" lon="14.728661">
        <ele>791.00</ele>
        <time>2012-10-24T12:17:59Z</time>
      </trkpt>
      <trkpt lat="47.019020" lon="14.728718">
        <ele>791.00</ele>
        <time>2012-10-24T12:18:02Z</time>
      </trkpt>
      <trkpt lat="47.018875" lon="14.728674">
        <ele>791.00</ele>
        <time>2012-10-24T12:18:05Z</time>
      </trkpt>
      <trkpt lat="47.018776" lon="14.728504">
        <ele>791.00</ele>
        <time>2012-10-24T12:18:08Z</time>
      </trkpt>
      <trkpt lat="47.018738" lon="14.728458">
        <ele>790.00</ele>
        <time>2012-10-24T12:18:09Z</time>
      </trkpt>
      <trkpt lat="47.018696" lon="14.728428">
        <ele>790.00</ele>
        <time>2012-10-24T12:18:10Z</time>
      </trkpt>
      <trkpt lat="47.018654" lon="14.728420">
        <ele>790.00</ele>
        <time>2012-10-24T12:18:11Z</time>
      </trkpt>
      <trkpt lat="47.018623" lon="14.728415">
        <ele>789.00</ele>
        <time>2012-10-24T12:18:12Z</time>
      </trkpt>
      <trkpt lat="47.018597" lon="14.728414">
        <ele>789.00</ele>
        <time>2012-10-24T12:18:13Z</time>
      </trkpt>
      <trkpt lat="47.018543" lon="14.728427">
        <ele>789.00</ele>
        <time>2012-10-24T12:18:15Z</time>
      </trkpt>
      <trkpt lat="47.018513" lon="14.728443">
        <ele>788.00</ele>
        <time>2012-10-24T12:18:17Z</time>
      </trkpt>
      <trkpt lat="47.018497" lon="14.728454">
        <ele>788.00</ele>
        <time>2012-10-24T12:18:18Z</time>
      </trkpt>
      <trkpt lat="47.018486" lon="14.728463">
        <ele>788.00</ele>
        <time>2012-10-24T12:18:19Z</time>
      </trkpt>
      <trkpt lat="47.018475" lon="14.728476">
        <ele>788.00</ele>
        <time>2012-10-24T12:18:20Z</time>
      </trkpt>
      <trkpt lat="47.018459" lon="14.728485">
        <ele>787.00</ele>
        <time>2012-10-24T12:18:21Z</time>
      </trkpt>
      <trkpt lat="47.018417" lon="14.728523">
        <ele>787.00</ele>
        <time>2012-10-24T12:18:24Z</time>
      </trkpt>
      <trkpt lat="47.018311" lon="14.728627">
        <ele>787.00</ele>
        <time>2012-10-24T12:18:28Z</time>
      </trkpt>
      <trkpt lat="47.018177" lon="14.728720">
        <ele>787.00</ele>
        <time>2012-10-24T12:18:32Z</time>
      </trkpt>
      <trkpt lat="47.018093" lon="14.728784">
        <ele>787.00</ele>
        <time>2012-10-24T12:18:34Z</time>
      </trkpt>
      <trkpt lat="47.018013" lon="14.728860">
        <ele>787.00</ele>
        <time>2012-10-24T12:18:36Z</time>
      </trkpt>
      <trkpt lat="47.017826" lon="14.729078">
        <ele>787.00</ele>
        <time>2012-10-24T12:18:41Z</time>
      </trkpt>
      <trkpt lat="47.017719" lon="14.729318">
        <ele>787.00</ele>
        <time>2012-10-24T12:18:45Z</time>
      </trkpt>
      <trkpt lat="47.017700" lon="14.729383">
        <ele>787.00</ele>
        <time>2012-10-24T12:18:46Z</time>
      </trkpt>
      <trkpt lat="47.017635" lon="14.729568">
        <ele>786.00</ele>
        <time>2012-10-24T12:18:49Z</time>
      </trkpt>
      <trkpt lat="47.017601" lon="14.729618">
        <ele>786.00</ele>
        <time>2012-10-24T12:18:50Z</time>
      </trkpt>
      <trkpt lat="47.017551" lon="14.729644">
        <ele>786.00</ele>
        <time>2012-10-24T12:18:51Z</time>
      </trkpt>
      <trkpt lat="47.017490" lon="14.729640">
        <ele>785.00</ele>
        <time>2012-10-24T12:18:52Z</time>
      </trkpt>
      <trkpt lat="47.017437" lon="14.729631">
        <ele>785.00</ele>
        <time>2012-10-24T12:18:53Z</time>
      </trkpt>
      <trkpt lat="47.017384" lon="14.729632">
        <ele>785.00</ele>
        <time>2012-10-24T12:18:54Z</time>
      </trkpt>
      <trkpt lat="47.017250" lon="14.729756">
        <ele>785.00</ele>
        <time>2012-10-24T12:18:57Z</time>
      </trkpt>
      <trkpt lat="47.017212" lon="14.729816">
        <ele>785.00</ele>
        <time>2012-10-24T12:18:58Z</time>
      </trkpt>
      <trkpt lat="47.017006" lon="14.730157">
        <ele>784.00</ele>
        <time>2012-10-24T12:19:03Z</time>
      </trkpt>
      <trkpt lat="47.016918" lon="14.730294">
        <ele>784.00</ele>
        <time>2012-10-24T12:19:05Z</time>
      </trkpt>
      <trkpt lat="47.016876" lon="14.730364">
        <ele>784.00</ele>
        <time>2012-10-24T12:19:06Z</time>
      </trkpt>
      <trkpt lat="47.016830" lon="14.730431">
        <ele>783.00</ele>
        <time>2012-10-24T12:19:07Z</time>
      </trkpt>
      <trkpt lat="47.016792" lon="14.730496">
        <ele>783.00</ele>
        <time>2012-10-24T12:19:08Z</time>
      </trkpt>
      <trkpt lat="47.016758" lon="14.730551">
        <ele>783.00</ele>
        <time>2012-10-24T12:19:09Z</time>
      </trkpt>
      <trkpt lat="47.016708" lon="14.730580">
        <ele>783.00</ele>
        <time>2012-10-24T12:19:10Z</time>
      </trkpt>
      <trkpt lat="47.016602" lon="14.730541">
        <ele>782.00</ele>
        <time>2012-10-24T12:19:12Z</time>
      </trkpt>
      <trkpt lat="47.016380" lon="14.730454">
        <ele>782.00</ele>
        <time>2012-10-24T12:19:16Z</time>
      </trkpt>
      <trkpt lat="47.016327" lon="14.730432">
        <ele>781.00</ele>
        <time>2012-10-24T12:19:17Z</time>
      </trkpt>
      <trkpt lat="47.016274" lon="14.730417">
        <ele>781.00</ele>
        <time>2012-10-24T12:19:18Z</time>
      </trkpt>
      <trkpt lat="47.016220" lon="14.730425">
        <ele>781.00</ele>
        <time>2012-10-24T12:19:19Z</time>
      </trkpt>
      <trkpt lat="47.016094" lon="14.730584">
        <ele>780.00</ele>
        <time>2012-10-24T12:19:22Z</time>
      </trkpt>
      <trkpt lat="47.016048" lon="14.730649">
        <ele>779.00</ele>
        <time>2012-10-24T12:19:23Z</time>
      </trkpt>
      <trkpt lat="47.016006" lon="14.730707">
        <ele>779.00</ele>
        <time>2012-10-24T12:19:24Z</time>
      </trkpt>
      <trkpt lat="47.015961" lon="14.730764">
        <ele>779.00</ele>
        <time>2012-10-24T12:19:25Z</time>
      </trkpt>
      <trkpt lat="47.015903" lon="14.730806">
        <ele>779.00</ele>
        <time>2012-10-24T12:19:26Z</time>
      </trkpt>
      <trkpt lat="47.015842" lon="14.730825">
        <ele>778.00</ele>
        <time>2012-10-24T12:19:27Z</time>
      </trkpt>
      <trkpt lat="47.015656" lon="14.730845">
        <ele>778.00</ele>
        <time>2012-10-24T12:19:30Z</time>
      </trkpt>
      <trkpt lat="47.015537" lon="14.730860">
        <ele>778.00</ele>
        <time>2012-10-24T12:19:32Z</time>
      </trkpt>
      <trkpt lat="47.015217" lon="14.730907">
        <ele>778.00</ele>
        <time>2012-10-24T12:19:37Z</time>
      </trkpt>
      <trkpt lat="47.015148" lon="14.730920">
        <ele>777.00</ele>
        <time>2012-10-24T12:19:38Z</time>
      </trkpt>
      <trkpt lat="47.015083" lon="14.730927">
        <ele>777.00</ele>
        <time>2012-10-24T12:19:39Z</time>
      </trkpt>
      <trkpt lat="47.015022" lon="14.730936">
        <ele>777.00</ele>
        <time>2012-10-24T12:19:40Z</time>
      </trkpt>
      <trkpt lat="47.014969" lon="14.730947">
        <ele>777.00</ele>
        <time>2012-10-24T12:19:41Z</time>
      </trkpt>
      <trkpt lat="47.014923" lon="14.730969">
        <ele>776.00</ele>
        <time>2012-10-24T12:19:42Z</time>
      </trkpt>
      <trkpt lat="47.014885" lon="14.731010">
        <ele>776.00</ele>
        <time>2012-10-24T12:19:43Z</time>
      </trkpt>
      <trkpt lat="47.014862" lon="14.731226">
        <ele>776.00</ele>
        <time>2012-10-24T12:19:46Z</time>
      </trkpt>
      <trkpt lat="47.014915" lon="14.731487">
        <ele>776.00</ele>
        <time>2012-10-24T12:19:50Z</time>
      </trkpt>
      <trkpt lat="47.014912" lon="14.731559">
        <ele>776.00</ele>
        <time>2012-10-24T12:19:52Z</time>
      </trkpt>
      <trkpt lat="47.014893" lon="14.731584">
        <ele>775.00</ele>
        <time>2012-10-24T12:19:53Z</time>
      </trkpt>
      <trkpt lat="47.014866" lon="14.731595">
        <ele>775.00</ele>
        <time>2012-10-24T12:19:54Z</time>
      </trkpt>
      <trkpt lat="47.014839" lon="14.731609">
        <ele>775.00</ele>
        <time>2012-10-24T12:19:55Z</time>
      </trkpt>
      <trkpt lat="47.014820" lon="14.731630">
        <ele>775.00</ele>
        <time>2012-10-24T12:19:56Z</time>
      </trkpt>
      <trkpt lat="47.014812" lon="14.731672">
        <ele>774.00</ele>
        <time>2012-10-24T12:19:57Z</time>
      </trkpt>
      <trkpt lat="47.014870" lon="14.731812">
        <ele>774.00</ele>
        <time>2012-10-24T12:20:00Z</time>
      </trkpt>
      <trkpt lat="47.014889" lon="14.731877">
        <ele>774.00</ele>
        <time>2012-10-24T12:20:01Z</time>
      </trkpt>
      <trkpt lat="47.014927" lon="14.732022">
        <ele>774.00</ele>
        <time>2012-10-24T12:20:03Z</time>
      </trkpt>
      <trkpt lat="47.014931" lon="14.732099">
        <ele>774.00</ele>
        <time>2012-10-24T12:20:04Z</time>
      </trkpt>
      <trkpt lat="47.014843" lon="14.732280">
        <ele>774.00</ele>
        <time>2012-10-24T12:20:07Z</time>
      </trkpt>
      <trkpt lat="47.014713" lon="14.732417">
        <ele>774.00</ele>
        <time>2012-10-24T12:20:10Z</time>
      </trkpt>
      <trkpt lat="47.014629" lon="14.732512">
        <ele>774.00</ele>
        <time>2012-10-24T12:20:12Z</time>
      </trkpt>
      <trkpt lat="47.014488" lon="14.732727">
        <ele>774.00</ele>
        <time>2012-10-24T12:20:16Z</time>
      </trkpt>
      <trkpt lat="47.014252" lon="14.733149">
        <ele>773.00</ele>
        <time>2012-10-24T12:20:23Z</time>
      </trkpt>
      <trkpt lat="47.014214" lon="14.733201">
        <ele>773.00</ele>
        <time>2012-10-24T12:20:24Z</time>
      </trkpt>
      <trkpt lat="47.014179" lon="14.733258">
        <ele>773.00</ele>
        <time>2012-10-24T12:20:25Z</time>
      </trkpt>
      <trkpt lat="47.014149" lon="14.733315">
        <ele>772.00</ele>
        <time>2012-10-24T12:20:26Z</time>
      </trkpt>
      <trkpt lat="47.014118" lon="14.733383">
        <ele>772.00</ele>
        <time>2012-10-24T12:20:27Z</time>
      </trkpt>
      <trkpt lat="47.014050" lon="14.733531">
        <ele>772.00</ele>
        <time>2012-10-24T12:20:29Z</time>
      </trkpt>
      <trkpt lat="47.013889" lon="14.733797">
        <ele>772.00</ele>
        <time>2012-10-24T12:20:34Z</time>
      </trkpt>
      <trkpt lat="47.013878" lon="14.733797">
        <ele>772.00</ele>
        <time>2012-10-24T12:20:35Z</time>
      </trkpt>
      <trkpt lat="47.013866" lon="14.733806">
        <ele>771.00</ele>
        <time>2012-10-24T12:20:36Z</time>
      </trkpt>
      <trkpt lat="47.013855" lon="14.733816">
        <ele>771.00</ele>
        <time>2012-10-24T12:20:37Z</time>
      </trkpt>
      <trkpt lat="47.013844" lon="14.733837">
        <ele>771.00</ele>
        <time>2012-10-24T12:20:38Z</time>
      </trkpt>
      <trkpt lat="47.013828" lon="14.733853">
        <ele>771.00</ele>
        <time>2012-10-24T12:20:39Z</time>
      </trkpt>
      <trkpt lat="47.013805" lon="14.733876">
        <ele>770.00</ele>
        <time>2012-10-24T12:20:40Z</time>
      </trkpt>
      <trkpt lat="47.013763" lon="14.733933">
        <ele>770.00</ele>
        <time>2012-10-24T12:20:42Z</time>
      </trkpt>
      <trkpt lat="47.013653" lon="14.734116">
        <ele>770.00</ele>
        <time>2012-10-24T12:20:46Z</time>
      </trkpt>
      <trkpt lat="47.013409" lon="14.734475">
        <ele>770.00</ele>
        <time>2012-10-24T12:20:53Z</time>
      </trkpt>
      <trkpt lat="47.013161" lon="14.734898">
        <ele>769.00</ele>
        <time>2012-10-24T12:21:00Z</time>
      </trkpt>
      <trkpt lat="47.013027" lon="14.735162">
        <ele>769.00</ele>
        <time>2012-10-24T12:21:04Z</time>
      </trkpt>
      <trkpt lat="47.012997" lon="14.735234">
        <ele>769.00</ele>
        <time>2012-10-24T12:21:05Z</time>
      </trkpt>
      <trkpt lat="47.012966" lon="14.735304">
        <ele>769.00</ele>
        <time>2012-10-24T12:21:06Z</time>
      </trkpt>
      <trkpt lat="47.012939" lon="14.735376">
        <ele>768.00</ele>
        <time>2012-10-24T12:21:07Z</time>
      </trkpt>
      <trkpt lat="47.012917" lon="14.735450">
        <ele>768.00</ele>
        <time>2012-10-24T12:21:08Z</time>
      </trkpt>
      <trkpt lat="47.012802" lon="14.735912">
        <ele>768.00</ele>
        <time>2012-10-24T12:21:14Z</time>
      </trkpt>
      <trkpt lat="47.012734" lon="14.736299">
        <ele>767.00</ele>
        <time>2012-10-24T12:21:19Z</time>
      </trkpt>
      <trkpt lat="47.012722" lon="14.736376">
        <ele>767.00</ele>
        <time>2012-10-24T12:21:20Z</time>
      </trkpt>
      <trkpt lat="47.012711" lon="14.736452">
        <ele>767.00</ele>
        <time>2012-10-24T12:21:21Z</time>
      </trkpt>
      <trkpt lat="47.012699" lon="14.736526">
        <ele>767.00</ele>
        <time>2012-10-24T12:21:22Z</time>
      </trkpt>
      <trkpt lat="47.012646" lon="14.736984">
        <ele>766.00</ele>
        <time>2012-10-24T12:21:28Z</time>
      </trkpt>
      <trkpt lat="47.012669" lon="14.737358">
        <ele>766.00</ele>
        <time>2012-10-24T12:21:33Z</time>
      </trkpt>
      <trkpt lat="47.012676" lon="14.737797">
        <ele>766.00</ele>
        <time>2012-10-24T12:21:39Z</time>
      </trkpt>
      <trkpt lat="47.012669" lon="14.737869">
        <ele>766.00</ele>
        <time>2012-10-24T12:21:40Z</time>
      </trkpt>
      <trkpt lat="47.012657" lon="14.737942">
        <ele>765.00</ele>
        <time>2012-10-24T12:21:41Z</time>
      </trkpt>
      <trkpt lat="47.012642" lon="14.738009">
        <ele>765.00</ele>
        <time>2012-10-24T12:21:42Z</time>
      </trkpt>
      <trkpt lat="47.012623" lon="14.738074">
        <ele>765.00</ele>
        <time>2012-10-24T12:21:43Z</time>
      </trkpt>
      <trkpt lat="47.012600" lon="14.738139">
        <ele>765.00</ele>
        <time>2012-10-24T12:21:44Z</time>
      </trkpt>
      <trkpt lat="47.012573" lon="14.738200">
        <ele>764.00</ele>
        <time>2012-10-24T12:21:45Z</time>
      </trkpt>
      <trkpt lat="47.012539" lon="14.738251">
        <ele>764.00</ele>
        <time>2012-10-24T12:21:46Z</time>
      </trkpt>
      <trkpt lat="47.012508" lon="14.738300">
        <ele>764.00</ele>
        <time>2012-10-24T12:21:47Z</time>
      </trkpt>
      <trkpt lat="47.012478" lon="14.738346">
        <ele>764.00</ele>
        <time>2012-10-24T12:21:48Z</time>
      </trkpt>
      <trkpt lat="47.012379" lon="14.738468">
        <ele>763.00</ele>
        <time>2012-10-24T12:21:51Z</time>
      </trkpt>
      <trkpt lat="47.012344" lon="14.738502">
        <ele>763.00</ele>
        <time>2012-10-24T12:21:52Z</time>
      </trkpt>
      <trkpt lat="47.012188" lon="14.738727">
        <ele>763.00</ele>
        <time>2012-10-24T12:21:58Z</time>
      </trkpt>
      <trkpt lat="47.012085" lon="14.738822">
        <ele>763.00</ele>
        <time>2012-10-24T12:22:01Z</time>
      </trkpt>
      <trkpt lat="47.012039" lon="14.738818">
        <ele>763.00</ele>
        <time>2012-10-24T12:22:02Z</time>
      </trkpt>
      <trkpt lat="47.011997" lon="14.738803">
        <ele>763.00</ele>
        <time>2012-10-24T12:22:03Z</time>
      </trkpt>
      <trkpt lat="47.011959" lon="14.738782">
        <ele>763.00</ele>
        <time>2012-10-24T12:22:04Z</time>
      </trkpt>
      <trkpt lat="47.011917" lon="14.738766">
        <ele>762.00</ele>
        <time>2012-10-24T12:22:05Z</time>
      </trkpt>
      <trkpt lat="47.011875" lon="14.738751">
        <ele>762.00</ele>
        <time>2012-10-24T12:22:06Z</time>
      </trkpt>
      <trkpt lat="47.011829" lon="14.738741">
        <ele>762.00</ele>
        <time>2012-10-24T12:22:07Z</time>
      </trkpt>
      <trkpt lat="47.011639" lon="14.738682">
        <ele>761.00</ele>
        <time>2012-10-24T12:22:11Z</time>
      </trkpt>
      <trkpt lat="47.011547" lon="14.738650">
        <ele>761.00</ele>
        <time>2012-10-24T12:22:13Z</time>
      </trkpt>
      <trkpt lat="47.011215" lon="14.738462">
        <ele>761.00</ele>
        <time>2012-10-24T12:22:20Z</time>
      </trkpt>
      <trkpt lat="47.010944" lon="14.738296">
        <ele>761.00</ele>
        <time>2012-10-24T12:22:26Z</time>
      </trkpt>
      <trkpt lat="47.010899" lon="14.738290">
        <ele>761.00</ele>
        <time>2012-10-24T12:22:27Z</time>
      </trkpt>
      <trkpt lat="47.010849" lon="14.738288">
        <ele>761.00</ele>
        <time>2012-10-24T12:22:28Z</time>
      </trkpt>
      <trkpt lat="47.010704" lon="14.738340">
        <ele>761.00</ele>
        <time>2012-10-24T12:22:31Z</time>
      </trkpt>
      <trkpt lat="47.010658" lon="14.738365">
        <ele>761.00</ele>
        <time>2012-10-24T12:22:32Z</time>
      </trkpt>
      <trkpt lat="47.010616" lon="14.738399">
        <ele>761.00</ele>
        <time>2012-10-24T12:22:33Z</time>
      </trkpt>
      <trkpt lat="47.010487" lon="14.738521">
        <ele>761.00</ele>
        <time>2012-10-24T12:22:36Z</time>
      </trkpt>
      <trkpt lat="47.010452" lon="14.738567">
        <ele>761.00</ele>
        <time>2012-10-24T12:22:37Z</time>
      </trkpt>
      <trkpt lat="47.010197" lon="14.738768">
        <ele>761.00</ele>
        <time>2012-10-24T12:22:43Z</time>
      </trkpt>
      <trkpt lat="47.010155" lon="14.738794">
        <ele>761.00</ele>
        <time>2012-10-24T12:22:44Z</time>
      </trkpt>
      <trkpt lat="47.009739" lon="14.739062">
        <ele>761.00</ele>
        <time>2012-10-24T12:22:53Z</time>
      </trkpt>
      <trkpt lat="47.009552" lon="14.739250">
        <ele>761.00</ele>
        <time>2012-10-24T12:22:57Z</time>
      </trkpt>
      <trkpt lat="47.009449" lon="14.739356">
        <ele>761.00</ele>
        <time>2012-10-24T12:22:59Z</time>
      </trkpt>
      <trkpt lat="47.009148" lon="14.739698">
        <ele>760.00</ele>
        <time>2012-10-24T12:23:06Z</time>
      </trkpt>
      <trkpt lat="47.009106" lon="14.739738">
        <ele>760.00</ele>
        <time>2012-10-24T12:23:07Z</time>
      </trkpt>
      <trkpt lat="47.009060" lon="14.739771">
        <ele>760.00</ele>
        <time>2012-10-24T12:23:08Z</time>
      </trkpt>
      <trkpt lat="47.009014" lon="14.739802">
        <ele>760.00</ele>
        <time>2012-10-24T12:23:09Z</time>
      </trkpt>
      <trkpt lat="47.008972" lon="14.739834">
        <ele>759.00</ele>
        <time>2012-10-24T12:23:10Z</time>
      </trkpt>
      <trkpt lat="47.008926" lon="14.739855">
        <ele>759.00</ele>
        <time>2012-10-24T12:23:11Z</time>
      </trkpt>
      <trkpt lat="47.008839" lon="14.739901">
        <ele>759.00</ele>
        <time>2012-10-24T12:23:13Z</time>
      </trkpt>
      <trkpt lat="47.008698" lon="14.739987">
        <ele>759.00</ele>
        <time>2012-10-24T12:23:16Z</time>
      </trkpt>
      <trkpt lat="47.008598" lon="14.740031">
        <ele>759.00</ele>
        <time>2012-10-24T12:23:18Z</time>
      </trkpt>
      <trkpt lat="47.008388" lon="14.740090">
        <ele>759.00</ele>
        <time>2012-10-24T12:23:22Z</time>
      </trkpt>
      <trkpt lat="47.008232" lon="14.740112">
        <ele>759.00</ele>
        <time>2012-10-24T12:23:25Z</time>
      </trkpt>
      <trkpt lat="47.007996" lon="14.740174">
        <ele>758.00</ele>
        <time>2012-10-24T12:23:30Z</time>
      </trkpt>
      <trkpt lat="47.007950" lon="14.740191">
        <ele>758.00</ele>
        <time>2012-10-24T12:23:31Z</time>
      </trkpt>
      <trkpt lat="47.007904" lon="14.740210">
        <ele>758.00</ele>
        <time>2012-10-24T12:23:32Z</time>
      </trkpt>
      <trkpt lat="47.007854" lon="14.740228">
        <ele>758.00</ele>
        <time>2012-10-24T12:23:33Z</time>
      </trkpt>
      <trkpt lat="47.007809" lon="14.740241">
        <ele>758.00</ele>
        <time>2012-10-24T12:23:34Z</time>
      </trkpt>
      <trkpt lat="47.007656" lon="14.740273">
        <ele>757.00</ele>
        <time>2012-10-24T12:23:38Z</time>
      </trkpt>
      <trkpt lat="47.007599" lon="14.740282">
        <ele>757.00</ele>
        <time>2012-10-24T12:23:40Z</time>
      </trkpt>
      <trkpt lat="47.007511" lon="14.740418">
        <ele>757.00</ele>
        <time>2012-10-24T12:23:44Z</time>
      </trkpt>
      <trkpt lat="47.007511" lon="14.740674">
        <ele>757.00</ele>
        <time>2012-10-24T12:23:48Z</time>
      </trkpt>
      <trkpt lat="47.007507" lon="14.740865">
        <ele>757.00</ele>
        <time>2012-10-24T12:23:51Z</time>
      </trkpt>
      <trkpt lat="47.007488" lon="14.740922">
        <ele>756.00</ele>
        <time>2012-10-24T12:23:52Z</time>
      </trkpt>
      <trkpt lat="47.007465" lon="14.740972">
        <ele>756.00</ele>
        <time>2012-10-24T12:23:53Z</time>
      </trkpt>
      <trkpt lat="47.007420" lon="14.740997">
        <ele>756.00</ele>
        <time>2012-10-24T12:23:54Z</time>
      </trkpt>
      <trkpt lat="47.007385" lon="14.741013">
        <ele>756.00</ele>
        <time>2012-10-24T12:23:55Z</time>
      </trkpt>
      <trkpt lat="47.007343" lon="14.741027">
        <ele>755.00</ele>
        <time>2012-10-24T12:23:56Z</time>
      </trkpt>
      <trkpt lat="47.007252" lon="14.741062">
        <ele>755.00</ele>
        <time>2012-10-24T12:23:58Z</time>
      </trkpt>
      <trkpt lat="47.007206" lon="14.741086">
        <ele>755.00</ele>
        <time>2012-10-24T12:23:59Z</time>
      </trkpt>
      <trkpt lat="47.007076" lon="14.741180">
        <ele>755.00</ele>
        <time>2012-10-24T12:24:02Z</time>
      </trkpt>
      <trkpt lat="47.006958" lon="14.741293">
        <ele>755.00</ele>
        <time>2012-10-24T12:24:05Z</time>
      </trkpt>
      <trkpt lat="47.006920" lon="14.741339">
        <ele>755.00</ele>
        <time>2012-10-24T12:24:06Z</time>
      </trkpt>
      <trkpt lat="47.006851" lon="14.741533">
        <ele>755.00</ele>
        <time>2012-10-24T12:24:09Z</time>
      </trkpt>
      <trkpt lat="47.006844" lon="14.741606">
        <ele>754.00</ele>
        <time>2012-10-24T12:24:10Z</time>
      </trkpt>
      <trkpt lat="47.006840" lon="14.741680">
        <ele>754.00</ele>
        <time>2012-10-24T12:24:11Z</time>
      </trkpt>
      <trkpt lat="47.006840" lon="14.741752">
        <ele>753.00</ele>
        <time>2012-10-24T12:24:12Z</time>
      </trkpt>
      <trkpt lat="47.006847" lon="14.741817">
        <ele>753.00</ele>
        <time>2012-10-24T12:24:13Z</time>
      </trkpt>
      <trkpt lat="47.006851" lon="14.741884">
        <ele>753.00</ele>
        <time>2012-10-24T12:24:14Z</time>
      </trkpt>
      <trkpt lat="47.006874" lon="14.742114">
        <ele>753.00</ele>
        <time>2012-10-24T12:24:17Z</time>
      </trkpt>
      <trkpt lat="47.006905" lon="14.742271">
        <ele>753.00</ele>
        <time>2012-10-24T12:24:19Z</time>
      </trkpt>
      <trkpt lat="47.006954" lon="14.742426">
        <ele>753.00</ele>
        <time>2012-10-24T12:24:21Z</time>
      </trkpt>
      <trkpt lat="47.007084" lon="14.742737">
        <ele>753.00</ele>
        <time>2012-10-24T12:24:25Z</time>
      </trkpt>
      <trkpt lat="47.007172" lon="14.742948">
        <ele>752.00</ele>
        <time>2012-10-24T12:24:28Z</time>
      </trkpt>
      <trkpt lat="47.007183" lon="14.743027">
        <ele>752.00</ele>
        <time>2012-10-24T12:24:29Z</time>
      </trkpt>
      <trkpt lat="47.007198" lon="14.743106">
        <ele>752.00</ele>
        <time>2012-10-24T12:24:30Z</time>
      </trkpt>
      <trkpt lat="47.007206" lon="14.743184">
        <ele>752.00</ele>
        <time>2012-10-24T12:24:31Z</time>
      </trkpt>
      <trkpt lat="47.007214" lon="14.743272">
        <ele>751.00</ele>
        <time>2012-10-24T12:24:32Z</time>
      </trkpt>
      <trkpt lat="47.007275" lon="14.743603">
        <ele>751.00</ele>
        <time>2012-10-24T12:24:36Z</time>
      </trkpt>
      <trkpt lat="47.007347" lon="14.743846">
        <ele>750.00</ele>
        <time>2012-10-24T12:24:39Z</time>
      </trkpt>
      <trkpt lat="47.007351" lon="14.743935">
        <ele>750.00</ele>
        <time>2012-10-24T12:24:40Z</time>
      </trkpt>
      <trkpt lat="47.007355" lon="14.744024">
        <ele>749.00</ele>
        <time>2012-10-24T12:24:41Z</time>
      </trkpt>
      <trkpt lat="47.007355" lon="14.744111">
        <ele>749.00</ele>
        <time>2012-10-24T12:24:42Z</time>
      </trkpt>
      <trkpt lat="47.007351" lon="14.744585">
        <ele>749.00</ele>
        <time>2012-10-24T12:24:47Z</time>
      </trkpt>
      <trkpt lat="47.007343" lon="14.744681">
        <ele>749.00</ele>
        <time>2012-10-24T12:24:48Z</time>
      </trkpt>
      <trkpt lat="47.007328" lon="14.744878">
        <ele>748.00</ele>
        <time>2012-10-24T12:24:50Z</time>
      </trkpt>
      <trkpt lat="47.007320" lon="14.744980">
        <ele>748.00</ele>
        <time>2012-10-24T12:24:51Z</time>
      </trkpt>
      <trkpt lat="47.007309" lon="14.745087">
        <ele>748.00</ele>
        <time>2012-10-24T12:24:52Z</time>
      </trkpt>
      <trkpt lat="47.007298" lon="14.745183">
        <ele>747.00</ele>
        <time>2012-10-24T12:24:53Z</time>
      </trkpt>
      <trkpt lat="47.007282" lon="14.745282">
        <ele>747.00</ele>
        <time>2012-10-24T12:24:54Z</time>
      </trkpt>
      <trkpt lat="47.007275" lon="14.745380">
        <ele>747.00</ele>
        <time>2012-10-24T12:24:55Z</time>
      </trkpt>
      <trkpt lat="47.007252" lon="14.745775">
        <ele>747.00</ele>
        <time>2012-10-24T12:24:59Z</time>
      </trkpt>
      <trkpt lat="47.007236" lon="14.745873">
        <ele>746.00</ele>
        <time>2012-10-24T12:25:00Z</time>
      </trkpt>
      <trkpt lat="47.007175" lon="14.746255">
        <ele>746.00</ele>
        <time>2012-10-24T12:25:04Z</time>
      </trkpt>
      <trkpt lat="47.007160" lon="14.746354">
        <ele>745.00</ele>
        <time>2012-10-24T12:25:05Z</time>
      </trkpt>
      <trkpt lat="47.007145" lon="14.746449">
        <ele>745.00</ele>
        <time>2012-10-24T12:25:06Z</time>
      </trkpt>
      <trkpt lat="47.007130" lon="14.746543">
        <ele>745.00</ele>
        <time>2012-10-24T12:25:07Z</time>
      </trkpt>
      <trkpt lat="47.007111" lon="14.746634">
        <ele>744.00</ele>
        <time>2012-10-24T12:25:08Z</time>
      </trkpt>
      <trkpt lat="47.007046" lon="14.746804">
        <ele>744.00</ele>
        <time>2012-10-24T12:25:10Z</time>
      </trkpt>
      <trkpt lat="47.006905" lon="14.746997">
        <ele>744.00</ele>
        <time>2012-10-24T12:25:13Z</time>
      </trkpt>
      <trkpt lat="47.006851" lon="14.747057">
        <ele>744.00</ele>
        <time>2012-10-24T12:25:14Z</time>
      </trkpt>
      <trkpt lat="47.006802" lon="14.747114">
        <ele>743.00</ele>
        <time>2012-10-24T12:25:15Z</time>
      </trkpt>
      <trkpt lat="47.006752" lon="14.747173">
        <ele>743.00</ele>
        <time>2012-10-24T12:25:16Z</time>
      </trkpt>
      <trkpt lat="47.006706" lon="14.747230">
        <ele>743.00</ele>
        <time>2012-10-24T12:25:17Z</time>
      </trkpt>
      <trkpt lat="47.006657" lon="14.747290">
        <ele>743.00</ele>
        <time>2012-10-24T12:25:18Z</time>
      </trkpt>
      <trkpt lat="47.006477" lon="14.747513">
        <ele>742.00</ele>
        <time>2012-10-24T12:25:22Z</time>
      </trkpt>
      <trkpt lat="47.006107" lon="14.747966">
        <ele>742.00</ele>
        <time>2012-10-24T12:25:30Z</time>
      </trkpt>
      <trkpt lat="47.005787" lon="14.748361">
        <ele>741.00</ele>
        <time>2012-10-24T12:25:37Z</time>
      </trkpt>
      <trkpt lat="47.005745" lon="14.748414">
        <ele>741.00</ele>
        <time>2012-10-24T12:25:38Z</time>
      </trkpt>
      <trkpt lat="47.005695" lon="14.748466">
        <ele>741.00</ele>
        <time>2012-10-24T12:25:39Z</time>
      </trkpt>
      <trkpt lat="47.005653" lon="14.748520">
        <ele>741.00</ele>
        <time>2012-10-24T12:25:40Z</time>
      </trkpt>
      <trkpt lat="47.005608" lon="14.748576">
        <ele>740.00</ele>
        <time>2012-10-24T12:25:41Z</time>
      </trkpt>
      <trkpt lat="47.005276" lon="14.748936">
        <ele>739.00</ele>
        <time>2012-10-24T12:25:48Z</time>
      </trkpt>
      <trkpt lat="47.005226" lon="14.748988">
        <ele>739.00</ele>
        <time>2012-10-24T12:25:49Z</time>
      </trkpt>
      <trkpt lat="47.005180" lon="14.749040">
        <ele>739.00</ele>
        <time>2012-10-24T12:25:50Z</time>
      </trkpt>
      <trkpt lat="47.005131" lon="14.749092">
        <ele>739.00</ele>
        <time>2012-10-24T12:25:51Z</time>
      </trkpt>
      <trkpt lat="47.005081" lon="14.749145">
        <ele>739.00</ele>
        <time>2012-10-24T12:25:52Z</time>
      </trkpt>
      <trkpt lat="47.004723" lon="14.749521">
        <ele>738.00</ele>
        <time>2012-10-24T12:25:59Z</time>
      </trkpt>
      <trkpt lat="47.004627" lon="14.749627">
        <ele>737.00</ele>
        <time>2012-10-24T12:26:01Z</time>
      </trkpt>
      <trkpt lat="47.004578" lon="14.749681">
        <ele>737.00</ele>
        <time>2012-10-24T12:26:02Z</time>
      </trkpt>
      <trkpt lat="47.004524" lon="14.749736">
        <ele>737.00</ele>
        <time>2012-10-24T12:26:03Z</time>
      </trkpt>
      <trkpt lat="47.004475" lon="14.749788">
        <ele>737.00</ele>
        <time>2012-10-24T12:26:04Z</time>
      </trkpt>
      <trkpt lat="47.004421" lon="14.749842">
        <ele>736.00</ele>
        <time>2012-10-24T12:26:05Z</time>
      </trkpt>
      <trkpt lat="47.004272" lon="14.750003">
        <ele>736.00</ele>
        <time>2012-10-24T12:26:08Z</time>
      </trkpt>
      <trkpt lat="47.004219" lon="14.750057">
        <ele>736.00</ele>
        <time>2012-10-24T12:26:09Z</time>
      </trkpt>
      <trkpt lat="47.004047" lon="14.750196">
        <ele>736.00</ele>
        <time>2012-10-24T12:26:12Z</time>
      </trkpt>
      <trkpt lat="47.003944" lon="14.750308">
        <ele>736.00</ele>
        <time>2012-10-24T12:26:14Z</time>
      </trkpt>
      <trkpt lat="47.003700" lon="14.750588">
        <ele>736.00</ele>
        <time>2012-10-24T12:26:19Z</time>
      </trkpt>
      <trkpt lat="47.003654" lon="14.750639">
        <ele>736.00</ele>
        <time>2012-10-24T12:26:20Z</time>
      </trkpt>
      <trkpt lat="47.003513" lon="14.750797">
        <ele>735.00</ele>
        <time>2012-10-24T12:26:23Z</time>
      </trkpt>
      <trkpt lat="47.003468" lon="14.750854">
        <ele>735.00</ele>
        <time>2012-10-24T12:26:24Z</time>
      </trkpt>
      <trkpt lat="47.003418" lon="14.750910">
        <ele>735.00</ele>
        <time>2012-10-24T12:26:25Z</time>
      </trkpt>
      <trkpt lat="47.003368" lon="14.750965">
        <ele>734.00</ele>
        <time>2012-10-24T12:26:26Z</time>
      </trkpt>
      <trkpt lat="47.003323" lon="14.751019">
        <ele>734.00</ele>
        <time>2012-10-24T12:26:27Z</time>
      </trkpt>
      <trkpt lat="47.003277" lon="14.751074">
        <ele>734.00</ele>
        <time>2012-10-24T12:26:28Z</time>
      </trkpt>
      <trkpt lat="47.002876" lon="14.751566">
        <ele>734.00</ele>
        <time>2012-10-24T12:26:37Z</time>
      </trkpt>
      <trkpt lat="47.002701" lon="14.751785">
        <ele>733.00</ele>
        <time>2012-10-24T12:26:41Z</time>
      </trkpt>
      <trkpt lat="47.002655" lon="14.751840">
        <ele>733.00</ele>
        <time>2012-10-24T12:26:42Z</time>
      </trkpt>
      <trkpt lat="47.002617" lon="14.751890">
        <ele>732.00</ele>
        <time>2012-10-24T12:26:43Z</time>
      </trkpt>
      <trkpt lat="47.002579" lon="14.751941">
        <ele>732.00</ele>
        <time>2012-10-24T12:26:44Z</time>
      </trkpt>
      <trkpt lat="47.002537" lon="14.751987">
        <ele>732.00</ele>
        <time>2012-10-24T12:26:45Z</time>
      </trkpt>
      <trkpt lat="47.002289" lon="14.752240">
        <ele>732.00</ele>
        <time>2012-10-24T12:26:51Z</time>
      </trkpt>
      <trkpt lat="47.001972" lon="14.752560">
        <ele>731.00</ele>
        <time>2012-10-24T12:26:58Z</time>
      </trkpt>
      <trkpt lat="47.001926" lon="14.752604">
        <ele>731.00</ele>
        <time>2012-10-24T12:26:59Z</time>
      </trkpt>
      <trkpt lat="47.001873" lon="14.752639">
        <ele>730.00</ele>
        <time>2012-10-24T12:27:00Z</time>
      </trkpt>
      <trkpt lat="47.001823" lon="14.752674">
        <ele>730.00</ele>
        <time>2012-10-24T12:27:01Z</time>
      </trkpt>
      <trkpt lat="47.001778" lon="14.752716">
        <ele>730.00</ele>
        <time>2012-10-24T12:27:02Z</time>
      </trkpt>
      <trkpt lat="47.001732" lon="14.752758">
        <ele>730.00</ele>
        <time>2012-10-24T12:27:03Z</time>
      </trkpt>
      <trkpt lat="47.001301" lon="14.753121">
        <ele>729.00</ele>
        <time>2012-10-24T12:27:12Z</time>
      </trkpt>
      <trkpt lat="47.001026" lon="14.753350">
        <ele>729.00</ele>
        <time>2012-10-24T12:27:18Z</time>
      </trkpt>
      <trkpt lat="47.000980" lon="14.753394">
        <ele>729.00</ele>
        <time>2012-10-24T12:27:19Z</time>
      </trkpt>
      <trkpt lat="47.000935" lon="14.753440">
        <ele>729.00</ele>
        <time>2012-10-24T12:27:20Z</time>
      </trkpt>
      <trkpt lat="47.000889" lon="14.753484">
        <ele>728.00</ele>
        <time>2012-10-24T12:27:21Z</time>
      </trkpt>
      <trkpt lat="47.000847" lon="14.753530">
        <ele>728.00</ele>
        <time>2012-10-24T12:27:22Z</time>
      </trkpt>
      <trkpt lat="47.000805" lon="14.753576">
        <ele>728.00</ele>
        <time>2012-10-24T12:27:23Z</time>
      </trkpt>
      <trkpt lat="47.000671" lon="14.753715">
        <ele>728.00</ele>
        <time>2012-10-24T12:27:26Z</time>
      </trkpt>
      <trkpt lat="47.000359" lon="14.754081">
        <ele>727.00</ele>
        <time>2012-10-24T12:27:33Z</time>
      </trkpt>
      <trkpt lat="47.000011" lon="14.754513">
        <ele>727.00</ele>
        <time>2012-10-24T12:27:41Z</time>
      </trkpt>
      <trkpt lat="46.999969" lon="14.754563">
        <ele>727.00</ele>
        <time>2012-10-24T12:27:42Z</time>
      </trkpt>
      <trkpt lat="46.999924" lon="14.754619">
        <ele>727.00</ele>
        <time>2012-10-24T12:27:43Z</time>
      </trkpt>
      <trkpt lat="46.999882" lon="14.754673">
        <ele>726.00</ele>
        <time>2012-10-24T12:27:44Z</time>
      </trkpt>
      <trkpt lat="46.999836" lon="14.754726">
        <ele>726.00</ele>
        <time>2012-10-24T12:27:45Z</time>
      </trkpt>
      <trkpt lat="46.999794" lon="14.754778">
        <ele>726.00</ele>
        <time>2012-10-24T12:27:46Z</time>
      </trkpt>
      <trkpt lat="46.999668" lon="14.754946">
        <ele>725.00</ele>
        <time>2012-10-24T12:27:49Z</time>
      </trkpt>
      <trkpt lat="46.999371" lon="14.755318">
        <ele>724.00</ele>
        <time>2012-10-24T12:27:56Z</time>
      </trkpt>
      <trkpt lat="46.999332" lon="14.755368">
        <ele>724.00</ele>
        <time>2012-10-24T12:27:57Z</time>
      </trkpt>
      <trkpt lat="46.999290" lon="14.755424">
        <ele>724.00</ele>
        <time>2012-10-24T12:27:58Z</time>
      </trkpt>
      <trkpt lat="46.999252" lon="14.755481">
        <ele>724.00</ele>
        <time>2012-10-24T12:27:59Z</time>
      </trkpt>
      <trkpt lat="46.999218" lon="14.755537">
        <ele>724.00</ele>
        <time>2012-10-24T12:28:00Z</time>
      </trkpt>
      <trkpt lat="46.999092" lon="14.755696">
        <ele>723.00</ele>
        <time>2012-10-24T12:28:03Z</time>
      </trkpt>
      <trkpt lat="46.998966" lon="14.755854">
        <ele>723.00</ele>
        <time>2012-10-24T12:28:06Z</time>
      </trkpt>
      <trkpt lat="46.998791" lon="14.756068">
        <ele>723.00</ele>
        <time>2012-10-24T12:28:10Z</time>
      </trkpt>
      <trkpt lat="46.998444" lon="14.756515">
        <ele>723.00</ele>
        <time>2012-10-24T12:28:18Z</time>
      </trkpt>
      <trkpt lat="46.998356" lon="14.756626">
        <ele>722.00</ele>
        <time>2012-10-24T12:28:20Z</time>
      </trkpt>
      <trkpt lat="46.998310" lon="14.756679">
        <ele>722.00</ele>
        <time>2012-10-24T12:28:21Z</time>
      </trkpt>
      <trkpt lat="46.998268" lon="14.756737">
        <ele>722.00</ele>
        <time>2012-10-24T12:28:22Z</time>
      </trkpt>
      <trkpt lat="46.998222" lon="14.756794">
        <ele>722.00</ele>
        <time>2012-10-24T12:28:23Z</time>
      </trkpt>
      <trkpt lat="46.998093" lon="14.756962">
        <ele>721.00</ele>
        <time>2012-10-24T12:28:26Z</time>
      </trkpt>
      <trkpt lat="46.997776" lon="14.757356">
        <ele>721.00</ele>
        <time>2012-10-24T12:28:33Z</time>
      </trkpt>
      <trkpt lat="46.997593" lon="14.757597">
        <ele>720.00</ele>
        <time>2012-10-24T12:28:37Z</time>
      </trkpt>
      <trkpt lat="46.997543" lon="14.757657">
        <ele>720.00</ele>
        <time>2012-10-24T12:28:38Z</time>
      </trkpt>
      <trkpt lat="46.997498" lon="14.757715">
        <ele>720.00</ele>
        <time>2012-10-24T12:28:39Z</time>
      </trkpt>
      <trkpt lat="46.997448" lon="14.757773">
        <ele>719.00</ele>
        <time>2012-10-24T12:28:40Z</time>
      </trkpt>
      <trkpt lat="46.997402" lon="14.757833">
        <ele>719.00</ele>
        <time>2012-10-24T12:28:41Z</time>
      </trkpt>
      <trkpt lat="46.997356" lon="14.757892">
        <ele>719.00</ele>
        <time>2012-10-24T12:28:42Z</time>
      </trkpt>
      <trkpt lat="46.996944" lon="14.758417">
        <ele>718.00</ele>
        <time>2012-10-24T12:28:51Z</time>
      </trkpt>
      <trkpt lat="46.996899" lon="14.758471">
        <ele>718.00</ele>
        <time>2012-10-24T12:28:52Z</time>
      </trkpt>
      <trkpt lat="46.996731" lon="14.758672">
        <ele>718.00</ele>
        <time>2012-10-24T12:28:56Z</time>
      </trkpt>
      <trkpt lat="46.996685" lon="14.758723">
        <ele>718.00</ele>
        <time>2012-10-24T12:28:57Z</time>
      </trkpt>
      <trkpt lat="46.996639" lon="14.758776">
        <ele>717.00</ele>
        <time>2012-10-24T12:28:58Z</time>
      </trkpt>
      <trkpt lat="46.996597" lon="14.758827">
        <ele>717.00</ele>
        <time>2012-10-24T12:28:59Z</time>
      </trkpt>
      <trkpt lat="46.996551" lon="14.758877">
        <ele>717.00</ele>
        <time>2012-10-24T12:29:00Z</time>
      </trkpt>
      <trkpt lat="46.996223" lon="14.759227">
        <ele>716.00</ele>
        <time>2012-10-24T12:29:07Z</time>
      </trkpt>
      <trkpt lat="46.996098" lon="14.759362">
        <ele>716.00</ele>
        <time>2012-10-24T12:29:10Z</time>
      </trkpt>
      <trkpt lat="46.996052" lon="14.759406">
        <ele>715.00</ele>
        <time>2012-10-24T12:29:11Z</time>
      </trkpt>
      <trkpt lat="46.996010" lon="14.759452">
        <ele>715.00</ele>
        <time>2012-10-24T12:29:12Z</time>
      </trkpt>
      <trkpt lat="46.995964" lon="14.759499">
        <ele>715.00</ele>
        <time>2012-10-24T12:29:13Z</time>
      </trkpt>
      <trkpt lat="46.995869" lon="14.759592">
        <ele>715.00</ele>
        <time>2012-10-24T12:29:15Z</time>
      </trkpt>
      <trkpt lat="46.995510" lon="14.759944">
        <ele>714.00</ele>
        <time>2012-10-24T12:29:23Z</time>
      </trkpt>
      <trkpt lat="46.995422" lon="14.760019">
        <ele>714.00</ele>
        <time>2012-10-24T12:29:25Z</time>
      </trkpt>
      <trkpt lat="46.995277" lon="14.760078">
        <ele>714.00</ele>
        <time>2012-10-24T12:29:28Z</time>
      </trkpt>
      <trkpt lat="46.995224" lon="14.760111">
        <ele>713.00</ele>
        <time>2012-10-24T12:29:29Z</time>
      </trkpt>
      <trkpt lat="46.995178" lon="14.760158">
        <ele>713.00</ele>
        <time>2012-10-24T12:29:30Z</time>
      </trkpt>
      <trkpt lat="46.995129" lon="14.760214">
        <ele>713.00</ele>
        <time>2012-10-24T12:29:31Z</time>
      </trkpt>
      <trkpt lat="46.995083" lon="14.760273">
        <ele>713.00</ele>
        <time>2012-10-24T12:29:32Z</time>
      </trkpt>
      <trkpt lat="46.994701" lon="14.760631">
        <ele>712.00</ele>
        <time>2012-10-24T12:29:39Z</time>
      </trkpt>
      <trkpt lat="46.994495" lon="14.760818">
        <ele>712.00</ele>
        <time>2012-10-24T12:29:43Z</time>
      </trkpt>
      <trkpt lat="46.994438" lon="14.760862">
        <ele>712.00</ele>
        <time>2012-10-24T12:29:44Z</time>
      </trkpt>
      <trkpt lat="46.994385" lon="14.760905">
        <ele>711.00</ele>
        <time>2012-10-24T12:29:45Z</time>
      </trkpt>
      <trkpt lat="46.994328" lon="14.760949">
        <ele>711.00</ele>
        <time>2012-10-24T12:29:46Z</time>
      </trkpt>
      <trkpt lat="46.994270" lon="14.760994">
        <ele>711.00</ele>
        <time>2012-10-24T12:29:47Z</time>
      </trkpt>
      <trkpt lat="46.994217" lon="14.761039">
        <ele>710.00</ele>
        <time>2012-10-24T12:29:48Z</time>
      </trkpt>
      <trkpt lat="46.993923" lon="14.761258">
        <ele>710.00</ele>
        <time>2012-10-24T12:29:53Z</time>
      </trkpt>
      <trkpt lat="46.993553" lon="14.761523">
        <ele>710.00</ele>
        <time>2012-10-24T12:29:59Z</time>
      </trkpt>
      <trkpt lat="46.993492" lon="14.761569">
        <ele>709.00</ele>
        <time>2012-10-24T12:30:00Z</time>
      </trkpt>
      <trkpt lat="46.993435" lon="14.761612">
        <ele>709.00</ele>
        <time>2012-10-24T12:30:01Z</time>
      </trkpt>
      <trkpt lat="46.993374" lon="14.761649">
        <ele>709.00</ele>
        <time>2012-10-24T12:30:02Z</time>
      </trkpt>
      <trkpt lat="46.993214" lon="14.761746">
        <ele>708.00</ele>
        <time>2012-10-24T12:30:05Z</time>
      </trkpt>
      <trkpt lat="46.992886" lon="14.762002">
        <ele>708.00</ele>
        <time>2012-10-24T12:30:11Z</time>
      </trkpt>
      <trkpt lat="46.992519" lon="14.762270">
        <ele>708.00</ele>
        <time>2012-10-24T12:30:18Z</time>
      </trkpt>
      <trkpt lat="46.992184" lon="14.762573">
        <ele>708.00</ele>
        <time>2012-10-24T12:30:25Z</time>
      </trkpt>
      <trkpt lat="46.991810" lon="14.763029">
        <ele>707.00</ele>
        <time>2012-10-24T12:30:33Z</time>
      </trkpt>
      <trkpt lat="46.991768" lon="14.763090">
        <ele>707.00</ele>
        <time>2012-10-24T12:30:34Z</time>
      </trkpt>
      <trkpt lat="46.991726" lon="14.763149">
        <ele>707.00</ele>
        <time>2012-10-24T12:30:35Z</time>
      </trkpt>
      <trkpt lat="46.991684" lon="14.763208">
        <ele>707.00</ele>
        <time>2012-10-24T12:30:36Z</time>
      </trkpt>
      <trkpt lat="46.991646" lon="14.763266">
        <ele>706.00</ele>
        <time>2012-10-24T12:30:37Z</time>
      </trkpt>
      <trkpt lat="46.991604" lon="14.763319">
        <ele>706.00</ele>
        <time>2012-10-24T12:30:38Z</time>
      </trkpt>
      <trkpt lat="46.991520" lon="14.763421">
        <ele>706.00</ele>
        <time>2012-10-24T12:30:40Z</time>
      </trkpt>
      <trkpt lat="46.991257" lon="14.763761">
        <ele>706.00</ele>
        <time>2012-10-24T12:30:47Z</time>
      </trkpt>
      <trkpt lat="46.991051" lon="14.764064">
        <ele>705.00</ele>
        <time>2012-10-24T12:30:53Z</time>
      </trkpt>
      <trkpt lat="46.990902" lon="14.764305">
        <ele>705.00</ele>
        <time>2012-10-24T12:30:57Z</time>
      </trkpt>
      <trkpt lat="46.990860" lon="14.764371">
        <ele>705.00</ele>
        <time>2012-10-24T12:30:58Z</time>
      </trkpt>
      <trkpt lat="46.990822" lon="14.764436">
        <ele>704.00</ele>
        <time>2012-10-24T12:30:59Z</time>
      </trkpt>
      <trkpt lat="46.990776" lon="14.764501">
        <ele>704.00</ele>
        <time>2012-10-24T12:31:00Z</time>
      </trkpt>
      <trkpt lat="46.990730" lon="14.764561">
        <ele>704.00</ele>
        <time>2012-10-24T12:31:01Z</time>
      </trkpt>
      <trkpt lat="46.990410" lon="14.765010">
        <ele>703.00</ele>
        <time>2012-10-24T12:31:08Z</time>
      </trkpt>
      <trkpt lat="46.990269" lon="14.765196">
        <ele>703.00</ele>
        <time>2012-10-24T12:31:11Z</time>
      </trkpt>
      <trkpt lat="46.990223" lon="14.765259">
        <ele>702.00</ele>
        <time>2012-10-24T12:31:12Z</time>
      </trkpt>
      <trkpt lat="46.990177" lon="14.765322">
        <ele>702.00</ele>
        <time>2012-10-24T12:31:13Z</time>
      </trkpt>
      <trkpt lat="46.990135" lon="14.765385">
        <ele>702.00</ele>
        <time>2012-10-24T12:31:14Z</time>
      </trkpt>
      <trkpt lat="46.990086" lon="14.765450">
        <ele>702.00</ele>
        <time>2012-10-24T12:31:15Z</time>
      </trkpt>
      <trkpt lat="46.990044" lon="14.765513">
        <ele>701.00</ele>
        <time>2012-10-24T12:31:16Z</time>
      </trkpt>
      <trkpt lat="46.989739" lon="14.765943">
        <ele>701.00</ele>
        <time>2012-10-24T12:31:23Z</time>
      </trkpt>
      <trkpt lat="46.989693" lon="14.765989">
        <ele>701.00</ele>
        <time>2012-10-24T12:31:24Z</time>
      </trkpt>
      <trkpt lat="46.989655" lon="14.766035">
        <ele>701.00</ele>
        <time>2012-10-24T12:31:25Z</time>
      </trkpt>
      <trkpt lat="46.989613" lon="14.766083">
        <ele>701.00</ele>
        <time>2012-10-24T12:31:26Z</time>
      </trkpt>
      <trkpt lat="46.989574" lon="14.766139">
        <ele>700.00</ele>
        <time>2012-10-24T12:31:27Z</time>
      </trkpt>
      <trkpt lat="46.989536" lon="14.766202">
        <ele>700.00</ele>
        <time>2012-10-24T12:31:28Z</time>
      </trkpt>
      <trkpt lat="46.989502" lon="14.766266">
        <ele>700.00</ele>
        <time>2012-10-24T12:31:29Z</time>
      </trkpt>
      <trkpt lat="46.989246" lon="14.766631">
        <ele>700.00</ele>
        <time>2012-10-24T12:31:35Z</time>
      </trkpt>
      <trkpt lat="46.989033" lon="14.766918">
        <ele>699.00</ele>
        <time>2012-10-24T12:31:40Z</time>
      </trkpt>
      <trkpt lat="46.988991" lon="14.766971">
        <ele>699.00</ele>
        <time>2012-10-24T12:31:41Z</time>
      </trkpt>
      <trkpt lat="46.988758" lon="14.767301">
        <ele>699.00</ele>
        <time>2012-10-24T12:31:47Z</time>
      </trkpt>
      <trkpt lat="46.988609" lon="14.767514">
        <ele>699.00</ele>
        <time>2012-10-24T12:31:51Z</time>
      </trkpt>
      <trkpt lat="46.988575" lon="14.767569">
        <ele>698.00</ele>
        <time>2012-10-24T12:31:52Z</time>
      </trkpt>
      <trkpt lat="46.988545" lon="14.767630">
        <ele>698.00</ele>
        <time>2012-10-24T12:31:53Z</time>
      </trkpt>
      <trkpt lat="46.988514" lon="14.767688">
        <ele>698.00</ele>
        <time>2012-10-24T12:31:54Z</time>
      </trkpt>
      <trkpt lat="46.988483" lon="14.767742">
        <ele>698.00</ele>
        <time>2012-10-24T12:31:55Z</time>
      </trkpt>
      <trkpt lat="46.988342" lon="14.767963">
        <ele>697.00</ele>
        <time>2012-10-24T12:32:00Z</time>
      </trkpt>
      <trkpt lat="46.988174" lon="14.768217">
        <ele>697.00</ele>
        <time>2012-10-24T12:32:06Z</time>
      </trkpt>
      <trkpt lat="46.988140" lon="14.768258">
        <ele>697.00</ele>
        <time>2012-10-24T12:32:07Z</time>
      </trkpt>
      <trkpt lat="46.987915" lon="14.768575">
        <ele>697.00</ele>
        <time>2012-10-24T12:32:15Z</time>
      </trkpt>
      <trkpt lat="46.987679" lon="14.768903">
        <ele>697.00</ele>
        <time>2012-10-24T12:32:22Z</time>
      </trkpt>
      <trkpt lat="46.987530" lon="14.769109">
        <ele>697.00</ele>
        <time>2012-10-24T12:32:26Z</time>
      </trkpt>
      <trkpt lat="46.987453" lon="14.769205">
        <ele>697.00</ele>
        <time>2012-10-24T12:32:28Z</time>
      </trkpt>
      <trkpt lat="46.987415" lon="14.769252">
        <ele>696.00</ele>
        <time>2012-10-24T12:32:29Z</time>
      </trkpt>
      <trkpt lat="46.987381" lon="14.769300">
        <ele>696.00</ele>
        <time>2012-10-24T12:32:30Z</time>
      </trkpt>
      <trkpt lat="46.987347" lon="14.769351">
        <ele>696.00</ele>
        <time>2012-10-24T12:32:31Z</time>
      </trkpt>
      <trkpt lat="46.987278" lon="14.769447">
        <ele>695.00</ele>
        <time>2012-10-24T12:32:33Z</time>
      </trkpt>
      <trkpt lat="46.987244" lon="14.769500">
        <ele>695.00</ele>
        <time>2012-10-24T12:32:34Z</time>
      </trkpt>
      <trkpt lat="46.987026" lon="14.769817">
        <ele>695.00</ele>
        <time>2012-10-24T12:32:40Z</time>
      </trkpt>
      <trkpt lat="46.986710" lon="14.770200">
        <ele>695.00</ele>
        <time>2012-10-24T12:32:48Z</time>
      </trkpt>
      <trkpt lat="46.986385" lon="14.770513">
        <ele>695.00</ele>
        <time>2012-10-24T12:32:55Z</time>
      </trkpt>
      <trkpt lat="46.986092" lon="14.770719">
        <ele>695.00</ele>
        <time>2012-10-24T12:33:01Z</time>
      </trkpt>
      <trkpt lat="46.985931" lon="14.770812">
        <ele>694.00</ele>
        <time>2012-10-24T12:33:04Z</time>
      </trkpt>
      <trkpt lat="46.985882" lon="14.770838">
        <ele>694.00</ele>
        <time>2012-10-24T12:33:05Z</time>
      </trkpt>
      <trkpt lat="46.985828" lon="14.770863">
        <ele>694.00</ele>
        <time>2012-10-24T12:33:06Z</time>
      </trkpt>
      <trkpt lat="46.985775" lon="14.770887">
        <ele>694.00</ele>
        <time>2012-10-24T12:33:07Z</time>
      </trkpt>
      <trkpt lat="46.985722" lon="14.770912">
        <ele>694.00</ele>
        <time>2012-10-24T12:33:08Z</time>
      </trkpt>
      <trkpt lat="46.985310" lon="14.771054">
        <ele>693.00</ele>
        <time>2012-10-24T12:33:15Z</time>
      </trkpt>
      <trkpt lat="46.984978" lon="14.771161">
        <ele>693.00</ele>
        <time>2012-10-24T12:33:21Z</time>
      </trkpt>
      <trkpt lat="46.984608" lon="14.771272">
        <ele>693.00</ele>
        <time>2012-10-24T12:33:28Z</time>
      </trkpt>
      <trkpt lat="46.984451" lon="14.771322">
        <ele>692.00</ele>
        <time>2012-10-24T12:33:31Z</time>
      </trkpt>
      <trkpt lat="46.984398" lon="14.771338">
        <ele>692.00</ele>
        <time>2012-10-24T12:33:32Z</time>
      </trkpt>
      <trkpt lat="46.984344" lon="14.771353">
        <ele>692.00</ele>
        <time>2012-10-24T12:33:33Z</time>
      </trkpt>
      <trkpt lat="46.984299" lon="14.771370">
        <ele>691.00</ele>
        <time>2012-10-24T12:33:34Z</time>
      </trkpt>
      <trkpt lat="46.984249" lon="14.771387">
        <ele>691.00</ele>
        <time>2012-10-24T12:33:35Z</time>
      </trkpt>
      <trkpt lat="46.983906" lon="14.771530">
        <ele>691.00</ele>
        <time>2012-10-24T12:33:42Z</time>
      </trkpt>
      <trkpt lat="46.983627" lon="14.771668">
        <ele>691.00</ele>
        <time>2012-10-24T12:33:48Z</time>
      </trkpt>
      <trkpt lat="46.983582" lon="14.771702">
        <ele>691.00</ele>
        <time>2012-10-24T12:33:49Z</time>
      </trkpt>
      <trkpt lat="46.983250" lon="14.771921">
        <ele>691.00</ele>
        <time>2012-10-24T12:33:56Z</time>
      </trkpt>
      <trkpt lat="46.982838" lon="14.772295">
        <ele>691.00</ele>
        <time>2012-10-24T12:34:05Z</time>
      </trkpt>
      <trkpt lat="46.982800" lon="14.772346">
        <ele>691.00</ele>
        <time>2012-10-24T12:34:06Z</time>
      </trkpt>
      <trkpt lat="46.982613" lon="14.772615">
        <ele>691.00</ele>
        <time>2012-10-24T12:34:11Z</time>
      </trkpt>
      <trkpt lat="46.982449" lon="14.772884">
        <ele>690.00</ele>
        <time>2012-10-24T12:34:16Z</time>
      </trkpt>
      <trkpt lat="46.982418" lon="14.772941">
        <ele>690.00</ele>
        <time>2012-10-24T12:34:17Z</time>
      </trkpt>
      <trkpt lat="46.982384" lon="14.772998">
        <ele>690.00</ele>
        <time>2012-10-24T12:34:18Z</time>
      </trkpt>
      <trkpt lat="46.982349" lon="14.773058">
        <ele>689.00</ele>
        <time>2012-10-24T12:34:19Z</time>
      </trkpt>
      <trkpt lat="46.982315" lon="14.773122">
        <ele>689.00</ele>
        <time>2012-10-24T12:34:20Z</time>
      </trkpt>
      <trkpt lat="46.982178" lon="14.773403">
        <ele>689.00</ele>
        <time>2012-10-24T12:34:24Z</time>
      </trkpt>
      <trkpt lat="46.982105" lon="14.773551">
        <ele>688.00</ele>
        <time>2012-10-24T12:34:26Z</time>
      </trkpt>
      <trkpt lat="46.982067" lon="14.773628">
        <ele>688.00</ele>
        <time>2012-10-24T12:34:27Z</time>
      </trkpt>
      <trkpt lat="46.982033" lon="14.773706">
        <ele>688.00</ele>
        <time>2012-10-24T12:34:28Z</time>
      </trkpt>
      <trkpt lat="46.981998" lon="14.773784">
        <ele>687.00</ele>
        <time>2012-10-24T12:34:29Z</time>
      </trkpt>
      <trkpt lat="46.981960" lon="14.773868">
        <ele>687.00</ele>
        <time>2012-10-24T12:34:30Z</time>
      </trkpt>
      <trkpt lat="46.981724" lon="14.774325">
        <ele>686.00</ele>
        <time>2012-10-24T12:34:36Z</time>
      </trkpt>
      <trkpt lat="46.981647" lon="14.774482">
        <ele>686.00</ele>
        <time>2012-10-24T12:34:38Z</time>
      </trkpt>
      <trkpt lat="46.981606" lon="14.774565">
        <ele>686.00</ele>
        <time>2012-10-24T12:34:39Z</time>
      </trkpt>
      <trkpt lat="46.981567" lon="14.774643">
        <ele>686.00</ele>
        <time>2012-10-24T12:34:40Z</time>
      </trkpt>
      <trkpt lat="46.981525" lon="14.774722">
        <ele>685.00</ele>
        <time>2012-10-24T12:34:41Z</time>
      </trkpt>
      <trkpt lat="46.981487" lon="14.774802">
        <ele>685.00</ele>
        <time>2012-10-24T12:34:42Z</time>
      </trkpt>
      <trkpt lat="46.981403" lon="14.774957">
        <ele>685.00</ele>
        <time>2012-10-24T12:34:44Z</time>
      </trkpt>
      <trkpt lat="46.981281" lon="14.775176">
        <ele>684.00</ele>
        <time>2012-10-24T12:34:47Z</time>
      </trkpt>
      <trkpt lat="46.981239" lon="14.775242">
        <ele>684.00</ele>
        <time>2012-10-24T12:34:48Z</time>
      </trkpt>
      <trkpt lat="46.981194" lon="14.775306">
        <ele>683.00</ele>
        <time>2012-10-24T12:34:49Z</time>
      </trkpt>
      <trkpt lat="46.981148" lon="14.775367">
        <ele>683.00</ele>
        <time>2012-10-24T12:34:50Z</time>
      </trkpt>
      <trkpt lat="46.981106" lon="14.775429">
        <ele>683.00</ele>
        <time>2012-10-24T12:34:51Z</time>
      </trkpt>
      <trkpt lat="46.980759" lon="14.775823">
        <ele>682.00</ele>
        <time>2012-10-24T12:34:58Z</time>
      </trkpt>
      <trkpt lat="46.980480" lon="14.776053">
        <ele>682.00</ele>
        <time>2012-10-24T12:35:03Z</time>
      </trkpt>
      <trkpt lat="46.980423" lon="14.776093">
        <ele>682.00</ele>
        <time>2012-10-24T12:35:04Z</time>
      </trkpt>
      <trkpt lat="46.980366" lon="14.776131">
        <ele>681.00</ele>
        <time>2012-10-24T12:35:05Z</time>
      </trkpt>
      <trkpt lat="46.980312" lon="14.776166">
        <ele>681.00</ele>
        <time>2012-10-24T12:35:06Z</time>
      </trkpt>
      <trkpt lat="46.980255" lon="14.776198">
        <ele>681.00</ele>
        <time>2012-10-24T12:35:07Z</time>
      </trkpt>
      <trkpt lat="46.979973" lon="14.776326">
        <ele>680.00</ele>
        <time>2012-10-24T12:35:12Z</time>
      </trkpt>
      <trkpt lat="46.979580" lon="14.776455">
        <ele>680.00</ele>
        <time>2012-10-24T12:35:19Z</time>
      </trkpt>
      <trkpt lat="46.979523" lon="14.776469">
        <ele>680.00</ele>
        <time>2012-10-24T12:35:20Z</time>
      </trkpt>
      <trkpt lat="46.979469" lon="14.776481">
        <ele>679.00</ele>
        <time>2012-10-24T12:35:21Z</time>
      </trkpt>
      <trkpt lat="46.979416" lon="14.776493">
        <ele>679.00</ele>
        <time>2012-10-24T12:35:22Z</time>
      </trkpt>
      <trkpt lat="46.979359" lon="14.776510">
        <ele>679.00</ele>
        <time>2012-10-24T12:35:23Z</time>
      </trkpt>
      <trkpt lat="46.979103" lon="14.776621">
        <ele>679.00</ele>
        <time>2012-10-24T12:35:28Z</time>
      </trkpt>
      <trkpt lat="46.978840" lon="14.776783">
        <ele>678.00</ele>
        <time>2012-10-24T12:35:34Z</time>
      </trkpt>
      <trkpt lat="46.978661" lon="14.776959">
        <ele>678.00</ele>
        <time>2012-10-24T12:35:40Z</time>
      </trkpt>
      <trkpt lat="46.978638" lon="14.776993">
        <ele>678.00</ele>
        <time>2012-10-24T12:35:41Z</time>
      </trkpt>
      <trkpt lat="46.978615" lon="14.777034">
        <ele>677.00</ele>
        <time>2012-10-24T12:35:42Z</time>
      </trkpt>
      <trkpt lat="46.978592" lon="14.777074">
        <ele>677.00</ele>
        <time>2012-10-24T12:35:43Z</time>
      </trkpt>
      <trkpt lat="46.978561" lon="14.777116">
        <ele>677.00</ele>
        <time>2012-10-24T12:35:44Z</time>
      </trkpt>
      <trkpt lat="46.978527" lon="14.777150">
        <ele>677.00</ele>
        <time>2012-10-24T12:35:45Z</time>
      </trkpt>
      <trkpt lat="46.978401" lon="14.777281">
        <ele>676.00</ele>
        <time>2012-10-24T12:35:49Z</time>
      </trkpt>
      <trkpt lat="46.978340" lon="14.777342">
        <ele>676.00</ele>
        <time>2012-10-24T12:35:51Z</time>
      </trkpt>
      <trkpt lat="46.978123" lon="14.777523">
        <ele>676.00</ele>
        <time>2012-10-24T12:35:57Z</time>
      </trkpt>
      <trkpt lat="46.978088" lon="14.777554">
        <ele>676.00</ele>
        <time>2012-10-24T12:35:59Z</time>
      </trkpt>
      <trkpt lat="46.978085" lon="14.777555">
        <ele>676.00</ele>
        <time>2012-10-24T12:36:00Z</time>
      </trkpt>
      <trkpt lat="46.978085" lon="14.777553">
        <ele>676.00</ele>
        <time>2012-10-24T12:36:06Z</time>
      </trkpt>
      <trkpt lat="46.978085" lon="14.777553">
        <ele>676.00</ele>
        <time>2012-10-24T12:36:17Z</time>
      </trkpt>
      <trkpt lat="46.978085" lon="14.777553">
        <ele>676.00</ele>
        <time>2012-10-24T12:36:19Z</time>
      </trkpt>
      <trkpt lat="46.978085" lon="14.777553">
        <ele>676.00</ele>
        <time>2012-10-24T12:36:23Z</time>
      </trkpt>
      <trkpt lat="46.978085" lon="14.777553">
        <ele>676.00</ele>
        <time>2012-10-24T12:36:26Z</time>
      </trkpt>
      <trkpt lat="46.978085" lon="14.777553">
        <ele>676.00</ele>
        <time>2012-10-24T12:36:32Z</time>
      </trkpt>
      <trkpt lat="46.978085" lon="14.777553">
        <ele>676.00</ele>
        <time>2012-10-24T12:36:37Z</time>
      </trkpt>
      <trkpt lat="46.978088" lon="14.777555">
        <ele>676.00</ele>
        <time>2012-10-24T12:36:44Z</time>
      </trkpt>
      <trkpt lat="46.978088" lon="14.777555">
        <ele>676.00</ele>
        <time>2012-10-24T12:36:47Z</time>
      </trkpt>
      <trkpt lat="46.978088" lon="14.777555">
        <ele>676.00</ele>
        <time>2012-10-24T12:37:02Z</time>
      </trkpt>
      <trkpt lat="46.978088" lon="14.777555">
        <ele>676.00</ele>
        <time>2012-10-24T12:37:09Z</time>
      </trkpt>
      <trkpt lat="46.978088" lon="14.777555">
        <ele>676.00</ele>
        <time>2012-10-24T12:37:12Z</time>
      </trkpt>
      <trkpt lat="46.978088" lon="14.777555">
        <ele>676.00</ele>
        <time>2012-10-24T12:37:19Z</time>
      </trkpt>
      <trkpt lat="46.978088" lon="14.777552">
        <ele>676.00</ele>
        <time>2012-10-24T12:37:24Z</time>
      </trkpt>
      <trkpt lat="46.978088" lon="14.777552">
        <ele>676.00</ele>
        <time>2012-10-24T12:37:31Z</time>
      </trkpt>
      <trkpt lat="46.978088" lon="14.777552">
        <ele>676.00</ele>
        <time>2012-10-24T12:37:37Z</time>
      </trkpt>
      <trkpt lat="46.978088" lon="14.777552">
        <ele>676.00</ele>
        <time>2012-10-24T12:37:41Z</time>
      </trkpt>
      <trkpt lat="46.978088" lon="14.777552">
        <ele>676.00</ele>
        <time>2012-10-24T12:37:46Z</time>
      </trkpt>
      <trkpt lat="46.978088" lon="14.777552">
        <ele>676.00</ele>
        <time>2012-10-24T12:37:53Z</time>
      </trkpt>
      <trkpt lat="46.978073" lon="14.777568">
        <ele>676.00</ele>
        <time>2012-10-24T12:38:03Z</time>
      </trkpt>
      <trkpt lat="46.977963" lon="14.777688">
        <ele>676.00</ele>
        <time>2012-10-24T12:38:08Z</time>
      </trkpt>
      <trkpt lat="46.977760" lon="14.777886">
        <ele>676.00</ele>
        <time>2012-10-24T12:38:14Z</time>
      </trkpt>
      <trkpt lat="46.977722" lon="14.777925">
        <ele>676.00</ele>
        <time>2012-10-24T12:38:15Z</time>
      </trkpt>
      <trkpt lat="46.977512" lon="14.778139">
        <ele>676.00</ele>
        <time>2012-10-24T12:38:21Z</time>
      </trkpt>
      <trkpt lat="46.977474" lon="14.778172">
        <ele>676.00</ele>
        <time>2012-10-24T12:38:22Z</time>
      </trkpt>
      <trkpt lat="46.977138" lon="14.778434">
        <ele>676.00</ele>
        <time>2012-10-24T12:38:30Z</time>
      </trkpt>
      <trkpt lat="46.976837" lon="14.778553">
        <ele>676.05</ele>
        <time>2012-10-24T12:38:36Z</time>
      </trkpt>
      <trkpt lat="46.976604" lon="14.778589">
        <ele>676.11</ele>
        <time>2012-10-24T12:38:41Z</time>
      </trkpt>
      <trkpt lat="46.976551" lon="14.778589">
        <ele>676.16</ele>
        <time>2012-10-24T12:38:42Z</time>
      </trkpt>
      <trkpt lat="46.976204" lon="14.778555">
        <ele>676.22</ele>
        <time>2012-10-24T12:38:49Z</time>
      </trkpt>
      <trkpt lat="46.976154" lon="14.778540">
        <ele>676.27</ele>
        <time>2012-10-24T12:38:50Z</time>
      </trkpt>
      <trkpt lat="46.976105" lon="14.778522">
        <ele>676.33</ele>
        <time>2012-10-24T12:38:51Z</time>
      </trkpt>
      <trkpt lat="46.976059" lon="14.778499">
        <ele>676.38</ele>
        <time>2012-10-24T12:38:52Z</time>
      </trkpt>
      <trkpt lat="46.976013" lon="14.778471">
        <ele>676.44</ele>
        <time>2012-10-24T12:38:53Z</time>
      </trkpt>
      <trkpt lat="46.975918" lon="14.778400">
        <ele>676.49</ele>
        <time>2012-10-24T12:38:55Z</time>
      </trkpt>
      <trkpt lat="46.975876" lon="14.778360">
        <ele>676.55</ele>
        <time>2012-10-24T12:38:56Z</time>
      </trkpt>
      <trkpt lat="46.975792" lon="14.778278">
        <ele>676.60</ele>
        <time>2012-10-24T12:38:58Z</time>
      </trkpt>
      <trkpt lat="46.975754" lon="14.778251">
        <ele>676.66</ele>
        <time>2012-10-24T12:38:59Z</time>
      </trkpt>
      <trkpt lat="46.975716" lon="14.778234">
        <ele>676.71</ele>
        <time>2012-10-24T12:39:00Z</time>
      </trkpt>
      <trkpt lat="46.975681" lon="14.778239">
        <ele>676.77</ele>
        <time>2012-10-24T12:39:01Z</time>
      </trkpt>
      <trkpt lat="46.975647" lon="14.778264">
        <ele>676.82</ele>
        <time>2012-10-24T12:39:02Z</time>
      </trkpt>
      <trkpt lat="46.975613" lon="14.778297">
        <ele>676.88</ele>
        <time>2012-10-24T12:39:03Z</time>
      </trkpt>
      <trkpt lat="46.975578" lon="14.778328">
        <ele>676.93</ele>
        <time>2012-10-24T12:39:04Z</time>
      </trkpt>
      <trkpt lat="46.975510" lon="14.778420">
        <ele>676.98</ele>
        <time>2012-10-24T12:39:06Z</time>
      </trkpt>
      <trkpt lat="46.975483" lon="14.778488">
        <ele>677.04</ele>
        <time>2012-10-24T12:39:07Z</time>
      </trkpt>
      <trkpt lat="46.975456" lon="14.778551">
        <ele>677.09</ele>
        <time>2012-10-24T12:39:08Z</time>
      </trkpt>
      <trkpt lat="46.975430" lon="14.778603">
        <ele>677.15</ele>
        <time>2012-10-24T12:39:09Z</time>
      </trkpt>
      <trkpt lat="46.975334" lon="14.778726">
        <ele>677.20</ele>
        <time>2012-10-24T12:39:12Z</time>
      </trkpt>
      <trkpt lat="46.975208" lon="14.778785">
        <ele>677.26</ele>
        <time>2012-10-24T12:39:15Z</time>
      </trkpt>
      <trkpt lat="46.975163" lon="14.778798">
        <ele>677.31</ele>
        <time>2012-10-24T12:39:16Z</time>
      </trkpt>
      <trkpt lat="46.974815" lon="14.778940">
        <ele>677.37</ele>
        <time>2012-10-24T12:39:23Z</time>
      </trkpt>
      <trkpt lat="46.974766" lon="14.778972">
        <ele>677.42</ele>
        <time>2012-10-24T12:39:24Z</time>
      </trkpt>
      <trkpt lat="46.974525" lon="14.779160">
        <ele>677.48</ele>
        <time>2012-10-24T12:39:30Z</time>
      </trkpt>
      <trkpt lat="46.974487" lon="14.779213">
        <ele>677.53</ele>
        <time>2012-10-24T12:39:32Z</time>
      </trkpt>
      <trkpt lat="46.974472" lon="14.779242">
        <ele>677.59</ele>
        <time>2012-10-24T12:39:33Z</time>
      </trkpt>
      <trkpt lat="46.974453" lon="14.779278">
        <ele>677.64</ele>
        <time>2012-10-24T12:39:34Z</time>
      </trkpt>
      <trkpt lat="46.974422" lon="14.779320">
        <ele>677.70</ele>
        <time>2012-10-24T12:39:35Z</time>
      </trkpt>
      <trkpt lat="46.974384" lon="14.779366">
        <ele>677.75</ele>
        <time>2012-10-24T12:39:36Z</time>
      </trkpt>
      <trkpt lat="46.974209" lon="14.779525">
        <ele>677.80</ele>
        <time>2012-10-24T12:39:40Z</time>
      </trkpt>
      <trkpt lat="46.974167" lon="14.779569">
        <ele>677.86</ele>
        <time>2012-10-24T12:39:41Z</time>
      </trkpt>
      <trkpt lat="46.974018" lon="14.779776">
        <ele>677.91</ele>
        <time>2012-10-24T12:39:45Z</time>
      </trkpt>
      <trkpt lat="46.973759" lon="14.780150">
        <ele>677.97</ele>
        <time>2012-10-24T12:39:51Z</time>
      </trkpt>
      <trkpt lat="46.973354" lon="14.780709">
        <ele>678.02</ele>
        <time>2012-10-24T12:39:59Z</time>
      </trkpt>
      <trkpt lat="46.973305" lon="14.780780">
        <ele>678.08</ele>
        <time>2012-10-24T12:40:00Z</time>
      </trkpt>
      <trkpt lat="46.973255" lon="14.780851">
        <ele>678.13</ele>
        <time>2012-10-24T12:40:01Z</time>
      </trkpt>
      <trkpt lat="46.973209" lon="14.780928">
        <ele>678.19</ele>
        <time>2012-10-24T12:40:02Z</time>
      </trkpt>
      <trkpt lat="46.973164" lon="14.781003">
        <ele>678.24</ele>
        <time>2012-10-24T12:40:03Z</time>
      </trkpt>
      <trkpt lat="46.973072" lon="14.781139">
        <ele>678.30</ele>
        <time>2012-10-24T12:40:05Z</time>
      </trkpt>
      <trkpt lat="46.972828" lon="14.781457">
        <ele>678.35</ele>
        <time>2012-10-24T12:40:10Z</time>
      </trkpt>
      <trkpt lat="46.972790" lon="14.781500">
        <ele>678.41</ele>
        <time>2012-10-24T12:40:11Z</time>
      </trkpt>
      <trkpt lat="46.972755" lon="14.781539">
        <ele>678.46</ele>
        <time>2012-10-24T12:40:12Z</time>
      </trkpt>
      <trkpt lat="46.972736" lon="14.781579">
        <ele>678.52</ele>
        <time>2012-10-24T12:40:13Z</time>
      </trkpt>
      <trkpt lat="46.972729" lon="14.781614">
        <ele>678.57</ele>
        <time>2012-10-24T12:40:14Z</time>
      </trkpt>
      <trkpt lat="46.972733" lon="14.781638">
        <ele>678.63</ele>
        <time>2012-10-24T12:40:15Z</time>
      </trkpt>
      <trkpt lat="46.972744" lon="14.781662">
        <ele>678.68</ele>
        <time>2012-10-24T12:40:16Z</time>
      </trkpt>
      <trkpt lat="46.972767" lon="14.781713">
        <ele>678.73</ele>
        <time>2012-10-24T12:40:18Z</time>
      </trkpt>
      <trkpt lat="46.972782" lon="14.781736">
        <ele>678.79</ele>
        <time>2012-10-24T12:40:19Z</time>
      </trkpt>
      <trkpt lat="46.972801" lon="14.781762">
        <ele>678.84</ele>
        <time>2012-10-24T12:40:20Z</time>
      </trkpt>
      <trkpt lat="46.972816" lon="14.781789">
        <ele>678.90</ele>
        <time>2012-10-24T12:40:21Z</time>
      </trkpt>
      <trkpt lat="46.972847" lon="14.781836">
        <ele>678.95</ele>
        <time>2012-10-24T12:40:23Z</time>
      </trkpt>
      <trkpt lat="46.972851" lon="14.781855">
        <ele>679.01</ele>
        <time>2012-10-24T12:40:24Z</time>
      </trkpt>
      <trkpt lat="46.972847" lon="14.781880">
        <ele>679.06</ele>
        <time>2012-10-24T12:40:27Z</time>
      </trkpt>
      <trkpt lat="46.972847" lon="14.781880">
        <ele>679.12</ele>
        <time>2012-10-24T12:40:33Z</time>
      </trkpt>
      <trkpt lat="46.972843" lon="14.781884">
        <ele>679.17</ele>
        <time>2012-10-24T12:40:35Z</time>
      </trkpt>
      <trkpt lat="46.972828" lon="14.781888">
        <ele>679.23</ele>
        <time>2012-10-24T12:40:41Z</time>
      </trkpt>
      <trkpt lat="46.972832" lon="14.781891">
        <ele>679.28</ele>
        <time>2012-10-24T12:40:50Z</time>
      </trkpt>
      <trkpt lat="46.972836" lon="14.781890">
        <ele>679.34</ele>
        <time>2012-10-24T12:40:51Z</time>
      </trkpt>
      <trkpt lat="46.972836" lon="14.781890">
        <ele>679.39</ele>
        <time>2012-10-24T12:40:56Z</time>
      </trkpt>
      <trkpt lat="46.972836" lon="14.781890">
        <ele>679.45</ele>
        <time>2012-10-24T12:40:59Z</time>
      </trkpt>
      <trkpt lat="46.972836" lon="14.781890">
        <ele>679.50</ele>
        <time>2012-10-24T12:41:05Z</time>
      </trkpt>
      <trkpt lat="46.972836" lon="14.781890">
        <ele>679.55</ele>
        <time>2012-10-24T12:41:09Z</time>
      </trkpt>
      <trkpt lat="46.972836" lon="14.781890">
        <ele>679.61</ele>
        <time>2012-10-24T12:41:16Z</time>
      </trkpt>
      <trkpt lat="46.972836" lon="14.781890">
        <ele>679.66</ele>
        <time>2012-10-24T12:41:17Z</time>
      </trkpt>
      <trkpt lat="46.972836" lon="14.781890">
        <ele>679.72</ele>
        <time>2012-10-24T12:41:18Z</time>
      </trkpt>
      <trkpt lat="46.972836" lon="14.781890">
        <ele>679.77</ele>
        <time>2012-10-24T12:41:21Z</time>
      </trkpt>
      <trkpt lat="46.972836" lon="14.781890">
        <ele>679.83</ele>
        <time>2012-10-24T12:41:29Z</time>
      </trkpt>
      <trkpt lat="46.972839" lon="14.781890">
        <ele>679.88</ele>
        <time>2012-10-24T12:41:39Z</time>
      </trkpt>
      <trkpt lat="46.972839" lon="14.781890">
        <ele>679.94</ele>
        <time>2012-10-24T12:41:42Z</time>
      </trkpt>
      <trkpt lat="46.972839" lon="14.781890">
        <ele>679.99</ele>
        <time>2012-10-24T12:41:55Z</time>
      </trkpt>
      <trkpt lat="46.972839" lon="14.781890">
        <ele>680.05</ele>
        <time>2012-10-24T12:42:09Z</time>
      </trkpt>
      <trkpt lat="46.972843" lon="14.781890">
        <ele>680.10</ele>
        <time>2012-10-24T12:42:21Z</time>
      </trkpt>
      <trkpt lat="46.972843" lon="14.781890">
        <ele>680.16</ele>
        <time>2012-10-24T12:42:36Z</time>
      </trkpt>
      <trkpt lat="46.972843" lon="14.781890">
        <ele>680.21</ele>
        <time>2012-10-24T12:42:42Z</time>
      </trkpt>
      <trkpt lat="46.972839" lon="14.781893">
        <ele>680.27</ele>
        <time>2012-10-24T12:42:51Z</time>
      </trkpt>
      <trkpt lat="46.972839" lon="14.781893">
        <ele>680.32</ele>
        <time>2012-10-24T12:43:02Z</time>
      </trkpt>
      <trkpt lat="46.972839" lon="14.781893">
        <ele>680.38</ele>
        <time>2012-10-24T12:43:08Z</time>
      </trkpt>
      <trkpt lat="46.972839" lon="14.781893">
        <ele>680.43</ele>
        <time>2012-10-24T12:43:15Z</time>
      </trkpt>
      <trkpt lat="46.972839" lon="14.781893">
        <ele>680.48</ele>
        <time>2012-10-24T12:43:17Z</time>
      </trkpt>
      <trkpt lat="46.972839" lon="14.781893">
        <ele>680.54</ele>
        <time>2012-10-24T12:43:21Z</time>
      </trkpt>
      <trkpt lat="46.972839" lon="14.781893">
        <ele>680.59</ele>
        <time>2012-10-24T12:43:25Z</time>
      </trkpt>
      <trkpt lat="46.972839" lon="14.781893">
        <ele>680.65</ele>
        <time>2012-10-24T12:43:27Z</time>
      </trkpt>
      <trkpt lat="46.972843" lon="14.781892">
        <ele>680.70</ele>
        <time>2012-10-24T12:43:31Z</time>
      </trkpt>
      <trkpt lat="46.972843" lon="14.781892">
        <ele>680.76</ele>
        <time>2012-10-24T12:43:41Z</time>
      </trkpt>
      <trkpt lat="46.972843" lon="14.781892">
        <ele>680.81</ele>
        <time>2012-10-24T12:43:45Z</time>
      </trkpt>
      <trkpt lat="46.972839" lon="14.781887">
        <ele>680.87</ele>
        <time>2012-10-24T12:43:48Z</time>
      </trkpt>
      <trkpt lat="46.972843" lon="14.781883">
        <ele>680.92</ele>
        <time>2012-10-24T12:43:56Z</time>
      </trkpt>
      <trkpt lat="46.972843" lon="14.781883">
        <ele>680.98</ele>
        <time>2012-10-24T12:44:00Z</time>
      </trkpt>
      <trkpt lat="46.972843" lon="14.781883">
        <ele>681.03</ele>
        <time>2012-10-24T12:44:07Z</time>
      </trkpt>
      <trkpt lat="46.972843" lon="14.781883">
        <ele>681.09</ele>
        <time>2012-10-24T12:44:19Z</time>
      </trkpt>
      <trkpt lat="46.972843" lon="14.781883">
        <ele>681.14</ele>
        <time>2012-10-24T12:44:20Z</time>
      </trkpt>
      <trkpt lat="46.972843" lon="14.781885">
        <ele>681.20</ele>
        <time>2012-10-24T12:44:35Z</time>
      </trkpt>
      <trkpt lat="46.972843" lon="14.781885">
        <ele>681.25</ele>
        <time>2012-10-24T12:44:48Z</time>
      </trkpt>
      <trkpt lat="46.972843" lon="14.781885">
        <ele>681.30</ele>
        <time>2012-10-24T12:44:53Z</time>
      </trkpt>
      <trkpt lat="46.972843" lon="14.781885">
        <ele>681.36</ele>
        <time>2012-10-24T12:45:01Z</time>
      </trkpt>
      <trkpt lat="46.972843" lon="14.781887">
        <ele>681.41</ele>
        <time>2012-10-24T12:45:12Z</time>
      </trkpt>
      <trkpt lat="46.972843" lon="14.781887">
        <ele>681.47</ele>
        <time>2012-10-24T12:45:27Z</time>
      </trkpt>
      <trkpt lat="46.972843" lon="14.781887">
        <ele>681.52</ele>
        <time>2012-10-24T12:45:35Z</time>
      </trkpt>
      <trkpt lat="46.972843" lon="14.781887">
        <ele>681.58</ele>
        <time>2012-10-24T12:45:39Z</time>
      </trkpt>
      <trkpt lat="46.972843" lon="14.781887">
        <ele>681.63</ele>
        <time>2012-10-24T12:45:52Z</time>
      </trkpt>
      <trkpt lat="46.972843" lon="14.781887">
        <ele>681.69</ele>
        <time>2012-10-24T12:45:56Z</time>
      </trkpt>
      <trkpt lat="46.972843" lon="14.781887">
        <ele>681.74</ele>
        <time>2012-10-24T12:46:07Z</time>
      </trkpt>
      <trkpt lat="46.972843" lon="14.781887">
        <ele>681.80</ele>
        <time>2012-10-24T12:46:12Z</time>
      </trkpt>
      <trkpt lat="46.972843" lon="14.781887">
        <ele>681.85</ele>
        <time>2012-10-24T12:46:20Z</time>
      </trkpt>
      <trkpt lat="46.972843" lon="14.781887">
        <ele>681.91</ele>
        <time>2012-10-24T12:46:27Z</time>
      </trkpt>
      <trkpt lat="46.972843" lon="14.781888">
        <ele>681.96</ele>
        <time>2012-10-24T12:46:32Z</time>
      </trkpt>
      <trkpt lat="46.972843" lon="14.781888">
        <ele>682.02</ele>
        <time>2012-10-24T12:46:45Z</time>
      </trkpt>
      <trkpt lat="46.972149" lon="14.782064">
        <ele>682.07</ele>
        <time>2012-10-25T07:50:41Z</time>
      </trkpt>
      <trkpt lat="46.972099" lon="14.782094">
        <ele>682.13</ele>
        <time>2012-10-25T07:50:42Z</time>
      </trkpt>
      <trkpt lat="46.972000" lon="14.782159">
        <ele>682.18</ele>
        <time>2012-10-25T07:50:44Z</time>
      </trkpt>
      <trkpt lat="46.971951" lon="14.782193">
        <ele>682.23</ele>
        <time>2012-10-25T07:50:45Z</time>
      </trkpt>
      <trkpt lat="46.971806" lon="14.782282">
        <ele>682.29</ele>
        <time>2012-10-25T07:50:48Z</time>
      </trkpt>
      <trkpt lat="46.971756" lon="14.782316">
        <ele>682.34</ele>
        <time>2012-10-25T07:50:49Z</time>
      </trkpt>
      <trkpt lat="46.971485" lon="14.782502">
        <ele>682.40</ele>
        <time>2012-10-25T07:50:54Z</time>
      </trkpt>
      <trkpt lat="46.971123" lon="14.782819">
        <ele>682.45</ele>
        <time>2012-10-25T07:51:01Z</time>
      </trkpt>
      <trkpt lat="46.971069" lon="14.782865">
        <ele>682.51</ele>
        <time>2012-10-25T07:51:02Z</time>
      </trkpt>
      <trkpt lat="46.971016" lon="14.782898">
        <ele>682.56</ele>
        <time>2012-10-25T07:51:03Z</time>
      </trkpt>
      <trkpt lat="46.970959" lon="14.782917">
        <ele>682.62</ele>
        <time>2012-10-25T07:51:04Z</time>
      </trkpt>
      <trkpt lat="46.970902" lon="14.782937">
        <ele>682.67</ele>
        <time>2012-10-25T07:51:05Z</time>
      </trkpt>
      <trkpt lat="46.970776" lon="14.783096">
        <ele>682.73</ele>
        <time>2012-10-25T07:51:08Z</time>
      </trkpt>
      <trkpt lat="46.970745" lon="14.783159">
        <ele>682.78</ele>
        <time>2012-10-25T07:51:09Z</time>
      </trkpt>
      <trkpt lat="46.970715" lon="14.783218">
        <ele>682.84</ele>
        <time>2012-10-25T07:51:10Z</time>
      </trkpt>
      <trkpt lat="46.970676" lon="14.783267">
        <ele>682.89</ele>
        <time>2012-10-25T07:51:11Z</time>
      </trkpt>
      <trkpt lat="46.970592" lon="14.783361">
        <ele>682.95</ele>
        <time>2012-10-25T07:51:13Z</time>
      </trkpt>
      <trkpt lat="46.970547" lon="14.783405">
        <ele>683.00</ele>
        <time>2012-10-25T07:51:14Z</time>
      </trkpt>
      <trkpt lat="46.970501" lon="14.783451">
        <ele>683.05</ele>
        <time>2012-10-25T07:51:15Z</time>
      </trkpt>
      <trkpt lat="46.970463" lon="14.783500">
        <ele>683.11</ele>
        <time>2012-10-25T07:51:16Z</time>
      </trkpt>
      <trkpt lat="46.970421" lon="14.783546">
        <ele>683.16</ele>
        <time>2012-10-25T07:51:17Z</time>
      </trkpt>
      <trkpt lat="46.970295" lon="14.783668">
        <ele>683.22</ele>
        <time>2012-10-25T07:51:20Z</time>
      </trkpt>
      <trkpt lat="46.970257" lon="14.783706">
        <ele>683.27</ele>
        <time>2012-10-25T07:51:21Z</time>
      </trkpt>
      <trkpt lat="46.970009" lon="14.783942">
        <ele>683.33</ele>
        <time>2012-10-25T07:51:27Z</time>
      </trkpt>
      <trkpt lat="46.969666" lon="14.784245">
        <ele>683.38</ele>
        <time>2012-10-25T07:51:34Z</time>
      </trkpt>
      <trkpt lat="46.969620" lon="14.784286">
        <ele>683.44</ele>
        <time>2012-10-25T07:51:35Z</time>
      </trkpt>
      <trkpt lat="46.969479" lon="14.784405">
        <ele>683.49</ele>
        <time>2012-10-25T07:51:38Z</time>
      </trkpt>
      <trkpt lat="46.969288" lon="14.784561">
        <ele>683.55</ele>
        <time>2012-10-25T07:51:42Z</time>
      </trkpt>
      <trkpt lat="46.969242" lon="14.784596">
        <ele>683.60</ele>
        <time>2012-10-25T07:51:43Z</time>
      </trkpt>
      <trkpt lat="46.969196" lon="14.784631">
        <ele>683.66</ele>
        <time>2012-10-25T07:51:44Z</time>
      </trkpt>
      <trkpt lat="46.969154" lon="14.784665">
        <ele>683.71</ele>
        <time>2012-10-25T07:51:45Z</time>
      </trkpt>
      <trkpt lat="46.969105" lon="14.784699">
        <ele>683.77</ele>
        <time>2012-10-25T07:51:46Z</time>
      </trkpt>
      <trkpt lat="46.969063" lon="14.784733">
        <ele>683.82</ele>
        <time>2012-10-25T07:51:47Z</time>
      </trkpt>
      <trkpt lat="46.968975" lon="14.784799">
        <ele>683.88</ele>
        <time>2012-10-25T07:51:49Z</time>
      </trkpt>
      <trkpt lat="46.968807" lon="14.784934">
        <ele>683.93</ele>
        <time>2012-10-25T07:51:53Z</time>
      </trkpt>
      <trkpt lat="46.968700" lon="14.785070">
        <ele>683.98</ele>
        <time>2012-10-25T07:51:56Z</time>
      </trkpt>
      <trkpt lat="46.968586" lon="14.785172">
        <ele>684.04</ele>
        <time>2012-10-25T07:51:59Z</time>
      </trkpt>
      <trkpt lat="46.968491" lon="14.785233">
        <ele>684.09</ele>
        <time>2012-10-25T07:52:01Z</time>
      </trkpt>
      <trkpt lat="46.968445" lon="14.785261">
        <ele>684.15</ele>
        <time>2012-10-25T07:52:02Z</time>
      </trkpt>
      <trkpt lat="46.968174" lon="14.785520">
        <ele>684.20</ele>
        <time>2012-10-25T07:52:08Z</time>
      </trkpt>
      <trkpt lat="46.968102" lon="14.785634">
        <ele>684.26</ele>
        <time>2012-10-25T07:52:10Z</time>
      </trkpt>
      <trkpt lat="46.968071" lon="14.785700">
        <ele>684.31</ele>
        <time>2012-10-25T07:52:11Z</time>
      </trkpt>
      <trkpt lat="46.968044" lon="14.785767">
        <ele>684.37</ele>
        <time>2012-10-25T07:52:12Z</time>
      </trkpt>
      <trkpt lat="46.968021" lon="14.785832">
        <ele>684.42</ele>
        <time>2012-10-25T07:52:13Z</time>
      </trkpt>
      <trkpt lat="46.968002" lon="14.785895">
        <ele>684.48</ele>
        <time>2012-10-25T07:52:14Z</time>
      </trkpt>
      <trkpt lat="46.967991" lon="14.785954">
        <ele>684.53</ele>
        <time>2012-10-25T07:52:15Z</time>
      </trkpt>
      <trkpt lat="46.967976" lon="14.786066">
        <ele>684.59</ele>
        <time>2012-10-25T07:52:17Z</time>
      </trkpt>
      <trkpt lat="46.967964" lon="14.786112">
        <ele>684.64</ele>
        <time>2012-10-25T07:52:18Z</time>
      </trkpt>
      <trkpt lat="46.967888" lon="14.786216">
        <ele>684.70</ele>
        <time>2012-10-25T07:52:21Z</time>
      </trkpt>
      <trkpt lat="46.967854" lon="14.786245">
        <ele>684.75</ele>
        <time>2012-10-25T07:52:22Z</time>
      </trkpt>
      <trkpt lat="46.967735" lon="14.786339">
        <ele>684.80</ele>
        <time>2012-10-25T07:52:25Z</time>
      </trkpt>
      <trkpt lat="46.967617" lon="14.786418">
        <ele>684.86</ele>
        <time>2012-10-25T07:52:28Z</time>
      </trkpt>
      <trkpt lat="46.967579" lon="14.786439">
        <ele>684.91</ele>
        <time>2012-10-25T07:52:29Z</time>
      </trkpt>
      <trkpt lat="46.967510" lon="14.786469">
        <ele>684.97</ele>
        <time>2012-10-25T07:52:31Z</time>
      </trkpt>
      <trkpt lat="46.967476" lon="14.786472">
        <ele>685.02</ele>
        <time>2012-10-25T07:52:32Z</time>
      </trkpt>
      <trkpt lat="46.967445" lon="14.786469">
        <ele>685.08</ele>
        <time>2012-10-25T07:52:33Z</time>
      </trkpt>
      <trkpt lat="46.967403" lon="14.786448">
        <ele>685.13</ele>
        <time>2012-10-25T07:52:34Z</time>
      </trkpt>
      <trkpt lat="46.967354" lon="14.786427">
        <ele>685.19</ele>
        <time>2012-10-25T07:52:35Z</time>
      </trkpt>
      <trkpt lat="46.967266" lon="14.786381">
        <ele>685.24</ele>
        <time>2012-10-25T07:52:37Z</time>
      </trkpt>
      <trkpt lat="46.966904" lon="14.786250">
        <ele>685.30</ele>
        <time>2012-10-25T07:52:44Z</time>
      </trkpt>
      <trkpt lat="46.966598" lon="14.786183">
        <ele>685.35</ele>
        <time>2012-10-25T07:52:50Z</time>
      </trkpt>
      <trkpt lat="46.966198" lon="14.786171">
        <ele>685.41</ele>
        <time>2012-10-25T07:52:57Z</time>
      </trkpt>
      <trkpt lat="46.966137" lon="14.786170">
        <ele>685.46</ele>
        <time>2012-10-25T07:52:58Z</time>
      </trkpt>
      <trkpt lat="46.965946" lon="14.786173">
        <ele>685.52</ele>
        <time>2012-10-25T07:53:01Z</time>
      </trkpt>
      <trkpt lat="46.965885" lon="14.786173">
        <ele>685.57</ele>
        <time>2012-10-25T07:53:02Z</time>
      </trkpt>
      <trkpt lat="46.965824" lon="14.786171">
        <ele>685.63</ele>
        <time>2012-10-25T07:53:03Z</time>
      </trkpt>
      <trkpt lat="46.965767" lon="14.786167">
        <ele>685.68</ele>
        <time>2012-10-25T07:53:04Z</time>
      </trkpt>
      <trkpt lat="46.965710" lon="14.786161">
        <ele>685.73</ele>
        <time>2012-10-25T07:53:05Z</time>
      </trkpt>
      <trkpt lat="46.965313" lon="14.786092">
        <ele>685.79</ele>
        <time>2012-10-25T07:53:12Z</time>
      </trkpt>
      <trkpt lat="46.965054" lon="14.785966">
        <ele>685.84</ele>
        <time>2012-10-25T07:53:17Z</time>
      </trkpt>
      <trkpt lat="46.964775" lon="14.785806">
        <ele>685.90</ele>
        <time>2012-10-25T07:53:23Z</time>
      </trkpt>
      <trkpt lat="46.964729" lon="14.785797">
        <ele>685.95</ele>
        <time>2012-10-25T07:53:24Z</time>
      </trkpt>
      <trkpt lat="46.964680" lon="14.785792">
        <ele>686.01</ele>
        <time>2012-10-25T07:53:25Z</time>
      </trkpt>
      <trkpt lat="46.964630" lon="14.785786">
        <ele>686.06</ele>
        <time>2012-10-25T07:53:26Z</time>
      </trkpt>
      <trkpt lat="46.964584" lon="14.785776">
        <ele>686.12</ele>
        <time>2012-10-25T07:53:27Z</time>
      </trkpt>
      <trkpt lat="46.964542" lon="14.785754">
        <ele>686.17</ele>
        <time>2012-10-25T07:53:28Z</time>
      </trkpt>
      <trkpt lat="46.964512" lon="14.785724">
        <ele>686.23</ele>
        <time>2012-10-25T07:53:29Z</time>
      </trkpt>
      <trkpt lat="46.964474" lon="14.785591">
        <ele>686.28</ele>
        <time>2012-10-25T07:53:33Z</time>
      </trkpt>
      <trkpt lat="46.964485" lon="14.785498">
        <ele>686.34</ele>
        <time>2012-10-25T07:53:36Z</time>
      </trkpt>
      <trkpt lat="46.964485" lon="14.785432">
        <ele>686.39</ele>
        <time>2012-10-25T07:53:38Z</time>
      </trkpt>
      <trkpt lat="46.964432" lon="14.785405">
        <ele>686.45</ele>
        <time>2012-10-25T07:53:41Z</time>
      </trkpt>
      <trkpt lat="46.964302" lon="14.785427">
        <ele>686.50</ele>
        <time>2012-10-25T07:53:44Z</time>
      </trkpt>
      <trkpt lat="46.964245" lon="14.785439">
        <ele>686.55</ele>
        <time>2012-10-25T07:53:45Z</time>
      </trkpt>
      <trkpt lat="46.963879" lon="14.785542">
        <ele>686.61</ele>
        <time>2012-10-25T07:53:51Z</time>
      </trkpt>
      <trkpt lat="46.963589" lon="14.785613">
        <ele>686.66</ele>
        <time>2012-10-25T07:53:56Z</time>
      </trkpt>
      <trkpt lat="46.963493" lon="14.785591">
        <ele>686.72</ele>
        <time>2012-10-25T07:53:58Z</time>
      </trkpt>
      <trkpt lat="46.963337" lon="14.785601">
        <ele>686.77</ele>
        <time>2012-10-25T07:54:01Z</time>
      </trkpt>
      <trkpt lat="46.963284" lon="14.785617">
        <ele>686.83</ele>
        <time>2012-10-25T07:54:02Z</time>
      </trkpt>
      <trkpt lat="46.963024" lon="14.785651">
        <ele>686.88</ele>
        <time>2012-10-25T07:54:07Z</time>
      </trkpt>
      <trkpt lat="46.962978" lon="14.785648">
        <ele>686.94</ele>
        <time>2012-10-25T07:54:08Z</time>
      </trkpt>
      <trkpt lat="46.962795" lon="14.785606">
        <ele>686.99</ele>
        <time>2012-10-25T07:54:12Z</time>
      </trkpt>
      <trkpt lat="46.962658" lon="14.785570">
        <ele>687.05</ele>
        <time>2012-10-25T07:54:15Z</time>
      </trkpt>
      <trkpt lat="46.962608" lon="14.785564">
        <ele>687.10</ele>
        <time>2012-10-25T07:54:16Z</time>
      </trkpt>
      <trkpt lat="46.962460" lon="14.785579">
        <ele>687.16</ele>
        <time>2012-10-25T07:54:19Z</time>
      </trkpt>
      <trkpt lat="46.962357" lon="14.785613">
        <ele>687.21</ele>
        <time>2012-10-25T07:54:21Z</time>
      </trkpt>
      <trkpt lat="46.962040" lon="14.785722">
        <ele>687.27</ele>
        <time>2012-10-25T07:54:27Z</time>
      </trkpt>
      <trkpt lat="46.961792" lon="14.785850">
        <ele>687.32</ele>
        <time>2012-10-25T07:54:32Z</time>
      </trkpt>
      <trkpt lat="46.961716" lon="14.785921">
        <ele>687.38</ele>
        <time>2012-10-25T07:54:34Z</time>
      </trkpt>
      <trkpt lat="46.961601" lon="14.786142">
        <ele>687.43</ele>
        <time>2012-10-25T07:54:38Z</time>
      </trkpt>
      <trkpt lat="46.961567" lon="14.786196">
        <ele>687.48</ele>
        <time>2012-10-25T07:54:39Z</time>
      </trkpt>
      <trkpt lat="46.961529" lon="14.786243">
        <ele>687.54</ele>
        <time>2012-10-25T07:54:40Z</time>
      </trkpt>
      <trkpt lat="46.961487" lon="14.786293">
        <ele>687.59</ele>
        <time>2012-10-25T07:54:41Z</time>
      </trkpt>
      <trkpt lat="46.961453" lon="14.786347">
        <ele>687.65</ele>
        <time>2012-10-25T07:54:42Z</time>
      </trkpt>
      <trkpt lat="46.961399" lon="14.786406">
        <ele>687.70</ele>
        <time>2012-10-25T07:54:43Z</time>
      </trkpt>
      <trkpt lat="46.961350" lon="14.786469">
        <ele>687.76</ele>
        <time>2012-10-25T07:54:44Z</time>
      </trkpt>
      <trkpt lat="46.961269" lon="14.786605">
        <ele>687.81</ele>
        <time>2012-10-25T07:54:46Z</time>
      </trkpt>
      <trkpt lat="46.961243" lon="14.786671">
        <ele>687.87</ele>
        <time>2012-10-25T07:54:47Z</time>
      </trkpt>
      <trkpt lat="46.961224" lon="14.786739">
        <ele>687.92</ele>
        <time>2012-10-25T07:54:48Z</time>
      </trkpt>
      <trkpt lat="46.961208" lon="14.786814">
        <ele>687.98</ele>
        <time>2012-10-25T07:54:49Z</time>
      </trkpt>
      <trkpt lat="46.961224" lon="14.786904">
        <ele>688.03</ele>
        <time>2012-10-25T07:54:50Z</time>
      </trkpt>
      <trkpt lat="46.961224" lon="14.786990">
        <ele>688.09</ele>
        <time>2012-10-25T07:54:51Z</time>
      </trkpt>
      <trkpt lat="46.961216" lon="14.787073">
        <ele>688.14</ele>
        <time>2012-10-25T07:54:52Z</time>
      </trkpt>
      <trkpt lat="46.961266" lon="14.787375">
        <ele>688.20</ele>
        <time>2012-10-25T07:54:55Z</time>
      </trkpt>
      <trkpt lat="46.961216" lon="14.787543">
        <ele>688.25</ele>
        <time>2012-10-25T07:54:57Z</time>
      </trkpt>
      <trkpt lat="46.961189" lon="14.787688">
        <ele>688.30</ele>
        <time>2012-10-25T07:54:59Z</time>
      </trkpt>
      <trkpt lat="46.961201" lon="14.787804">
        <ele>688.36</ele>
        <time>2012-10-25T07:55:01Z</time>
      </trkpt>
      <trkpt lat="46.961327" lon="14.787942">
        <ele>688.41</ele>
        <time>2012-10-25T07:55:03Z</time>
      </trkpt>
      <trkpt lat="46.961353" lon="14.787993">
        <ele>688.47</ele>
        <time>2012-10-25T07:55:04Z</time>
      </trkpt>
      <trkpt lat="46.961426" lon="14.788132">
        <ele>688.52</ele>
        <time>2012-10-25T07:55:07Z</time>
      </trkpt>
      <trkpt lat="46.961445" lon="14.788238">
        <ele>688.58</ele>
        <time>2012-10-25T07:55:09Z</time>
      </trkpt>
      <trkpt lat="46.961453" lon="14.788416">
        <ele>688.63</ele>
        <time>2012-10-25T07:55:12Z</time>
      </trkpt>
      <trkpt lat="46.961433" lon="14.788527">
        <ele>688.69</ele>
        <time>2012-10-25T07:55:14Z</time>
      </trkpt>
      <trkpt lat="46.961399" lon="14.788695">
        <ele>688.74</ele>
        <time>2012-10-25T07:55:17Z</time>
      </trkpt>
      <trkpt lat="46.961411" lon="14.788815">
        <ele>688.80</ele>
        <time>2012-10-25T07:55:19Z</time>
      </trkpt>
      <trkpt lat="46.961472" lon="14.788987">
        <ele>688.85</ele>
        <time>2012-10-25T07:55:22Z</time>
      </trkpt>
      <trkpt lat="46.961525" lon="14.789101">
        <ele>688.91</ele>
        <time>2012-10-25T07:55:24Z</time>
      </trkpt>
      <trkpt lat="46.961559" lon="14.789156">
        <ele>688.96</ele>
        <time>2012-10-25T07:55:25Z</time>
      </trkpt>
      <trkpt lat="46.961590" lon="14.789208">
        <ele>689.02</ele>
        <time>2012-10-25T07:55:26Z</time>
      </trkpt>
      <trkpt lat="46.961624" lon="14.789258">
        <ele>689.07</ele>
        <time>2012-10-25T07:55:27Z</time>
      </trkpt>
      <trkpt lat="46.961651" lon="14.789296">
        <ele>689.13</ele>
        <time>2012-10-25T07:55:28Z</time>
      </trkpt>
      <trkpt lat="46.961678" lon="14.789327">
        <ele>689.18</ele>
        <time>2012-10-25T07:55:29Z</time>
      </trkpt>
      <trkpt lat="46.961704" lon="14.789358">
        <ele>689.23</ele>
        <time>2012-10-25T07:55:30Z</time>
      </trkpt>
      <trkpt lat="46.961845" lon="14.789514">
        <ele>689.29</ele>
        <time>2012-10-25T07:55:35Z</time>
      </trkpt>
      <trkpt lat="46.961872" lon="14.789542">
        <ele>689.34</ele>
        <time>2012-10-25T07:55:36Z</time>
      </trkpt>
      <trkpt lat="46.961899" lon="14.789571">
        <ele>689.40</ele>
        <time>2012-10-25T07:55:37Z</time>
      </trkpt>
      <trkpt lat="46.961918" lon="14.789606">
        <ele>689.45</ele>
        <time>2012-10-25T07:55:38Z</time>
      </trkpt>
      <trkpt lat="46.961945" lon="14.789637">
        <ele>689.51</ele>
        <time>2012-10-25T07:55:39Z</time>
      </trkpt>
      <trkpt lat="46.962044" lon="14.789782">
        <ele>689.56</ele>
        <time>2012-10-25T07:55:43Z</time>
      </trkpt>
      <trkpt lat="46.962067" lon="14.789818">
        <ele>689.62</ele>
        <time>2012-10-25T07:55:44Z</time>
      </trkpt>
      <trkpt lat="46.962090" lon="14.789849">
        <ele>689.67</ele>
        <time>2012-10-25T07:55:45Z</time>
      </trkpt>
      <trkpt lat="46.962105" lon="14.789881">
        <ele>689.73</ele>
        <time>2012-10-25T07:55:46Z</time>
      </trkpt>
      <trkpt lat="46.962124" lon="14.789912">
        <ele>689.78</ele>
        <time>2012-10-25T07:55:47Z</time>
      </trkpt>
      <trkpt lat="46.962154" lon="14.790026">
        <ele>689.84</ele>
        <time>2012-10-25T07:55:50Z</time>
      </trkpt>
      <trkpt lat="46.962212" lon="14.790213">
        <ele>689.89</ele>
        <time>2012-10-25T07:55:56Z</time>
      </trkpt>
      <trkpt lat="46.962322" lon="14.790337">
        <ele>689.95</ele>
        <time>2012-10-25T07:56:01Z</time>
      </trkpt>
      <trkpt lat="46.962341" lon="14.790361">
        <ele>690.00</ele>
        <time>2012-10-25T07:56:02Z</time>
      </trkpt>
      <trkpt lat="46.962360" lon="14.790384">
        <ele>690.05</ele>
        <time>2012-10-25T07:56:03Z</time>
      </trkpt>
      <trkpt lat="46.962379" lon="14.790404">
        <ele>690.11</ele>
        <time>2012-10-25T07:56:04Z</time>
      </trkpt>
      <trkpt lat="46.962402" lon="14.790430">
        <ele>690.16</ele>
        <time>2012-10-25T07:56:05Z</time>
      </trkpt>
      <trkpt lat="46.962425" lon="14.790456">
        <ele>690.22</ele>
        <time>2012-10-25T07:56:06Z</time>
      </trkpt>
      <trkpt lat="46.962448" lon="14.790486">
        <ele>690.27</ele>
        <time>2012-10-25T07:56:07Z</time>
      </trkpt>
      <trkpt lat="46.962471" lon="14.790513">
        <ele>690.33</ele>
        <time>2012-10-25T07:56:08Z</time>
      </trkpt>
      <trkpt lat="46.962593" lon="14.790638">
        <ele>690.38</ele>
        <time>2012-10-25T07:56:14Z</time>
      </trkpt>
      <trkpt lat="46.962662" lon="14.790722">
        <ele>690.44</ele>
        <time>2012-10-25T07:56:18Z</time>
      </trkpt>
      <trkpt lat="46.962685" lon="14.790744">
        <ele>690.49</ele>
        <time>2012-10-25T07:56:19Z</time>
      </trkpt>
      <trkpt lat="46.962708" lon="14.790767">
        <ele>690.55</ele>
        <time>2012-10-25T07:56:20Z</time>
      </trkpt>
      <trkpt lat="46.962730" lon="14.790787">
        <ele>690.60</ele>
        <time>2012-10-25T07:56:21Z</time>
      </trkpt>
      <trkpt lat="46.962753" lon="14.790809">
        <ele>690.66</ele>
        <time>2012-10-25T07:56:22Z</time>
      </trkpt>
      <trkpt lat="46.962856" lon="14.790894">
        <ele>690.71</ele>
        <time>2012-10-25T07:56:27Z</time>
      </trkpt>
      <trkpt lat="46.963032" lon="14.791014">
        <ele>690.77</ele>
        <time>2012-10-25T07:56:33Z</time>
      </trkpt>
      <trkpt lat="46.963055" lon="14.791033">
        <ele>690.82</ele>
        <time>2012-10-25T07:56:34Z</time>
      </trkpt>
      <trkpt lat="46.963070" lon="14.791051">
        <ele>690.88</ele>
        <time>2012-10-25T07:56:35Z</time>
      </trkpt>
      <trkpt lat="46.963085" lon="14.791069">
        <ele>690.93</ele>
        <time>2012-10-25T07:56:36Z</time>
      </trkpt>
      <trkpt lat="46.963200" lon="14.791187">
        <ele>690.98</ele>
        <time>2012-10-25T07:56:43Z</time>
      </trkpt>
      <trkpt lat="46.963379" lon="14.791344">
        <ele>691.04</ele>
        <time>2012-10-25T07:56:51Z</time>
      </trkpt>
      <trkpt lat="46.963383" lon="14.791371">
        <ele>691.09</ele>
        <time>2012-10-25T07:56:52Z</time>
      </trkpt>
      <trkpt lat="46.963398" lon="14.791411">
        <ele>691.15</ele>
        <time>2012-10-25T07:56:53Z</time>
      </trkpt>
      <trkpt lat="46.963402" lon="14.791446">
        <ele>691.20</ele>
        <time>2012-10-25T07:56:54Z</time>
      </trkpt>
      <trkpt lat="46.963402" lon="14.791486">
        <ele>691.26</ele>
        <time>2012-10-25T07:56:55Z</time>
      </trkpt>
      <trkpt lat="46.963390" lon="14.791528">
        <ele>691.31</ele>
        <time>2012-10-25T07:56:56Z</time>
      </trkpt>
      <trkpt lat="46.963375" lon="14.791571">
        <ele>691.37</ele>
        <time>2012-10-25T07:56:57Z</time>
      </trkpt>
      <trkpt lat="46.963337" lon="14.791697">
        <ele>691.42</ele>
        <time>2012-10-25T07:57:00Z</time>
      </trkpt>
      <trkpt lat="46.963310" lon="14.791787">
        <ele>691.48</ele>
        <time>2012-10-25T07:57:02Z</time>
      </trkpt>
      <trkpt lat="46.963261" lon="14.791940">
        <ele>691.53</ele>
        <time>2012-10-25T07:57:05Z</time>
      </trkpt>
      <trkpt lat="46.963238" lon="14.791990">
        <ele>691.59</ele>
        <time>2012-10-25T07:57:06Z</time>
      </trkpt>
      <trkpt lat="46.963162" lon="14.792230">
        <ele>691.64</ele>
        <time>2012-10-25T07:57:11Z</time>
      </trkpt>
      <trkpt lat="46.963100" lon="14.792410">
        <ele>691.70</ele>
        <time>2012-10-25T07:57:15Z</time>
      </trkpt>
      <trkpt lat="46.963043" lon="14.792537">
        <ele>691.75</ele>
        <time>2012-10-25T07:57:18Z</time>
      </trkpt>
      <trkpt lat="46.962997" lon="14.792630">
        <ele>691.80</ele>
        <time>2012-10-25T07:57:21Z</time>
      </trkpt>
      <trkpt lat="46.962982" lon="14.792649">
        <ele>691.86</ele>
        <time>2012-10-25T07:57:23Z</time>
      </trkpt>
      <trkpt lat="46.962944" lon="14.792702">
        <ele>691.91</ele>
        <time>2012-10-25T07:57:28Z</time>
      </trkpt>
      <trkpt lat="46.962879" lon="14.792838">
        <ele>691.97</ele>
        <time>2012-10-25T07:57:31Z</time>
      </trkpt>
      <trkpt lat="46.962788" lon="14.793344">
        <ele>692.02</ele>
        <time>2012-10-25T07:57:39Z</time>
      </trkpt>
      <trkpt lat="46.962624" lon="14.793825">
        <ele>692.08</ele>
        <time>2012-10-25T07:57:46Z</time>
      </trkpt>
      <trkpt lat="46.962589" lon="14.793894">
        <ele>692.13</ele>
        <time>2012-10-25T07:57:47Z</time>
      </trkpt>
      <trkpt lat="46.962551" lon="14.793961">
        <ele>692.19</ele>
        <time>2012-10-25T07:57:48Z</time>
      </trkpt>
      <trkpt lat="46.962376" lon="14.794238">
        <ele>692.24</ele>
        <time>2012-10-25T07:57:52Z</time>
      </trkpt>
      <trkpt lat="46.961998" lon="14.794794">
        <ele>692.30</ele>
        <time>2012-10-25T07:58:00Z</time>
      </trkpt>
      <trkpt lat="46.961784" lon="14.795040">
        <ele>692.35</ele>
        <time>2012-10-25T07:58:04Z</time>
      </trkpt>
      <trkpt lat="46.961727" lon="14.795093">
        <ele>692.41</ele>
        <time>2012-10-25T07:58:05Z</time>
      </trkpt>
      <trkpt lat="46.961666" lon="14.795145">
        <ele>692.46</ele>
        <time>2012-10-25T07:58:06Z</time>
      </trkpt>
      <trkpt lat="46.961613" lon="14.795194">
        <ele>692.52</ele>
        <time>2012-10-25T07:58:07Z</time>
      </trkpt>
      <trkpt lat="46.961555" lon="14.795240">
        <ele>692.57</ele>
        <time>2012-10-25T07:58:08Z</time>
      </trkpt>
      <trkpt lat="46.961460" lon="14.795312">
        <ele>692.63</ele>
        <time>2012-10-25T07:58:10Z</time>
      </trkpt>
      <trkpt lat="46.961361" lon="14.795369">
        <ele>692.68</ele>
        <time>2012-10-25T07:58:12Z</time>
      </trkpt>
      <trkpt lat="46.961189" lon="14.795453">
        <ele>692.73</ele>
        <time>2012-10-25T07:58:15Z</time>
      </trkpt>
      <trkpt lat="46.961132" lon="14.795482">
        <ele>692.79</ele>
        <time>2012-10-25T07:58:16Z</time>
      </trkpt>
      <trkpt lat="46.961086" lon="14.795505">
        <ele>692.84</ele>
        <time>2012-10-25T07:58:17Z</time>
      </trkpt>
      <trkpt lat="46.961048" lon="14.795506">
        <ele>692.90</ele>
        <time>2012-10-25T07:58:18Z</time>
      </trkpt>
      <trkpt lat="46.961025" lon="14.795484">
        <ele>692.95</ele>
        <time>2012-10-25T07:58:19Z</time>
      </trkpt>
      <trkpt lat="46.961010" lon="14.795431">
        <ele>693.01</ele>
        <time>2012-10-25T07:58:21Z</time>
      </trkpt>
      <trkpt lat="46.961006" lon="14.795442">
        <ele>693.00</ele>
        <time>2012-10-25T07:58:22Z</time>
      </trkpt>
      <trkpt lat="46.960995" lon="14.795467">
        <ele>693.00</ele>
        <time>2012-10-25T07:58:23Z</time>
      </trkpt>
      <trkpt lat="46.960983" lon="14.795497">
        <ele>693.00</ele>
        <time>2012-10-25T07:58:24Z</time>
      </trkpt>
      <trkpt lat="46.960960" lon="14.795530">
        <ele>692.00</ele>
        <time>2012-10-25T07:58:25Z</time>
      </trkpt>
      <trkpt lat="46.960938" lon="14.795566">
        <ele>692.00</ele>
        <time>2012-10-25T07:58:26Z</time>
      </trkpt>
      <trkpt lat="46.960854" lon="14.795609">
        <ele>692.00</ele>
        <time>2012-10-25T07:58:28Z</time>
      </trkpt>
      <trkpt lat="46.960686" lon="14.795680">
        <ele>692.00</ele>
        <time>2012-10-25T07:58:31Z</time>
      </trkpt>
      <trkpt lat="46.960567" lon="14.795743">
        <ele>692.00</ele>
        <time>2012-10-25T07:58:33Z</time>
      </trkpt>
      <trkpt lat="46.960182" lon="14.795945">
        <ele>692.00</ele>
        <time>2012-10-25T07:58:39Z</time>
      </trkpt>
      <trkpt lat="46.960121" lon="14.795982">
        <ele>692.00</ele>
        <time>2012-10-25T07:58:40Z</time>
      </trkpt>
      <trkpt lat="46.959717" lon="14.796250">
        <ele>691.00</ele>
        <time>2012-10-25T07:58:46Z</time>
      </trkpt>
      <trkpt lat="46.959648" lon="14.796306">
        <ele>691.00</ele>
        <time>2012-10-25T07:58:47Z</time>
      </trkpt>
      <trkpt lat="46.959583" lon="14.796361">
        <ele>691.00</ele>
        <time>2012-10-25T07:58:48Z</time>
      </trkpt>
      <trkpt lat="46.959515" lon="14.796417">
        <ele>691.00</ele>
        <time>2012-10-25T07:58:49Z</time>
      </trkpt>
      <trkpt lat="46.959446" lon="14.796481">
        <ele>690.00</ele>
        <time>2012-10-25T07:58:50Z</time>
      </trkpt>
      <trkpt lat="46.959381" lon="14.796546">
        <ele>690.00</ele>
        <time>2012-10-25T07:58:51Z</time>
      </trkpt>
      <trkpt lat="46.959316" lon="14.796612">
        <ele>690.00</ele>
        <time>2012-10-25T07:58:52Z</time>
      </trkpt>
      <trkpt lat="46.959187" lon="14.796751">
        <ele>689.00</ele>
        <time>2012-10-25T07:58:54Z</time>
      </trkpt>
      <trkpt lat="46.959126" lon="14.796822">
        <ele>689.00</ele>
        <time>2012-10-25T07:58:55Z</time>
      </trkpt>
      <trkpt lat="46.959065" lon="14.796894">
        <ele>688.00</ele>
        <time>2012-10-25T07:58:56Z</time>
      </trkpt>
      <trkpt lat="46.959000" lon="14.796970">
        <ele>688.00</ele>
        <time>2012-10-25T07:58:57Z</time>
      </trkpt>
      <trkpt lat="46.958935" lon="14.797054">
        <ele>687.00</ele>
        <time>2012-10-25T07:58:58Z</time>
      </trkpt>
      <trkpt lat="46.958816" lon="14.797225">
        <ele>687.00</ele>
        <time>2012-10-25T07:59:00Z</time>
      </trkpt>
      <trkpt lat="46.958752" lon="14.797309">
        <ele>686.00</ele>
        <time>2012-10-25T07:59:01Z</time>
      </trkpt>
      <trkpt lat="46.958691" lon="14.797394">
        <ele>686.00</ele>
        <time>2012-10-25T07:59:02Z</time>
      </trkpt>
      <trkpt lat="46.958630" lon="14.797484">
        <ele>685.00</ele>
        <time>2012-10-25T07:59:03Z</time>
      </trkpt>
      <trkpt lat="46.958569" lon="14.797577">
        <ele>685.00</ele>
        <time>2012-10-25T07:59:04Z</time>
      </trkpt>
      <trkpt lat="46.958504" lon="14.797670">
        <ele>685.00</ele>
        <time>2012-10-25T07:59:05Z</time>
      </trkpt>
      <trkpt lat="46.958435" lon="14.797771">
        <ele>684.00</ele>
        <time>2012-10-25T07:59:06Z</time>
      </trkpt>
      <trkpt lat="46.958374" lon="14.797865">
        <ele>684.00</ele>
        <time>2012-10-25T07:59:07Z</time>
      </trkpt>
      <trkpt lat="46.958309" lon="14.797959">
        <ele>683.00</ele>
        <time>2012-10-25T07:59:08Z</time>
      </trkpt>
      <trkpt lat="46.958248" lon="14.798053">
        <ele>683.00</ele>
        <time>2012-10-25T07:59:09Z</time>
      </trkpt>
      <trkpt lat="46.958008" lon="14.798423">
        <ele>682.00</ele>
        <time>2012-10-25T07:59:13Z</time>
      </trkpt>
      <trkpt lat="46.957943" lon="14.798516">
        <ele>682.00</ele>
        <time>2012-10-25T07:59:14Z</time>
      </trkpt>
      <trkpt lat="46.957886" lon="14.798610">
        <ele>681.00</ele>
        <time>2012-10-25T07:59:15Z</time>
      </trkpt>
      <trkpt lat="46.957829" lon="14.798700">
        <ele>681.00</ele>
        <time>2012-10-25T07:59:16Z</time>
      </trkpt>
      <trkpt lat="46.957767" lon="14.798790">
        <ele>681.00</ele>
        <time>2012-10-25T07:59:17Z</time>
      </trkpt>
      <trkpt lat="46.957596" lon="14.799055">
        <ele>680.00</ele>
        <time>2012-10-25T07:59:20Z</time>
      </trkpt>
      <trkpt lat="46.957531" lon="14.799149">
        <ele>679.00</ele>
        <time>2012-10-25T07:59:21Z</time>
      </trkpt>
      <trkpt lat="46.957474" lon="14.799237">
        <ele>679.00</ele>
        <time>2012-10-25T07:59:22Z</time>
      </trkpt>
      <trkpt lat="46.957413" lon="14.799325">
        <ele>679.00</ele>
        <time>2012-10-25T07:59:23Z</time>
      </trkpt>
      <trkpt lat="46.957352" lon="14.799413">
        <ele>678.00</ele>
        <time>2012-10-25T07:59:24Z</time>
      </trkpt>
      <trkpt lat="46.957233" lon="14.799591">
        <ele>678.00</ele>
        <time>2012-10-25T07:59:26Z</time>
      </trkpt>
      <trkpt lat="46.957176" lon="14.799682">
        <ele>677.00</ele>
        <time>2012-10-25T07:59:27Z</time>
      </trkpt>
      <trkpt lat="46.957115" lon="14.799770">
        <ele>677.00</ele>
        <time>2012-10-25T07:59:28Z</time>
      </trkpt>
      <trkpt lat="46.957050" lon="14.799864">
        <ele>677.00</ele>
        <time>2012-10-25T07:59:29Z</time>
      </trkpt>
      <trkpt lat="46.956989" lon="14.799952">
        <ele>676.00</ele>
        <time>2012-10-25T07:59:30Z</time>
      </trkpt>
      <trkpt lat="46.956863" lon="14.800122">
        <ele>675.00</ele>
        <time>2012-10-25T07:59:32Z</time>
      </trkpt>
      <trkpt lat="46.956802" lon="14.800206">
        <ele>675.00</ele>
        <time>2012-10-25T07:59:33Z</time>
      </trkpt>
      <trkpt lat="46.956741" lon="14.800292">
        <ele>675.00</ele>
        <time>2012-10-25T07:59:34Z</time>
      </trkpt>
      <trkpt lat="46.956677" lon="14.800376">
        <ele>674.00</ele>
        <time>2012-10-25T07:59:35Z</time>
      </trkpt>
      <trkpt lat="46.956608" lon="14.800463">
        <ele>674.00</ele>
        <time>2012-10-25T07:59:37Z</time>
      </trkpt>
      <trkpt lat="46.956409" lon="14.800694">
        <ele>673.00</ele>
        <time>2012-10-25T07:59:40Z</time>
      </trkpt>
      <trkpt lat="46.956341" lon="14.800771">
        <ele>673.00</ele>
        <time>2012-10-25T07:59:41Z</time>
      </trkpt>
      <trkpt lat="46.956272" lon="14.800847">
        <ele>672.00</ele>
        <time>2012-10-25T07:59:42Z</time>
      </trkpt>
      <trkpt lat="46.956203" lon="14.800921">
        <ele>672.00</ele>
        <time>2012-10-25T07:59:43Z</time>
      </trkpt>
      <trkpt lat="46.956135" lon="14.800991">
        <ele>672.00</ele>
        <time>2012-10-25T07:59:44Z</time>
      </trkpt>
      <trkpt lat="46.955856" lon="14.801271">
        <ele>671.00</ele>
        <time>2012-10-25T07:59:48Z</time>
      </trkpt>
      <trkpt lat="46.955784" lon="14.801337">
        <ele>670.00</ele>
        <time>2012-10-25T07:59:49Z</time>
      </trkpt>
      <trkpt lat="46.955711" lon="14.801404">
        <ele>670.00</ele>
        <time>2012-10-25T07:59:50Z</time>
      </trkpt>
      <trkpt lat="46.955643" lon="14.801469">
        <ele>670.00</ele>
        <time>2012-10-25T07:59:51Z</time>
      </trkpt>
      <trkpt lat="46.955574" lon="14.801533">
        <ele>670.00</ele>
        <time>2012-10-25T07:59:52Z</time>
      </trkpt>
      <trkpt lat="46.955502" lon="14.801595">
        <ele>669.00</ele>
        <time>2012-10-25T07:59:53Z</time>
      </trkpt>
      <trkpt lat="46.955242" lon="14.801817">
        <ele>669.00</ele>
        <time>2012-10-25T07:59:57Z</time>
      </trkpt>
      <trkpt lat="46.955181" lon="14.801868">
        <ele>668.00</ele>
        <time>2012-10-25T07:59:58Z</time>
      </trkpt>
      <trkpt lat="46.955120" lon="14.801913">
        <ele>668.00</ele>
        <time>2012-10-25T07:59:59Z</time>
      </trkpt>
      <trkpt lat="46.955059" lon="14.801943">
        <ele>668.00</ele>
        <time>2012-10-25T08:00:00Z</time>
      </trkpt>
      <trkpt lat="46.955006" lon="14.801936">
        <ele>668.00</ele>
        <time>2012-10-25T08:00:01Z</time>
      </trkpt>
      <trkpt lat="46.954926" lon="14.801889">
        <ele>667.00</ele>
        <time>2012-10-25T08:00:03Z</time>
      </trkpt>
      <trkpt lat="46.954880" lon="14.801823">
        <ele>667.00</ele>
        <time>2012-10-25T08:00:06Z</time>
      </trkpt>
      <trkpt lat="46.954872" lon="14.801805">
        <ele>667.00</ele>
        <time>2012-10-25T08:00:07Z</time>
      </trkpt>
      <trkpt lat="46.954857" lon="14.801762">
        <ele>667.00</ele>
        <time>2012-10-25T08:00:09Z</time>
      </trkpt>
      <trkpt lat="46.954845" lon="14.801739">
        <ele>666.00</ele>
        <time>2012-10-25T08:00:10Z</time>
      </trkpt>
      <trkpt lat="46.954834" lon="14.801707">
        <ele>666.00</ele>
        <time>2012-10-25T08:00:11Z</time>
      </trkpt>
      <trkpt lat="46.954823" lon="14.801667">
        <ele>666.00</ele>
        <time>2012-10-25T08:00:12Z</time>
      </trkpt>
      <trkpt lat="46.954819" lon="14.801619">
        <ele>665.00</ele>
        <time>2012-10-25T08:00:13Z</time>
      </trkpt>
      <trkpt lat="46.954807" lon="14.801353">
        <ele>665.00</ele>
        <time>2012-10-25T08:00:17Z</time>
      </trkpt>
      <trkpt lat="46.954700" lon="14.801195">
        <ele>665.00</ele>
        <time>2012-10-25T08:00:20Z</time>
      </trkpt>
      <trkpt lat="46.954548" lon="14.801159">
        <ele>665.00</ele>
        <time>2012-10-25T08:00:23Z</time>
      </trkpt>
      <trkpt lat="46.954441" lon="14.801161">
        <ele>665.00</ele>
        <time>2012-10-25T08:00:25Z</time>
      </trkpt>
      <trkpt lat="46.954338" lon="14.801227">
        <ele>665.00</ele>
        <time>2012-10-25T08:00:27Z</time>
      </trkpt>
      <trkpt lat="46.954254" lon="14.801406">
        <ele>665.00</ele>
        <time>2012-10-25T08:00:30Z</time>
      </trkpt>
      <trkpt lat="46.954197" lon="14.801650">
        <ele>665.00</ele>
        <time>2012-10-25T08:00:34Z</time>
      </trkpt>
      <trkpt lat="46.954090" lon="14.801735">
        <ele>665.00</ele>
        <time>2012-10-25T08:00:37Z</time>
      </trkpt>
      <trkpt lat="46.954052" lon="14.801750">
        <ele>665.00</ele>
        <time>2012-10-25T08:00:38Z</time>
      </trkpt>
      <trkpt lat="46.953976" lon="14.801795">
        <ele>665.00</ele>
        <time>2012-10-25T08:00:40Z</time>
      </trkpt>
      <trkpt lat="46.953915" lon="14.801888">
        <ele>665.00</ele>
        <time>2012-10-25T08:00:42Z</time>
      </trkpt>
      <trkpt lat="46.953869" lon="14.802034">
        <ele>665.00</ele>
        <time>2012-10-25T08:00:44Z</time>
      </trkpt>
      <trkpt lat="46.953812" lon="14.802202">
        <ele>665.00</ele>
        <time>2012-10-25T08:00:46Z</time>
      </trkpt>
      <trkpt lat="46.953690" lon="14.802549">
        <ele>665.00</ele>
        <time>2012-10-25T08:00:50Z</time>
      </trkpt>
      <trkpt lat="46.953663" lon="14.802630">
        <ele>664.00</ele>
        <time>2012-10-25T08:00:51Z</time>
      </trkpt>
      <trkpt lat="46.953632" lon="14.802701">
        <ele>664.00</ele>
        <time>2012-10-25T08:00:52Z</time>
      </trkpt>
      <trkpt lat="46.953594" lon="14.802766">
        <ele>664.00</ele>
        <time>2012-10-25T08:00:53Z</time>
      </trkpt>
      <trkpt lat="46.953560" lon="14.802822">
        <ele>663.00</ele>
        <time>2012-10-25T08:00:54Z</time>
      </trkpt>
      <trkpt lat="46.953522" lon="14.802876">
        <ele>663.00</ele>
        <time>2012-10-25T08:00:55Z</time>
      </trkpt>
      <trkpt lat="46.953453" lon="14.802984">
        <ele>663.00</ele>
        <time>2012-10-25T08:00:57Z</time>
      </trkpt>
      <trkpt lat="46.953423" lon="14.803034">
        <ele>663.00</ele>
        <time>2012-10-25T08:00:58Z</time>
      </trkpt>
      <trkpt lat="46.953335" lon="14.803193">
        <ele>663.00</ele>
        <time>2012-10-25T08:01:01Z</time>
      </trkpt>
      <trkpt lat="46.953289" lon="14.803321">
        <ele>663.00</ele>
        <time>2012-10-25T08:01:03Z</time>
      </trkpt>
      <trkpt lat="46.953247" lon="14.803548">
        <ele>663.00</ele>
        <time>2012-10-25T08:01:06Z</time>
      </trkpt>
      <trkpt lat="46.953209" lon="14.803710">
        <ele>663.00</ele>
        <time>2012-10-25T08:01:08Z</time>
      </trkpt>
      <trkpt lat="46.953114" lon="14.803833">
        <ele>663.00</ele>
        <time>2012-10-25T08:01:10Z</time>
      </trkpt>
      <trkpt lat="46.952801" lon="14.804210">
        <ele>663.00</ele>
        <time>2012-10-25T08:01:16Z</time>
      </trkpt>
      <trkpt lat="46.952702" lon="14.804346">
        <ele>663.00</ele>
        <time>2012-10-25T08:01:18Z</time>
      </trkpt>
      <trkpt lat="46.952278" lon="14.804955">
        <ele>663.00</ele>
        <time>2012-10-25T08:01:27Z</time>
      </trkpt>
      <trkpt lat="46.951958" lon="14.805446">
        <ele>662.00</ele>
        <time>2012-10-25T08:01:34Z</time>
      </trkpt>
      <trkpt lat="46.951916" lon="14.805518">
        <ele>662.00</ele>
        <time>2012-10-25T08:01:35Z</time>
      </trkpt>
      <trkpt lat="46.951870" lon="14.805592">
        <ele>662.00</ele>
        <time>2012-10-25T08:01:36Z</time>
      </trkpt>
      <trkpt lat="46.951828" lon="14.805665">
        <ele>661.00</ele>
        <time>2012-10-25T08:01:37Z</time>
      </trkpt>
      <trkpt lat="46.951572" lon="14.806102">
        <ele>661.00</ele>
        <time>2012-10-25T08:01:43Z</time>
      </trkpt>
      <trkpt lat="46.951530" lon="14.806177">
        <ele>661.00</ele>
        <time>2012-10-25T08:01:44Z</time>
      </trkpt>
      <trkpt lat="46.951176" lon="14.806849">
        <ele>661.00</ele>
        <time>2012-10-25T08:01:53Z</time>
      </trkpt>
      <trkpt lat="46.951138" lon="14.806923">
        <ele>661.00</ele>
        <time>2012-10-25T08:01:54Z</time>
      </trkpt>
      <trkpt lat="46.950935" lon="14.807379">
        <ele>660.00</ele>
        <time>2012-10-25T08:02:00Z</time>
      </trkpt>
      <trkpt lat="46.950897" lon="14.807456">
        <ele>660.00</ele>
        <time>2012-10-25T08:02:01Z</time>
      </trkpt>
      <trkpt lat="46.950863" lon="14.807529">
        <ele>660.00</ele>
        <time>2012-10-25T08:02:02Z</time>
      </trkpt>
      <trkpt lat="46.950832" lon="14.807603">
        <ele>659.00</ele>
        <time>2012-10-25T08:02:03Z</time>
      </trkpt>
      <trkpt lat="46.950798" lon="14.807677">
        <ele>659.00</ele>
        <time>2012-10-25T08:02:04Z</time>
      </trkpt>
      <trkpt lat="46.950554" lon="14.808313">
        <ele>659.00</ele>
        <time>2012-10-25T08:02:12Z</time>
      </trkpt>
      <trkpt lat="46.950371" lon="14.808770">
        <ele>659.00</ele>
        <time>2012-10-25T08:02:18Z</time>
      </trkpt>
      <trkpt lat="46.950275" lon="14.808985">
        <ele>659.00</ele>
        <time>2012-10-25T08:02:21Z</time>
      </trkpt>
      <trkpt lat="46.950123" lon="14.809245">
        <ele>659.00</ele>
        <time>2012-10-25T08:02:25Z</time>
      </trkpt>
      <trkpt lat="46.949955" lon="14.809576">
        <ele>659.00</ele>
        <time>2012-10-25T08:02:30Z</time>
      </trkpt>
      <trkpt lat="46.949837" lon="14.809734">
        <ele>658.00</ele>
        <time>2012-10-25T08:02:33Z</time>
      </trkpt>
      <trkpt lat="46.949799" lon="14.809786">
        <ele>658.00</ele>
        <time>2012-10-25T08:02:34Z</time>
      </trkpt>
      <trkpt lat="46.949760" lon="14.809836">
        <ele>658.00</ele>
        <time>2012-10-25T08:02:35Z</time>
      </trkpt>
      <trkpt lat="46.949718" lon="14.809885">
        <ele>658.00</ele>
        <time>2012-10-25T08:02:36Z</time>
      </trkpt>
      <trkpt lat="46.949684" lon="14.809929">
        <ele>657.00</ele>
        <time>2012-10-25T08:02:37Z</time>
      </trkpt>
      <trkpt lat="46.949642" lon="14.809975">
        <ele>657.00</ele>
        <time>2012-10-25T08:02:38Z</time>
      </trkpt>
      <trkpt lat="46.949516" lon="14.810092">
        <ele>657.00</ele>
        <time>2012-10-25T08:02:42Z</time>
      </trkpt>
      <trkpt lat="46.949486" lon="14.810104">
        <ele>657.00</ele>
        <time>2012-10-25T08:02:43Z</time>
      </trkpt>
      <trkpt lat="46.949303" lon="14.810123">
        <ele>657.00</ele>
        <time>2012-10-25T08:02:48Z</time>
      </trkpt>
      <trkpt lat="46.949173" lon="14.810101">
        <ele>657.00</ele>
        <time>2012-10-25T08:02:53Z</time>
      </trkpt>
      <trkpt lat="46.949154" lon="14.810134">
        <ele>657.00</ele>
        <time>2012-10-25T08:02:54Z</time>
      </trkpt>
      <trkpt lat="46.949142" lon="14.810220">
        <ele>657.00</ele>
        <time>2012-10-25T08:02:56Z</time>
      </trkpt>
      <trkpt lat="46.949196" lon="14.810372">
        <ele>657.00</ele>
        <time>2012-10-25T08:03:00Z</time>
      </trkpt>
      <trkpt lat="46.949188" lon="14.810568">
        <ele>657.00</ele>
        <time>2012-10-25T08:03:04Z</time>
      </trkpt>
      <trkpt lat="46.949165" lon="14.810605">
        <ele>657.00</ele>
        <time>2012-10-25T08:03:05Z</time>
      </trkpt>
      <trkpt lat="46.949013" lon="14.810817">
        <ele>657.00</ele>
        <time>2012-10-25T08:03:10Z</time>
      </trkpt>
      <trkpt lat="46.948944" lon="14.810916">
        <ele>657.00</ele>
        <time>2012-10-25T08:03:12Z</time>
      </trkpt>
      <trkpt lat="46.948818" lon="14.811146">
        <ele>657.00</ele>
        <time>2012-10-25T08:03:16Z</time>
      </trkpt>
      <trkpt lat="46.948688" lon="14.811400">
        <ele>657.00</ele>
        <time>2012-10-25T08:03:20Z</time>
      </trkpt>
      <trkpt lat="46.948601" lon="14.811608">
        <ele>657.00</ele>
        <time>2012-10-25T08:03:23Z</time>
      </trkpt>
      <trkpt lat="46.948380" lon="14.812220">
        <ele>657.00</ele>
        <time>2012-10-25T08:03:31Z</time>
      </trkpt>
      <trkpt lat="46.948173" lon="14.812818">
        <ele>656.00</ele>
        <time>2012-10-25T08:03:38Z</time>
      </trkpt>
      <trkpt lat="46.948139" lon="14.812904">
        <ele>656.00</ele>
        <time>2012-10-25T08:03:39Z</time>
      </trkpt>
      <trkpt lat="46.948109" lon="14.812995">
        <ele>655.00</ele>
        <time>2012-10-25T08:03:40Z</time>
      </trkpt>
      <trkpt lat="46.948078" lon="14.813092">
        <ele>655.00</ele>
        <time>2012-10-25T08:03:41Z</time>
      </trkpt>
      <trkpt lat="46.947956" lon="14.813468">
        <ele>655.00</ele>
        <time>2012-10-25T08:03:45Z</time>
      </trkpt>
      <trkpt lat="46.947857" lon="14.813762">
        <ele>654.00</ele>
        <time>2012-10-25T08:03:48Z</time>
      </trkpt>
      <trkpt lat="46.947823" lon="14.813856">
        <ele>654.00</ele>
        <time>2012-10-25T08:03:49Z</time>
      </trkpt>
      <trkpt lat="46.947792" lon="14.813952">
        <ele>654.00</ele>
        <time>2012-10-25T08:03:50Z</time>
      </trkpt>
      <trkpt lat="46.947754" lon="14.814047">
        <ele>653.00</ele>
        <time>2012-10-25T08:03:51Z</time>
      </trkpt>
      <trkpt lat="46.947720" lon="14.814142">
        <ele>653.00</ele>
        <time>2012-10-25T08:03:52Z</time>
      </trkpt>
      <trkpt lat="46.947681" lon="14.814240">
        <ele>653.00</ele>
        <time>2012-10-25T08:03:53Z</time>
      </trkpt>
      <trkpt lat="46.947357" lon="14.814992">
        <ele>652.00</ele>
        <time>2012-10-25T08:04:01Z</time>
      </trkpt>
      <trkpt lat="46.947308" lon="14.815074">
        <ele>652.00</ele>
        <time>2012-10-25T08:04:02Z</time>
      </trkpt>
      <trkpt lat="46.947262" lon="14.815159">
        <ele>651.00</ele>
        <time>2012-10-25T08:04:03Z</time>
      </trkpt>
      <trkpt lat="46.947216" lon="14.815248">
        <ele>651.00</ele>
        <time>2012-10-25T08:04:04Z</time>
      </trkpt>
      <trkpt lat="46.947075" lon="14.815495">
        <ele>651.00</ele>
        <time>2012-10-25T08:04:06Z</time>
      </trkpt>
      <trkpt lat="46.946732" lon="14.816033">
        <ele>650.00</ele>
        <time>2012-10-25T08:04:14Z</time>
      </trkpt>
      <trkpt lat="46.946583" lon="14.816237">
        <ele>650.00</ele>
        <time>2012-10-25T08:04:17Z</time>
      </trkpt>
      <trkpt lat="46.946529" lon="14.816310">
        <ele>650.00</ele>
        <time>2012-10-25T08:04:18Z</time>
      </trkpt>
      <trkpt lat="46.946476" lon="14.816373">
        <ele>649.00</ele>
        <time>2012-10-25T08:04:19Z</time>
      </trkpt>
      <trkpt lat="46.946423" lon="14.816431">
        <ele>649.00</ele>
        <time>2012-10-25T08:04:20Z</time>
      </trkpt>
      <trkpt lat="46.946369" lon="14.816492">
        <ele>649.00</ele>
        <time>2012-10-25T08:04:21Z</time>
      </trkpt>
      <trkpt lat="46.946018" lon="14.816914">
        <ele>648.00</ele>
        <time>2012-10-25T08:04:28Z</time>
      </trkpt>
      <trkpt lat="46.945923" lon="14.817012">
        <ele>648.00</ele>
        <time>2012-10-25T08:04:30Z</time>
      </trkpt>
      <trkpt lat="46.945877" lon="14.817038">
        <ele>648.00</ele>
        <time>2012-10-25T08:04:31Z</time>
      </trkpt>
      <trkpt lat="46.945831" lon="14.817032">
        <ele>647.00</ele>
        <time>2012-10-25T08:04:32Z</time>
      </trkpt>
      <trkpt lat="46.945789" lon="14.817015">
        <ele>647.00</ele>
        <time>2012-10-25T08:04:33Z</time>
      </trkpt>
      <trkpt lat="46.945755" lon="14.817018">
        <ele>647.00</ele>
        <time>2012-10-25T08:04:34Z</time>
      </trkpt>
      <trkpt lat="46.945686" lon="14.817049">
        <ele>646.00</ele>
        <time>2012-10-25T08:04:36Z</time>
      </trkpt>
      <trkpt lat="46.945614" lon="14.817201">
        <ele>646.00</ele>
        <time>2012-10-25T08:04:40Z</time>
      </trkpt>
      <trkpt lat="46.945553" lon="14.817444">
        <ele>646.00</ele>
        <time>2012-10-25T08:04:44Z</time>
      </trkpt>
      <trkpt lat="46.945480" lon="14.817549">
        <ele>646.00</ele>
        <time>2012-10-25T08:04:46Z</time>
      </trkpt>
      <trkpt lat="46.945362" lon="14.817716">
        <ele>646.00</ele>
        <time>2012-10-25T08:04:49Z</time>
      </trkpt>
      <trkpt lat="46.945236" lon="14.817896">
        <ele>646.00</ele>
        <time>2012-10-25T08:04:52Z</time>
      </trkpt>
      <trkpt lat="46.945053" lon="14.818135">
        <ele>646.00</ele>
        <time>2012-10-25T08:04:56Z</time>
      </trkpt>
      <trkpt lat="46.944691" lon="14.818533">
        <ele>646.00</ele>
        <time>2012-10-25T08:05:03Z</time>
      </trkpt>
      <trkpt lat="46.944588" lon="14.818666">
        <ele>646.00</ele>
        <time>2012-10-25T08:05:05Z</time>
      </trkpt>
      <trkpt lat="46.944530" lon="14.818727">
        <ele>645.00</ele>
        <time>2012-10-25T08:05:06Z</time>
      </trkpt>
      <trkpt lat="46.944477" lon="14.818783">
        <ele>645.00</ele>
        <time>2012-10-25T08:05:07Z</time>
      </trkpt>
      <trkpt lat="46.944420" lon="14.818837">
        <ele>645.00</ele>
        <time>2012-10-25T08:05:08Z</time>
      </trkpt>
      <trkpt lat="46.944366" lon="14.818889">
        <ele>645.00</ele>
        <time>2012-10-25T08:05:09Z</time>
      </trkpt>
      <trkpt lat="46.944305" lon="14.818941">
        <ele>644.00</ele>
        <time>2012-10-25T08:05:10Z</time>
      </trkpt>
      <trkpt lat="46.943855" lon="14.819337">
        <ele>644.00</ele>
        <time>2012-10-25T08:05:18Z</time>
      </trkpt>
      <trkpt lat="46.943691" lon="14.819494">
        <ele>643.00</ele>
        <time>2012-10-25T08:05:21Z</time>
      </trkpt>
      <trkpt lat="46.943634" lon="14.819550">
        <ele>643.00</ele>
        <time>2012-10-25T08:05:22Z</time>
      </trkpt>
      <trkpt lat="46.943577" lon="14.819608">
        <ele>643.00</ele>
        <time>2012-10-25T08:05:23Z</time>
      </trkpt>
      <trkpt lat="46.943520" lon="14.819661">
        <ele>643.00</ele>
        <time>2012-10-25T08:05:24Z</time>
      </trkpt>
      <trkpt lat="46.943466" lon="14.819714">
        <ele>642.00</ele>
        <time>2012-10-25T08:05:25Z</time>
      </trkpt>
      <trkpt lat="46.942936" lon="14.820145">
        <ele>642.00</ele>
        <time>2012-10-25T08:05:34Z</time>
      </trkpt>
      <trkpt lat="46.942566" lon="14.820398">
        <ele>641.00</ele>
        <time>2012-10-25T08:05:40Z</time>
      </trkpt>
      <trkpt lat="46.942505" lon="14.820439">
        <ele>641.00</ele>
        <time>2012-10-25T08:05:41Z</time>
      </trkpt>
      <trkpt lat="46.942440" lon="14.820478">
        <ele>641.00</ele>
        <time>2012-10-25T08:05:42Z</time>
      </trkpt>
      <trkpt lat="46.942379" lon="14.820514">
        <ele>641.00</ele>
        <time>2012-10-25T08:05:43Z</time>
      </trkpt>
      <trkpt lat="46.941948" lon="14.820772">
        <ele>640.00</ele>
        <time>2012-10-25T08:05:50Z</time>
      </trkpt>
      <trkpt lat="46.941647" lon="14.820942">
        <ele>640.00</ele>
        <time>2012-10-25T08:05:55Z</time>
      </trkpt>
      <trkpt lat="46.941460" lon="14.821054">
        <ele>639.00</ele>
        <time>2012-10-25T08:05:58Z</time>
      </trkpt>
      <trkpt lat="46.941338" lon="14.821131">
        <ele>639.00</ele>
        <time>2012-10-25T08:06:00Z</time>
      </trkpt>
      <trkpt lat="46.941277" lon="14.821164">
        <ele>639.00</ele>
        <time>2012-10-25T08:06:01Z</time>
      </trkpt>
      <trkpt lat="46.941212" lon="14.821199">
        <ele>638.00</ele>
        <time>2012-10-25T08:06:02Z</time>
      </trkpt>
      <trkpt lat="46.941151" lon="14.821235">
        <ele>638.00</ele>
        <time>2012-10-25T08:06:03Z</time>
      </trkpt>
      <trkpt lat="46.941090" lon="14.821273">
        <ele>638.00</ele>
        <time>2012-10-25T08:06:04Z</time>
      </trkpt>
      <trkpt lat="46.940971" lon="14.821345">
        <ele>638.00</ele>
        <time>2012-10-25T08:06:06Z</time>
      </trkpt>
      <trkpt lat="46.940495" lon="14.821640">
        <ele>637.00</ele>
        <time>2012-10-25T08:06:14Z</time>
      </trkpt>
      <trkpt lat="46.940151" lon="14.821890">
        <ele>637.00</ele>
        <time>2012-10-25T08:06:20Z</time>
      </trkpt>
      <trkpt lat="46.940094" lon="14.821931">
        <ele>637.00</ele>
        <time>2012-10-25T08:06:21Z</time>
      </trkpt>
      <trkpt lat="46.940041" lon="14.821975">
        <ele>636.00</ele>
        <time>2012-10-25T08:06:22Z</time>
      </trkpt>
      <trkpt lat="46.939980" lon="14.822019">
        <ele>636.00</ele>
        <time>2012-10-25T08:06:23Z</time>
      </trkpt>
      <trkpt lat="46.939926" lon="14.822062">
        <ele>636.00</ele>
        <time>2012-10-25T08:06:24Z</time>
      </trkpt>
      <trkpt lat="46.939491" lon="14.822420">
        <ele>636.00</ele>
        <time>2012-10-25T08:06:32Z</time>
      </trkpt>
      <trkpt lat="46.939438" lon="14.822456">
        <ele>636.00</ele>
        <time>2012-10-25T08:06:33Z</time>
      </trkpt>
      <trkpt lat="46.939171" lon="14.822652">
        <ele>636.00</ele>
        <time>2012-10-25T08:06:38Z</time>
      </trkpt>
      <trkpt lat="46.939125" lon="14.822701">
        <ele>636.00</ele>
        <time>2012-10-25T08:06:39Z</time>
      </trkpt>
      <trkpt lat="46.938999" lon="14.822860">
        <ele>636.00</ele>
        <time>2012-10-25T08:06:42Z</time>
      </trkpt>
      <trkpt lat="46.938961" lon="14.822892">
        <ele>636.00</ele>
        <time>2012-10-25T08:06:43Z</time>
      </trkpt>
      <trkpt lat="46.938835" lon="14.822914">
        <ele>636.00</ele>
        <time>2012-10-25T08:06:46Z</time>
      </trkpt>
      <trkpt lat="46.938747" lon="14.822952">
        <ele>635.00</ele>
        <time>2012-10-25T08:06:48Z</time>
      </trkpt>
      <trkpt lat="46.938580" lon="14.823005">
        <ele>635.00</ele>
        <time>2012-10-25T08:06:51Z</time>
      </trkpt>
      <trkpt lat="46.938522" lon="14.823022">
        <ele>635.00</ele>
        <time>2012-10-25T08:06:52Z</time>
      </trkpt>
      <trkpt lat="46.938458" lon="14.823037">
        <ele>634.00</ele>
        <time>2012-10-25T08:06:53Z</time>
      </trkpt>
      <trkpt lat="46.938393" lon="14.823051">
        <ele>634.00</ele>
        <time>2012-10-25T08:06:54Z</time>
      </trkpt>
      <trkpt lat="46.938332" lon="14.823070">
        <ele>634.00</ele>
        <time>2012-10-25T08:06:55Z</time>
      </trkpt>
      <trkpt lat="46.938209" lon="14.823114">
        <ele>634.00</ele>
        <time>2012-10-25T08:06:57Z</time>
      </trkpt>
      <trkpt lat="46.937725" lon="14.823277">
        <ele>633.00</ele>
        <time>2012-10-25T08:07:05Z</time>
      </trkpt>
      <trkpt lat="46.937660" lon="14.823288">
        <ele>633.00</ele>
        <time>2012-10-25T08:07:06Z</time>
      </trkpt>
      <trkpt lat="46.937599" lon="14.823305">
        <ele>632.00</ele>
        <time>2012-10-25T08:07:07Z</time>
      </trkpt>
      <trkpt lat="46.937538" lon="14.823325">
        <ele>632.00</ele>
        <time>2012-10-25T08:07:08Z</time>
      </trkpt>
      <trkpt lat="46.937481" lon="14.823346">
        <ele>632.00</ele>
        <time>2012-10-25T08:07:09Z</time>
      </trkpt>
      <trkpt lat="46.937256" lon="14.823419">
        <ele>632.00</ele>
        <time>2012-10-25T08:07:13Z</time>
      </trkpt>
      <trkpt lat="46.936745" lon="14.823591">
        <ele>632.00</ele>
        <time>2012-10-25T08:07:22Z</time>
      </trkpt>
      <trkpt lat="46.936359" lon="14.823781">
        <ele>632.00</ele>
        <time>2012-10-25T08:07:29Z</time>
      </trkpt>
      <trkpt lat="46.936256" lon="14.823853">
        <ele>632.00</ele>
        <time>2012-10-25T08:07:31Z</time>
      </trkpt>
      <trkpt lat="46.936050" lon="14.824024">
        <ele>631.00</ele>
        <time>2012-10-25T08:07:35Z</time>
      </trkpt>
      <trkpt lat="46.935719" lon="14.824400">
        <ele>631.00</ele>
        <time>2012-10-25T08:07:42Z</time>
      </trkpt>
      <trkpt lat="46.935600" lon="14.824599">
        <ele>631.00</ele>
        <time>2012-10-25T08:07:45Z</time>
      </trkpt>
      <trkpt lat="46.935558" lon="14.824666">
        <ele>630.00</ele>
        <time>2012-10-25T08:07:46Z</time>
      </trkpt>
      <trkpt lat="46.935516" lon="14.824734">
        <ele>630.00</ele>
        <time>2012-10-25T08:07:47Z</time>
      </trkpt>
      <trkpt lat="46.935474" lon="14.824797">
        <ele>630.00</ele>
        <time>2012-10-25T08:07:48Z</time>
      </trkpt>
      <trkpt lat="46.935390" lon="14.824933">
        <ele>630.00</ele>
        <time>2012-10-25T08:07:50Z</time>
      </trkpt>
      <trkpt lat="46.935081" lon="14.825418">
        <ele>629.00</ele>
        <time>2012-10-25T08:07:57Z</time>
      </trkpt>
      <trkpt lat="46.934765" lon="14.825760">
        <ele>629.00</ele>
        <time>2012-10-25T08:08:03Z</time>
      </trkpt>
      <trkpt lat="46.934547" lon="14.825970">
        <ele>629.00</ele>
        <time>2012-10-25T08:08:07Z</time>
      </trkpt>
      <trkpt lat="46.934498" lon="14.826015">
        <ele>628.00</ele>
        <time>2012-10-25T08:08:08Z</time>
      </trkpt>
      <trkpt lat="46.934444" lon="14.826060">
        <ele>628.00</ele>
        <time>2012-10-25T08:08:09Z</time>
      </trkpt>
      <trkpt lat="46.934387" lon="14.826098">
        <ele>628.00</ele>
        <time>2012-10-25T08:08:10Z</time>
      </trkpt>
      <trkpt lat="46.934326" lon="14.826133">
        <ele>628.00</ele>
        <time>2012-10-25T08:08:11Z</time>
      </trkpt>
      <trkpt lat="46.933975" lon="14.826327">
        <ele>627.00</ele>
        <time>2012-10-25T08:08:17Z</time>
      </trkpt>
      <trkpt lat="46.933430" lon="14.826526">
        <ele>627.00</ele>
        <time>2012-10-25T08:08:26Z</time>
      </trkpt>
      <trkpt lat="46.933014" lon="14.826647">
        <ele>627.00</ele>
        <time>2012-10-25T08:08:33Z</time>
      </trkpt>
      <trkpt lat="46.932957" lon="14.826667">
        <ele>627.00</ele>
        <time>2012-10-25T08:08:34Z</time>
      </trkpt>
      <trkpt lat="46.932899" lon="14.826691">
        <ele>626.00</ele>
        <time>2012-10-25T08:08:35Z</time>
      </trkpt>
      <trkpt lat="46.932842" lon="14.826710">
        <ele>626.00</ele>
        <time>2012-10-25T08:08:36Z</time>
      </trkpt>
      <trkpt lat="46.932575" lon="14.826812">
        <ele>625.00</ele>
        <time>2012-10-25T08:08:41Z</time>
      </trkpt>
      <trkpt lat="46.932545" lon="14.826849">
        <ele>625.00</ele>
        <time>2012-10-25T08:08:42Z</time>
      </trkpt>
      <trkpt lat="46.932510" lon="14.827023">
        <ele>625.00</ele>
        <time>2012-10-25T08:08:46Z</time>
      </trkpt>
      <trkpt lat="46.932625" lon="14.827156">
        <ele>625.00</ele>
        <time>2012-10-25T08:08:50Z</time>
      </trkpt>
      <trkpt lat="46.932659" lon="14.827183">
        <ele>625.00</ele>
        <time>2012-10-25T08:08:51Z</time>
      </trkpt>
      <trkpt lat="46.932854" lon="14.827422">
        <ele>625.00</ele>
        <time>2012-10-25T08:08:57Z</time>
      </trkpt>
      <trkpt lat="46.933067" lon="14.827799">
        <ele>625.00</ele>
        <time>2012-10-25T08:09:05Z</time>
      </trkpt>
      <trkpt lat="46.933090" lon="14.827850">
        <ele>625.00</ele>
        <time>2012-10-25T08:09:06Z</time>
      </trkpt>
      <trkpt lat="46.933125" lon="14.828030">
        <ele>625.00</ele>
        <time>2012-10-25T08:09:09Z</time>
      </trkpt>
      <trkpt lat="46.933041" lon="14.828184">
        <ele>625.00</ele>
        <time>2012-10-25T08:09:12Z</time>
      </trkpt>
      <trkpt lat="46.932999" lon="14.828234">
        <ele>625.00</ele>
        <time>2012-10-25T08:09:13Z</time>
      </trkpt>
      <trkpt lat="46.932774" lon="14.828487">
        <ele>625.00</ele>
        <time>2012-10-25T08:09:18Z</time>
      </trkpt>
      <trkpt lat="46.932388" lon="14.828951">
        <ele>625.00</ele>
        <time>2012-10-25T08:09:26Z</time>
      </trkpt>
      <trkpt lat="46.931976" lon="14.829456">
        <ele>625.00</ele>
        <time>2012-10-25T08:09:34Z</time>
      </trkpt>
      <trkpt lat="46.931526" lon="14.829951">
        <ele>625.00</ele>
        <time>2012-10-25T08:09:42Z</time>
      </trkpt>
      <trkpt lat="46.931351" lon="14.830135">
        <ele>625.00</ele>
        <time>2012-10-25T08:09:45Z</time>
      </trkpt>
      <trkpt lat="46.931294" lon="14.830189">
        <ele>625.00</ele>
        <time>2012-10-25T08:09:46Z</time>
      </trkpt>
      <trkpt lat="46.931232" lon="14.830241">
        <ele>625.00</ele>
        <time>2012-10-25T08:09:47Z</time>
      </trkpt>
      <trkpt lat="46.931168" lon="14.830292">
        <ele>624.00</ele>
        <time>2012-10-25T08:09:48Z</time>
      </trkpt>
      <trkpt lat="46.931107" lon="14.830342">
        <ele>624.00</ele>
        <time>2012-10-25T08:09:49Z</time>
      </trkpt>
      <trkpt lat="46.931046" lon="14.830394">
        <ele>624.00</ele>
        <time>2012-10-25T08:09:50Z</time>
      </trkpt>
      <trkpt lat="46.930851" lon="14.830538">
        <ele>623.00</ele>
        <time>2012-10-25T08:09:53Z</time>
      </trkpt>
      <trkpt lat="46.930317" lon="14.830845">
        <ele>623.00</ele>
        <time>2012-10-25T08:10:01Z</time>
      </trkpt>
      <trkpt lat="46.929962" lon="14.830978">
        <ele>623.00</ele>
        <time>2012-10-25T08:10:06Z</time>
      </trkpt>
      <trkpt lat="46.929890" lon="14.831002">
        <ele>622.00</ele>
        <time>2012-10-25T08:10:07Z</time>
      </trkpt>
      <trkpt lat="46.929821" lon="14.831023">
        <ele>622.00</ele>
        <time>2012-10-25T08:10:08Z</time>
      </trkpt>
      <trkpt lat="46.929752" lon="14.831042">
        <ele>622.00</ele>
        <time>2012-10-25T08:10:09Z</time>
      </trkpt>
      <trkpt lat="46.929684" lon="14.831062">
        <ele>621.00</ele>
        <time>2012-10-25T08:10:10Z</time>
      </trkpt>
      <trkpt lat="46.929218" lon="14.831177">
        <ele>621.00</ele>
        <time>2012-10-25T08:10:17Z</time>
      </trkpt>
      <trkpt lat="46.928627" lon="14.831325">
        <ele>621.00</ele>
        <time>2012-10-25T08:10:26Z</time>
      </trkpt>
      <trkpt lat="46.928120" lon="14.831490">
        <ele>621.00</ele>
        <time>2012-10-25T08:10:34Z</time>
      </trkpt>
      <trkpt lat="46.927872" lon="14.831606">
        <ele>620.00</ele>
        <time>2012-10-25T08:10:38Z</time>
      </trkpt>
      <trkpt lat="46.927811" lon="14.831634">
        <ele>620.00</ele>
        <time>2012-10-25T08:10:39Z</time>
      </trkpt>
      <trkpt lat="46.927750" lon="14.831663">
        <ele>620.00</ele>
        <time>2012-10-25T08:10:40Z</time>
      </trkpt>
      <trkpt lat="46.927685" lon="14.831692">
        <ele>620.00</ele>
        <time>2012-10-25T08:10:41Z</time>
      </trkpt>
      <trkpt lat="46.927116" lon="14.831989">
        <ele>619.00</ele>
        <time>2012-10-25T08:10:50Z</time>
      </trkpt>
      <trkpt lat="46.926853" lon="14.832129">
        <ele>618.00</ele>
        <time>2012-10-25T08:10:54Z</time>
      </trkpt>
      <trkpt lat="46.926788" lon="14.832163">
        <ele>618.00</ele>
        <time>2012-10-25T08:10:55Z</time>
      </trkpt>
      <trkpt lat="46.926723" lon="14.832195">
        <ele>618.00</ele>
        <time>2012-10-25T08:10:56Z</time>
      </trkpt>
      <trkpt lat="46.926659" lon="14.832225">
        <ele>618.00</ele>
        <time>2012-10-25T08:10:57Z</time>
      </trkpt>
      <trkpt lat="46.926594" lon="14.832252">
        <ele>618.00</ele>
        <time>2012-10-25T08:10:58Z</time>
      </trkpt>
      <trkpt lat="46.926460" lon="14.832314">
        <ele>617.00</ele>
        <time>2012-10-25T08:11:00Z</time>
      </trkpt>
      <trkpt lat="46.926010" lon="14.832480">
        <ele>617.00</ele>
        <time>2012-10-25T08:11:07Z</time>
      </trkpt>
      <trkpt lat="46.925575" lon="14.832672">
        <ele>617.00</ele>
        <time>2012-10-25T08:11:14Z</time>
      </trkpt>
      <trkpt lat="46.925266" lon="14.832863">
        <ele>617.00</ele>
        <time>2012-10-25T08:11:19Z</time>
      </trkpt>
      <trkpt lat="46.925205" lon="14.832911">
        <ele>616.00</ele>
        <time>2012-10-25T08:11:20Z</time>
      </trkpt>
      <trkpt lat="46.925144" lon="14.832958">
        <ele>616.00</ele>
        <time>2012-10-25T08:11:21Z</time>
      </trkpt>
      <trkpt lat="46.925083" lon="14.833003">
        <ele>616.00</ele>
        <time>2012-10-25T08:11:22Z</time>
      </trkpt>
      <trkpt lat="46.925022" lon="14.833055">
        <ele>615.00</ele>
        <time>2012-10-25T08:11:23Z</time>
      </trkpt>
      <trkpt lat="46.924854" lon="14.833217">
        <ele>615.00</ele>
        <time>2012-10-25T08:11:26Z</time>
      </trkpt>
      <trkpt lat="46.924461" lon="14.833544">
        <ele>615.00</ele>
        <time>2012-10-25T08:11:32Z</time>
      </trkpt>
      <trkpt lat="46.924087" lon="14.833884">
        <ele>615.00</ele>
        <time>2012-10-25T08:11:38Z</time>
      </trkpt>
      <trkpt lat="46.923904" lon="14.834064">
        <ele>614.00</ele>
        <time>2012-10-25T08:11:41Z</time>
      </trkpt>
      <trkpt lat="46.923843" lon="14.834114">
        <ele>614.00</ele>
        <time>2012-10-25T08:11:42Z</time>
      </trkpt>
      <trkpt lat="46.923779" lon="14.834166">
        <ele>614.00</ele>
        <time>2012-10-25T08:11:43Z</time>
      </trkpt>
      <trkpt lat="46.923718" lon="14.834218">
        <ele>614.00</ele>
        <time>2012-10-25T08:11:44Z</time>
      </trkpt>
      <trkpt lat="46.923660" lon="14.834274">
        <ele>613.00</ele>
        <time>2012-10-25T08:11:45Z</time>
      </trkpt>
      <trkpt lat="46.923378" lon="14.834594">
        <ele>613.00</ele>
        <time>2012-10-25T08:11:50Z</time>
      </trkpt>
      <trkpt lat="46.923321" lon="14.834647">
        <ele>613.00</ele>
        <time>2012-10-25T08:11:51Z</time>
      </trkpt>
      <trkpt lat="46.923149" lon="14.834851">
        <ele>613.00</ele>
        <time>2012-10-25T08:11:54Z</time>
      </trkpt>
      <trkpt lat="46.923046" lon="14.834984">
        <ele>613.00</ele>
        <time>2012-10-25T08:11:56Z</time>
      </trkpt>
      <trkpt lat="46.922989" lon="14.835056">
        <ele>612.00</ele>
        <time>2012-10-25T08:11:57Z</time>
      </trkpt>
      <trkpt lat="46.922935" lon="14.835122">
        <ele>612.00</ele>
        <time>2012-10-25T08:11:58Z</time>
      </trkpt>
      <trkpt lat="46.922878" lon="14.835192">
        <ele>612.00</ele>
        <time>2012-10-25T08:11:59Z</time>
      </trkpt>
      <trkpt lat="46.922817" lon="14.835265">
        <ele>612.00</ele>
        <time>2012-10-25T08:12:00Z</time>
      </trkpt>
      <trkpt lat="46.922756" lon="14.835338">
        <ele>611.00</ele>
        <time>2012-10-25T08:12:01Z</time>
      </trkpt>
      <trkpt lat="46.922512" lon="14.835602">
        <ele>611.00</ele>
        <time>2012-10-25T08:12:05Z</time>
      </trkpt>
      <trkpt lat="46.922066" lon="14.836031">
        <ele>611.00</ele>
        <time>2012-10-25T08:12:12Z</time>
      </trkpt>
      <trkpt lat="46.921711" lon="14.836322">
        <ele>611.00</ele>
        <time>2012-10-25T08:12:18Z</time>
      </trkpt>
      <trkpt lat="46.921410" lon="14.836679">
        <ele>610.00</ele>
        <time>2012-10-25T08:12:24Z</time>
      </trkpt>
      <trkpt lat="46.921364" lon="14.836749">
        <ele>610.00</ele>
        <time>2012-10-25T08:12:25Z</time>
      </trkpt>
      <trkpt lat="46.921326" lon="14.836822">
        <ele>610.00</ele>
        <time>2012-10-25T08:12:26Z</time>
      </trkpt>
      <trkpt lat="46.921276" lon="14.836898">
        <ele>609.00</ele>
        <time>2012-10-25T08:12:27Z</time>
      </trkpt>
      <trkpt lat="46.921234" lon="14.836972">
        <ele>609.00</ele>
        <time>2012-10-25T08:12:28Z</time>
      </trkpt>
      <trkpt lat="46.921154" lon="14.837137">
        <ele>609.00</ele>
        <time>2012-10-25T08:12:30Z</time>
      </trkpt>
      <trkpt lat="46.920979" lon="14.837632">
        <ele>609.00</ele>
        <time>2012-10-25T08:12:36Z</time>
      </trkpt>
      <trkpt lat="46.920853" lon="14.838251">
        <ele>609.00</ele>
        <time>2012-10-25T08:12:43Z</time>
      </trkpt>
      <trkpt lat="46.920830" lon="14.838778">
        <ele>609.00</ele>
        <time>2012-10-25T08:12:49Z</time>
      </trkpt>
      <trkpt lat="46.920841" lon="14.838876">
        <ele>608.00</ele>
        <time>2012-10-25T08:12:50Z</time>
      </trkpt>
      <trkpt lat="46.920853" lon="14.838971">
        <ele>608.00</ele>
        <time>2012-10-25T08:12:51Z</time>
      </trkpt>
      <trkpt lat="46.920872" lon="14.839062">
        <ele>607.00</ele>
        <time>2012-10-25T08:12:52Z</time>
      </trkpt>
      <trkpt lat="46.920883" lon="14.839153">
        <ele>607.00</ele>
        <time>2012-10-25T08:12:53Z</time>
      </trkpt>
      <trkpt lat="46.920898" lon="14.839250">
        <ele>607.00</ele>
        <time>2012-10-25T08:12:54Z</time>
      </trkpt>
      <trkpt lat="46.920937" lon="14.839334">
        <ele>607.00</ele>
        <time>2012-10-25T08:12:55Z</time>
      </trkpt>
      <trkpt lat="46.921135" lon="14.839938">
        <ele>606.00</ele>
        <time>2012-10-25T08:13:02Z</time>
      </trkpt>
      <trkpt lat="46.921360" lon="14.840631">
        <ele>606.00</ele>
        <time>2012-10-25T08:13:10Z</time>
      </trkpt>
      <trkpt lat="46.921383" lon="14.840719">
        <ele>606.00</ele>
        <time>2012-10-25T08:13:11Z</time>
      </trkpt>
      <trkpt lat="46.921413" lon="14.840803">
        <ele>606.00</ele>
        <time>2012-10-25T08:13:12Z</time>
      </trkpt>
      <trkpt lat="46.921440" lon="14.840889">
        <ele>605.00</ele>
        <time>2012-10-25T08:13:13Z</time>
      </trkpt>
      <trkpt lat="46.921467" lon="14.840976">
        <ele>605.00</ele>
        <time>2012-10-25T08:13:14Z</time>
      </trkpt>
      <trkpt lat="46.921501" lon="14.841066">
        <ele>605.00</ele>
        <time>2012-10-25T08:13:15Z</time>
      </trkpt>
      <trkpt lat="46.921562" lon="14.841254">
        <ele>605.00</ele>
        <time>2012-10-25T08:13:17Z</time>
      </trkpt>
      <trkpt lat="46.921669" lon="14.841845">
        <ele>604.00</ele>
        <time>2012-10-25T08:13:23Z</time>
      </trkpt>
      <trkpt lat="46.921646" lon="14.842487">
        <ele>604.00</ele>
        <time>2012-10-25T08:13:29Z</time>
      </trkpt>
      <trkpt lat="46.921608" lon="14.842688">
        <ele>604.00</ele>
        <time>2012-10-25T08:13:31Z</time>
      </trkpt>
      <trkpt lat="46.921455" lon="14.842768">
        <ele>604.00</ele>
        <time>2012-10-25T08:13:33Z</time>
      </trkpt>
      <trkpt lat="46.921238" lon="14.842887">
        <ele>604.00</ele>
        <time>2012-10-25T08:13:36Z</time>
      </trkpt>
      <trkpt lat="46.921165" lon="14.842920">
        <ele>603.00</ele>
        <time>2012-10-25T08:13:37Z</time>
      </trkpt>
      <trkpt lat="46.921097" lon="14.842933">
        <ele>603.00</ele>
        <time>2012-10-25T08:13:38Z</time>
      </trkpt>
      <trkpt lat="46.921024" lon="14.842948">
        <ele>603.00</ele>
        <time>2012-10-25T08:13:39Z</time>
      </trkpt>
      <trkpt lat="46.920948" lon="14.842952">
        <ele>603.00</ele>
        <time>2012-10-25T08:13:40Z</time>
      </trkpt>
      <trkpt lat="46.920876" lon="14.842946">
        <ele>603.00</ele>
        <time>2012-10-25T08:13:41Z</time>
      </trkpt>
      <trkpt lat="46.920731" lon="14.842877">
        <ele>602.00</ele>
        <time>2012-10-25T08:13:43Z</time>
      </trkpt>
      <trkpt lat="46.920597" lon="14.842773">
        <ele>602.00</ele>
        <time>2012-10-25T08:13:45Z</time>
      </trkpt>
      <trkpt lat="46.920082" lon="14.842438">
        <ele>602.00</ele>
        <time>2012-10-25T08:13:53Z</time>
      </trkpt>
      <trkpt lat="46.920017" lon="14.842402">
        <ele>602.00</ele>
        <time>2012-10-25T08:13:54Z</time>
      </trkpt>
      <trkpt lat="46.919952" lon="14.842361">
        <ele>601.00</ele>
        <time>2012-10-25T08:13:55Z</time>
      </trkpt>
      <trkpt lat="46.919888" lon="14.842328">
        <ele>601.00</ele>
        <time>2012-10-25T08:13:56Z</time>
      </trkpt>
      <trkpt lat="46.919823" lon="14.842299">
        <ele>600.00</ele>
        <time>2012-10-25T08:13:57Z</time>
      </trkpt>
      <trkpt lat="46.919621" lon="14.842216">
        <ele>600.00</ele>
        <time>2012-10-25T08:14:00Z</time>
      </trkpt>
      <trkpt lat="46.919292" lon="14.842152">
        <ele>600.00</ele>
        <time>2012-10-25T08:14:05Z</time>
      </trkpt>
      <trkpt lat="46.919228" lon="14.842153">
        <ele>600.00</ele>
        <time>2012-10-25T08:14:06Z</time>
      </trkpt>
      <trkpt lat="46.919159" lon="14.842164">
        <ele>600.00</ele>
        <time>2012-10-25T08:14:07Z</time>
      </trkpt>
      <trkpt lat="46.918873" lon="14.842257">
        <ele>600.00</ele>
        <time>2012-10-25T08:14:11Z</time>
      </trkpt>
      <trkpt lat="46.918556" lon="14.842494">
        <ele>600.00</ele>
        <time>2012-10-25T08:14:16Z</time>
      </trkpt>
      <trkpt lat="46.918251" lon="14.842905">
        <ele>599.00</ele>
        <time>2012-10-25T08:14:22Z</time>
      </trkpt>
      <trkpt lat="46.918209" lon="14.842978">
        <ele>599.00</ele>
        <time>2012-10-25T08:14:23Z</time>
      </trkpt>
      <trkpt lat="46.918163" lon="14.843050">
        <ele>599.00</ele>
        <time>2012-10-25T08:14:24Z</time>
      </trkpt>
      <trkpt lat="46.918117" lon="14.843129">
        <ele>599.00</ele>
        <time>2012-10-25T08:14:25Z</time>
      </trkpt>
      <trkpt lat="46.918076" lon="14.843200">
        <ele>598.00</ele>
        <time>2012-10-25T08:14:26Z</time>
      </trkpt>
      <trkpt lat="46.917896" lon="14.843482">
        <ele>598.00</ele>
        <time>2012-10-25T08:14:30Z</time>
      </trkpt>
      <trkpt lat="46.917541" lon="14.843877">
        <ele>598.00</ele>
        <time>2012-10-25T08:14:37Z</time>
      </trkpt>
      <trkpt lat="46.917358" lon="14.843996">
        <ele>597.00</ele>
        <time>2012-10-25T08:14:40Z</time>
      </trkpt>
      <trkpt lat="46.917294" lon="14.844012">
        <ele>597.00</ele>
        <time>2012-10-25T08:14:41Z</time>
      </trkpt>
      <trkpt lat="46.917233" lon="14.844029">
        <ele>597.00</ele>
        <time>2012-10-25T08:14:42Z</time>
      </trkpt>
      <trkpt lat="46.917168" lon="14.844040">
        <ele>596.00</ele>
        <time>2012-10-25T08:14:43Z</time>
      </trkpt>
      <trkpt lat="46.917103" lon="14.844045">
        <ele>596.00</ele>
        <time>2012-10-25T08:14:44Z</time>
      </trkpt>
      <trkpt lat="46.916843" lon="14.844005">
        <ele>596.00</ele>
        <time>2012-10-25T08:14:48Z</time>
      </trkpt>
      <trkpt lat="46.916336" lon="14.843833">
        <ele>596.00</ele>
        <time>2012-10-25T08:14:56Z</time>
      </trkpt>
      <trkpt lat="46.915760" lon="14.843604">
        <ele>596.00</ele>
        <time>2012-10-25T08:15:05Z</time>
      </trkpt>
      <trkpt lat="46.915634" lon="14.843539">
        <ele>596.00</ele>
        <time>2012-10-25T08:15:07Z</time>
      </trkpt>
      <trkpt lat="46.915451" lon="14.843425">
        <ele>595.00</ele>
        <time>2012-10-25T08:15:10Z</time>
      </trkpt>
      <trkpt lat="46.915390" lon="14.843379">
        <ele>595.00</ele>
        <time>2012-10-25T08:15:11Z</time>
      </trkpt>
      <trkpt lat="46.915329" lon="14.843332">
        <ele>595.00</ele>
        <time>2012-10-25T08:15:12Z</time>
      </trkpt>
      <trkpt lat="46.915279" lon="14.843273">
        <ele>595.00</ele>
        <time>2012-10-25T08:15:13Z</time>
      </trkpt>
      <trkpt lat="46.915131" lon="14.842975">
        <ele>594.00</ele>
        <time>2012-10-25T08:15:17Z</time>
      </trkpt>
      <trkpt lat="46.914982" lon="14.842422">
        <ele>594.00</ele>
        <time>2012-10-25T08:15:24Z</time>
      </trkpt>
      <trkpt lat="46.914944" lon="14.842355">
        <ele>594.00</ele>
        <time>2012-10-25T08:15:25Z</time>
      </trkpt>
      <trkpt lat="46.914787" lon="14.842174">
        <ele>594.00</ele>
        <time>2012-10-25T08:15:28Z</time>
      </trkpt>
      <trkpt lat="46.914581" lon="14.842086">
        <ele>594.00</ele>
        <time>2012-10-25T08:15:31Z</time>
      </trkpt>
      <trkpt lat="46.914505" lon="14.842077">
        <ele>593.00</ele>
        <time>2012-10-25T08:15:32Z</time>
      </trkpt>
      <trkpt lat="46.914425" lon="14.842081">
        <ele>593.00</ele>
        <time>2012-10-25T08:15:33Z</time>
      </trkpt>
      <trkpt lat="46.914341" lon="14.842107">
        <ele>593.00</ele>
        <time>2012-10-25T08:15:34Z</time>
      </trkpt>
      <trkpt lat="46.914261" lon="14.842145">
        <ele>592.00</ele>
        <time>2012-10-25T08:15:35Z</time>
      </trkpt>
      <trkpt lat="46.914192" lon="14.842189">
        <ele>592.00</ele>
        <time>2012-10-25T08:15:36Z</time>
      </trkpt>
      <trkpt lat="46.913990" lon="14.842379">
        <ele>592.00</ele>
        <time>2012-10-25T08:15:39Z</time>
      </trkpt>
      <trkpt lat="46.913929" lon="14.842446">
        <ele>592.00</ele>
        <time>2012-10-25T08:15:40Z</time>
      </trkpt>
      <trkpt lat="46.913872" lon="14.842525">
        <ele>592.00</ele>
        <time>2012-10-25T08:15:41Z</time>
      </trkpt>
      <trkpt lat="46.913761" lon="14.842687">
        <ele>591.00</ele>
        <time>2012-10-25T08:15:43Z</time>
      </trkpt>
      <trkpt lat="46.913712" lon="14.842764">
        <ele>591.00</ele>
        <time>2012-10-25T08:15:44Z</time>
      </trkpt>
      <trkpt lat="46.913658" lon="14.842847">
        <ele>591.00</ele>
        <time>2012-10-25T08:15:45Z</time>
      </trkpt>
      <trkpt lat="46.913605" lon="14.842930">
        <ele>590.00</ele>
        <time>2012-10-25T08:15:46Z</time>
      </trkpt>
      <trkpt lat="46.913555" lon="14.843013">
        <ele>590.00</ele>
        <time>2012-10-25T08:15:47Z</time>
      </trkpt>
      <trkpt lat="46.913292" lon="14.843426">
        <ele>590.00</ele>
        <time>2012-10-25T08:15:52Z</time>
      </trkpt>
      <trkpt lat="46.912937" lon="14.843905">
        <ele>589.00</ele>
        <time>2012-10-25T08:15:58Z</time>
      </trkpt>
      <trkpt lat="46.912872" lon="14.843971">
        <ele>589.00</ele>
        <time>2012-10-25T08:15:59Z</time>
      </trkpt>
      <trkpt lat="46.912807" lon="14.844030">
        <ele>589.00</ele>
        <time>2012-10-25T08:16:00Z</time>
      </trkpt>
      <trkpt lat="46.912739" lon="14.844082">
        <ele>588.00</ele>
        <time>2012-10-25T08:16:01Z</time>
      </trkpt>
      <trkpt lat="46.912666" lon="14.844130">
        <ele>588.00</ele>
        <time>2012-10-25T08:16:02Z</time>
      </trkpt>
      <trkpt lat="46.912598" lon="14.844174">
        <ele>588.00</ele>
        <time>2012-10-25T08:16:03Z</time>
      </trkpt>
      <trkpt lat="46.912144" lon="14.844340">
        <ele>587.00</ele>
        <time>2012-10-25T08:16:09Z</time>
      </trkpt>
      <trkpt lat="46.911991" lon="14.844354">
        <ele>587.00</ele>
        <time>2012-10-25T08:16:11Z</time>
      </trkpt>
      <trkpt lat="46.911911" lon="14.844350">
        <ele>587.00</ele>
        <time>2012-10-25T08:16:12Z</time>
      </trkpt>
      <trkpt lat="46.911831" lon="14.844340">
        <ele>586.00</ele>
        <time>2012-10-25T08:16:13Z</time>
      </trkpt>
      <trkpt lat="46.911758" lon="14.844337">
        <ele>586.00</ele>
        <time>2012-10-25T08:16:14Z</time>
      </trkpt>
      <trkpt lat="46.911682" lon="14.844330">
        <ele>586.00</ele>
        <time>2012-10-25T08:16:15Z</time>
      </trkpt>
      <trkpt lat="46.911236" lon="14.844263">
        <ele>586.00</ele>
        <time>2012-10-25T08:16:21Z</time>
      </trkpt>
      <trkpt lat="46.910709" lon="14.844294">
        <ele>585.00</ele>
        <time>2012-10-25T08:16:28Z</time>
      </trkpt>
      <trkpt lat="46.910633" lon="14.844318">
        <ele>585.00</ele>
        <time>2012-10-25T08:16:29Z</time>
      </trkpt>
      <trkpt lat="46.910557" lon="14.844346">
        <ele>585.00</ele>
        <time>2012-10-25T08:16:30Z</time>
      </trkpt>
      <trkpt lat="46.910484" lon="14.844372">
        <ele>584.00</ele>
        <time>2012-10-25T08:16:31Z</time>
      </trkpt>
      <trkpt lat="46.910412" lon="14.844395">
        <ele>584.00</ele>
        <time>2012-10-25T08:16:32Z</time>
      </trkpt>
      <trkpt lat="46.910332" lon="14.844418">
        <ele>584.00</ele>
        <time>2012-10-25T08:16:33Z</time>
      </trkpt>
      <trkpt lat="46.910255" lon="14.844443">
        <ele>584.00</ele>
        <time>2012-10-25T08:16:34Z</time>
      </trkpt>
      <trkpt lat="46.909874" lon="14.844514">
        <ele>583.00</ele>
        <time>2012-10-25T08:16:39Z</time>
      </trkpt>
      <trkpt lat="46.909412" lon="14.844423">
        <ele>583.00</ele>
        <time>2012-10-25T08:16:45Z</time>
      </trkpt>
      <trkpt lat="46.909340" lon="14.844397">
        <ele>583.00</ele>
        <time>2012-10-25T08:16:46Z</time>
      </trkpt>
      <trkpt lat="46.909267" lon="14.844364">
        <ele>582.00</ele>
        <time>2012-10-25T08:16:47Z</time>
      </trkpt>
      <trkpt lat="46.909199" lon="14.844332">
        <ele>582.00</ele>
        <time>2012-10-25T08:16:48Z</time>
      </trkpt>
      <trkpt lat="46.909126" lon="14.844297">
        <ele>582.00</ele>
        <time>2012-10-25T08:16:49Z</time>
      </trkpt>
      <trkpt lat="46.908913" lon="14.844208">
        <ele>581.00</ele>
        <time>2012-10-25T08:16:52Z</time>
      </trkpt>
      <trkpt lat="46.908356" lon="14.843930">
        <ele>581.00</ele>
        <time>2012-10-25T08:17:00Z</time>
      </trkpt>
      <trkpt lat="46.908287" lon="14.843883">
        <ele>581.00</ele>
        <time>2012-10-25T08:17:01Z</time>
      </trkpt>
      <trkpt lat="46.908081" lon="14.843744">
        <ele>581.00</ele>
        <time>2012-10-25T08:17:04Z</time>
      </trkpt>
      <trkpt lat="46.908016" lon="14.843689">
        <ele>580.00</ele>
        <time>2012-10-25T08:17:05Z</time>
      </trkpt>
      <trkpt lat="46.907951" lon="14.843638">
        <ele>580.00</ele>
        <time>2012-10-25T08:17:06Z</time>
      </trkpt>
      <trkpt lat="46.907887" lon="14.843582">
        <ele>580.00</ele>
        <time>2012-10-25T08:17:07Z</time>
      </trkpt>
      <trkpt lat="46.907822" lon="14.843531">
        <ele>580.00</ele>
        <time>2012-10-25T08:17:08Z</time>
      </trkpt>
      <trkpt lat="46.907459" lon="14.843207">
        <ele>579.00</ele>
        <time>2012-10-25T08:17:14Z</time>
      </trkpt>
      <trkpt lat="46.907005" lon="14.842834">
        <ele>579.00</ele>
        <time>2012-10-25T08:17:21Z</time>
      </trkpt>
      <trkpt lat="46.906937" lon="14.842781">
        <ele>579.00</ele>
        <time>2012-10-25T08:17:22Z</time>
      </trkpt>
      <trkpt lat="46.906872" lon="14.842729">
        <ele>578.00</ele>
        <time>2012-10-25T08:17:23Z</time>
      </trkpt>
      <trkpt lat="46.906799" lon="14.842682">
        <ele>578.00</ele>
        <time>2012-10-25T08:17:24Z</time>
      </trkpt>
      <trkpt lat="46.906731" lon="14.842636">
        <ele>578.00</ele>
        <time>2012-10-25T08:17:25Z</time>
      </trkpt>
      <trkpt lat="46.906658" lon="14.842592">
        <ele>578.00</ele>
        <time>2012-10-25T08:17:26Z</time>
      </trkpt>
      <trkpt lat="46.906437" lon="14.842486">
        <ele>577.00</ele>
        <time>2012-10-25T08:17:29Z</time>
      </trkpt>
      <trkpt lat="46.906040" lon="14.842434">
        <ele>577.00</ele>
        <time>2012-10-25T08:17:34Z</time>
      </trkpt>
      <trkpt lat="46.905960" lon="14.842441">
        <ele>577.00</ele>
        <time>2012-10-25T08:17:35Z</time>
      </trkpt>
      <trkpt lat="46.905876" lon="14.842448">
        <ele>576.00</ele>
        <time>2012-10-25T08:17:36Z</time>
      </trkpt>
      <trkpt lat="46.905796" lon="14.842471">
        <ele>576.00</ele>
        <time>2012-10-25T08:17:37Z</time>
      </trkpt>
      <trkpt lat="46.905716" lon="14.842496">
        <ele>576.00</ele>
        <time>2012-10-25T08:17:38Z</time>
      </trkpt>
      <trkpt lat="46.905560" lon="14.842556">
        <ele>575.00</ele>
        <time>2012-10-25T08:17:40Z</time>
      </trkpt>
      <trkpt lat="46.905083" lon="14.842726">
        <ele>574.00</ele>
        <time>2012-10-25T08:17:46Z</time>
      </trkpt>
      <trkpt lat="46.905003" lon="14.842745">
        <ele>574.00</ele>
        <time>2012-10-25T08:17:47Z</time>
      </trkpt>
      <trkpt lat="46.904922" lon="14.842752">
        <ele>574.00</ele>
        <time>2012-10-25T08:17:48Z</time>
      </trkpt>
      <trkpt lat="46.904839" lon="14.842757">
        <ele>574.00</ele>
        <time>2012-10-25T08:17:49Z</time>
      </trkpt>
      <trkpt lat="46.904762" lon="14.842750">
        <ele>573.00</ele>
        <time>2012-10-25T08:17:50Z</time>
      </trkpt>
      <trkpt lat="46.904682" lon="14.842731">
        <ele>573.00</ele>
        <time>2012-10-25T08:17:51Z</time>
      </trkpt>
      <trkpt lat="46.904610" lon="14.842694">
        <ele>573.00</ele>
        <time>2012-10-25T08:17:52Z</time>
      </trkpt>
      <trkpt lat="46.904339" lon="14.842507">
        <ele>573.00</ele>
        <time>2012-10-25T08:17:56Z</time>
      </trkpt>
      <trkpt lat="46.904266" lon="14.842447">
        <ele>573.00</ele>
        <time>2012-10-25T08:17:57Z</time>
      </trkpt>
      <trkpt lat="46.904022" lon="14.842210">
        <ele>572.00</ele>
        <time>2012-10-25T08:18:01Z</time>
      </trkpt>
      <trkpt lat="46.903961" lon="14.842152">
        <ele>572.00</ele>
        <time>2012-10-25T08:18:02Z</time>
      </trkpt>
      <trkpt lat="46.903900" lon="14.842098">
        <ele>572.00</ele>
        <time>2012-10-25T08:18:03Z</time>
      </trkpt>
      <trkpt lat="46.903839" lon="14.842046">
        <ele>572.00</ele>
        <time>2012-10-25T08:18:04Z</time>
      </trkpt>
      <trkpt lat="46.903648" lon="14.841930">
        <ele>571.00</ele>
        <time>2012-10-25T08:18:07Z</time>
      </trkpt>
      <trkpt lat="46.903584" lon="14.841905">
        <ele>571.00</ele>
        <time>2012-10-25T08:18:08Z</time>
      </trkpt>
      <trkpt lat="46.903160" lon="14.841836">
        <ele>571.00</ele>
        <time>2012-10-25T08:18:14Z</time>
      </trkpt>
      <trkpt lat="46.902817" lon="14.841928">
        <ele>571.00</ele>
        <time>2012-10-25T08:18:19Z</time>
      </trkpt>
      <trkpt lat="46.902279" lon="14.842102">
        <ele>570.00</ele>
        <time>2012-10-25T08:18:27Z</time>
      </trkpt>
      <trkpt lat="46.902214" lon="14.842124">
        <ele>570.00</ele>
        <time>2012-10-25T08:18:28Z</time>
      </trkpt>
      <trkpt lat="46.902149" lon="14.842145">
        <ele>570.00</ele>
        <time>2012-10-25T08:18:29Z</time>
      </trkpt>
      <trkpt lat="46.902084" lon="14.842166">
        <ele>569.00</ele>
        <time>2012-10-25T08:18:30Z</time>
      </trkpt>
      <trkpt lat="46.902020" lon="14.842182">
        <ele>569.00</ele>
        <time>2012-10-25T08:18:31Z</time>
      </trkpt>
      <trkpt lat="46.901756" lon="14.842258">
        <ele>569.00</ele>
        <time>2012-10-25T08:18:35Z</time>
      </trkpt>
      <trkpt lat="46.901302" lon="14.842381">
        <ele>568.00</ele>
        <time>2012-10-25T08:18:42Z</time>
      </trkpt>
      <trkpt lat="46.901104" lon="14.842439">
        <ele>568.00</ele>
        <time>2012-10-25T08:18:45Z</time>
      </trkpt>
      <trkpt lat="46.901039" lon="14.842462">
        <ele>568.00</ele>
        <time>2012-10-25T08:18:46Z</time>
      </trkpt>
      <trkpt lat="46.900970" lon="14.842490">
        <ele>567.00</ele>
        <time>2012-10-25T08:18:47Z</time>
      </trkpt>
      <trkpt lat="46.900906" lon="14.842520">
        <ele>567.00</ele>
        <time>2012-10-25T08:18:48Z</time>
      </trkpt>
      <trkpt lat="46.900841" lon="14.842553">
        <ele>567.00</ele>
        <time>2012-10-25T08:18:49Z</time>
      </trkpt>
      <trkpt lat="46.900478" lon="14.842834">
        <ele>566.00</ele>
        <time>2012-10-25T08:18:55Z</time>
      </trkpt>
      <trkpt lat="46.900139" lon="14.843191">
        <ele>566.00</ele>
        <time>2012-10-25T08:19:01Z</time>
      </trkpt>
      <trkpt lat="46.900082" lon="14.843255">
        <ele>565.00</ele>
        <time>2012-10-25T08:19:02Z</time>
      </trkpt>
      <trkpt lat="46.900021" lon="14.843316">
        <ele>565.00</ele>
        <time>2012-10-25T08:19:03Z</time>
      </trkpt>
      <trkpt lat="46.899960" lon="14.843385">
        <ele>565.00</ele>
        <time>2012-10-25T08:19:04Z</time>
      </trkpt>
      <trkpt lat="46.899895" lon="14.843458">
        <ele>565.00</ele>
        <time>2012-10-25T08:19:05Z</time>
      </trkpt>
      <trkpt lat="46.899708" lon="14.843653">
        <ele>564.00</ele>
        <time>2012-10-25T08:19:08Z</time>
      </trkpt>
      <trkpt lat="46.899452" lon="14.843856">
        <ele>564.00</ele>
        <time>2012-10-25T08:19:12Z</time>
      </trkpt>
      <trkpt lat="46.899380" lon="14.843882">
        <ele>564.00</ele>
        <time>2012-10-25T08:19:13Z</time>
      </trkpt>
      <trkpt lat="46.899307" lon="14.843886">
        <ele>564.00</ele>
        <time>2012-10-25T08:19:14Z</time>
      </trkpt>
      <trkpt lat="46.899231" lon="14.843877">
        <ele>563.00</ele>
        <time>2012-10-25T08:19:15Z</time>
      </trkpt>
      <trkpt lat="46.899158" lon="14.843874">
        <ele>563.00</ele>
        <time>2012-10-25T08:19:16Z</time>
      </trkpt>
      <trkpt lat="46.899086" lon="14.843856">
        <ele>563.00</ele>
        <time>2012-10-25T08:19:17Z</time>
      </trkpt>
      <trkpt lat="46.898949" lon="14.843838">
        <ele>563.00</ele>
        <time>2012-10-25T08:19:19Z</time>
      </trkpt>
      <trkpt lat="46.898529" lon="14.843859">
        <ele>562.00</ele>
        <time>2012-10-25T08:19:25Z</time>
      </trkpt>
      <trkpt lat="46.898224" lon="14.844075">
        <ele>562.00</ele>
        <time>2012-10-25T08:19:30Z</time>
      </trkpt>
      <trkpt lat="46.898136" lon="14.844201">
        <ele>562.00</ele>
        <time>2012-10-25T08:19:32Z</time>
      </trkpt>
      <trkpt lat="46.898098" lon="14.844267">
        <ele>561.00</ele>
        <time>2012-10-25T08:19:33Z</time>
      </trkpt>
      <trkpt lat="46.898064" lon="14.844337">
        <ele>561.00</ele>
        <time>2012-10-25T08:19:34Z</time>
      </trkpt>
      <trkpt lat="46.898029" lon="14.844416">
        <ele>561.00</ele>
        <time>2012-10-25T08:19:35Z</time>
      </trkpt>
      <trkpt lat="46.897995" lon="14.844496">
        <ele>561.00</ele>
        <time>2012-10-25T08:19:36Z</time>
      </trkpt>
      <trkpt lat="46.898037" lon="14.844624">
        <ele>560.00</ele>
        <time>2012-10-25T08:19:37Z</time>
      </trkpt>
      <trkpt lat="46.898029" lon="14.844818">
        <ele>560.00</ele>
        <time>2012-10-25T08:19:39Z</time>
      </trkpt>
      <trkpt lat="46.898025" lon="14.844910">
        <ele>560.00</ele>
        <time>2012-10-25T08:19:40Z</time>
      </trkpt>
      <trkpt lat="46.898014" lon="14.845261">
        <ele>560.00</ele>
        <time>2012-10-25T08:19:44Z</time>
      </trkpt>
      <trkpt lat="46.898079" lon="14.845605">
        <ele>559.00</ele>
        <time>2012-10-25T08:19:48Z</time>
      </trkpt>
      <trkpt lat="46.898106" lon="14.845688">
        <ele>559.00</ele>
        <time>2012-10-25T08:19:49Z</time>
      </trkpt>
      <trkpt lat="46.898136" lon="14.845779">
        <ele>559.00</ele>
        <time>2012-10-25T08:19:50Z</time>
      </trkpt>
      <trkpt lat="46.898174" lon="14.845880">
        <ele>559.00</ele>
        <time>2012-10-25T08:19:51Z</time>
      </trkpt>
      <trkpt lat="46.898205" lon="14.845974">
        <ele>558.00</ele>
        <time>2012-10-25T08:19:52Z</time>
      </trkpt>
      <trkpt lat="46.898266" lon="14.846145">
        <ele>558.00</ele>
        <time>2012-10-25T08:19:54Z</time>
      </trkpt>
      <trkpt lat="46.898403" lon="14.846612">
        <ele>558.00</ele>
        <time>2012-10-25T08:20:00Z</time>
      </trkpt>
      <trkpt lat="46.898567" lon="14.847067">
        <ele>557.00</ele>
        <time>2012-10-25T08:20:05Z</time>
      </trkpt>
      <trkpt lat="46.898609" lon="14.847156">
        <ele>557.00</ele>
        <time>2012-10-25T08:20:06Z</time>
      </trkpt>
      <trkpt lat="46.898640" lon="14.847241">
        <ele>557.00</ele>
        <time>2012-10-25T08:20:07Z</time>
      </trkpt>
      <trkpt lat="46.898666" lon="14.847326">
        <ele>557.00</ele>
        <time>2012-10-25T08:20:08Z</time>
      </trkpt>
      <trkpt lat="46.898842" lon="14.847856">
        <ele>556.00</ele>
        <time>2012-10-25T08:20:14Z</time>
      </trkpt>
      <trkpt lat="46.899063" lon="14.848450">
        <ele>556.00</ele>
        <time>2012-10-25T08:20:21Z</time>
      </trkpt>
      <trkpt lat="46.899277" lon="14.849017">
        <ele>556.00</ele>
        <time>2012-10-25T08:20:28Z</time>
      </trkpt>
      <trkpt lat="46.899479" lon="14.849562">
        <ele>556.00</ele>
        <time>2012-10-25T08:20:35Z</time>
      </trkpt>
      <trkpt lat="46.899704" lon="14.850103">
        <ele>555.00</ele>
        <time>2012-10-25T08:20:42Z</time>
      </trkpt>
      <trkpt lat="46.899738" lon="14.850186">
        <ele>555.00</ele>
        <time>2012-10-25T08:20:43Z</time>
      </trkpt>
      <trkpt lat="46.899784" lon="14.850267">
        <ele>555.00</ele>
        <time>2012-10-25T08:20:44Z</time>
      </trkpt>
      <trkpt lat="46.899826" lon="14.850351">
        <ele>554.00</ele>
        <time>2012-10-25T08:20:45Z</time>
      </trkpt>
      <trkpt lat="46.899864" lon="14.850435">
        <ele>554.00</ele>
        <time>2012-10-25T08:20:46Z</time>
      </trkpt>
      <trkpt lat="46.900070" lon="14.850858">
        <ele>554.00</ele>
        <time>2012-10-25T08:20:51Z</time>
      </trkpt>
      <trkpt lat="46.900227" lon="14.851413">
        <ele>553.00</ele>
        <time>2012-10-25T08:20:57Z</time>
      </trkpt>
      <trkpt lat="46.900246" lon="14.851611">
        <ele>553.00</ele>
        <time>2012-10-25T08:20:59Z</time>
      </trkpt>
      <trkpt lat="46.900253" lon="14.851708">
        <ele>553.00</ele>
        <time>2012-10-25T08:21:00Z</time>
      </trkpt>
      <trkpt lat="46.900261" lon="14.851808">
        <ele>553.00</ele>
        <time>2012-10-25T08:21:01Z</time>
      </trkpt>
      <trkpt lat="46.900261" lon="14.851907">
        <ele>552.00</ele>
        <time>2012-10-25T08:21:02Z</time>
      </trkpt>
      <trkpt lat="46.900261" lon="14.852009">
        <ele>552.00</ele>
        <time>2012-10-25T08:21:03Z</time>
      </trkpt>
      <trkpt lat="46.900204" lon="14.852475">
        <ele>552.00</ele>
        <time>2012-10-25T08:21:08Z</time>
      </trkpt>
      <trkpt lat="46.900154" lon="14.853109">
        <ele>551.00</ele>
        <time>2012-10-25T08:21:15Z</time>
      </trkpt>
      <trkpt lat="46.900147" lon="14.853471">
        <ele>551.00</ele>
        <time>2012-10-25T08:21:19Z</time>
      </trkpt>
      <trkpt lat="46.900147" lon="14.853559">
        <ele>550.00</ele>
        <time>2012-10-25T08:21:20Z</time>
      </trkpt>
      <trkpt lat="46.900154" lon="14.853657">
        <ele>550.00</ele>
        <time>2012-10-25T08:21:21Z</time>
      </trkpt>
      <trkpt lat="46.900162" lon="14.853751">
        <ele>550.00</ele>
        <time>2012-10-25T08:21:22Z</time>
      </trkpt>
      <trkpt lat="46.900227" lon="14.854524">
        <ele>549.00</ele>
        <time>2012-10-25T08:21:30Z</time>
      </trkpt>
      <trkpt lat="46.900257" lon="14.855087">
        <ele>549.00</ele>
        <time>2012-10-25T08:21:36Z</time>
      </trkpt>
      <trkpt lat="46.900265" lon="14.855181">
        <ele>549.00</ele>
        <time>2012-10-25T08:21:37Z</time>
      </trkpt>
      <trkpt lat="46.900269" lon="14.855274">
        <ele>548.00</ele>
        <time>2012-10-25T08:21:38Z</time>
      </trkpt>
      <trkpt lat="46.900272" lon="14.855371">
        <ele>548.00</ele>
        <time>2012-10-25T08:21:39Z</time>
      </trkpt>
      <trkpt lat="46.900272" lon="14.855464">
        <ele>548.00</ele>
        <time>2012-10-25T08:21:40Z</time>
      </trkpt>
      <trkpt lat="46.900269" lon="14.855737">
        <ele>548.00</ele>
        <time>2012-10-25T08:21:43Z</time>
      </trkpt>
      <trkpt lat="46.900234" lon="14.856378">
        <ele>548.00</ele>
        <time>2012-10-25T08:21:50Z</time>
      </trkpt>
      <trkpt lat="46.900162" lon="14.857120">
        <ele>547.00</ele>
        <time>2012-10-25T08:21:58Z</time>
      </trkpt>
      <trkpt lat="46.900143" lon="14.857306">
        <ele>547.00</ele>
        <time>2012-10-25T08:22:00Z</time>
      </trkpt>
      <trkpt lat="46.900127" lon="14.857398">
        <ele>547.00</ele>
        <time>2012-10-25T08:22:01Z</time>
      </trkpt>
      <trkpt lat="46.900116" lon="14.857493">
        <ele>546.00</ele>
        <time>2012-10-25T08:22:02Z</time>
      </trkpt>
      <trkpt lat="46.900101" lon="14.857586">
        <ele>546.00</ele>
        <time>2012-10-25T08:22:03Z</time>
      </trkpt>
      <trkpt lat="46.900085" lon="14.857680">
        <ele>546.00</ele>
        <time>2012-10-25T08:22:04Z</time>
      </trkpt>
      <trkpt lat="46.900074" lon="14.857773">
        <ele>546.00</ele>
        <time>2012-10-25T08:22:05Z</time>
      </trkpt>
      <trkpt lat="46.899982" lon="14.858443">
        <ele>545.00</ele>
        <time>2012-10-25T08:22:12Z</time>
      </trkpt>
      <trkpt lat="46.899956" lon="14.858642">
        <ele>545.00</ele>
        <time>2012-10-25T08:22:14Z</time>
      </trkpt>
      <trkpt lat="46.899944" lon="14.858742">
        <ele>545.00</ele>
        <time>2012-10-25T08:22:15Z</time>
      </trkpt>
      <trkpt lat="46.899933" lon="14.858841">
        <ele>544.00</ele>
        <time>2012-10-25T08:22:16Z</time>
      </trkpt>
      <trkpt lat="46.899918" lon="14.858937">
        <ele>544.00</ele>
        <time>2012-10-25T08:22:17Z</time>
      </trkpt>
      <trkpt lat="46.899918" lon="14.859046">
        <ele>544.00</ele>
        <time>2012-10-25T08:22:18Z</time>
      </trkpt>
      <trkpt lat="46.899883" lon="14.859344">
        <ele>544.00</ele>
        <time>2012-10-25T08:22:21Z</time>
      </trkpt>
      <trkpt lat="46.899788" lon="14.859914">
        <ele>543.00</ele>
        <time>2012-10-25T08:22:27Z</time>
      </trkpt>
      <trkpt lat="46.899666" lon="14.860482">
        <ele>543.00</ele>
        <time>2012-10-25T08:22:33Z</time>
      </trkpt>
      <trkpt lat="46.899639" lon="14.860576">
        <ele>542.00</ele>
        <time>2012-10-25T08:22:34Z</time>
      </trkpt>
      <trkpt lat="46.899601" lon="14.860669">
        <ele>542.00</ele>
        <time>2012-10-25T08:22:35Z</time>
      </trkpt>
      <trkpt lat="46.899570" lon="14.860760">
        <ele>542.00</ele>
        <time>2012-10-25T08:22:36Z</time>
      </trkpt>
      <trkpt lat="46.899330" lon="14.861363">
        <ele>541.00</ele>
        <time>2012-10-25T08:22:43Z</time>
      </trkpt>
      <trkpt lat="46.898937" lon="14.861815">
        <ele>541.00</ele>
        <time>2012-10-25T08:22:50Z</time>
      </trkpt>
      <trkpt lat="46.898884" lon="14.861873">
        <ele>541.00</ele>
        <time>2012-10-25T08:22:51Z</time>
      </trkpt>
      <trkpt lat="46.898827" lon="14.861936">
        <ele>540.00</ele>
        <time>2012-10-25T08:22:52Z</time>
      </trkpt>
      <trkpt lat="46.898769" lon="14.861985">
        <ele>540.00</ele>
        <time>2012-10-25T08:22:53Z</time>
      </trkpt>
      <trkpt lat="46.898712" lon="14.862043">
        <ele>540.00</ele>
        <time>2012-10-25T08:22:54Z</time>
      </trkpt>
      <trkpt lat="46.898430" lon="14.862326">
        <ele>539.00</ele>
        <time>2012-10-25T08:22:59Z</time>
      </trkpt>
      <trkpt lat="46.898064" lon="14.862794">
        <ele>539.00</ele>
        <time>2012-10-25T08:23:06Z</time>
      </trkpt>
      <trkpt lat="46.898014" lon="14.862874">
        <ele>539.00</ele>
        <time>2012-10-25T08:23:07Z</time>
      </trkpt>
      <trkpt lat="46.897968" lon="14.862954">
        <ele>538.00</ele>
        <time>2012-10-25T08:23:08Z</time>
      </trkpt>
      <trkpt lat="46.897923" lon="14.863032">
        <ele>538.00</ele>
        <time>2012-10-25T08:23:09Z</time>
      </trkpt>
      <trkpt lat="46.897877" lon="14.863117">
        <ele>538.00</ele>
        <time>2012-10-25T08:23:10Z</time>
      </trkpt>
      <trkpt lat="46.897678" lon="14.863548">
        <ele>537.00</ele>
        <time>2012-10-25T08:23:15Z</time>
      </trkpt>
      <trkpt lat="46.897507" lon="14.863886">
        <ele>537.00</ele>
        <time>2012-10-25T08:23:19Z</time>
      </trkpt>
      <trkpt lat="46.897461" lon="14.863967">
        <ele>536.00</ele>
        <time>2012-10-25T08:23:20Z</time>
      </trkpt>
      <trkpt lat="46.897419" lon="14.864051">
        <ele>536.00</ele>
        <time>2012-10-25T08:23:21Z</time>
      </trkpt>
      <trkpt lat="46.897373" lon="14.864127">
        <ele>536.00</ele>
        <time>2012-10-25T08:23:22Z</time>
      </trkpt>
      <trkpt lat="46.897327" lon="14.864202">
        <ele>535.00</ele>
        <time>2012-10-25T08:23:23Z</time>
      </trkpt>
      <trkpt lat="46.896965" lon="14.864831">
        <ele>535.00</ele>
        <time>2012-10-25T08:23:31Z</time>
      </trkpt>
      <trkpt lat="46.896725" lon="14.865365">
        <ele>535.00</ele>
        <time>2012-10-25T08:23:37Z</time>
      </trkpt>
      <trkpt lat="46.896557" lon="14.865953">
        <ele>535.00</ele>
        <time>2012-10-25T08:23:43Z</time>
      </trkpt>
      <trkpt lat="46.896511" lon="14.866268">
        <ele>534.00</ele>
        <time>2012-10-25T08:23:46Z</time>
      </trkpt>
      <trkpt lat="46.896500" lon="14.866381">
        <ele>534.00</ele>
        <time>2012-10-25T08:23:47Z</time>
      </trkpt>
      <trkpt lat="46.896484" lon="14.866486">
        <ele>534.00</ele>
        <time>2012-10-25T08:23:48Z</time>
      </trkpt>
      <trkpt lat="46.896469" lon="14.866588">
        <ele>534.00</ele>
        <time>2012-10-25T08:23:49Z</time>
      </trkpt>
      <trkpt lat="46.896416" lon="14.866913">
        <ele>534.00</ele>
        <time>2012-10-25T08:23:52Z</time>
      </trkpt>
      <trkpt lat="46.896282" lon="14.867755">
        <ele>533.00</ele>
        <time>2012-10-25T08:24:00Z</time>
      </trkpt>
      <trkpt lat="46.896263" lon="14.867858">
        <ele>533.00</ele>
        <time>2012-10-25T08:24:01Z</time>
      </trkpt>
      <trkpt lat="46.896141" lon="14.868475">
        <ele>533.00</ele>
        <time>2012-10-25T08:24:07Z</time>
      </trkpt>
      <trkpt lat="46.896114" lon="14.868571">
        <ele>533.00</ele>
        <time>2012-10-25T08:24:08Z</time>
      </trkpt>
      <trkpt lat="46.895847" lon="14.869178">
        <ele>532.00</ele>
        <time>2012-10-25T08:24:15Z</time>
      </trkpt>
      <trkpt lat="46.895802" lon="14.869253">
        <ele>532.00</ele>
        <time>2012-10-25T08:24:16Z</time>
      </trkpt>
      <trkpt lat="46.895752" lon="14.869326">
        <ele>532.00</ele>
        <time>2012-10-25T08:24:17Z</time>
      </trkpt>
      <trkpt lat="46.895702" lon="14.869401">
        <ele>532.00</ele>
        <time>2012-10-25T08:24:18Z</time>
      </trkpt>
      <trkpt lat="46.895657" lon="14.869477">
        <ele>531.00</ele>
        <time>2012-10-25T08:24:19Z</time>
      </trkpt>
      <trkpt lat="46.895611" lon="14.869555">
        <ele>531.00</ele>
        <time>2012-10-25T08:24:20Z</time>
      </trkpt>
      <trkpt lat="46.895515" lon="14.869701">
        <ele>531.00</ele>
        <time>2012-10-25T08:24:22Z</time>
      </trkpt>
      <trkpt lat="46.895103" lon="14.870164">
        <ele>531.00</ele>
        <time>2012-10-25T08:24:29Z</time>
      </trkpt>
      <trkpt lat="46.894741" lon="14.870544">
        <ele>531.00</ele>
        <time>2012-10-25T08:24:35Z</time>
      </trkpt>
      <trkpt lat="46.894402" lon="14.870728">
        <ele>531.00</ele>
        <time>2012-10-25T08:24:40Z</time>
      </trkpt>
      <trkpt lat="46.894028" lon="14.870748">
        <ele>531.00</ele>
        <time>2012-10-25T08:24:45Z</time>
      </trkpt>
      <trkpt lat="46.893810" lon="14.870741">
        <ele>530.00</ele>
        <time>2012-10-25T08:24:48Z</time>
      </trkpt>
      <trkpt lat="46.893734" lon="14.870738">
        <ele>530.00</ele>
        <time>2012-10-25T08:24:49Z</time>
      </trkpt>
      <trkpt lat="46.893658" lon="14.870735">
        <ele>530.00</ele>
        <time>2012-10-25T08:24:50Z</time>
      </trkpt>
      <trkpt lat="46.893581" lon="14.870729">
        <ele>529.00</ele>
        <time>2012-10-25T08:24:51Z</time>
      </trkpt>
      <trkpt lat="46.893505" lon="14.870720">
        <ele>529.00</ele>
        <time>2012-10-25T08:24:52Z</time>
      </trkpt>
      <trkpt lat="46.893429" lon="14.870710">
        <ele>529.00</ele>
        <time>2012-10-25T08:24:53Z</time>
      </trkpt>
      <trkpt lat="46.892879" lon="14.870662">
        <ele>528.00</ele>
        <time>2012-10-25T08:25:00Z</time>
      </trkpt>
      <trkpt lat="46.892715" lon="14.870644">
        <ele>528.00</ele>
        <time>2012-10-25T08:25:02Z</time>
      </trkpt>
      <trkpt lat="46.892635" lon="14.870633">
        <ele>528.00</ele>
        <time>2012-10-25T08:25:03Z</time>
      </trkpt>
      <trkpt lat="46.892551" lon="14.870620">
        <ele>528.00</ele>
        <time>2012-10-25T08:25:04Z</time>
      </trkpt>
      <trkpt lat="46.892468" lon="14.870608">
        <ele>527.00</ele>
        <time>2012-10-25T08:25:05Z</time>
      </trkpt>
      <trkpt lat="46.892040" lon="14.870557">
        <ele>527.00</ele>
        <time>2012-10-25T08:25:10Z</time>
      </trkpt>
      <trkpt lat="46.891781" lon="14.870505">
        <ele>526.00</ele>
        <time>2012-10-25T08:25:13Z</time>
      </trkpt>
      <trkpt lat="46.891689" lon="14.870485">
        <ele>526.00</ele>
        <time>2012-10-25T08:25:14Z</time>
      </trkpt>
      <trkpt lat="46.891602" lon="14.870459">
        <ele>525.00</ele>
        <time>2012-10-25T08:25:15Z</time>
      </trkpt>
      <trkpt lat="46.891514" lon="14.870429">
        <ele>525.00</ele>
        <time>2012-10-25T08:25:16Z</time>
      </trkpt>
      <trkpt lat="46.891430" lon="14.870392">
        <ele>525.00</ele>
        <time>2012-10-25T08:25:17Z</time>
      </trkpt>
      <trkpt lat="46.891098" lon="14.870188">
        <ele>524.00</ele>
        <time>2012-10-25T08:25:21Z</time>
      </trkpt>
      <trkpt lat="46.891014" lon="14.870125">
        <ele>524.00</ele>
        <time>2012-10-25T08:25:22Z</time>
      </trkpt>
      <trkpt lat="46.890938" lon="14.870058">
        <ele>523.00</ele>
        <time>2012-10-25T08:25:23Z</time>
      </trkpt>
      <trkpt lat="46.890862" lon="14.869986">
        <ele>523.00</ele>
        <time>2012-10-25T08:25:24Z</time>
      </trkpt>
      <trkpt lat="46.890789" lon="14.869905">
        <ele>522.00</ele>
        <time>2012-10-25T08:25:25Z</time>
      </trkpt>
      <trkpt lat="46.890644" lon="14.869739">
        <ele>522.00</ele>
        <time>2012-10-25T08:25:27Z</time>
      </trkpt>
      <trkpt lat="46.890568" lon="14.869651">
        <ele>521.00</ele>
        <time>2012-10-25T08:25:28Z</time>
      </trkpt>
      <trkpt lat="46.890488" lon="14.869555">
        <ele>521.00</ele>
        <time>2012-10-25T08:25:29Z</time>
      </trkpt>
      <trkpt lat="46.890411" lon="14.869451">
        <ele>521.00</ele>
        <time>2012-10-25T08:25:30Z</time>
      </trkpt>
      <trkpt lat="46.890274" lon="14.869234">
        <ele>520.00</ele>
        <time>2012-10-25T08:25:32Z</time>
      </trkpt>
      <trkpt lat="46.890152" lon="14.869011">
        <ele>519.00</ele>
        <time>2012-10-25T08:25:34Z</time>
      </trkpt>
      <trkpt lat="46.890091" lon="14.868895">
        <ele>519.00</ele>
        <time>2012-10-25T08:25:35Z</time>
      </trkpt>
      <trkpt lat="46.890034" lon="14.868776">
        <ele>519.00</ele>
        <time>2012-10-25T08:25:36Z</time>
      </trkpt>
      <trkpt lat="46.889977" lon="14.868655">
        <ele>518.00</ele>
        <time>2012-10-25T08:25:37Z</time>
      </trkpt>
      <trkpt lat="46.889923" lon="14.868530">
        <ele>518.00</ele>
        <time>2012-10-25T08:25:38Z</time>
      </trkpt>
      <trkpt lat="46.889866" lon="14.868409">
        <ele>517.00</ele>
        <time>2012-10-25T08:25:39Z</time>
      </trkpt>
      <trkpt lat="46.889820" lon="14.868297">
        <ele>517.00</ele>
        <time>2012-10-25T08:25:40Z</time>
      </trkpt>
      <trkpt lat="46.889767" lon="14.868185">
        <ele>516.00</ele>
        <time>2012-10-25T08:25:41Z</time>
      </trkpt>
      <trkpt lat="46.889721" lon="14.868073">
        <ele>516.00</ele>
        <time>2012-10-25T08:25:42Z</time>
      </trkpt>
      <trkpt lat="46.889668" lon="14.867963">
        <ele>516.00</ele>
        <time>2012-10-25T08:25:43Z</time>
      </trkpt>
      <trkpt lat="46.889595" lon="14.867743">
        <ele>516.00</ele>
        <time>2012-10-25T08:25:45Z</time>
      </trkpt>
      <trkpt lat="46.889324" lon="14.867286">
        <ele>515.00</ele>
        <time>2012-10-25T08:25:50Z</time>
      </trkpt>
      <trkpt lat="46.889099" lon="14.867054">
        <ele>515.00</ele>
        <time>2012-10-25T08:25:53Z</time>
      </trkpt>
      <trkpt lat="46.889019" lon="14.866989">
        <ele>514.00</ele>
        <time>2012-10-25T08:25:54Z</time>
      </trkpt>
      <trkpt lat="46.888935" lon="14.866931">
        <ele>514.00</ele>
        <time>2012-10-25T08:25:55Z</time>
      </trkpt>
      <trkpt lat="46.888851" lon="14.866875">
        <ele>514.00</ele>
        <time>2012-10-25T08:25:56Z</time>
      </trkpt>
      <trkpt lat="46.888412" lon="14.866669">
        <ele>513.00</ele>
        <time>2012-10-25T08:26:01Z</time>
      </trkpt>
      <trkpt lat="46.888329" lon="14.866644">
        <ele>513.00</ele>
        <time>2012-10-25T08:26:02Z</time>
      </trkpt>
      <trkpt lat="46.888241" lon="14.866622">
        <ele>513.00</ele>
        <time>2012-10-25T08:26:03Z</time>
      </trkpt>
      <trkpt lat="46.888157" lon="14.866608">
        <ele>512.00</ele>
        <time>2012-10-25T08:26:04Z</time>
      </trkpt>
      <trkpt lat="46.888069" lon="14.866603">
        <ele>512.00</ele>
        <time>2012-10-25T08:26:05Z</time>
      </trkpt>
      <trkpt lat="46.887981" lon="14.866603">
        <ele>512.00</ele>
        <time>2012-10-25T08:26:06Z</time>
      </trkpt>
      <trkpt lat="46.887890" lon="14.866606">
        <ele>512.00</ele>
        <time>2012-10-25T08:26:07Z</time>
      </trkpt>
      <trkpt lat="46.887474" lon="14.866685">
        <ele>511.00</ele>
        <time>2012-10-25T08:26:12Z</time>
      </trkpt>
      <trkpt lat="46.887093" lon="14.866813">
        <ele>510.00</ele>
        <time>2012-10-25T08:26:17Z</time>
      </trkpt>
      <trkpt lat="46.887012" lon="14.866842">
        <ele>510.00</ele>
        <time>2012-10-25T08:26:18Z</time>
      </trkpt>
      <trkpt lat="46.886936" lon="14.866869">
        <ele>510.00</ele>
        <time>2012-10-25T08:26:19Z</time>
      </trkpt>
      <trkpt lat="46.886860" lon="14.866896">
        <ele>509.00</ele>
        <time>2012-10-25T08:26:20Z</time>
      </trkpt>
      <trkpt lat="46.886784" lon="14.866918">
        <ele>509.00</ele>
        <time>2012-10-25T08:26:21Z</time>
      </trkpt>
      <trkpt lat="46.886543" lon="14.866952">
        <ele>509.00</ele>
        <time>2012-10-25T08:26:24Z</time>
      </trkpt>
      <trkpt lat="46.886467" lon="14.866957">
        <ele>508.00</ele>
        <time>2012-10-25T08:26:25Z</time>
      </trkpt>
      <trkpt lat="46.886387" lon="14.866960">
        <ele>508.00</ele>
        <time>2012-10-25T08:26:26Z</time>
      </trkpt>
      <trkpt lat="46.886311" lon="14.866955">
        <ele>508.00</ele>
        <time>2012-10-25T08:26:27Z</time>
      </trkpt>
      <trkpt lat="46.886230" lon="14.866949">
        <ele>507.00</ele>
        <time>2012-10-25T08:26:28Z</time>
      </trkpt>
      <trkpt lat="46.885841" lon="14.866844">
        <ele>507.00</ele>
        <time>2012-10-25T08:26:33Z</time>
      </trkpt>
      <trkpt lat="46.885315" lon="14.866589">
        <ele>507.00</ele>
        <time>2012-10-25T08:26:40Z</time>
      </trkpt>
      <trkpt lat="46.884773" lon="14.866346">
        <ele>507.00</ele>
        <time>2012-10-25T08:26:47Z</time>
      </trkpt>
      <trkpt lat="46.884693" lon="14.866333">
        <ele>506.00</ele>
        <time>2012-10-25T08:26:48Z</time>
      </trkpt>
      <trkpt lat="46.884617" lon="14.866329">
        <ele>506.00</ele>
        <time>2012-10-25T08:26:49Z</time>
      </trkpt>
      <trkpt lat="46.884537" lon="14.866338">
        <ele>506.00</ele>
        <time>2012-10-25T08:26:50Z</time>
      </trkpt>
      <trkpt lat="46.884460" lon="14.866354">
        <ele>506.00</ele>
        <time>2012-10-25T08:26:51Z</time>
      </trkpt>
      <trkpt lat="46.884384" lon="14.866379">
        <ele>505.00</ele>
        <time>2012-10-25T08:26:52Z</time>
      </trkpt>
      <trkpt lat="46.884155" lon="14.866507">
        <ele>505.00</ele>
        <time>2012-10-25T08:26:55Z</time>
      </trkpt>
      <trkpt lat="46.884018" lon="14.866632">
        <ele>505.00</ele>
        <time>2012-10-25T08:26:57Z</time>
      </trkpt>
      <trkpt lat="46.883827" lon="14.866856">
        <ele>505.00</ele>
        <time>2012-10-25T08:27:00Z</time>
      </trkpt>
      <trkpt lat="46.883484" lon="14.867364">
        <ele>504.00</ele>
        <time>2012-10-25T08:27:06Z</time>
      </trkpt>
      <trkpt lat="46.883427" lon="14.867444">
        <ele>504.00</ele>
        <time>2012-10-25T08:27:07Z</time>
      </trkpt>
      <trkpt lat="46.883369" lon="14.867525">
        <ele>504.00</ele>
        <time>2012-10-25T08:27:08Z</time>
      </trkpt>
      <trkpt lat="46.883312" lon="14.867609">
        <ele>503.00</ele>
        <time>2012-10-25T08:27:09Z</time>
      </trkpt>
      <trkpt lat="46.883259" lon="14.867686">
        <ele>503.00</ele>
        <time>2012-10-25T08:27:10Z</time>
      </trkpt>
      <trkpt lat="46.882988" lon="14.868079">
        <ele>503.00</ele>
        <time>2012-10-25T08:27:15Z</time>
      </trkpt>
      <trkpt lat="46.882721" lon="14.868477">
        <ele>502.00</ele>
        <time>2012-10-25T08:27:20Z</time>
      </trkpt>
      <trkpt lat="46.882664" lon="14.868558">
        <ele>502.00</ele>
        <time>2012-10-25T08:27:21Z</time>
      </trkpt>
      <trkpt lat="46.882606" lon="14.868638">
        <ele>501.00</ele>
        <time>2012-10-25T08:27:22Z</time>
      </trkpt>
      <trkpt lat="46.882549" lon="14.868718">
        <ele>501.00</ele>
        <time>2012-10-25T08:27:23Z</time>
      </trkpt>
      <trkpt lat="46.882488" lon="14.868793">
        <ele>501.00</ele>
        <time>2012-10-25T08:27:24Z</time>
      </trkpt>
      <trkpt lat="46.882290" lon="14.868960">
        <ele>501.00</ele>
        <time>2012-10-25T08:27:27Z</time>
      </trkpt>
      <trkpt lat="46.881905" lon="14.869097">
        <ele>500.00</ele>
        <time>2012-10-25T08:27:32Z</time>
      </trkpt>
      <trkpt lat="46.881447" lon="14.869156">
        <ele>500.00</ele>
        <time>2012-10-25T08:27:38Z</time>
      </trkpt>
      <trkpt lat="46.881371" lon="14.869163">
        <ele>500.00</ele>
        <time>2012-10-25T08:27:39Z</time>
      </trkpt>
      <trkpt lat="46.881298" lon="14.869173">
        <ele>500.00</ele>
        <time>2012-10-25T08:27:40Z</time>
      </trkpt>
      <trkpt lat="46.881226" lon="14.869191">
        <ele>499.00</ele>
        <time>2012-10-25T08:27:41Z</time>
      </trkpt>
      <trkpt lat="46.881153" lon="14.869214">
        <ele>499.00</ele>
        <time>2012-10-25T08:27:42Z</time>
      </trkpt>
      <trkpt lat="46.881081" lon="14.869240">
        <ele>499.00</ele>
        <time>2012-10-25T08:27:43Z</time>
      </trkpt>
      <trkpt lat="46.881008" lon="14.869268">
        <ele>499.00</ele>
        <time>2012-10-25T08:27:44Z</time>
      </trkpt>
      <trkpt lat="46.880539" lon="14.869522">
        <ele>498.00</ele>
        <time>2012-10-25T08:27:51Z</time>
      </trkpt>
      <trkpt lat="46.880203" lon="14.869706">
        <ele>498.00</ele>
        <time>2012-10-25T08:27:56Z</time>
      </trkpt>
      <trkpt lat="46.879692" lon="14.870021">
        <ele>498.00</ele>
        <time>2012-10-25T08:28:04Z</time>
      </trkpt>
      <trkpt lat="46.879196" lon="14.870368">
        <ele>498.00</ele>
        <time>2012-10-25T08:28:12Z</time>
      </trkpt>
      <trkpt lat="46.878948" lon="14.870531">
        <ele>498.00</ele>
        <time>2012-10-25T08:28:16Z</time>
      </trkpt>
      <trkpt lat="46.878887" lon="14.870574">
        <ele>497.00</ele>
        <time>2012-10-25T08:28:17Z</time>
      </trkpt>
      <trkpt lat="46.878822" lon="14.870617">
        <ele>497.00</ele>
        <time>2012-10-25T08:28:18Z</time>
      </trkpt>
      <trkpt lat="46.878765" lon="14.870657">
        <ele>497.00</ele>
        <time>2012-10-25T08:28:19Z</time>
      </trkpt>
      <trkpt lat="46.878700" lon="14.870699">
        <ele>497.00</ele>
        <time>2012-10-25T08:28:20Z</time>
      </trkpt>
      <trkpt lat="46.878288" lon="14.871045">
        <ele>497.00</ele>
        <time>2012-10-25T08:28:27Z</time>
      </trkpt>
      <trkpt lat="46.877823" lon="14.871594">
        <ele>496.00</ele>
        <time>2012-10-25T08:28:36Z</time>
      </trkpt>
      <trkpt lat="46.877495" lon="14.872079">
        <ele>496.00</ele>
        <time>2012-10-25T08:28:43Z</time>
      </trkpt>
      <trkpt lat="46.877251" lon="14.872561">
        <ele>496.00</ele>
        <time>2012-10-25T08:28:49Z</time>
      </trkpt>
      <trkpt lat="46.877018" lon="14.873045">
        <ele>496.00</ele>
        <time>2012-10-25T08:28:55Z</time>
      </trkpt>
      <trkpt lat="46.876976" lon="14.873118">
        <ele>495.00</ele>
        <time>2012-10-25T08:28:56Z</time>
      </trkpt>
      <trkpt lat="46.876938" lon="14.873194">
        <ele>495.00</ele>
        <time>2012-10-25T08:28:57Z</time>
      </trkpt>
      <trkpt lat="46.876900" lon="14.873270">
        <ele>495.00</ele>
        <time>2012-10-25T08:28:58Z</time>
      </trkpt>
      <trkpt lat="46.876862" lon="14.873348">
        <ele>495.00</ele>
        <time>2012-10-25T08:28:59Z</time>
      </trkpt>
      <trkpt lat="46.876648" lon="14.873810">
        <ele>495.00</ele>
        <time>2012-10-25T08:29:05Z</time>
      </trkpt>
      <trkpt lat="46.876381" lon="14.874305">
        <ele>494.00</ele>
        <time>2012-10-25T08:29:12Z</time>
      </trkpt>
      <trkpt lat="46.876179" lon="14.874615">
        <ele>494.00</ele>
        <time>2012-10-25T08:29:17Z</time>
      </trkpt>
      <trkpt lat="46.876133" lon="14.874672">
        <ele>494.00</ele>
        <time>2012-10-25T08:29:18Z</time>
      </trkpt>
      <trkpt lat="46.875839" lon="14.874943">
        <ele>494.00</ele>
        <time>2012-10-25T08:29:24Z</time>
      </trkpt>
      <trkpt lat="46.875397" lon="14.875157">
        <ele>493.00</ele>
        <time>2012-10-25T08:29:32Z</time>
      </trkpt>
      <trkpt lat="46.875336" lon="14.875171">
        <ele>493.00</ele>
        <time>2012-10-25T08:29:33Z</time>
      </trkpt>
      <trkpt lat="46.875275" lon="14.875179">
        <ele>493.00</ele>
        <time>2012-10-25T08:29:34Z</time>
      </trkpt>
      <trkpt lat="46.875217" lon="14.875183">
        <ele>493.00</ele>
        <time>2012-10-25T08:29:35Z</time>
      </trkpt>
      <trkpt lat="46.875046" lon="14.875195">
        <ele>493.00</ele>
        <time>2012-10-25T08:29:38Z</time>
      </trkpt>
      <trkpt lat="46.874817" lon="14.875203">
        <ele>492.00</ele>
        <time>2012-10-25T08:29:42Z</time>
      </trkpt>
      <trkpt lat="46.874653" lon="14.875214">
        <ele>492.00</ele>
        <time>2012-10-25T08:29:45Z</time>
      </trkpt>
      <trkpt lat="46.874218" lon="14.875230">
        <ele>492.00</ele>
        <time>2012-10-25T08:29:53Z</time>
      </trkpt>
      <trkpt lat="46.873856" lon="14.875298">
        <ele>492.00</ele>
        <time>2012-10-25T08:30:00Z</time>
      </trkpt>
      <trkpt lat="46.873627" lon="14.875453">
        <ele>492.00</ele>
        <time>2012-10-25T08:30:05Z</time>
      </trkpt>
      <trkpt lat="46.873581" lon="14.875498">
        <ele>492.00</ele>
        <time>2012-10-25T08:30:06Z</time>
      </trkpt>
      <trkpt lat="46.873421" lon="14.875692">
        <ele>492.00</ele>
        <time>2012-10-25T08:30:10Z</time>
      </trkpt>
      <trkpt lat="46.873154" lon="14.876155">
        <ele>492.00</ele>
        <time>2012-10-25T08:30:17Z</time>
      </trkpt>
      <trkpt lat="46.872997" lon="14.876410">
        <ele>492.00</ele>
        <time>2012-10-25T08:30:21Z</time>
      </trkpt>
      <trkpt lat="46.872906" lon="14.876523">
        <ele>492.00</ele>
        <time>2012-10-25T08:30:23Z</time>
      </trkpt>
      <trkpt lat="46.872642" lon="14.876728">
        <ele>492.00</ele>
        <time>2012-10-25T08:30:28Z</time>
      </trkpt>
      <trkpt lat="46.872585" lon="14.876739">
        <ele>492.00</ele>
        <time>2012-10-25T08:30:29Z</time>
      </trkpt>
      <trkpt lat="46.872524" lon="14.876740">
        <ele>492.00</ele>
        <time>2012-10-25T08:30:30Z</time>
      </trkpt>
      <trkpt lat="46.872459" lon="14.876740">
        <ele>491.00</ele>
        <time>2012-10-25T08:30:31Z</time>
      </trkpt>
      <trkpt lat="46.872398" lon="14.876735">
        <ele>491.00</ele>
        <time>2012-10-25T08:30:32Z</time>
      </trkpt>
      <trkpt lat="46.872337" lon="14.876731">
        <ele>490.00</ele>
        <time>2012-10-25T08:30:33Z</time>
      </trkpt>
      <trkpt lat="46.871902" lon="14.876700">
        <ele>490.00</ele>
        <time>2012-10-25T08:30:40Z</time>
      </trkpt>
      <trkpt lat="46.871464" lon="14.876669">
        <ele>490.00</ele>
        <time>2012-10-25T08:30:47Z</time>
      </trkpt>
      <trkpt lat="46.871403" lon="14.876670">
        <ele>490.00</ele>
        <time>2012-10-25T08:30:48Z</time>
      </trkpt>
      <trkpt lat="46.871338" lon="14.876668">
        <ele>489.00</ele>
        <time>2012-10-25T08:30:49Z</time>
      </trkpt>
      <trkpt lat="46.871277" lon="14.876666">
        <ele>489.00</ele>
        <time>2012-10-25T08:30:50Z</time>
      </trkpt>
      <trkpt lat="46.871220" lon="14.876665">
        <ele>489.00</ele>
        <time>2012-10-25T08:30:51Z</time>
      </trkpt>
      <trkpt lat="46.871159" lon="14.876662">
        <ele>489.00</ele>
        <time>2012-10-25T08:30:52Z</time>
      </trkpt>
      <trkpt lat="46.870979" lon="14.876652">
        <ele>488.00</ele>
        <time>2012-10-25T08:30:55Z</time>
      </trkpt>
      <trkpt lat="46.870754" lon="14.876634">
        <ele>488.00</ele>
        <time>2012-10-25T08:30:59Z</time>
      </trkpt>
      <trkpt lat="46.870682" lon="14.876628">
        <ele>488.00</ele>
        <time>2012-10-25T08:31:01Z</time>
      </trkpt>
      <trkpt lat="46.870651" lon="14.876628">
        <ele>488.00</ele>
        <time>2012-10-25T08:31:02Z</time>
      </trkpt>
      <trkpt lat="46.870625" lon="14.876628">
        <ele>487.00</ele>
        <time>2012-10-25T08:31:03Z</time>
      </trkpt>
      <trkpt lat="46.870602" lon="14.876629">
        <ele>487.00</ele>
        <time>2012-10-25T08:31:04Z</time>
      </trkpt>
      <trkpt lat="46.870579" lon="14.876632">
        <ele>486.00</ele>
        <time>2012-10-25T08:31:05Z</time>
      </trkpt>
      <trkpt lat="46.870567" lon="14.876632">
        <ele>486.00</ele>
        <time>2012-10-25T08:31:06Z</time>
      </trkpt>
      <trkpt lat="46.870556" lon="14.876628">
        <ele>486.00</ele>
        <time>2012-10-25T08:31:07Z</time>
      </trkpt>
      <trkpt lat="46.870548" lon="14.876625">
        <ele>486.00</ele>
        <time>2012-10-25T08:31:10Z</time>
      </trkpt>
      <trkpt lat="46.870537" lon="14.876632">
        <ele>486.00</ele>
        <time>2012-10-25T08:31:12Z</time>
      </trkpt>
      <trkpt lat="46.870525" lon="14.876640">
        <ele>486.00</ele>
        <time>2012-10-25T08:31:13Z</time>
      </trkpt>
      <trkpt lat="46.870468" lon="14.876646">
        <ele>486.00</ele>
        <time>2012-10-25T08:31:16Z</time>
      </trkpt>
      <trkpt lat="46.870361" lon="14.876632">
        <ele>486.00</ele>
        <time>2012-10-25T08:31:19Z</time>
      </trkpt>
      <trkpt lat="46.870319" lon="14.876626">
        <ele>486.00</ele>
        <time>2012-10-25T08:31:20Z</time>
      </trkpt>
      <trkpt lat="46.870064" lon="14.876616">
        <ele>486.00</ele>
        <time>2012-10-25T08:31:25Z</time>
      </trkpt>
      <trkpt lat="46.869724" lon="14.876585">
        <ele>486.00</ele>
        <time>2012-10-25T08:31:31Z</time>
      </trkpt>
      <trkpt lat="46.869663" lon="14.876577">
        <ele>486.00</ele>
        <time>2012-10-25T08:31:32Z</time>
      </trkpt>
      <trkpt lat="46.869293" lon="14.876507">
        <ele>485.00</ele>
        <time>2012-10-25T08:31:38Z</time>
      </trkpt>
      <trkpt lat="46.869228" lon="14.876483">
        <ele>485.00</ele>
        <time>2012-10-25T08:31:39Z</time>
      </trkpt>
      <trkpt lat="46.869171" lon="14.876455">
        <ele>485.00</ele>
        <time>2012-10-25T08:31:40Z</time>
      </trkpt>
      <trkpt lat="46.869114" lon="14.876427">
        <ele>484.00</ele>
        <time>2012-10-25T08:31:41Z</time>
      </trkpt>
      <trkpt lat="46.869068" lon="14.876400">
        <ele>484.00</ele>
        <time>2012-10-25T08:31:42Z</time>
      </trkpt>
      <trkpt lat="46.869030" lon="14.876373">
        <ele>484.00</ele>
        <time>2012-10-25T08:31:43Z</time>
      </trkpt>
      <trkpt lat="46.868946" lon="14.876329">
        <ele>484.00</ele>
        <time>2012-10-25T08:31:45Z</time>
      </trkpt>
      <trkpt lat="46.868816" lon="14.876266">
        <ele>484.00</ele>
        <time>2012-10-25T08:31:48Z</time>
      </trkpt>
      <trkpt lat="46.868587" lon="14.876174">
        <ele>483.00</ele>
        <time>2012-10-25T08:31:53Z</time>
      </trkpt>
      <trkpt lat="46.868561" lon="14.876168">
        <ele>483.00</ele>
        <time>2012-10-25T08:31:54Z</time>
      </trkpt>
      <trkpt lat="46.868538" lon="14.876163">
        <ele>483.00</ele>
        <time>2012-10-25T08:31:55Z</time>
      </trkpt>
      <trkpt lat="46.868519" lon="14.876158">
        <ele>483.00</ele>
        <time>2012-10-25T08:31:56Z</time>
      </trkpt>
      <trkpt lat="46.868492" lon="14.876151">
        <ele>482.00</ele>
        <time>2012-10-25T08:31:57Z</time>
      </trkpt>
      <trkpt lat="46.868393" lon="14.876133">
        <ele>482.00</ele>
        <time>2012-10-25T08:32:00Z</time>
      </trkpt>
      <trkpt lat="46.868195" lon="14.876066">
        <ele>482.00</ele>
        <time>2012-10-25T08:32:04Z</time>
      </trkpt>
      <trkpt lat="46.868141" lon="14.876050">
        <ele>482.00</ele>
        <time>2012-10-25T08:32:05Z</time>
      </trkpt>
      <trkpt lat="46.867973" lon="14.875993">
        <ele>482.00</ele>
        <time>2012-10-25T08:32:08Z</time>
      </trkpt>
      <trkpt lat="46.867790" lon="14.875942">
        <ele>482.00</ele>
        <time>2012-10-25T08:32:11Z</time>
      </trkpt>
      <trkpt lat="46.867344" lon="14.875816">
        <ele>481.00</ele>
        <time>2012-10-25T08:32:18Z</time>
      </trkpt>
      <trkpt lat="46.867275" lon="14.875797">
        <ele>481.00</ele>
        <time>2012-10-25T08:32:19Z</time>
      </trkpt>
      <trkpt lat="46.867210" lon="14.875781">
        <ele>481.00</ele>
        <time>2012-10-25T08:32:20Z</time>
      </trkpt>
      <trkpt lat="46.867146" lon="14.875763">
        <ele>480.00</ele>
        <time>2012-10-25T08:32:21Z</time>
      </trkpt>
      <trkpt lat="46.867085" lon="14.875744">
        <ele>480.00</ele>
        <time>2012-10-25T08:32:22Z</time>
      </trkpt>
      <trkpt lat="46.866711" lon="14.875582">
        <ele>480.00</ele>
        <time>2012-10-25T08:32:28Z</time>
      </trkpt>
      <trkpt lat="46.866310" lon="14.875300">
        <ele>480.00</ele>
        <time>2012-10-25T08:32:35Z</time>
      </trkpt>
      <trkpt lat="46.865963" lon="14.874953">
        <ele>480.00</ele>
        <time>2012-10-25T08:32:42Z</time>
      </trkpt>
      <trkpt lat="46.865837" lon="14.874799">
        <ele>480.00</ele>
        <time>2012-10-25T08:32:45Z</time>
      </trkpt>
      <trkpt lat="46.865784" lon="14.874687">
        <ele>480.00</ele>
        <time>2012-10-25T08:32:47Z</time>
      </trkpt>
      <trkpt lat="46.865684" lon="14.874545">
        <ele>480.00</ele>
        <time>2012-10-25T08:32:50Z</time>
      </trkpt>
      <trkpt lat="46.865620" lon="14.874447">
        <ele>480.00</ele>
        <time>2012-10-25T08:32:52Z</time>
      </trkpt>
      <trkpt lat="46.865376" lon="14.874025">
        <ele>480.00</ele>
        <time>2012-10-25T08:33:00Z</time>
      </trkpt>
      <trkpt lat="46.865231" lon="14.873750">
        <ele>480.00</ele>
        <time>2012-10-25T08:33:05Z</time>
      </trkpt>
      <trkpt lat="46.865204" lon="14.873694">
        <ele>480.00</ele>
        <time>2012-10-25T08:33:06Z</time>
      </trkpt>
      <trkpt lat="46.864967" lon="14.873135">
        <ele>480.00</ele>
        <time>2012-10-25T08:33:15Z</time>
      </trkpt>
      <trkpt lat="46.864841" lon="14.872797">
        <ele>480.00</ele>
        <time>2012-10-25T08:33:20Z</time>
      </trkpt>
      <trkpt lat="46.864815" lon="14.872693">
        <ele>480.00</ele>
        <time>2012-10-25T08:33:22Z</time>
      </trkpt>
      <trkpt lat="46.864727" lon="14.872423">
        <ele>480.00</ele>
        <time>2012-10-25T08:33:27Z</time>
      </trkpt>
      <trkpt lat="46.864563" lon="14.871863">
        <ele>480.00</ele>
        <time>2012-10-25T08:33:35Z</time>
      </trkpt>
      <trkpt lat="46.864391" lon="14.871285">
        <ele>479.00</ele>
        <time>2012-10-25T08:33:42Z</time>
      </trkpt>
      <trkpt lat="46.864368" lon="14.871193">
        <ele>479.00</ele>
        <time>2012-10-25T08:33:43Z</time>
      </trkpt>
      <trkpt lat="46.864342" lon="14.871104">
        <ele>479.00</ele>
        <time>2012-10-25T08:33:44Z</time>
      </trkpt>
      <trkpt lat="46.864311" lon="14.871012">
        <ele>478.00</ele>
        <time>2012-10-25T08:33:45Z</time>
      </trkpt>
      <trkpt lat="46.864281" lon="14.870919">
        <ele>478.00</ele>
        <time>2012-10-25T08:33:46Z</time>
      </trkpt>
      <trkpt lat="46.864250" lon="14.870829">
        <ele>478.00</ele>
        <time>2012-10-25T08:33:47Z</time>
      </trkpt>
      <trkpt lat="46.864193" lon="14.870653">
        <ele>478.00</ele>
        <time>2012-10-25T08:33:49Z</time>
      </trkpt>
      <trkpt lat="46.864140" lon="14.870496">
        <ele>477.00</ele>
        <time>2012-10-25T08:33:51Z</time>
      </trkpt>
      <trkpt lat="46.864121" lon="14.870427">
        <ele>477.00</ele>
        <time>2012-10-25T08:33:52Z</time>
      </trkpt>
      <trkpt lat="46.864101" lon="14.870358">
        <ele>477.00</ele>
        <time>2012-10-25T08:33:53Z</time>
      </trkpt>
      <trkpt lat="46.864079" lon="14.870289">
        <ele>476.00</ele>
        <time>2012-10-25T08:33:54Z</time>
      </trkpt>
      <trkpt lat="46.864056" lon="14.870222">
        <ele>476.00</ele>
        <time>2012-10-25T08:33:55Z</time>
      </trkpt>
      <trkpt lat="46.864033" lon="14.870155">
        <ele>476.00</ele>
        <time>2012-10-25T08:33:56Z</time>
      </trkpt>
      <trkpt lat="46.863953" lon="14.869952">
        <ele>476.00</ele>
        <time>2012-10-25T08:33:59Z</time>
      </trkpt>
      <trkpt lat="46.863861" lon="14.869762">
        <ele>475.00</ele>
        <time>2012-10-25T08:34:02Z</time>
      </trkpt>
      <trkpt lat="46.863819" lon="14.869701">
        <ele>475.00</ele>
        <time>2012-10-25T08:34:03Z</time>
      </trkpt>
      <trkpt lat="46.863701" lon="14.869497">
        <ele>474.00</ele>
        <time>2012-10-25T08:34:06Z</time>
      </trkpt>
      <trkpt lat="46.863663" lon="14.869427">
        <ele>474.00</ele>
        <time>2012-10-25T08:34:07Z</time>
      </trkpt>
      <trkpt lat="46.863625" lon="14.869354">
        <ele>474.00</ele>
        <time>2012-10-25T08:34:08Z</time>
      </trkpt>
      <trkpt lat="46.863583" lon="14.869284">
        <ele>474.00</ele>
        <time>2012-10-25T08:34:09Z</time>
      </trkpt>
      <trkpt lat="46.863358" lon="14.868927">
        <ele>473.00</ele>
        <time>2012-10-25T08:34:14Z</time>
      </trkpt>
      <trkpt lat="46.862942" lon="14.868311">
        <ele>473.00</ele>
        <time>2012-10-25T08:34:23Z</time>
      </trkpt>
      <trkpt lat="46.862804" lon="14.868104">
        <ele>473.00</ele>
        <time>2012-10-25T08:34:26Z</time>
      </trkpt>
      <trkpt lat="46.862762" lon="14.868034">
        <ele>473.00</ele>
        <time>2012-10-25T08:34:27Z</time>
      </trkpt>
      <trkpt lat="46.862717" lon="14.867964">
        <ele>472.00</ele>
        <time>2012-10-25T08:34:28Z</time>
      </trkpt>
      <trkpt lat="46.862675" lon="14.867897">
        <ele>472.00</ele>
        <time>2012-10-25T08:34:29Z</time>
      </trkpt>
      <trkpt lat="46.862629" lon="14.867826">
        <ele>472.00</ele>
        <time>2012-10-25T08:34:30Z</time>
      </trkpt>
      <trkpt lat="46.862587" lon="14.867758">
        <ele>472.00</ele>
        <time>2012-10-25T08:34:31Z</time>
      </trkpt>
      <trkpt lat="46.862541" lon="14.867685">
        <ele>471.00</ele>
        <time>2012-10-25T08:34:32Z</time>
      </trkpt>
      <trkpt lat="46.862499" lon="14.867611">
        <ele>471.00</ele>
        <time>2012-10-25T08:34:33Z</time>
      </trkpt>
      <trkpt lat="46.862205" lon="14.867121">
        <ele>471.00</ele>
        <time>2012-10-25T08:34:40Z</time>
      </trkpt>
      <trkpt lat="46.861839" lon="14.866501">
        <ele>471.00</ele>
        <time>2012-10-25T08:34:49Z</time>
      </trkpt>
      <trkpt lat="46.861797" lon="14.866428">
        <ele>471.00</ele>
        <time>2012-10-25T08:34:50Z</time>
      </trkpt>
      <trkpt lat="46.861504" lon="14.865943">
        <ele>471.00</ele>
        <time>2012-10-25T08:34:57Z</time>
      </trkpt>
      <trkpt lat="46.861271" lon="14.865601">
        <ele>471.00</ele>
        <time>2012-10-25T08:35:02Z</time>
      </trkpt>
      <trkpt lat="46.861229" lon="14.865529">
        <ele>470.00</ele>
        <time>2012-10-25T08:35:03Z</time>
      </trkpt>
      <trkpt lat="46.861183" lon="14.865459">
        <ele>470.00</ele>
        <time>2012-10-25T08:35:04Z</time>
      </trkpt>
      <trkpt lat="46.861137" lon="14.865390">
        <ele>470.00</ele>
        <time>2012-10-25T08:35:05Z</time>
      </trkpt>
      <trkpt lat="46.861088" lon="14.865322">
        <ele>469.00</ele>
        <time>2012-10-25T08:35:06Z</time>
      </trkpt>
      <trkpt lat="46.860901" lon="14.865049">
        <ele>469.00</ele>
        <time>2012-10-25T08:35:10Z</time>
      </trkpt>
      <trkpt lat="46.860481" lon="14.864432">
        <ele>469.00</ele>
        <time>2012-10-25T08:35:19Z</time>
      </trkpt>
      <trkpt lat="46.860191" lon="14.864022">
        <ele>468.00</ele>
        <time>2012-10-25T08:35:25Z</time>
      </trkpt>
      <trkpt lat="46.860142" lon="14.863955">
        <ele>468.00</ele>
        <time>2012-10-25T08:35:26Z</time>
      </trkpt>
      <trkpt lat="46.860092" lon="14.863888">
        <ele>468.00</ele>
        <time>2012-10-25T08:35:27Z</time>
      </trkpt>
      <trkpt lat="46.860043" lon="14.863822">
        <ele>467.00</ele>
        <time>2012-10-25T08:35:28Z</time>
      </trkpt>
      <trkpt lat="46.859993" lon="14.863753">
        <ele>467.00</ele>
        <time>2012-10-25T08:35:29Z</time>
      </trkpt>
      <trkpt lat="46.859650" lon="14.863294">
        <ele>467.00</ele>
        <time>2012-10-25T08:35:36Z</time>
      </trkpt>
      <trkpt lat="46.859249" lon="14.862666">
        <ele>467.00</ele>
        <time>2012-10-25T08:35:45Z</time>
      </trkpt>
      <trkpt lat="46.859158" lon="14.862419">
        <ele>467.00</ele>
        <time>2012-10-25T08:35:48Z</time>
      </trkpt>
      <trkpt lat="46.859116" lon="14.862247">
        <ele>467.00</ele>
        <time>2012-10-25T08:35:50Z</time>
      </trkpt>
      <trkpt lat="46.859093" lon="14.862061">
        <ele>467.00</ele>
        <time>2012-10-25T08:35:52Z</time>
      </trkpt>
      <trkpt lat="46.859081" lon="14.861787">
        <ele>467.00</ele>
        <time>2012-10-25T08:35:55Z</time>
      </trkpt>
      <trkpt lat="46.859154" lon="14.861380">
        <ele>467.00</ele>
        <time>2012-10-25T08:36:00Z</time>
      </trkpt>
      <trkpt lat="46.859184" lon="14.861302">
        <ele>467.00</ele>
        <time>2012-10-25T08:36:01Z</time>
      </trkpt>
      <trkpt lat="46.859364" lon="14.860959">
        <ele>467.00</ele>
        <time>2012-10-25T08:36:06Z</time>
      </trkpt>
      <trkpt lat="46.859711" lon="14.860369">
        <ele>467.00</ele>
        <time>2012-10-25T08:36:15Z</time>
      </trkpt>
      <trkpt lat="46.859806" lon="14.860171">
        <ele>467.00</ele>
        <time>2012-10-25T08:36:18Z</time>
      </trkpt>
      <trkpt lat="46.859814" lon="14.860103">
        <ele>467.00</ele>
        <time>2012-10-25T08:36:19Z</time>
      </trkpt>
      <trkpt lat="46.859859" lon="14.859896">
        <ele>467.00</ele>
        <time>2012-10-25T08:36:22Z</time>
      </trkpt>
      <trkpt lat="46.859890" lon="14.859823">
        <ele>466.00</ele>
        <time>2012-10-25T08:36:23Z</time>
      </trkpt>
      <trkpt lat="46.859917" lon="14.859756">
        <ele>466.00</ele>
        <time>2012-10-25T08:36:24Z</time>
      </trkpt>
      <trkpt lat="46.859951" lon="14.859690">
        <ele>466.00</ele>
        <time>2012-10-25T08:36:25Z</time>
      </trkpt>
      <trkpt lat="46.859985" lon="14.859623">
        <ele>465.00</ele>
        <time>2012-10-25T08:36:26Z</time>
      </trkpt>
      <trkpt lat="46.860020" lon="14.859556">
        <ele>465.00</ele>
        <time>2012-10-25T08:36:27Z</time>
      </trkpt>
      <trkpt lat="46.860050" lon="14.859482">
        <ele>465.00</ele>
        <time>2012-10-25T08:36:28Z</time>
      </trkpt>
      <trkpt lat="46.860100" lon="14.859337">
        <ele>465.00</ele>
        <time>2012-10-25T08:36:30Z</time>
      </trkpt>
      <trkpt lat="46.860134" lon="14.859180">
        <ele>465.00</ele>
        <time>2012-10-25T08:36:32Z</time>
      </trkpt>
      <trkpt lat="46.860199" lon="14.858774">
        <ele>465.00</ele>
        <time>2012-10-25T08:36:37Z</time>
      </trkpt>
      <trkpt lat="46.860203" lon="14.858532">
        <ele>465.00</ele>
        <time>2012-10-25T08:36:40Z</time>
      </trkpt>
      <trkpt lat="46.860184" lon="14.858287">
        <ele>465.00</ele>
        <time>2012-10-25T08:36:43Z</time>
      </trkpt>
      <trkpt lat="46.860100" lon="14.857804">
        <ele>465.00</ele>
        <time>2012-10-25T08:36:49Z</time>
      </trkpt>
      <trkpt lat="46.859940" lon="14.857369">
        <ele>464.00</ele>
        <time>2012-10-25T08:36:55Z</time>
      </trkpt>
      <trkpt lat="46.859734" lon="14.856779">
        <ele>464.00</ele>
        <time>2012-10-25T08:37:03Z</time>
      </trkpt>
      <trkpt lat="46.859703" lon="14.856709">
        <ele>464.00</ele>
        <time>2012-10-25T08:37:04Z</time>
      </trkpt>
      <trkpt lat="46.859676" lon="14.856637">
        <ele>464.00</ele>
        <time>2012-10-25T08:37:05Z</time>
      </trkpt>
      <trkpt lat="46.859646" lon="14.856564">
        <ele>463.00</ele>
        <time>2012-10-25T08:37:06Z</time>
      </trkpt>
      <trkpt lat="46.859619" lon="14.856488">
        <ele>463.00</ele>
        <time>2012-10-25T08:37:07Z</time>
      </trkpt>
      <trkpt lat="46.859592" lon="14.856411">
        <ele>463.00</ele>
        <time>2012-10-25T08:37:08Z</time>
      </trkpt>
      <trkpt lat="46.859535" lon="14.856258">
        <ele>463.00</ele>
        <time>2012-10-25T08:37:10Z</time>
      </trkpt>
      <trkpt lat="46.859283" lon="14.855556">
        <ele>463.00</ele>
        <time>2012-10-25T08:37:19Z</time>
      </trkpt>
      <trkpt lat="46.858990" lon="14.854910">
        <ele>463.00</ele>
        <time>2012-10-25T08:37:28Z</time>
      </trkpt>
      <trkpt lat="46.858723" lon="14.854454">
        <ele>463.00</ele>
        <time>2012-10-25T08:37:35Z</time>
      </trkpt>
      <trkpt lat="46.858421" lon="14.854041">
        <ele>463.00</ele>
        <time>2012-10-25T08:37:42Z</time>
      </trkpt>
      <trkpt lat="46.858017" lon="14.853555">
        <ele>462.00</ele>
        <time>2012-10-25T08:37:51Z</time>
      </trkpt>
      <trkpt lat="46.857971" lon="14.853504">
        <ele>462.00</ele>
        <time>2012-10-25T08:37:52Z</time>
      </trkpt>
      <trkpt lat="46.857922" lon="14.853450">
        <ele>462.00</ele>
        <time>2012-10-25T08:37:53Z</time>
      </trkpt>
      <trkpt lat="46.857876" lon="14.853400">
        <ele>461.00</ele>
        <time>2012-10-25T08:37:54Z</time>
      </trkpt>
      <trkpt lat="46.857830" lon="14.853349">
        <ele>461.00</ele>
        <time>2012-10-25T08:37:55Z</time>
      </trkpt>
      <trkpt lat="46.857780" lon="14.853299">
        <ele>461.00</ele>
        <time>2012-10-25T08:37:56Z</time>
      </trkpt>
      <trkpt lat="46.857544" lon="14.853051">
        <ele>461.00</ele>
        <time>2012-10-25T08:38:01Z</time>
      </trkpt>
      <trkpt lat="46.857399" lon="14.852924">
        <ele>461.00</ele>
        <time>2012-10-25T08:38:04Z</time>
      </trkpt>
      <trkpt lat="46.857300" lon="14.852851">
        <ele>461.00</ele>
        <time>2012-10-25T08:38:06Z</time>
      </trkpt>
      <trkpt lat="46.857159" lon="14.852679">
        <ele>460.00</ele>
        <time>2012-10-25T08:38:10Z</time>
      </trkpt>
      <trkpt lat="46.857140" lon="14.852646">
        <ele>460.00</ele>
        <time>2012-10-25T08:38:11Z</time>
      </trkpt>
      <trkpt lat="46.857113" lon="14.852612">
        <ele>460.00</ele>
        <time>2012-10-25T08:38:12Z</time>
      </trkpt>
      <trkpt lat="46.857086" lon="14.852576">
        <ele>459.00</ele>
        <time>2012-10-25T08:38:13Z</time>
      </trkpt>
      <trkpt lat="46.857052" lon="14.852545">
        <ele>459.00</ele>
        <time>2012-10-25T08:38:14Z</time>
      </trkpt>
      <trkpt lat="46.857018" lon="14.852509">
        <ele>459.00</ele>
        <time>2012-10-25T08:38:15Z</time>
      </trkpt>
      <trkpt lat="46.856937" lon="14.852427">
        <ele>459.00</ele>
        <time>2012-10-25T08:38:17Z</time>
      </trkpt>
      <trkpt lat="46.856720" lon="14.852214">
        <ele>459.00</ele>
        <time>2012-10-25T08:38:22Z</time>
      </trkpt>
      <trkpt lat="46.856335" lon="14.851851">
        <ele>459.00</ele>
        <time>2012-10-25T08:38:30Z</time>
      </trkpt>
      <trkpt lat="46.855934" lon="14.851465">
        <ele>459.00</ele>
        <time>2012-10-25T08:38:38Z</time>
      </trkpt>
      <trkpt lat="46.855537" lon="14.851112">
        <ele>458.00</ele>
        <time>2012-10-25T08:38:46Z</time>
      </trkpt>
      <trkpt lat="46.855129" lon="14.850770">
        <ele>458.00</ele>
        <time>2012-10-25T08:38:54Z</time>
      </trkpt>
      <trkpt lat="46.855076" lon="14.850728">
        <ele>458.00</ele>
        <time>2012-10-25T08:38:55Z</time>
      </trkpt>
      <trkpt lat="46.855026" lon="14.850684">
        <ele>458.00</ele>
        <time>2012-10-25T08:38:56Z</time>
      </trkpt>
      <trkpt lat="46.854977" lon="14.850640">
        <ele>457.00</ele>
        <time>2012-10-25T08:38:57Z</time>
      </trkpt>
      <trkpt lat="46.854923" lon="14.850596">
        <ele>457.00</ele>
        <time>2012-10-25T08:38:58Z</time>
      </trkpt>
      <trkpt lat="46.854870" lon="14.850553">
        <ele>457.00</ele>
        <time>2012-10-25T08:38:59Z</time>
      </trkpt>
      <trkpt lat="46.854656" lon="14.850389">
        <ele>457.00</ele>
        <time>2012-10-25T08:39:03Z</time>
      </trkpt>
      <trkpt lat="46.854218" lon="14.850052">
        <ele>456.00</ele>
        <time>2012-10-25T08:39:11Z</time>
      </trkpt>
      <trkpt lat="46.853760" lon="14.849731">
        <ele>456.00</ele>
        <time>2012-10-25T08:39:19Z</time>
      </trkpt>
      <trkpt lat="46.853302" lon="14.849422">
        <ele>456.00</ele>
        <time>2012-10-25T08:39:27Z</time>
      </trkpt>
      <trkpt lat="46.853245" lon="14.849386">
        <ele>455.00</ele>
        <time>2012-10-25T08:39:28Z</time>
      </trkpt>
      <trkpt lat="46.853188" lon="14.849351">
        <ele>455.00</ele>
        <time>2012-10-25T08:39:29Z</time>
      </trkpt>
      <trkpt lat="46.853130" lon="14.849312">
        <ele>455.00</ele>
        <time>2012-10-25T08:39:30Z</time>
      </trkpt>
      <trkpt lat="46.852890" lon="14.849165">
        <ele>454.00</ele>
        <time>2012-10-25T08:39:34Z</time>
      </trkpt>
      <trkpt lat="46.852428" lon="14.848881">
        <ele>454.00</ele>
        <time>2012-10-25T08:39:42Z</time>
      </trkpt>
      <trkpt lat="46.852142" lon="14.848711">
        <ele>454.00</ele>
        <time>2012-10-25T08:39:47Z</time>
      </trkpt>
      <trkpt lat="46.852085" lon="14.848678">
        <ele>454.00</ele>
        <time>2012-10-25T08:39:48Z</time>
      </trkpt>
      <trkpt lat="46.852028" lon="14.848642">
        <ele>453.00</ele>
        <time>2012-10-25T08:39:49Z</time>
      </trkpt>
      <trkpt lat="46.851974" lon="14.848609">
        <ele>453.00</ele>
        <time>2012-10-25T08:39:50Z</time>
      </trkpt>
      <trkpt lat="46.851917" lon="14.848574">
        <ele>453.00</ele>
        <time>2012-10-25T08:39:51Z</time>
      </trkpt>
      <trkpt lat="46.851418" lon="14.848246">
        <ele>452.00</ele>
        <time>2012-10-25T08:40:00Z</time>
      </trkpt>
      <trkpt lat="46.851021" lon="14.847901">
        <ele>452.00</ele>
        <time>2012-10-25T08:40:08Z</time>
      </trkpt>
      <trkpt lat="46.850639" lon="14.847479">
        <ele>452.00</ele>
        <time>2012-10-25T08:40:16Z</time>
      </trkpt>
      <trkpt lat="46.850330" lon="14.847080">
        <ele>452.00</ele>
        <time>2012-10-25T08:40:23Z</time>
      </trkpt>
      <trkpt lat="46.850151" lon="14.846847">
        <ele>452.00</ele>
        <time>2012-10-25T08:40:27Z</time>
      </trkpt>
      <trkpt lat="46.850105" lon="14.846788">
        <ele>451.00</ele>
        <time>2012-10-25T08:40:28Z</time>
      </trkpt>
      <trkpt lat="46.850056" lon="14.846730">
        <ele>451.00</ele>
        <time>2012-10-25T08:40:29Z</time>
      </trkpt>
      <trkpt lat="46.850010" lon="14.846672">
        <ele>451.00</ele>
        <time>2012-10-25T08:40:30Z</time>
      </trkpt>
      <trkpt lat="46.849968" lon="14.846615">
        <ele>450.00</ele>
        <time>2012-10-25T08:40:31Z</time>
      </trkpt>
      <trkpt lat="46.849567" lon="14.846068">
        <ele>450.00</ele>
        <time>2012-10-25T08:40:40Z</time>
      </trkpt>
      <trkpt lat="46.849285" lon="14.845768">
        <ele>450.00</ele>
        <time>2012-10-25T08:40:46Z</time>
      </trkpt>
      <trkpt lat="46.849144" lon="14.845633">
        <ele>450.00</ele>
        <time>2012-10-25T08:40:49Z</time>
      </trkpt>
      <trkpt lat="46.849007" lon="14.845540">
        <ele>450.00</ele>
        <time>2012-10-25T08:40:52Z</time>
      </trkpt>
      <trkpt lat="46.848927" lon="14.845467">
        <ele>450.00</ele>
        <time>2012-10-25T08:40:54Z</time>
      </trkpt>
      <trkpt lat="46.848854" lon="14.845404">
        <ele>450.00</ele>
        <time>2012-10-25T08:40:56Z</time>
      </trkpt>
      <trkpt lat="46.848827" lon="14.845384">
        <ele>449.00</ele>
        <time>2012-10-25T08:40:57Z</time>
      </trkpt>
      <trkpt lat="46.848797" lon="14.845366">
        <ele>449.00</ele>
        <time>2012-10-25T08:40:58Z</time>
      </trkpt>
      <trkpt lat="46.848770" lon="14.845338">
        <ele>449.00</ele>
        <time>2012-10-25T08:40:59Z</time>
      </trkpt>
      <trkpt lat="46.848740" lon="14.845304">
        <ele>449.00</ele>
        <time>2012-10-25T08:41:00Z</time>
      </trkpt>
      <trkpt lat="46.848709" lon="14.845268">
        <ele>448.00</ele>
        <time>2012-10-25T08:41:01Z</time>
      </trkpt>
      <trkpt lat="46.848606" lon="14.845187">
        <ele>448.00</ele>
        <time>2012-10-25T08:41:04Z</time>
      </trkpt>
      <trkpt lat="46.848518" lon="14.845140">
        <ele>448.00</ele>
        <time>2012-10-25T08:41:06Z</time>
      </trkpt>
      <trkpt lat="46.848259" lon="14.844983">
        <ele>448.00</ele>
        <time>2012-10-25T08:41:12Z</time>
      </trkpt>
      <trkpt lat="46.847927" lon="14.844819">
        <ele>448.00</ele>
        <time>2012-10-25T08:41:19Z</time>
      </trkpt>
      <trkpt lat="46.847542" lon="14.844636">
        <ele>448.00</ele>
        <time>2012-10-25T08:41:27Z</time>
      </trkpt>
      <trkpt lat="46.847240" lon="14.844521">
        <ele>448.00</ele>
        <time>2012-10-25T08:41:33Z</time>
      </trkpt>
      <trkpt lat="46.847115" lon="14.844490">
        <ele>448.00</ele>
        <time>2012-10-25T08:41:37Z</time>
      </trkpt>
      <trkpt lat="46.846989" lon="14.844395">
        <ele>448.00</ele>
        <time>2012-10-25T08:41:42Z</time>
      </trkpt>
      <trkpt lat="46.846935" lon="14.844293">
        <ele>448.00</ele>
        <time>2012-10-25T08:41:45Z</time>
      </trkpt>
      <trkpt lat="46.846909" lon="14.844273">
        <ele>448.00</ele>
        <time>2012-10-25T08:41:46Z</time>
      </trkpt>
      <trkpt lat="46.846718" lon="14.844185">
        <ele>448.00</ele>
        <time>2012-10-25T08:41:51Z</time>
      </trkpt>
      <trkpt lat="46.846397" lon="14.844020">
        <ele>448.00</ele>
        <time>2012-10-25T08:41:58Z</time>
      </trkpt>
      <trkpt lat="46.846180" lon="14.843904">
        <ele>448.00</ele>
        <time>2012-10-25T08:42:03Z</time>
      </trkpt>
      <trkpt lat="46.845928" lon="14.843747">
        <ele>448.00</ele>
        <time>2012-10-25T08:42:09Z</time>
      </trkpt>
      <trkpt lat="46.845562" lon="14.843551">
        <ele>448.00</ele>
        <time>2012-10-25T08:42:17Z</time>
      </trkpt>
      <trkpt lat="46.845440" lon="14.843484">
        <ele>448.00</ele>
        <time>2012-10-25T08:42:20Z</time>
      </trkpt>
      <trkpt lat="46.845394" lon="14.843467">
        <ele>448.00</ele>
        <time>2012-10-25T08:42:21Z</time>
      </trkpt>
      <trkpt lat="46.845352" lon="14.843447">
        <ele>447.00</ele>
        <time>2012-10-25T08:42:22Z</time>
      </trkpt>
      <trkpt lat="46.845310" lon="14.843425">
        <ele>447.00</ele>
        <time>2012-10-25T08:42:23Z</time>
      </trkpt>
      <trkpt lat="46.845268" lon="14.843401">
        <ele>447.00</ele>
        <time>2012-10-25T08:42:24Z</time>
      </trkpt>
      <trkpt lat="46.845226" lon="14.843375">
        <ele>446.00</ele>
        <time>2012-10-25T08:42:25Z</time>
      </trkpt>
      <trkpt lat="46.845089" lon="14.843302">
        <ele>446.00</ele>
        <time>2012-10-25T08:42:28Z</time>
      </trkpt>
      <trkpt lat="46.844673" lon="14.843092">
        <ele>446.00</ele>
        <time>2012-10-25T08:42:37Z</time>
      </trkpt>
      <trkpt lat="46.844444" lon="14.842973">
        <ele>446.00</ele>
        <time>2012-10-25T08:42:42Z</time>
      </trkpt>
      <trkpt lat="46.844166" lon="14.842834">
        <ele>446.00</ele>
        <time>2012-10-25T08:42:48Z</time>
      </trkpt>
      <trkpt lat="46.843941" lon="14.842712">
        <ele>446.00</ele>
        <time>2012-10-25T08:42:53Z</time>
      </trkpt>
      <trkpt lat="46.843514" lon="14.842459">
        <ele>446.00</ele>
        <time>2012-10-25T08:43:02Z</time>
      </trkpt>
      <trkpt lat="46.843101" lon="14.842205">
        <ele>446.00</ele>
        <time>2012-10-25T08:43:11Z</time>
      </trkpt>
      <trkpt lat="46.842804" lon="14.841972">
        <ele>446.00</ele>
        <time>2012-10-25T08:43:18Z</time>
      </trkpt>
      <trkpt lat="46.842678" lon="14.841886">
        <ele>446.00</ele>
        <time>2012-10-25T08:43:22Z</time>
      </trkpt>
      <trkpt lat="46.842648" lon="14.841874">
        <ele>446.00</ele>
        <time>2012-10-25T08:43:23Z</time>
      </trkpt>
      <trkpt lat="46.842598" lon="14.841868">
        <ele>445.00</ele>
        <time>2012-10-25T08:43:25Z</time>
      </trkpt>
      <trkpt lat="46.842571" lon="14.841888">
        <ele>445.00</ele>
        <time>2012-10-25T08:43:26Z</time>
      </trkpt>
      <trkpt lat="46.842541" lon="14.841916">
        <ele>445.00</ele>
        <time>2012-10-25T08:43:27Z</time>
      </trkpt>
      <trkpt lat="46.842518" lon="14.841957">
        <ele>444.00</ele>
        <time>2012-10-25T08:43:28Z</time>
      </trkpt>
      <trkpt lat="46.842499" lon="14.841999">
        <ele>444.00</ele>
        <time>2012-10-25T08:43:29Z</time>
      </trkpt>
      <trkpt lat="46.842484" lon="14.842035">
        <ele>444.00</ele>
        <time>2012-10-25T08:43:30Z</time>
      </trkpt>
      <trkpt lat="46.842472" lon="14.842069">
        <ele>444.00</ele>
        <time>2012-10-25T08:43:31Z</time>
      </trkpt>
      <trkpt lat="46.842426" lon="14.842171">
        <ele>444.00</ele>
        <time>2012-10-25T08:43:34Z</time>
      </trkpt>
      <trkpt lat="46.842373" lon="14.842242">
        <ele>444.00</ele>
        <time>2012-10-25T08:43:36Z</time>
      </trkpt>
      <trkpt lat="46.842350" lon="14.842290">
        <ele>444.00</ele>
        <time>2012-10-25T08:43:37Z</time>
      </trkpt>
      <trkpt lat="46.842293" lon="14.842465">
        <ele>444.00</ele>
        <time>2012-10-25T08:43:40Z</time>
      </trkpt>
      <trkpt lat="46.842274" lon="14.842529">
        <ele>444.00</ele>
        <time>2012-10-25T08:43:41Z</time>
      </trkpt>
      <trkpt lat="46.842163" lon="14.842882">
        <ele>443.00</ele>
        <time>2012-10-25T08:43:46Z</time>
      </trkpt>
      <trkpt lat="46.842140" lon="14.842957">
        <ele>443.00</ele>
        <time>2012-10-25T08:43:47Z</time>
      </trkpt>
      <trkpt lat="46.842113" lon="14.843029">
        <ele>443.00</ele>
        <time>2012-10-25T08:43:48Z</time>
      </trkpt>
      <trkpt lat="46.842091" lon="14.843105">
        <ele>442.00</ele>
        <time>2012-10-25T08:43:49Z</time>
      </trkpt>
      <trkpt lat="46.842071" lon="14.843179">
        <ele>442.00</ele>
        <time>2012-10-25T08:43:50Z</time>
      </trkpt>
      <trkpt lat="46.841988" lon="14.843446">
        <ele>442.00</ele>
        <time>2012-10-25T08:43:54Z</time>
      </trkpt>
      <trkpt lat="46.841965" lon="14.843500">
        <ele>442.00</ele>
        <time>2012-10-25T08:43:55Z</time>
      </trkpt>
      <trkpt lat="46.841938" lon="14.843538">
        <ele>442.00</ele>
        <time>2012-10-25T08:43:56Z</time>
      </trkpt>
      <trkpt lat="46.841812" lon="14.843526">
        <ele>442.00</ele>
        <time>2012-10-25T08:43:59Z</time>
      </trkpt>
      <trkpt lat="46.841770" lon="14.843501">
        <ele>442.00</ele>
        <time>2012-10-25T08:44:00Z</time>
      </trkpt>
      <trkpt lat="46.841656" lon="14.843430">
        <ele>442.00</ele>
        <time>2012-10-25T08:44:03Z</time>
      </trkpt>
      <trkpt lat="46.841572" lon="14.843390">
        <ele>442.00</ele>
        <time>2012-10-25T08:44:05Z</time>
      </trkpt>
      <trkpt lat="46.841373" lon="14.843328">
        <ele>442.00</ele>
        <time>2012-10-25T08:44:10Z</time>
      </trkpt>
      <trkpt lat="46.841057" lon="14.843275">
        <ele>442.00</ele>
        <time>2012-10-25T08:44:17Z</time>
      </trkpt>
      <trkpt lat="46.841015" lon="14.843266">
        <ele>441.00</ele>
        <time>2012-10-25T08:44:18Z</time>
      </trkpt>
      <trkpt lat="46.840973" lon="14.843259">
        <ele>441.00</ele>
        <time>2012-10-25T08:44:19Z</time>
      </trkpt>
      <trkpt lat="46.840931" lon="14.843253">
        <ele>441.00</ele>
        <time>2012-10-25T08:44:20Z</time>
      </trkpt>
      <trkpt lat="46.840897" lon="14.843248">
        <ele>440.00</ele>
        <time>2012-10-25T08:44:21Z</time>
      </trkpt>
      <trkpt lat="46.840858" lon="14.843245">
        <ele>440.00</ele>
        <time>2012-10-25T08:44:22Z</time>
      </trkpt>
      <trkpt lat="46.840820" lon="14.843239">
        <ele>440.00</ele>
        <time>2012-10-25T08:44:23Z</time>
      </trkpt>
      <trkpt lat="46.840694" lon="14.843213">
        <ele>440.00</ele>
        <time>2012-10-25T08:44:26Z</time>
      </trkpt>
      <trkpt lat="46.840607" lon="14.843178">
        <ele>440.00</ele>
        <time>2012-10-25T08:44:28Z</time>
      </trkpt>
      <trkpt lat="46.840427" lon="14.843102">
        <ele>440.00</ele>
        <time>2012-10-25T08:44:32Z</time>
      </trkpt>
      <trkpt lat="46.840340" lon="14.843092">
        <ele>440.00</ele>
        <time>2012-10-25T08:44:34Z</time>
      </trkpt>
      <trkpt lat="46.840153" lon="14.843047">
        <ele>440.00</ele>
        <time>2012-10-25T08:44:39Z</time>
      </trkpt>
      <trkpt lat="46.840126" lon="14.843041">
        <ele>440.00</ele>
        <time>2012-10-25T08:44:40Z</time>
      </trkpt>
      <trkpt lat="46.840046" lon="14.842992">
        <ele>440.00</ele>
        <time>2012-10-25T08:44:45Z</time>
      </trkpt>
      <trkpt lat="46.840019" lon="14.842956">
        <ele>440.00</ele>
        <time>2012-10-25T08:44:52Z</time>
      </trkpt>
      <trkpt lat="46.840004" lon="14.842979">
        <ele>440.00</ele>
        <time>2012-10-25T08:44:58Z</time>
      </trkpt>
      <trkpt lat="46.839939" lon="14.842971">
        <ele>440.00</ele>
        <time>2012-10-25T08:45:01Z</time>
      </trkpt>
      <trkpt lat="46.839874" lon="14.842960">
        <ele>440.00</ele>
        <time>2012-10-25T08:45:03Z</time>
      </trkpt>
      <trkpt lat="46.839596" lon="14.842871">
        <ele>440.00</ele>
        <time>2012-10-25T08:45:10Z</time>
      </trkpt>
      <trkpt lat="46.839397" lon="14.842823">
        <ele>440.00</ele>
        <time>2012-10-25T08:45:14Z</time>
      </trkpt>
      <trkpt lat="46.839310" lon="14.842797">
        <ele>440.00</ele>
        <time>2012-10-25T08:45:16Z</time>
      </trkpt>
      <trkpt lat="46.839081" lon="14.842716">
        <ele>440.00</ele>
        <time>2012-10-25T08:45:21Z</time>
      </trkpt>
      <trkpt lat="46.838982" lon="14.842689">
        <ele>439.00</ele>
        <time>2012-10-25T08:45:23Z</time>
      </trkpt>
      <trkpt lat="46.838940" lon="14.842677">
        <ele>439.00</ele>
        <time>2012-10-25T08:45:24Z</time>
      </trkpt>
      <trkpt lat="46.838898" lon="14.842670">
        <ele>439.00</ele>
        <time>2012-10-25T08:45:25Z</time>
      </trkpt>
      <trkpt lat="46.838856" lon="14.842661">
        <ele>438.00</ele>
        <time>2012-10-25T08:45:26Z</time>
      </trkpt>
      <trkpt lat="46.838821" lon="14.842653">
        <ele>438.00</ele>
        <time>2012-10-25T08:45:27Z</time>
      </trkpt>
      <trkpt lat="46.838791" lon="14.842648">
        <ele>438.00</ele>
        <time>2012-10-25T08:45:28Z</time>
      </trkpt>
      <trkpt lat="46.838688" lon="14.842702">
        <ele>438.00</ele>
        <time>2012-10-25T08:45:32Z</time>
      </trkpt>
      <trkpt lat="46.838631" lon="14.842880">
        <ele>438.00</ele>
        <time>2012-10-25T08:45:38Z</time>
      </trkpt>
      <trkpt lat="46.838585" lon="14.843083">
        <ele>438.00</ele>
        <time>2012-10-25T08:45:44Z</time>
      </trkpt>
      <trkpt lat="46.838573" lon="14.843130">
        <ele>438.00</ele>
        <time>2012-10-25T08:45:46Z</time>
      </trkpt>
      <trkpt lat="46.838562" lon="14.843257">
        <ele>438.00</ele>
        <time>2012-10-25T08:45:49Z</time>
      </trkpt>
      <trkpt lat="46.838524" lon="14.843395">
        <ele>438.00</ele>
        <time>2012-10-25T08:45:52Z</time>
      </trkpt>
      <trkpt lat="46.838509" lon="14.843478">
        <ele>438.00</ele>
        <time>2012-10-25T08:45:54Z</time>
      </trkpt>
      <trkpt lat="46.838463" lon="14.843556">
        <ele>438.00</ele>
        <time>2012-10-25T08:45:57Z</time>
      </trkpt>
      <trkpt lat="46.838436" lon="14.843562">
        <ele>438.00</ele>
        <time>2012-10-25T08:45:58Z</time>
      </trkpt>
      <trkpt lat="46.838272" lon="14.843512">
        <ele>438.00</ele>
        <time>2012-10-25T08:46:02Z</time>
      </trkpt>
      <trkpt lat="46.838024" lon="14.843474">
        <ele>438.00</ele>
        <time>2012-10-25T08:46:07Z</time>
      </trkpt>
      <trkpt lat="46.837982" lon="14.843492">
        <ele>438.00</ele>
        <time>2012-10-25T08:46:08Z</time>
      </trkpt>
      <trkpt lat="46.837833" lon="14.843600">
        <ele>438.00</ele>
        <time>2012-10-25T08:46:12Z</time>
      </trkpt>
      <trkpt lat="46.837795" lon="14.843623">
        <ele>438.00</ele>
        <time>2012-10-25T08:46:13Z</time>
      </trkpt>
      <trkpt lat="46.837643" lon="14.843728">
        <ele>438.00</ele>
        <time>2012-10-25T08:46:17Z</time>
      </trkpt>
      <trkpt lat="46.837570" lon="14.843792">
        <ele>438.00</ele>
        <time>2012-10-25T08:46:19Z</time>
      </trkpt>
      <trkpt lat="46.837246" lon="14.844052">
        <ele>438.00</ele>
        <time>2012-10-25T08:46:27Z</time>
      </trkpt>
      <trkpt lat="46.836948" lon="14.844232">
        <ele>438.00</ele>
        <time>2012-10-25T08:46:34Z</time>
      </trkpt>
      <trkpt lat="46.836639" lon="14.844404">
        <ele>438.00</ele>
        <time>2012-10-25T08:46:42Z</time>
      </trkpt>
      <trkpt lat="46.836529" lon="14.844471">
        <ele>438.00</ele>
        <time>2012-10-25T08:46:45Z</time>
      </trkpt>
      <trkpt lat="46.836491" lon="14.844482">
        <ele>438.00</ele>
        <time>2012-10-25T08:46:46Z</time>
      </trkpt>
      <trkpt lat="46.836315" lon="14.844555">
        <ele>438.00</ele>
        <time>2012-10-25T08:46:52Z</time>
      </trkpt>
      <trkpt lat="46.836258" lon="14.844562">
        <ele>438.00</ele>
        <time>2012-10-25T08:46:55Z</time>
      </trkpt>
      <trkpt lat="46.836243" lon="14.844568">
        <ele>438.00</ele>
        <time>2012-10-25T08:46:56Z</time>
      </trkpt>
      <trkpt lat="46.836231" lon="14.844582">
        <ele>438.00</ele>
        <time>2012-10-25T08:46:57Z</time>
      </trkpt>
      <trkpt lat="46.836185" lon="14.844655">
        <ele>438.00</ele>
        <time>2012-10-25T08:47:00Z</time>
      </trkpt>
      <trkpt lat="46.836163" lon="14.844654">
        <ele>438.00</ele>
        <time>2012-10-25T08:47:01Z</time>
      </trkpt>
      <trkpt lat="46.836040" lon="14.844560">
        <ele>438.00</ele>
        <time>2012-10-25T08:47:05Z</time>
      </trkpt>
      <trkpt lat="46.835827" lon="14.844419">
        <ele>438.00</ele>
        <time>2012-10-25T08:47:12Z</time>
      </trkpt>
      <trkpt lat="46.835609" lon="14.844255">
        <ele>438.00</ele>
        <time>2012-10-25T08:47:18Z</time>
      </trkpt>
      <trkpt lat="46.835316" lon="14.844027">
        <ele>438.00</ele>
        <time>2012-10-25T08:47:25Z</time>
      </trkpt>
      <trkpt lat="46.835037" lon="14.843867">
        <ele>438.00</ele>
        <time>2012-10-25T08:47:31Z</time>
      </trkpt>
      <trkpt lat="46.834991" lon="14.843838">
        <ele>438.00</ele>
        <time>2012-10-25T08:47:32Z</time>
      </trkpt>
      <trkpt lat="46.834881" lon="14.843777">
        <ele>438.00</ele>
        <time>2012-10-25T08:47:35Z</time>
      </trkpt>
      <trkpt lat="46.834843" lon="14.843779">
        <ele>438.00</ele>
        <time>2012-10-25T08:47:36Z</time>
      </trkpt>
      <trkpt lat="46.834774" lon="14.843820">
        <ele>438.00</ele>
        <time>2012-10-25T08:47:39Z</time>
      </trkpt>
      <trkpt lat="46.834759" lon="14.843825">
        <ele>438.00</ele>
        <time>2012-10-25T08:47:40Z</time>
      </trkpt>
      <trkpt lat="46.834740" lon="14.843816">
        <ele>437.00</ele>
        <time>2012-10-25T08:47:41Z</time>
      </trkpt>
      <trkpt lat="46.834717" lon="14.843800">
        <ele>437.00</ele>
        <time>2012-10-25T08:47:42Z</time>
      </trkpt>
      <trkpt lat="46.834690" lon="14.843776">
        <ele>437.00</ele>
        <time>2012-10-25T08:47:43Z</time>
      </trkpt>
      <trkpt lat="46.834667" lon="14.843742">
        <ele>437.00</ele>
        <time>2012-10-25T08:47:44Z</time>
      </trkpt>
      <trkpt lat="46.834641" lon="14.843707">
        <ele>436.00</ele>
        <time>2012-10-25T08:47:45Z</time>
      </trkpt>
      <trkpt lat="46.834480" lon="14.843552">
        <ele>436.00</ele>
        <time>2012-10-25T08:47:49Z</time>
      </trkpt>
      <trkpt lat="46.834297" lon="14.843432">
        <ele>436.00</ele>
        <time>2012-10-25T08:47:53Z</time>
      </trkpt>
      <trkpt lat="46.834248" lon="14.843407">
        <ele>436.00</ele>
        <time>2012-10-25T08:47:54Z</time>
      </trkpt>
      <trkpt lat="46.834206" lon="14.843383">
        <ele>436.00</ele>
        <time>2012-10-25T08:47:55Z</time>
      </trkpt>
      <trkpt lat="46.833878" lon="14.843160">
        <ele>436.00</ele>
        <time>2012-10-25T08:48:02Z</time>
      </trkpt>
      <trkpt lat="46.833641" lon="14.843024">
        <ele>436.00</ele>
        <time>2012-10-25T08:48:07Z</time>
      </trkpt>
      <trkpt lat="46.833595" lon="14.843008">
        <ele>436.00</ele>
        <time>2012-10-25T08:48:08Z</time>
      </trkpt>
      <trkpt lat="46.833546" lon="14.842980">
        <ele>436.00</ele>
        <time>2012-10-25T08:48:09Z</time>
      </trkpt>
      <trkpt lat="46.833401" lon="14.842899">
        <ele>436.00</ele>
        <time>2012-10-25T08:48:12Z</time>
      </trkpt>
      <trkpt lat="46.833359" lon="14.842877">
        <ele>436.00</ele>
        <time>2012-10-25T08:48:13Z</time>
      </trkpt>
      <trkpt lat="46.833271" lon="14.842784">
        <ele>436.00</ele>
        <time>2012-10-25T08:48:17Z</time>
      </trkpt>
      <trkpt lat="46.833240" lon="14.842772">
        <ele>436.00</ele>
        <time>2012-10-25T08:48:18Z</time>
      </trkpt>
      <trkpt lat="46.833160" lon="14.842731">
        <ele>436.00</ele>
        <time>2012-10-25T08:48:20Z</time>
      </trkpt>
      <trkpt lat="46.832970" lon="14.842633">
        <ele>436.00</ele>
        <time>2012-10-25T08:48:24Z</time>
      </trkpt>
      <trkpt lat="46.832687" lon="14.842462">
        <ele>436.00</ele>
        <time>2012-10-25T08:48:30Z</time>
      </trkpt>
      <trkpt lat="46.832417" lon="14.842318">
        <ele>435.00</ele>
        <time>2012-10-25T08:48:36Z</time>
      </trkpt>
      <trkpt lat="46.832394" lon="14.842302">
        <ele>435.00</ele>
        <time>2012-10-25T08:48:37Z</time>
      </trkpt>
      <trkpt lat="46.832371" lon="14.842291">
        <ele>435.00</ele>
        <time>2012-10-25T08:48:38Z</time>
      </trkpt>
      <trkpt lat="46.832356" lon="14.842283">
        <ele>434.00</ele>
        <time>2012-10-25T08:48:39Z</time>
      </trkpt>
      <trkpt lat="46.832356" lon="14.842279">
        <ele>434.00</ele>
        <time>2012-10-25T08:48:40Z</time>
      </trkpt>
      <trkpt lat="46.832352" lon="14.842275">
        <ele>434.00</ele>
        <time>2012-10-25T08:48:41Z</time>
      </trkpt>
      <trkpt lat="46.832352" lon="14.842275">
        <ele>434.00</ele>
        <time>2012-10-25T08:48:48Z</time>
      </trkpt>
      <trkpt lat="46.832352" lon="14.842275">
        <ele>434.00</ele>
        <time>2012-10-25T08:48:51Z</time>
      </trkpt>
      <trkpt lat="46.832352" lon="14.842275">
        <ele>434.00</ele>
        <time>2012-10-25T08:48:52Z</time>
      </trkpt>
      <trkpt lat="46.832352" lon="14.842275">
        <ele>434.00</ele>
        <time>2012-10-25T08:48:55Z</time>
      </trkpt>
      <trkpt lat="46.832352" lon="14.842275">
        <ele>434.00</ele>
        <time>2012-10-25T08:48:57Z</time>
      </trkpt>
      <trkpt lat="46.832352" lon="14.842275">
        <ele>434.00</ele>
        <time>2012-10-25T08:49:04Z</time>
      </trkpt>
      <trkpt lat="46.832352" lon="14.842275">
        <ele>434.00</ele>
        <time>2012-10-25T08:49:05Z</time>
      </trkpt>
      <trkpt lat="46.832352" lon="14.842275">
        <ele>434.00</ele>
        <time>2012-10-25T08:49:10Z</time>
      </trkpt>
      <trkpt lat="46.832352" lon="14.842275">
        <ele>434.00</ele>
        <time>2012-10-25T08:49:19Z</time>
      </trkpt>
      <trkpt lat="46.832352" lon="14.842266">
        <ele>434.00</ele>
        <time>2012-10-25T08:49:31Z</time>
      </trkpt>
      <trkpt lat="46.832352" lon="14.842266">
        <ele>434.00</ele>
        <time>2012-10-25T08:49:42Z</time>
      </trkpt>
      <trkpt lat="46.832352" lon="14.842266">
        <ele>434.00</ele>
        <time>2012-10-25T08:49:44Z</time>
      </trkpt>
      <trkpt lat="46.832352" lon="14.842266">
        <ele>434.00</ele>
        <time>2012-10-25T08:49:48Z</time>
      </trkpt>
      <trkpt lat="46.832352" lon="14.842266">
        <ele>434.00</ele>
        <time>2012-10-25T08:49:50Z</time>
      </trkpt>
      <trkpt lat="46.832352" lon="14.842270">
        <ele>434.00</ele>
        <time>2012-10-25T08:50:01Z</time>
      </trkpt>
      <trkpt lat="46.832329" lon="14.842256">
        <ele>434.00</ele>
        <time>2012-10-25T08:50:03Z</time>
      </trkpt>
      <trkpt lat="46.832272" lon="14.842209">
        <ele>434.00</ele>
        <time>2012-10-25T08:50:05Z</time>
      </trkpt>
      <trkpt lat="46.832161" lon="14.842152">
        <ele>434.00</ele>
        <time>2012-10-25T08:50:08Z</time>
      </trkpt>
      <trkpt lat="46.832039" lon="14.842153">
        <ele>434.00</ele>
        <time>2012-10-25T08:50:11Z</time>
      </trkpt>
      <trkpt lat="46.831993" lon="14.842142">
        <ele>434.00</ele>
        <time>2012-10-25T08:50:12Z</time>
      </trkpt>
      <trkpt lat="46.831902" lon="14.842096">
        <ele>434.00</ele>
        <time>2012-10-25T08:50:14Z</time>
      </trkpt>
      <trkpt lat="46.831749" lon="14.841924">
        <ele>434.00</ele>
        <time>2012-10-25T08:50:18Z</time>
      </trkpt>
      <trkpt lat="46.831715" lon="14.841887">
        <ele>434.00</ele>
        <time>2012-10-25T08:50:19Z</time>
      </trkpt>
      <trkpt lat="46.831596" lon="14.841809">
        <ele>434.00</ele>
        <time>2012-10-25T08:50:22Z</time>
      </trkpt>
      <trkpt lat="46.831558" lon="14.841779">
        <ele>434.00</ele>
        <time>2012-10-25T08:50:23Z</time>
      </trkpt>
      <trkpt lat="46.831478" lon="14.841725">
        <ele>434.00</ele>
        <time>2012-10-25T08:50:25Z</time>
      </trkpt>
      <trkpt lat="46.831409" lon="14.841671">
        <ele>434.00</ele>
        <time>2012-10-25T08:50:27Z</time>
      </trkpt>
      <trkpt lat="46.831341" lon="14.841614">
        <ele>434.00</ele>
        <time>2012-10-25T08:50:29Z</time>
      </trkpt>
      <trkpt lat="46.831249" lon="14.841561">
        <ele>434.00</ele>
        <time>2012-10-25T08:50:31Z</time>
      </trkpt>
      <trkpt lat="46.831123" lon="14.841475">
        <ele>434.00</ele>
        <time>2012-10-25T08:50:34Z</time>
      </trkpt>
      <trkpt lat="46.830990" lon="14.841373">
        <ele>434.00</ele>
        <time>2012-10-25T08:50:37Z</time>
      </trkpt>
      <trkpt lat="46.830826" lon="14.841229">
        <ele>434.00</ele>
        <time>2012-10-25T08:50:41Z</time>
      </trkpt>
      <trkpt lat="46.830631" lon="14.841035">
        <ele>434.00</ele>
        <time>2012-10-25T08:50:46Z</time>
      </trkpt>
      <trkpt lat="46.830391" lon="14.840769">
        <ele>434.00</ele>
        <time>2012-10-25T08:50:52Z</time>
      </trkpt>
      <trkpt lat="46.830105" lon="14.840478">
        <ele>434.00</ele>
        <time>2012-10-25T08:50:59Z</time>
      </trkpt>
      <trkpt lat="46.829807" lon="14.840159">
        <ele>434.00</ele>
        <time>2012-10-25T08:51:06Z</time>
      </trkpt>
      <trkpt lat="46.829479" lon="14.839881">
        <ele>434.00</ele>
        <time>2012-10-25T08:51:13Z</time>
      </trkpt>
      <trkpt lat="46.829426" lon="14.839859">
        <ele>434.00</ele>
        <time>2012-10-25T08:51:14Z</time>
      </trkpt>
      <trkpt lat="46.829197" lon="14.839788">
        <ele>434.00</ele>
        <time>2012-10-25T08:51:18Z</time>
      </trkpt>
      <trkpt lat="46.829140" lon="14.839762">
        <ele>434.00</ele>
        <time>2012-10-25T08:51:19Z</time>
      </trkpt>
      <trkpt lat="46.829094" lon="14.839723">
        <ele>434.00</ele>
        <time>2012-10-25T08:51:20Z</time>
      </trkpt>
      <trkpt lat="46.829006" lon="14.839643">
        <ele>434.00</ele>
        <time>2012-10-25T08:51:22Z</time>
      </trkpt>
      <trkpt lat="46.828876" lon="14.839581">
        <ele>433.00</ele>
        <time>2012-10-25T08:51:25Z</time>
      </trkpt>
      <trkpt lat="46.828785" lon="14.839561">
        <ele>433.00</ele>
        <time>2012-10-25T08:51:27Z</time>
      </trkpt>
      <trkpt lat="46.828743" lon="14.839551">
        <ele>433.00</ele>
        <time>2012-10-25T08:51:28Z</time>
      </trkpt>
      <trkpt lat="46.828701" lon="14.839543">
        <ele>433.00</ele>
        <time>2012-10-25T08:51:29Z</time>
      </trkpt>
      <trkpt lat="46.828659" lon="14.839537">
        <ele>432.00</ele>
        <time>2012-10-25T08:51:30Z</time>
      </trkpt>
      <trkpt lat="46.828625" lon="14.839529">
        <ele>432.00</ele>
        <time>2012-10-25T08:51:31Z</time>
      </trkpt>
      <trkpt lat="46.828537" lon="14.839519">
        <ele>432.00</ele>
        <time>2012-10-25T08:51:35Z</time>
      </trkpt>
      <trkpt lat="46.828484" lon="14.839539">
        <ele>432.00</ele>
        <time>2012-10-25T08:51:38Z</time>
      </trkpt>
      <trkpt lat="46.828438" lon="14.839528">
        <ele>432.00</ele>
        <time>2012-10-25T08:51:40Z</time>
      </trkpt>
      <trkpt lat="46.828270" lon="14.839480">
        <ele>432.00</ele>
        <time>2012-10-25T08:51:45Z</time>
      </trkpt>
      <trkpt lat="46.828125" lon="14.839482">
        <ele>432.00</ele>
        <time>2012-10-25T08:51:48Z</time>
      </trkpt>
      <trkpt lat="46.827969" lon="14.839475">
        <ele>432.00</ele>
        <time>2012-10-25T08:51:51Z</time>
      </trkpt>
      <trkpt lat="46.827496" lon="14.839495">
        <ele>431.00</ele>
        <time>2012-10-25T08:51:59Z</time>
      </trkpt>
      <trkpt lat="46.827198" lon="14.839525">
        <ele>431.00</ele>
        <time>2012-10-25T08:52:04Z</time>
      </trkpt>
      <trkpt lat="46.827156" lon="14.839536">
        <ele>431.00</ele>
        <time>2012-10-25T08:52:05Z</time>
      </trkpt>
      <trkpt lat="46.827133" lon="14.839538">
        <ele>430.00</ele>
        <time>2012-10-25T08:52:06Z</time>
      </trkpt>
      <trkpt lat="46.827106" lon="14.839538">
        <ele>430.00</ele>
        <time>2012-10-25T08:52:07Z</time>
      </trkpt>
      <trkpt lat="46.827084" lon="14.839536">
        <ele>430.00</ele>
        <time>2012-10-25T08:52:08Z</time>
      </trkpt>
      <trkpt lat="46.827023" lon="14.839544">
        <ele>430.00</ele>
        <time>2012-10-25T08:52:12Z</time>
      </trkpt>
      <trkpt lat="46.826923" lon="14.839551">
        <ele>430.00</ele>
        <time>2012-10-25T08:52:15Z</time>
      </trkpt>
      <trkpt lat="46.826881" lon="14.839551">
        <ele>430.00</ele>
        <time>2012-10-25T08:52:16Z</time>
      </trkpt>
      <trkpt lat="46.826733" lon="14.839550">
        <ele>430.00</ele>
        <time>2012-10-25T08:52:19Z</time>
      </trkpt>
      <trkpt lat="46.826580" lon="14.839563">
        <ele>429.00</ele>
        <time>2012-10-25T08:52:22Z</time>
      </trkpt>
      <trkpt lat="46.826256" lon="14.839588">
        <ele>429.00</ele>
        <time>2012-10-25T08:52:29Z</time>
      </trkpt>
      <trkpt lat="46.826103" lon="14.839604">
        <ele>429.00</ele>
        <time>2012-10-25T08:52:33Z</time>
      </trkpt>
      <trkpt lat="46.826080" lon="14.839615">
        <ele>428.00</ele>
        <time>2012-10-25T08:52:34Z</time>
      </trkpt>
      <trkpt lat="46.826061" lon="14.839635">
        <ele>428.00</ele>
        <time>2012-10-25T08:52:35Z</time>
      </trkpt>
      <trkpt lat="46.826050" lon="14.839669">
        <ele>428.00</ele>
        <time>2012-10-25T08:52:36Z</time>
      </trkpt>
      <trkpt lat="46.826038" lon="14.839713">
        <ele>428.00</ele>
        <time>2012-10-25T08:52:37Z</time>
      </trkpt>
      <trkpt lat="46.826027" lon="14.839762">
        <ele>428.00</ele>
        <time>2012-10-25T08:52:38Z</time>
      </trkpt>
      <trkpt lat="46.825985" lon="14.839865">
        <ele>427.00</ele>
        <time>2012-10-25T08:52:40Z</time>
      </trkpt>
      <trkpt lat="46.825901" lon="14.840035">
        <ele>427.00</ele>
        <time>2012-10-25T08:52:43Z</time>
      </trkpt>
      <trkpt lat="46.825672" lon="14.840388">
        <ele>427.00</ele>
        <time>2012-10-25T08:52:50Z</time>
      </trkpt>
      <trkpt lat="46.825645" lon="14.840560">
        <ele>427.00</ele>
        <time>2012-10-25T08:52:53Z</time>
      </trkpt>
      <trkpt lat="46.825535" lon="14.840582">
        <ele>427.00</ele>
        <time>2012-10-25T08:52:56Z</time>
      </trkpt>
      <trkpt lat="46.825489" lon="14.840587">
        <ele>427.00</ele>
        <time>2012-10-25T08:52:57Z</time>
      </trkpt>
      <trkpt lat="46.825356" lon="14.840598">
        <ele>427.00</ele>
        <time>2012-10-25T08:53:00Z</time>
      </trkpt>
      <trkpt lat="46.825260" lon="14.840599">
        <ele>427.00</ele>
        <time>2012-10-25T08:53:02Z</time>
      </trkpt>
      <trkpt lat="46.825211" lon="14.840605">
        <ele>427.00</ele>
        <time>2012-10-25T08:53:03Z</time>
      </trkpt>
      <trkpt lat="46.824997" lon="14.840597">
        <ele>427.00</ele>
        <time>2012-10-25T08:53:08Z</time>
      </trkpt>
      <trkpt lat="46.824783" lon="14.840576">
        <ele>427.00</ele>
        <time>2012-10-25T08:53:14Z</time>
      </trkpt>
      <trkpt lat="46.824474" lon="14.840522">
        <ele>427.00</ele>
        <time>2012-10-25T08:53:19Z</time>
      </trkpt>
      <trkpt lat="46.824245" lon="14.840468">
        <ele>427.00</ele>
        <time>2012-10-25T08:53:22Z</time>
      </trkpt>
      <trkpt lat="46.824169" lon="14.840445">
        <ele>426.00</ele>
        <time>2012-10-25T08:53:23Z</time>
      </trkpt>
      <trkpt lat="46.824097" lon="14.840421">
        <ele>426.00</ele>
        <time>2012-10-25T08:53:24Z</time>
      </trkpt>
      <trkpt lat="46.824028" lon="14.840395">
        <ele>426.00</ele>
        <time>2012-10-25T08:53:25Z</time>
      </trkpt>
      <trkpt lat="46.823959" lon="14.840369">
        <ele>426.00</ele>
        <time>2012-10-25T08:53:26Z</time>
      </trkpt>
      <trkpt lat="46.823635" lon="14.840188">
        <ele>425.00</ele>
        <time>2012-10-25T08:53:31Z</time>
      </trkpt>
      <trkpt lat="46.823254" lon="14.839967">
        <ele>425.00</ele>
        <time>2012-10-25T08:53:37Z</time>
      </trkpt>
      <trkpt lat="46.822819" lon="14.839710">
        <ele>425.00</ele>
        <time>2012-10-25T08:53:44Z</time>
      </trkpt>
      <trkpt lat="46.822525" lon="14.839567">
        <ele>425.00</ele>
        <time>2012-10-25T08:53:49Z</time>
      </trkpt>
      <trkpt lat="46.822399" lon="14.839529">
        <ele>425.00</ele>
        <time>2012-10-25T08:53:51Z</time>
      </trkpt>
      <trkpt lat="46.822338" lon="14.839510">
        <ele>424.00</ele>
        <time>2012-10-25T08:53:52Z</time>
      </trkpt>
      <trkpt lat="46.822277" lon="14.839491">
        <ele>424.00</ele>
        <time>2012-10-25T08:53:53Z</time>
      </trkpt>
      <trkpt lat="46.822212" lon="14.839475">
        <ele>424.00</ele>
        <time>2012-10-25T08:53:54Z</time>
      </trkpt>
      <trkpt lat="46.822083" lon="14.839444">
        <ele>424.00</ele>
        <time>2012-10-25T08:53:56Z</time>
      </trkpt>
      <trkpt lat="46.821632" lon="14.839381">
        <ele>423.00</ele>
        <time>2012-10-25T08:54:03Z</time>
      </trkpt>
      <trkpt lat="46.821198" lon="14.839381">
        <ele>423.00</ele>
        <time>2012-10-25T08:54:10Z</time>
      </trkpt>
      <trkpt lat="46.820774" lon="14.839453">
        <ele>423.00</ele>
        <time>2012-10-25T08:54:17Z</time>
      </trkpt>
      <trkpt lat="46.820354" lon="14.839578">
        <ele>423.00</ele>
        <time>2012-10-25T08:54:24Z</time>
      </trkpt>
      <trkpt lat="46.819893" lon="14.839795">
        <ele>423.00</ele>
        <time>2012-10-25T08:54:32Z</time>
      </trkpt>
      <trkpt lat="46.819450" lon="14.840052">
        <ele>422.00</ele>
        <time>2012-10-25T08:54:40Z</time>
      </trkpt>
      <trkpt lat="46.819229" lon="14.840200">
        <ele>422.00</ele>
        <time>2012-10-25T08:54:44Z</time>
      </trkpt>
      <trkpt lat="46.819176" lon="14.840234">
        <ele>422.00</ele>
        <time>2012-10-25T08:54:45Z</time>
      </trkpt>
      <trkpt lat="46.819122" lon="14.840268">
        <ele>422.00</ele>
        <time>2012-10-25T08:54:46Z</time>
      </trkpt>
      <trkpt lat="46.819073" lon="14.840300">
        <ele>421.00</ele>
        <time>2012-10-25T08:54:47Z</time>
      </trkpt>
      <trkpt lat="46.819023" lon="14.840327">
        <ele>421.00</ele>
        <time>2012-10-25T08:54:48Z</time>
      </trkpt>
      <trkpt lat="46.818783" lon="14.840531">
        <ele>421.00</ele>
        <time>2012-10-25T08:54:54Z</time>
      </trkpt>
      <trkpt lat="46.818596" lon="14.840755">
        <ele>421.00</ele>
        <time>2012-10-25T08:54:58Z</time>
      </trkpt>
      <trkpt lat="46.818241" lon="14.840990">
        <ele>421.00</ele>
        <time>2012-10-25T08:55:04Z</time>
      </trkpt>
      <trkpt lat="46.818119" lon="14.841028">
        <ele>421.00</ele>
        <time>2012-10-25T08:55:06Z</time>
      </trkpt>
      <trkpt lat="46.818016" lon="14.841068">
        <ele>421.00</ele>
        <time>2012-10-25T08:55:08Z</time>
      </trkpt>
      <trkpt lat="46.817638" lon="14.841268">
        <ele>421.00</ele>
        <time>2012-10-25T08:55:15Z</time>
      </trkpt>
      <trkpt lat="46.817203" lon="14.841484">
        <ele>421.00</ele>
        <time>2012-10-25T08:55:23Z</time>
      </trkpt>
      <trkpt lat="46.816765" lon="14.841647">
        <ele>421.00</ele>
        <time>2012-10-25T08:55:31Z</time>
      </trkpt>
      <trkpt lat="46.816711" lon="14.841656">
        <ele>421.00</ele>
        <time>2012-10-25T08:55:32Z</time>
      </trkpt>
      <trkpt lat="46.816551" lon="14.841710">
        <ele>421.00</ele>
        <time>2012-10-25T08:55:35Z</time>
      </trkpt>
      <trkpt lat="46.816380" lon="14.841753">
        <ele>421.00</ele>
        <time>2012-10-25T08:55:38Z</time>
      </trkpt>
      <trkpt lat="46.816326" lon="14.841766">
        <ele>420.00</ele>
        <time>2012-10-25T08:55:39Z</time>
      </trkpt>
      <trkpt lat="46.816273" lon="14.841779">
        <ele>420.00</ele>
        <time>2012-10-25T08:55:40Z</time>
      </trkpt>
      <trkpt lat="46.816216" lon="14.841790">
        <ele>420.00</ele>
        <time>2012-10-25T08:55:41Z</time>
      </trkpt>
      <trkpt lat="46.816162" lon="14.841805">
        <ele>419.00</ele>
        <time>2012-10-25T08:55:42Z</time>
      </trkpt>
      <trkpt lat="46.816109" lon="14.841818">
        <ele>419.00</ele>
        <time>2012-10-25T08:55:43Z</time>
      </trkpt>
      <trkpt lat="46.815708" lon="14.841922">
        <ele>419.00</ele>
        <time>2012-10-25T08:55:50Z</time>
      </trkpt>
      <trkpt lat="46.815205" lon="14.841994">
        <ele>419.00</ele>
        <time>2012-10-25T08:55:59Z</time>
      </trkpt>
      <trkpt lat="46.814758" lon="14.842074">
        <ele>419.00</ele>
        <time>2012-10-25T08:56:07Z</time>
      </trkpt>
      <trkpt lat="46.814705" lon="14.842070">
        <ele>419.00</ele>
        <time>2012-10-25T08:56:08Z</time>
      </trkpt>
      <trkpt lat="46.814419" lon="14.842088">
        <ele>419.00</ele>
        <time>2012-10-25T08:56:13Z</time>
      </trkpt>
      <trkpt lat="46.813973" lon="14.842123">
        <ele>419.00</ele>
        <time>2012-10-25T08:56:21Z</time>
      </trkpt>
      <trkpt lat="46.813576" lon="14.842118">
        <ele>419.00</ele>
        <time>2012-10-25T08:56:28Z</time>
      </trkpt>
      <trkpt lat="46.813110" lon="14.842098">
        <ele>418.00</ele>
        <time>2012-10-25T08:56:36Z</time>
      </trkpt>
      <trkpt lat="46.813049" lon="14.842093">
        <ele>418.00</ele>
        <time>2012-10-25T08:56:37Z</time>
      </trkpt>
      <trkpt lat="46.812992" lon="14.842091">
        <ele>418.00</ele>
        <time>2012-10-25T08:56:38Z</time>
      </trkpt>
      <trkpt lat="46.812939" lon="14.842089">
        <ele>418.00</ele>
        <time>2012-10-25T08:56:39Z</time>
      </trkpt>
      <trkpt lat="46.812881" lon="14.842081">
        <ele>418.00</ele>
        <time>2012-10-25T08:56:40Z</time>
      </trkpt>
      <trkpt lat="46.812546" lon="14.842044">
        <ele>417.00</ele>
        <time>2012-10-25T08:56:46Z</time>
      </trkpt>
      <trkpt lat="46.812080" lon="14.841975">
        <ele>417.00</ele>
        <time>2012-10-25T08:56:54Z</time>
      </trkpt>
      <trkpt lat="46.811672" lon="14.841895">
        <ele>417.00</ele>
        <time>2012-10-25T08:57:01Z</time>
      </trkpt>
      <trkpt lat="46.811218" lon="14.841777">
        <ele>417.00</ele>
        <time>2012-10-25T08:57:09Z</time>
      </trkpt>
      <trkpt lat="46.810719" lon="14.841643">
        <ele>417.00</ele>
        <time>2012-10-25T08:57:18Z</time>
      </trkpt>
      <trkpt lat="46.810375" lon="14.841552">
        <ele>417.00</ele>
        <time>2012-10-25T08:57:24Z</time>
      </trkpt>
      <trkpt lat="46.809982" lon="14.841439">
        <ele>417.00</ele>
        <time>2012-10-25T08:57:31Z</time>
      </trkpt>
      <trkpt lat="46.809639" lon="14.841352">
        <ele>416.00</ele>
        <time>2012-10-25T08:57:37Z</time>
      </trkpt>
      <trkpt lat="46.809582" lon="14.841336">
        <ele>416.00</ele>
        <time>2012-10-25T08:57:38Z</time>
      </trkpt>
      <trkpt lat="46.809525" lon="14.841321">
        <ele>415.00</ele>
        <time>2012-10-25T08:57:39Z</time>
      </trkpt>
      <trkpt lat="46.809471" lon="14.841306">
        <ele>415.00</ele>
        <time>2012-10-25T08:57:40Z</time>
      </trkpt>
      <trkpt lat="46.809082" lon="14.841191">
        <ele>415.00</ele>
        <time>2012-10-25T08:57:47Z</time>
      </trkpt>
      <trkpt lat="46.808693" lon="14.841082">
        <ele>415.00</ele>
        <time>2012-10-25T08:57:54Z</time>
      </trkpt>
      <trkpt lat="46.808311" lon="14.840967">
        <ele>415.00</ele>
        <time>2012-10-25T08:58:01Z</time>
      </trkpt>
      <trkpt lat="46.807930" lon="14.840865">
        <ele>415.00</ele>
        <time>2012-10-25T08:58:08Z</time>
      </trkpt>
      <trkpt lat="46.807446" lon="14.840730">
        <ele>415.00</ele>
        <time>2012-10-25T08:58:17Z</time>
      </trkpt>
      <trkpt lat="46.807297" lon="14.840736">
        <ele>415.00</ele>
        <time>2012-10-25T08:58:20Z</time>
      </trkpt>
      <trkpt lat="46.807205" lon="14.840748">
        <ele>415.00</ele>
        <time>2012-10-25T08:58:22Z</time>
      </trkpt>
      <trkpt lat="46.807034" lon="14.840750">
        <ele>415.00</ele>
        <time>2012-10-25T08:58:25Z</time>
      </trkpt>
      <trkpt lat="46.806969" lon="14.840744">
        <ele>414.00</ele>
        <time>2012-10-25T08:58:26Z</time>
      </trkpt>
      <trkpt lat="46.806900" lon="14.840741">
        <ele>414.00</ele>
        <time>2012-10-25T08:58:27Z</time>
      </trkpt>
      <trkpt lat="46.806839" lon="14.840716">
        <ele>413.00</ele>
        <time>2012-10-25T08:58:28Z</time>
      </trkpt>
      <trkpt lat="46.806782" lon="14.840694">
        <ele>413.00</ele>
        <time>2012-10-25T08:58:29Z</time>
      </trkpt>
      <trkpt lat="46.806740" lon="14.840676">
        <ele>413.00</ele>
        <time>2012-10-25T08:58:30Z</time>
      </trkpt>
      <trkpt lat="46.806450" lon="14.840583">
        <ele>413.00</ele>
        <time>2012-10-25T08:58:36Z</time>
      </trkpt>
      <trkpt lat="46.806404" lon="14.840575">
        <ele>413.00</ele>
        <time>2012-10-25T08:58:37Z</time>
      </trkpt>
      <trkpt lat="46.806091" lon="14.840507">
        <ele>413.00</ele>
        <time>2012-10-25T08:58:43Z</time>
      </trkpt>
      <trkpt lat="46.805656" lon="14.840426">
        <ele>413.00</ele>
        <time>2012-10-25T08:58:51Z</time>
      </trkpt>
      <trkpt lat="46.805260" lon="14.840363">
        <ele>413.00</ele>
        <time>2012-10-25T08:58:58Z</time>
      </trkpt>
      <trkpt lat="46.804756" lon="14.840304">
        <ele>412.00</ele>
        <time>2012-10-25T08:59:06Z</time>
      </trkpt>
      <trkpt lat="46.804615" lon="14.840300">
        <ele>412.00</ele>
        <time>2012-10-25T08:59:08Z</time>
      </trkpt>
      <trkpt lat="46.804543" lon="14.840295">
        <ele>412.00</ele>
        <time>2012-10-25T08:59:09Z</time>
      </trkpt>
      <trkpt lat="46.804474" lon="14.840291">
        <ele>412.00</ele>
        <time>2012-10-25T08:59:10Z</time>
      </trkpt>
      <trkpt lat="46.804401" lon="14.840286">
        <ele>411.00</ele>
        <time>2012-10-25T08:59:11Z</time>
      </trkpt>
      <trkpt lat="46.804333" lon="14.840279">
        <ele>411.00</ele>
        <time>2012-10-25T08:59:12Z</time>
      </trkpt>
      <trkpt lat="46.804260" lon="14.840269">
        <ele>411.00</ele>
        <time>2012-10-25T08:59:13Z</time>
      </trkpt>
      <trkpt lat="46.803692" lon="14.840245">
        <ele>411.00</ele>
        <time>2012-10-25T08:59:21Z</time>
      </trkpt>
      <trkpt lat="46.803627" lon="14.840243">
        <ele>411.00</ele>
        <time>2012-10-25T08:59:22Z</time>
      </trkpt>
      <trkpt lat="46.803040" lon="14.840260">
        <ele>410.00</ele>
        <time>2012-10-25T08:59:31Z</time>
      </trkpt>
      <trkpt lat="46.802979" lon="14.840263">
        <ele>410.00</ele>
        <time>2012-10-25T08:59:32Z</time>
      </trkpt>
      <trkpt lat="46.802475" lon="14.840298">
        <ele>410.00</ele>
        <time>2012-10-25T08:59:40Z</time>
      </trkpt>
      <trkpt lat="46.802418" lon="14.840308">
        <ele>409.00</ele>
        <time>2012-10-25T08:59:41Z</time>
      </trkpt>
      <trkpt lat="46.802357" lon="14.840317">
        <ele>409.00</ele>
        <time>2012-10-25T08:59:42Z</time>
      </trkpt>
      <trkpt lat="46.802292" lon="14.840326">
        <ele>409.00</ele>
        <time>2012-10-25T08:59:43Z</time>
      </trkpt>
      <trkpt lat="46.802231" lon="14.840336">
        <ele>409.00</ele>
        <time>2012-10-25T08:59:44Z</time>
      </trkpt>
      <trkpt lat="46.801926" lon="14.840377">
        <ele>408.00</ele>
        <time>2012-10-25T08:59:49Z</time>
      </trkpt>
      <trkpt lat="46.801552" lon="14.840437">
        <ele>408.00</ele>
        <time>2012-10-25T08:59:55Z</time>
      </trkpt>
      <trkpt lat="46.801079" lon="14.840519">
        <ele>408.00</ele>
        <time>2012-10-25T09:00:03Z</time>
      </trkpt>
      <trkpt lat="46.800652" lon="14.840570">
        <ele>408.00</ele>
        <time>2012-10-25T09:00:10Z</time>
      </trkpt>
      <trkpt lat="46.800171" lon="14.840589">
        <ele>408.00</ele>
        <time>2012-10-25T09:00:18Z</time>
      </trkpt>
      <trkpt lat="46.799644" lon="14.840594">
        <ele>408.00</ele>
        <time>2012-10-25T09:00:27Z</time>
      </trkpt>
      <trkpt lat="46.799355" lon="14.840574">
        <ele>408.00</ele>
        <time>2012-10-25T09:00:32Z</time>
      </trkpt>
      <trkpt lat="46.799114" lon="14.840555">
        <ele>408.00</ele>
        <time>2012-10-25T09:00:36Z</time>
      </trkpt>
      <trkpt lat="46.798649" lon="14.840507">
        <ele>408.00</ele>
        <time>2012-10-25T09:00:44Z</time>
      </trkpt>
      <trkpt lat="46.798241" lon="14.840430">
        <ele>408.00</ele>
        <time>2012-10-25T09:00:51Z</time>
      </trkpt>
      <trkpt lat="46.797779" lon="14.840331">
        <ele>408.00</ele>
        <time>2012-10-25T09:00:59Z</time>
      </trkpt>
      <trkpt lat="46.797321" lon="14.840193">
        <ele>408.00</ele>
        <time>2012-10-25T09:01:07Z</time>
      </trkpt>
      <trkpt lat="46.796856" lon="14.840028">
        <ele>408.00</ele>
        <time>2012-10-25T09:01:15Z</time>
      </trkpt>
      <trkpt lat="46.796619" lon="14.839933">
        <ele>407.00</ele>
        <time>2012-10-25T09:01:19Z</time>
      </trkpt>
      <trkpt lat="46.796562" lon="14.839911">
        <ele>407.00</ele>
        <time>2012-10-25T09:01:20Z</time>
      </trkpt>
      <trkpt lat="46.796505" lon="14.839887">
        <ele>406.00</ele>
        <time>2012-10-25T09:01:21Z</time>
      </trkpt>
      <trkpt lat="46.796452" lon="14.839865">
        <ele>406.00</ele>
        <time>2012-10-25T09:01:22Z</time>
      </trkpt>
      <trkpt lat="46.796341" lon="14.839817">
        <ele>406.00</ele>
        <time>2012-10-25T09:01:24Z</time>
      </trkpt>
      <trkpt lat="46.795906" lon="14.839609">
        <ele>406.00</ele>
        <time>2012-10-25T09:01:32Z</time>
      </trkpt>
      <trkpt lat="46.795410" lon="14.839374">
        <ele>406.00</ele>
        <time>2012-10-25T09:01:41Z</time>
      </trkpt>
      <trkpt lat="46.795033" lon="14.839210">
        <ele>406.00</ele>
        <time>2012-10-25T09:01:48Z</time>
      </trkpt>
      <trkpt lat="46.794590" lon="14.839034">
        <ele>406.00</ele>
        <time>2012-10-25T09:01:56Z</time>
      </trkpt>
      <trkpt lat="46.794212" lon="14.838899">
        <ele>406.00</ele>
        <time>2012-10-25T09:02:03Z</time>
      </trkpt>
      <trkpt lat="46.793774" lon="14.838775">
        <ele>406.00</ele>
        <time>2012-10-25T09:02:11Z</time>
      </trkpt>
      <trkpt lat="46.793343" lon="14.838683">
        <ele>406.00</ele>
        <time>2012-10-25T09:02:19Z</time>
      </trkpt>
      <trkpt lat="46.792965" lon="14.838611">
        <ele>406.00</ele>
        <time>2012-10-25T09:02:26Z</time>
      </trkpt>
      <trkpt lat="46.792522" lon="14.838542">
        <ele>405.00</ele>
        <time>2012-10-25T09:02:34Z</time>
      </trkpt>
      <trkpt lat="46.792412" lon="14.838518">
        <ele>405.00</ele>
        <time>2012-10-25T09:02:36Z</time>
      </trkpt>
      <trkpt lat="46.792358" lon="14.838503">
        <ele>405.00</ele>
        <time>2012-10-25T09:02:37Z</time>
      </trkpt>
      <trkpt lat="46.792305" lon="14.838490">
        <ele>405.00</ele>
        <time>2012-10-25T09:02:38Z</time>
      </trkpt>
      <trkpt lat="46.792252" lon="14.838475">
        <ele>404.00</ele>
        <time>2012-10-25T09:02:39Z</time>
      </trkpt>
      <trkpt lat="46.792194" lon="14.838456">
        <ele>404.00</ele>
        <time>2012-10-25T09:02:40Z</time>
      </trkpt>
      <trkpt lat="46.792141" lon="14.838436">
        <ele>404.00</ele>
        <time>2012-10-25T09:02:41Z</time>
      </trkpt>
      <trkpt lat="46.791683" lon="14.838223">
        <ele>404.00</ele>
        <time>2012-10-25T09:02:50Z</time>
      </trkpt>
      <trkpt lat="46.791283" lon="14.837943">
        <ele>404.00</ele>
        <time>2012-10-25T09:02:58Z</time>
      </trkpt>
      <trkpt lat="46.790951" lon="14.837634">
        <ele>404.00</ele>
        <time>2012-10-25T09:03:05Z</time>
      </trkpt>
      <trkpt lat="46.790729" lon="14.837404">
        <ele>404.00</ele>
        <time>2012-10-25T09:03:10Z</time>
      </trkpt>
      <trkpt lat="46.790310" lon="14.836979">
        <ele>404.00</ele>
        <time>2012-10-25T09:03:19Z</time>
      </trkpt>
      <trkpt lat="46.789848" lon="14.836635">
        <ele>403.00</ele>
        <time>2012-10-25T09:03:28Z</time>
      </trkpt>
      <trkpt lat="46.789623" lon="14.836502">
        <ele>403.00</ele>
        <time>2012-10-25T09:03:32Z</time>
      </trkpt>
      <trkpt lat="46.789562" lon="14.836470">
        <ele>403.00</ele>
        <time>2012-10-25T09:03:33Z</time>
      </trkpt>
      <trkpt lat="46.789505" lon="14.836439">
        <ele>403.00</ele>
        <time>2012-10-25T09:03:34Z</time>
      </trkpt>
      <trkpt lat="46.789448" lon="14.836414">
        <ele>402.00</ele>
        <time>2012-10-25T09:03:35Z</time>
      </trkpt>
      <trkpt lat="46.789391" lon="14.836390">
        <ele>402.00</ele>
        <time>2012-10-25T09:03:36Z</time>
      </trkpt>
      <trkpt lat="46.788918" lon="14.836239">
        <ele>402.00</ele>
        <time>2012-10-25T09:03:44Z</time>
      </trkpt>
      <trkpt lat="46.788464" lon="14.836175">
        <ele>402.00</ele>
        <time>2012-10-25T09:03:52Z</time>
      </trkpt>
      <trkpt lat="46.788071" lon="14.836182">
        <ele>402.00</ele>
        <time>2012-10-25T09:03:59Z</time>
      </trkpt>
      <trkpt lat="46.787743" lon="14.836211">
        <ele>402.00</ele>
        <time>2012-10-25T09:04:05Z</time>
      </trkpt>
      <trkpt lat="46.787285" lon="14.836258">
        <ele>402.00</ele>
        <time>2012-10-25T09:04:13Z</time>
      </trkpt>
      <trkpt lat="46.786732" lon="14.836343">
        <ele>402.00</ele>
        <time>2012-10-25T09:04:22Z</time>
      </trkpt>
      <trkpt lat="46.786674" lon="14.836347">
        <ele>402.00</ele>
        <time>2012-10-25T09:04:23Z</time>
      </trkpt>
      <trkpt lat="46.786202" lon="14.836351">
        <ele>402.00</ele>
        <time>2012-10-25T09:04:31Z</time>
      </trkpt>
      <trkpt lat="46.785801" lon="14.836272">
        <ele>402.00</ele>
        <time>2012-10-25T09:04:38Z</time>
      </trkpt>
      <trkpt lat="46.785580" lon="14.836209">
        <ele>402.00</ele>
        <time>2012-10-25T09:04:42Z</time>
      </trkpt>
      <trkpt lat="46.785419" lon="14.836157">
        <ele>402.00</ele>
        <time>2012-10-25T09:04:45Z</time>
      </trkpt>
      <trkpt lat="46.784996" lon="14.835967">
        <ele>401.00</ele>
        <time>2012-10-25T09:04:53Z</time>
      </trkpt>
      <trkpt lat="46.784782" lon="14.835886">
        <ele>401.00</ele>
        <time>2012-10-25T09:04:57Z</time>
      </trkpt>
      <trkpt lat="46.784733" lon="14.835864">
        <ele>401.00</ele>
        <time>2012-10-25T09:04:58Z</time>
      </trkpt>
      <trkpt lat="46.784683" lon="14.835843">
        <ele>401.00</ele>
        <time>2012-10-25T09:04:59Z</time>
      </trkpt>
      <trkpt lat="46.784630" lon="14.835821">
        <ele>400.00</ele>
        <time>2012-10-25T09:05:00Z</time>
      </trkpt>
      <trkpt lat="46.784580" lon="14.835801">
        <ele>400.00</ele>
        <time>2012-10-25T09:05:01Z</time>
      </trkpt>
      <trkpt lat="46.784531" lon="14.835782">
        <ele>400.00</ele>
        <time>2012-10-25T09:05:02Z</time>
      </trkpt>
      <trkpt lat="46.784172" lon="14.835654">
        <ele>400.00</ele>
        <time>2012-10-25T09:05:09Z</time>
      </trkpt>
      <trkpt lat="46.783978" lon="14.835551">
        <ele>400.00</ele>
        <time>2012-10-25T09:05:13Z</time>
      </trkpt>
      <trkpt lat="46.783936" lon="14.835519">
        <ele>400.00</ele>
        <time>2012-10-25T09:05:14Z</time>
      </trkpt>
      <trkpt lat="46.783855" lon="14.835445">
        <ele>400.00</ele>
        <time>2012-10-25T09:05:16Z</time>
      </trkpt>
      <trkpt lat="46.783817" lon="14.835410">
        <ele>400.00</ele>
        <time>2012-10-25T09:05:17Z</time>
      </trkpt>
      <trkpt lat="46.783756" lon="14.835350">
        <ele>400.00</ele>
        <time>2012-10-25T09:05:19Z</time>
      </trkpt>
      <trkpt lat="46.783688" lon="14.835305">
        <ele>400.00</ele>
        <time>2012-10-25T09:05:21Z</time>
      </trkpt>
      <trkpt lat="46.783649" lon="14.835293">
        <ele>400.00</ele>
        <time>2012-10-25T09:05:22Z</time>
      </trkpt>
      <trkpt lat="46.783504" lon="14.835277">
        <ele>400.00</ele>
        <time>2012-10-25T09:05:25Z</time>
      </trkpt>
      <trkpt lat="46.783131" lon="14.835278">
        <ele>400.00</ele>
        <time>2012-10-25T09:05:32Z</time>
      </trkpt>
      <trkpt lat="46.783016" lon="14.835280">
        <ele>400.00</ele>
        <time>2012-10-25T09:05:34Z</time>
      </trkpt>
      <trkpt lat="46.782688" lon="14.835261">
        <ele>400.00</ele>
        <time>2012-10-25T09:05:40Z</time>
      </trkpt>
      <trkpt lat="46.782295" lon="14.835176">
        <ele>399.00</ele>
        <time>2012-10-25T09:05:47Z</time>
      </trkpt>
      <trkpt lat="46.782078" lon="14.835146">
        <ele>399.00</ele>
        <time>2012-10-25T09:05:51Z</time>
      </trkpt>
      <trkpt lat="46.782024" lon="14.835138">
        <ele>399.00</ele>
        <time>2012-10-25T09:05:52Z</time>
      </trkpt>
      <trkpt lat="46.781971" lon="14.835130">
        <ele>399.00</ele>
        <time>2012-10-25T09:05:53Z</time>
      </trkpt>
      <trkpt lat="46.781918" lon="14.835119">
        <ele>398.00</ele>
        <time>2012-10-25T09:05:54Z</time>
      </trkpt>
      <trkpt lat="46.781860" lon="14.835112">
        <ele>398.00</ele>
        <time>2012-10-25T09:05:55Z</time>
      </trkpt>
      <trkpt lat="46.781700" lon="14.835094">
        <ele>398.00</ele>
        <time>2012-10-25T09:05:58Z</time>
      </trkpt>
      <trkpt lat="46.781330" lon="14.835058">
        <ele>398.00</ele>
        <time>2012-10-25T09:06:05Z</time>
      </trkpt>
      <trkpt lat="46.780945" lon="14.835036">
        <ele>398.00</ele>
        <time>2012-10-25T09:06:12Z</time>
      </trkpt>
      <trkpt lat="46.780403" lon="14.835032">
        <ele>398.00</ele>
        <time>2012-10-25T09:06:22Z</time>
      </trkpt>
      <trkpt lat="46.779968" lon="14.835036">
        <ele>398.00</ele>
        <time>2012-10-25T09:06:30Z</time>
      </trkpt>
      <trkpt lat="46.779480" lon="14.835062">
        <ele>398.00</ele>
        <time>2012-10-25T09:06:39Z</time>
      </trkpt>
      <trkpt lat="46.779041" lon="14.835093">
        <ele>397.00</ele>
        <time>2012-10-25T09:06:47Z</time>
      </trkpt>
      <trkpt lat="46.778767" lon="14.835101">
        <ele>397.00</ele>
        <time>2012-10-25T09:06:52Z</time>
      </trkpt>
      <trkpt lat="46.778709" lon="14.835102">
        <ele>397.00</ele>
        <time>2012-10-25T09:06:53Z</time>
      </trkpt>
      <trkpt lat="46.778656" lon="14.835104">
        <ele>397.00</ele>
        <time>2012-10-25T09:06:54Z</time>
      </trkpt>
      <trkpt lat="46.778599" lon="14.835105">
        <ele>396.00</ele>
        <time>2012-10-25T09:06:55Z</time>
      </trkpt>
      <trkpt lat="46.778542" lon="14.835103">
        <ele>396.00</ele>
        <time>2012-10-25T09:06:56Z</time>
      </trkpt>
      <trkpt lat="46.778103" lon="14.835095">
        <ele>396.00</ele>
        <time>2012-10-25T09:07:04Z</time>
      </trkpt>
      <trkpt lat="46.777714" lon="14.835086">
        <ele>396.00</ele>
        <time>2012-10-25T09:07:11Z</time>
      </trkpt>
      <trkpt lat="46.777199" lon="14.835062">
        <ele>396.00</ele>
        <time>2012-10-25T09:07:20Z</time>
      </trkpt>
      <trkpt lat="46.776699" lon="14.835011">
        <ele>396.00</ele>
        <time>2012-10-25T09:07:29Z</time>
      </trkpt>
      <trkpt lat="46.776192" lon="14.834960">
        <ele>396.00</ele>
        <time>2012-10-25T09:07:38Z</time>
      </trkpt>
      <trkpt lat="46.775650" lon="14.834867">
        <ele>396.00</ele>
        <time>2012-10-25T09:07:48Z</time>
      </trkpt>
      <trkpt lat="46.775349" lon="14.834742">
        <ele>396.00</ele>
        <time>2012-10-25T09:07:54Z</time>
      </trkpt>
      <trkpt lat="46.775307" lon="14.834710">
        <ele>396.00</ele>
        <time>2012-10-25T09:07:55Z</time>
      </trkpt>
      <trkpt lat="46.775272" lon="14.834670">
        <ele>396.00</ele>
        <time>2012-10-25T09:07:56Z</time>
      </trkpt>
      <trkpt lat="46.775154" lon="14.834514">
        <ele>395.00</ele>
        <time>2012-10-25T09:07:59Z</time>
      </trkpt>
      <trkpt lat="46.774975" lon="14.834425">
        <ele>395.00</ele>
        <time>2012-10-25T09:08:02Z</time>
      </trkpt>
      <trkpt lat="46.774914" lon="14.834419">
        <ele>395.00</ele>
        <time>2012-10-25T09:08:03Z</time>
      </trkpt>
      <trkpt lat="46.774857" lon="14.834430">
        <ele>395.00</ele>
        <time>2012-10-25T09:08:04Z</time>
      </trkpt>
      <trkpt lat="46.774799" lon="14.834451">
        <ele>394.00</ele>
        <time>2012-10-25T09:08:05Z</time>
      </trkpt>
      <trkpt lat="46.774742" lon="14.834476">
        <ele>394.00</ele>
        <time>2012-10-25T09:08:06Z</time>
      </trkpt>
      <trkpt lat="46.774578" lon="14.834517">
        <ele>394.00</ele>
        <time>2012-10-25T09:08:09Z</time>
      </trkpt>
      <trkpt lat="46.774468" lon="14.834498">
        <ele>394.00</ele>
        <time>2012-10-25T09:08:11Z</time>
      </trkpt>
      <trkpt lat="46.774357" lon="14.834459">
        <ele>394.00</ele>
        <time>2012-10-25T09:08:13Z</time>
      </trkpt>
      <trkpt lat="46.774086" lon="14.834329">
        <ele>394.00</ele>
        <time>2012-10-25T09:08:18Z</time>
      </trkpt>
      <trkpt lat="46.773716" lon="14.834118">
        <ele>394.00</ele>
        <time>2012-10-25T09:08:25Z</time>
      </trkpt>
      <trkpt lat="46.773239" lon="14.833834">
        <ele>393.00</ele>
        <time>2012-10-25T09:08:34Z</time>
      </trkpt>
      <trkpt lat="46.773087" lon="14.833725">
        <ele>393.00</ele>
        <time>2012-10-25T09:08:37Z</time>
      </trkpt>
      <trkpt lat="46.773033" lon="14.833688">
        <ele>393.00</ele>
        <time>2012-10-25T09:08:38Z</time>
      </trkpt>
      <trkpt lat="46.772987" lon="14.833651">
        <ele>392.00</ele>
        <time>2012-10-25T09:08:39Z</time>
      </trkpt>
      <trkpt lat="46.772934" lon="14.833614">
        <ele>392.00</ele>
        <time>2012-10-25T09:08:40Z</time>
      </trkpt>
      <trkpt lat="46.772781" lon="14.833497">
        <ele>392.00</ele>
        <time>2012-10-25T09:08:43Z</time>
      </trkpt>
      <trkpt lat="46.772289" lon="14.833089">
        <ele>392.00</ele>
        <time>2012-10-25T09:08:53Z</time>
      </trkpt>
      <trkpt lat="46.771873" lon="14.832667">
        <ele>392.00</ele>
        <time>2012-10-25T09:09:02Z</time>
      </trkpt>
      <trkpt lat="46.771431" lon="14.832178">
        <ele>392.00</ele>
        <time>2012-10-25T09:09:12Z</time>
      </trkpt>
      <trkpt lat="46.771057" lon="14.831699">
        <ele>392.00</ele>
        <time>2012-10-25T09:09:21Z</time>
      </trkpt>
      <trkpt lat="46.770855" lon="14.831434">
        <ele>392.00</ele>
        <time>2012-10-25T09:09:26Z</time>
      </trkpt>
      <trkpt lat="46.770790" lon="14.831323">
        <ele>392.00</ele>
        <time>2012-10-25T09:09:28Z</time>
      </trkpt>
      <trkpt lat="46.770668" lon="14.831130">
        <ele>392.00</ele>
        <time>2012-10-25T09:09:32Z</time>
      </trkpt>
      <trkpt lat="46.770622" lon="14.831086">
        <ele>391.00</ele>
        <time>2012-10-25T09:09:33Z</time>
      </trkpt>
      <trkpt lat="46.770531" lon="14.830989">
        <ele>391.00</ele>
        <time>2012-10-25T09:09:35Z</time>
      </trkpt>
      <trkpt lat="46.770485" lon="14.830936">
        <ele>391.00</ele>
        <time>2012-10-25T09:09:36Z</time>
      </trkpt>
      <trkpt lat="46.770435" lon="14.830874">
        <ele>390.00</ele>
        <time>2012-10-25T09:09:37Z</time>
      </trkpt>
      <trkpt lat="46.770390" lon="14.830817">
        <ele>390.00</ele>
        <time>2012-10-25T09:09:38Z</time>
      </trkpt>
      <trkpt lat="46.770344" lon="14.830770">
        <ele>390.00</ele>
        <time>2012-10-25T09:09:39Z</time>
      </trkpt>
      <trkpt lat="46.770226" lon="14.830614">
        <ele>390.00</ele>
        <time>2012-10-25T09:09:42Z</time>
      </trkpt>
      <trkpt lat="46.770180" lon="14.830564">
        <ele>390.00</ele>
        <time>2012-10-25T09:09:43Z</time>
      </trkpt>
      <trkpt lat="46.769974" lon="14.830271">
        <ele>390.00</ele>
        <time>2012-10-25T09:09:48Z</time>
      </trkpt>
      <trkpt lat="46.769676" lon="14.829900">
        <ele>390.00</ele>
        <time>2012-10-25T09:09:55Z</time>
      </trkpt>
      <trkpt lat="46.769295" lon="14.829443">
        <ele>390.00</ele>
        <time>2012-10-25T09:10:04Z</time>
      </trkpt>
      <trkpt lat="46.768993" lon="14.829133">
        <ele>390.00</ele>
        <time>2012-10-25T09:10:11Z</time>
      </trkpt>
      <trkpt lat="46.768719" lon="14.828878">
        <ele>390.00</ele>
        <time>2012-10-25T09:10:17Z</time>
      </trkpt>
      <trkpt lat="46.768341" lon="14.828515">
        <ele>390.00</ele>
        <time>2012-10-25T09:10:25Z</time>
      </trkpt>
      <trkpt lat="46.767956" lon="14.828205">
        <ele>389.00</ele>
        <time>2012-10-25T09:10:33Z</time>
      </trkpt>
      <trkpt lat="46.767612" lon="14.827948">
        <ele>389.00</ele>
        <time>2012-10-25T09:10:40Z</time>
      </trkpt>
      <trkpt lat="46.767357" lon="14.827772">
        <ele>389.00</ele>
        <time>2012-10-25T09:10:45Z</time>
      </trkpt>
      <trkpt lat="46.767307" lon="14.827738">
        <ele>389.00</ele>
        <time>2012-10-25T09:10:46Z</time>
      </trkpt>
      <trkpt lat="46.767258" lon="14.827702">
        <ele>388.00</ele>
        <time>2012-10-25T09:10:47Z</time>
      </trkpt>
      <trkpt lat="46.767208" lon="14.827669">
        <ele>388.00</ele>
        <time>2012-10-25T09:10:48Z</time>
      </trkpt>
      <trkpt lat="46.767155" lon="14.827637">
        <ele>388.00</ele>
        <time>2012-10-25T09:10:49Z</time>
      </trkpt>
      <trkpt lat="46.766621" lon="14.827326">
        <ele>388.00</ele>
        <time>2012-10-25T09:10:59Z</time>
      </trkpt>
      <trkpt lat="46.766193" lon="14.827117">
        <ele>387.00</ele>
        <time>2012-10-25T09:11:07Z</time>
      </trkpt>
      <trkpt lat="46.765881" lon="14.827020">
        <ele>387.00</ele>
        <time>2012-10-25T09:11:13Z</time>
      </trkpt>
      <trkpt lat="46.765507" lon="14.826964">
        <ele>387.00</ele>
        <time>2012-10-25T09:11:20Z</time>
      </trkpt>
      <trkpt lat="46.765297" lon="14.826957">
        <ele>387.00</ele>
        <time>2012-10-25T09:11:24Z</time>
      </trkpt>
      <trkpt lat="46.765202" lon="14.826963">
        <ele>387.00</ele>
        <time>2012-10-25T09:11:26Z</time>
      </trkpt>
      <trkpt lat="46.765160" lon="14.826986">
        <ele>387.00</ele>
        <time>2012-10-25T09:11:27Z</time>
      </trkpt>
      <trkpt lat="46.765003" lon="14.827069">
        <ele>387.00</ele>
        <time>2012-10-25T09:11:30Z</time>
      </trkpt>
      <trkpt lat="46.764854" lon="14.827120">
        <ele>387.00</ele>
        <time>2012-10-25T09:11:33Z</time>
      </trkpt>
      <trkpt lat="46.764782" lon="14.827137">
        <ele>386.00</ele>
        <time>2012-10-25T09:11:34Z</time>
      </trkpt>
      <trkpt lat="46.764717" lon="14.827151">
        <ele>386.00</ele>
        <time>2012-10-25T09:11:35Z</time>
      </trkpt>
      <trkpt lat="46.764664" lon="14.827164">
        <ele>386.00</ele>
        <time>2012-10-25T09:11:36Z</time>
      </trkpt>
      <trkpt lat="46.764614" lon="14.827176">
        <ele>386.00</ele>
        <time>2012-10-25T09:11:37Z</time>
      </trkpt>
      <trkpt lat="46.764439" lon="14.827201">
        <ele>385.00</ele>
        <time>2012-10-25T09:11:42Z</time>
      </trkpt>
      <trkpt lat="46.764359" lon="14.827212">
        <ele>385.00</ele>
        <time>2012-10-25T09:11:44Z</time>
      </trkpt>
      <trkpt lat="46.764267" lon="14.827248">
        <ele>385.00</ele>
        <time>2012-10-25T09:11:46Z</time>
      </trkpt>
      <trkpt lat="46.764137" lon="14.827322">
        <ele>385.00</ele>
        <time>2012-10-25T09:11:49Z</time>
      </trkpt>
      <trkpt lat="46.764095" lon="14.827353">
        <ele>385.00</ele>
        <time>2012-10-25T09:11:50Z</time>
      </trkpt>
      <trkpt lat="46.764011" lon="14.827426">
        <ele>385.00</ele>
        <time>2012-10-25T09:11:52Z</time>
      </trkpt>
      <trkpt lat="46.763752" lon="14.827635">
        <ele>385.00</ele>
        <time>2012-10-25T09:11:58Z</time>
      </trkpt>
      <trkpt lat="46.763672" lon="14.827715">
        <ele>385.00</ele>
        <time>2012-10-25T09:12:00Z</time>
      </trkpt>
      <trkpt lat="46.763371" lon="14.828000">
        <ele>385.00</ele>
        <time>2012-10-25T09:12:07Z</time>
      </trkpt>
      <trkpt lat="46.762978" lon="14.828369">
        <ele>385.00</ele>
        <time>2012-10-25T09:12:16Z</time>
      </trkpt>
      <trkpt lat="46.762585" lon="14.828768">
        <ele>385.00</ele>
        <time>2012-10-25T09:12:25Z</time>
      </trkpt>
      <trkpt lat="46.762184" lon="14.829173">
        <ele>385.00</ele>
        <time>2012-10-25T09:12:34Z</time>
      </trkpt>
      <trkpt lat="46.761837" lon="14.829536">
        <ele>385.00</ele>
        <time>2012-10-25T09:12:42Z</time>
      </trkpt>
      <trkpt lat="46.761471" lon="14.829881">
        <ele>385.00</ele>
        <time>2012-10-25T09:12:50Z</time>
      </trkpt>
      <trkpt lat="46.761421" lon="14.829907">
        <ele>385.00</ele>
        <time>2012-10-25T09:12:51Z</time>
      </trkpt>
      <trkpt lat="46.761173" lon="14.830034">
        <ele>385.00</ele>
        <time>2012-10-25T09:12:56Z</time>
      </trkpt>
      <trkpt lat="46.760929" lon="14.830212">
        <ele>385.00</ele>
        <time>2012-10-25T09:13:01Z</time>
      </trkpt>
      <trkpt lat="46.760838" lon="14.830308">
        <ele>385.00</ele>
        <time>2012-10-25T09:13:03Z</time>
      </trkpt>
      <trkpt lat="46.760628" lon="14.830466">
        <ele>385.00</ele>
        <time>2012-10-25T09:13:07Z</time>
      </trkpt>
      <trkpt lat="46.760513" lon="14.830528">
        <ele>385.00</ele>
        <time>2012-10-25T09:13:09Z</time>
      </trkpt>
      <trkpt lat="46.759987" lon="14.830762">
        <ele>385.00</ele>
        <time>2012-10-25T09:13:18Z</time>
      </trkpt>
      <trkpt lat="46.759628" lon="14.830840">
        <ele>385.00</ele>
        <time>2012-10-25T09:13:24Z</time>
      </trkpt>
      <trkpt lat="46.759567" lon="14.830855">
        <ele>385.00</ele>
        <time>2012-10-25T09:13:25Z</time>
      </trkpt>
      <trkpt lat="46.759510" lon="14.830864">
        <ele>384.00</ele>
        <time>2012-10-25T09:13:26Z</time>
      </trkpt>
      <trkpt lat="46.759449" lon="14.830870">
        <ele>384.00</ele>
        <time>2012-10-25T09:13:27Z</time>
      </trkpt>
      <trkpt lat="46.759388" lon="14.830872">
        <ele>384.00</ele>
        <time>2012-10-25T09:13:28Z</time>
      </trkpt>
      <trkpt lat="46.759201" lon="14.830866">
        <ele>384.00</ele>
        <time>2012-10-25T09:13:31Z</time>
      </trkpt>
      <trkpt lat="46.758739" lon="14.830832">
        <ele>383.00</ele>
        <time>2012-10-25T09:13:39Z</time>
      </trkpt>
      <trkpt lat="46.758343" lon="14.830767">
        <ele>383.00</ele>
        <time>2012-10-25T09:13:46Z</time>
      </trkpt>
      <trkpt lat="46.758289" lon="14.830758">
        <ele>383.00</ele>
        <time>2012-10-25T09:13:47Z</time>
      </trkpt>
      <trkpt lat="46.757916" lon="14.830643">
        <ele>383.00</ele>
        <time>2012-10-25T09:13:54Z</time>
      </trkpt>
      <trkpt lat="46.757504" lon="14.830458">
        <ele>383.00</ele>
        <time>2012-10-25T09:14:02Z</time>
      </trkpt>
      <trkpt lat="46.757107" lon="14.830219">
        <ele>383.00</ele>
        <time>2012-10-25T09:14:10Z</time>
      </trkpt>
      <trkpt lat="46.756668" lon="14.829899">
        <ele>383.00</ele>
        <time>2012-10-25T09:14:19Z</time>
      </trkpt>
      <trkpt lat="46.756317" lon="14.829666">
        <ele>383.00</ele>
        <time>2012-10-25T09:14:26Z</time>
      </trkpt>
      <trkpt lat="46.755962" lon="14.829475">
        <ele>383.00</ele>
        <time>2012-10-25T09:14:33Z</time>
      </trkpt>
      <trkpt lat="46.755909" lon="14.829453">
        <ele>383.00</ele>
        <time>2012-10-25T09:14:34Z</time>
      </trkpt>
      <trkpt lat="46.755482" lon="14.829270">
        <ele>383.00</ele>
        <time>2012-10-25T09:14:42Z</time>
      </trkpt>
      <trkpt lat="46.754990" lon="14.829111">
        <ele>383.00</ele>
        <time>2012-10-25T09:14:51Z</time>
      </trkpt>
      <trkpt lat="46.754601" lon="14.829028">
        <ele>383.00</ele>
        <time>2012-10-25T09:14:58Z</time>
      </trkpt>
      <trkpt lat="46.754269" lon="14.828973">
        <ele>383.00</ele>
        <time>2012-10-25T09:15:04Z</time>
      </trkpt>
      <trkpt lat="46.754158" lon="14.828957">
        <ele>383.00</ele>
        <time>2012-10-25T09:15:06Z</time>
      </trkpt>
      <trkpt lat="46.753666" lon="14.828807">
        <ele>383.00</ele>
        <time>2012-10-25T09:15:15Z</time>
      </trkpt>
      <trkpt lat="46.753555" lon="14.828794">
        <ele>383.00</ele>
        <time>2012-10-25T09:15:17Z</time>
      </trkpt>
      <trkpt lat="46.753387" lon="14.828798">
        <ele>383.00</ele>
        <time>2012-10-25T09:15:20Z</time>
      </trkpt>
      <trkpt lat="46.753269" lon="14.828814">
        <ele>383.00</ele>
        <time>2012-10-25T09:15:22Z</time>
      </trkpt>
      <trkpt lat="46.753216" lon="14.828819">
        <ele>383.00</ele>
        <time>2012-10-25T09:15:23Z</time>
      </trkpt>
      <trkpt lat="46.753159" lon="14.828823">
        <ele>382.00</ele>
        <time>2012-10-25T09:15:24Z</time>
      </trkpt>
      <trkpt lat="46.753105" lon="14.828829">
        <ele>382.00</ele>
        <time>2012-10-25T09:15:25Z</time>
      </trkpt>
      <trkpt lat="46.753048" lon="14.828828">
        <ele>382.00</ele>
        <time>2012-10-25T09:15:26Z</time>
      </trkpt>
      <trkpt lat="46.752655" lon="14.828803">
        <ele>382.00</ele>
        <time>2012-10-25T09:15:33Z</time>
      </trkpt>
      <trkpt lat="46.752159" lon="14.828755">
        <ele>381.00</ele>
        <time>2012-10-25T09:15:42Z</time>
      </trkpt>
      <trkpt lat="46.751778" lon="14.828721">
        <ele>381.00</ele>
        <time>2012-10-25T09:15:49Z</time>
      </trkpt>
      <trkpt lat="46.751389" lon="14.828715">
        <ele>381.00</ele>
        <time>2012-10-25T09:15:56Z</time>
      </trkpt>
      <trkpt lat="46.750946" lon="14.828745">
        <ele>381.00</ele>
        <time>2012-10-25T09:16:04Z</time>
      </trkpt>
      <trkpt lat="46.750607" lon="14.828786">
        <ele>381.00</ele>
        <time>2012-10-25T09:16:10Z</time>
      </trkpt>
      <trkpt lat="46.750553" lon="14.828796">
        <ele>380.00</ele>
        <time>2012-10-25T09:16:11Z</time>
      </trkpt>
      <trkpt lat="46.750496" lon="14.828810">
        <ele>380.00</ele>
        <time>2012-10-25T09:16:12Z</time>
      </trkpt>
      <trkpt lat="46.750443" lon="14.828823">
        <ele>380.00</ele>
        <time>2012-10-25T09:16:13Z</time>
      </trkpt>
      <trkpt lat="46.750389" lon="14.828837">
        <ele>380.00</ele>
        <time>2012-10-25T09:16:14Z</time>
      </trkpt>
      <trkpt lat="46.750122" lon="14.828922">
        <ele>380.00</ele>
        <time>2012-10-25T09:16:19Z</time>
      </trkpt>
      <trkpt lat="46.749687" lon="14.829094">
        <ele>379.00</ele>
        <time>2012-10-25T09:16:27Z</time>
      </trkpt>
      <trkpt lat="46.749321" lon="14.829270">
        <ele>379.00</ele>
        <time>2012-10-25T09:16:34Z</time>
      </trkpt>
      <trkpt lat="46.748913" lon="14.829494">
        <ele>379.00</ele>
        <time>2012-10-25T09:16:42Z</time>
      </trkpt>
      <trkpt lat="46.748516" lon="14.829783">
        <ele>379.00</ele>
        <time>2012-10-25T09:16:50Z</time>
      </trkpt>
      <trkpt lat="46.748184" lon="14.830065">
        <ele>379.00</ele>
        <time>2012-10-25T09:16:57Z</time>
      </trkpt>
      <trkpt lat="46.747784" lon="14.830437">
        <ele>379.00</ele>
        <time>2012-10-25T09:17:06Z</time>
      </trkpt>
      <trkpt lat="46.747448" lon="14.830792">
        <ele>379.00</ele>
        <time>2012-10-25T09:17:14Z</time>
      </trkpt>
      <trkpt lat="46.747185" lon="14.831118">
        <ele>379.00</ele>
        <time>2012-10-25T09:17:21Z</time>
      </trkpt>
      <trkpt lat="46.746883" lon="14.831519">
        <ele>379.00</ele>
        <time>2012-10-25T09:17:29Z</time>
      </trkpt>
      <trkpt lat="46.746601" lon="14.831961">
        <ele>379.00</ele>
        <time>2012-10-25T09:17:37Z</time>
      </trkpt>
      <trkpt lat="46.746498" lon="14.832138">
        <ele>378.00</ele>
        <time>2012-10-25T09:17:40Z</time>
      </trkpt>
      <trkpt lat="46.746468" lon="14.832195">
        <ele>378.00</ele>
        <time>2012-10-25T09:17:41Z</time>
      </trkpt>
      <trkpt lat="46.746433" lon="14.832250">
        <ele>378.00</ele>
        <time>2012-10-25T09:17:42Z</time>
      </trkpt>
      <trkpt lat="46.746399" lon="14.832307">
        <ele>378.00</ele>
        <time>2012-10-25T09:17:43Z</time>
      </trkpt>
      <trkpt lat="46.746368" lon="14.832362">
        <ele>377.00</ele>
        <time>2012-10-25T09:17:44Z</time>
      </trkpt>
      <trkpt lat="46.746338" lon="14.832424">
        <ele>377.00</ele>
        <time>2012-10-25T09:17:45Z</time>
      </trkpt>
      <trkpt lat="46.746178" lon="14.832725">
        <ele>377.00</ele>
        <time>2012-10-25T09:17:50Z</time>
      </trkpt>
      <trkpt lat="46.745926" lon="14.833199">
        <ele>377.00</ele>
        <time>2012-10-25T09:17:58Z</time>
      </trkpt>
      <trkpt lat="46.745693" lon="14.833606">
        <ele>377.00</ele>
        <time>2012-10-25T09:18:05Z</time>
      </trkpt>
      <trkpt lat="46.745499" lon="14.833958">
        <ele>377.00</ele>
        <time>2012-10-25T09:18:11Z</time>
      </trkpt>
      <trkpt lat="46.745468" lon="14.834019">
        <ele>377.00</ele>
        <time>2012-10-25T09:18:12Z</time>
      </trkpt>
      <trkpt lat="46.745235" lon="14.834440">
        <ele>377.00</ele>
        <time>2012-10-25T09:18:19Z</time>
      </trkpt>
      <trkpt lat="46.745136" lon="14.834616">
        <ele>377.00</ele>
        <time>2012-10-25T09:18:22Z</time>
      </trkpt>
      <trkpt lat="46.744976" lon="14.834918">
        <ele>377.00</ele>
        <time>2012-10-25T09:18:27Z</time>
      </trkpt>
      <trkpt lat="46.744743" lon="14.835345">
        <ele>377.00</ele>
        <time>2012-10-25T09:18:34Z</time>
      </trkpt>
      <trkpt lat="46.744675" lon="14.835459">
        <ele>377.00</ele>
        <time>2012-10-25T09:18:36Z</time>
      </trkpt>
      <trkpt lat="46.744503" lon="14.835741">
        <ele>377.00</ele>
        <time>2012-10-25T09:18:41Z</time>
      </trkpt>
      <trkpt lat="46.744232" lon="14.836195">
        <ele>377.00</ele>
        <time>2012-10-25T09:18:49Z</time>
      </trkpt>
      <trkpt lat="46.744202" lon="14.836261">
        <ele>377.00</ele>
        <time>2012-10-25T09:18:50Z</time>
      </trkpt>
      <trkpt lat="46.743904" lon="14.836894">
        <ele>377.00</ele>
        <time>2012-10-25T09:18:59Z</time>
      </trkpt>
      <trkpt lat="46.743870" lon="14.836966">
        <ele>376.00</ele>
        <time>2012-10-25T09:19:00Z</time>
      </trkpt>
      <trkpt lat="46.743832" lon="14.837044">
        <ele>376.00</ele>
        <time>2012-10-25T09:19:01Z</time>
      </trkpt>
      <trkpt lat="46.743794" lon="14.837118">
        <ele>376.00</ele>
        <time>2012-10-25T09:19:02Z</time>
      </trkpt>
      <trkpt lat="46.743755" lon="14.837193">
        <ele>375.00</ele>
        <time>2012-10-25T09:19:03Z</time>
      </trkpt>
      <trkpt lat="46.743656" lon="14.837419">
        <ele>375.00</ele>
        <time>2012-10-25T09:19:06Z</time>
      </trkpt>
      <trkpt lat="46.743393" lon="14.837873">
        <ele>375.00</ele>
        <time>2012-10-25T09:19:13Z</time>
      </trkpt>
      <trkpt lat="46.743084" lon="14.838434">
        <ele>375.00</ele>
        <time>2012-10-25T09:19:22Z</time>
      </trkpt>
      <trkpt lat="46.742771" lon="14.839008">
        <ele>375.00</ele>
        <time>2012-10-25T09:19:31Z</time>
      </trkpt>
      <trkpt lat="46.742420" lon="14.839661">
        <ele>375.00</ele>
        <time>2012-10-25T09:19:41Z</time>
      </trkpt>
      <trkpt lat="46.742397" lon="14.839731">
        <ele>375.00</ele>
        <time>2012-10-25T09:19:42Z</time>
      </trkpt>
      <trkpt lat="46.742348" lon="14.839949">
        <ele>375.00</ele>
        <time>2012-10-25T09:19:45Z</time>
      </trkpt>
      <trkpt lat="46.742317" lon="14.840029">
        <ele>375.00</ele>
        <time>2012-10-25T09:19:46Z</time>
      </trkpt>
      <trkpt lat="46.742279" lon="14.840116">
        <ele>375.00</ele>
        <time>2012-10-25T09:19:47Z</time>
      </trkpt>
      <trkpt lat="46.742233" lon="14.840195">
        <ele>374.00</ele>
        <time>2012-10-25T09:19:48Z</time>
      </trkpt>
      <trkpt lat="46.742187" lon="14.840281">
        <ele>374.00</ele>
        <time>2012-10-25T09:19:49Z</time>
      </trkpt>
      <trkpt lat="46.742142" lon="14.840354">
        <ele>373.00</ele>
        <time>2012-10-25T09:19:50Z</time>
      </trkpt>
      <trkpt lat="46.742100" lon="14.840418">
        <ele>373.00</ele>
        <time>2012-10-25T09:19:51Z</time>
      </trkpt>
      <trkpt lat="46.742054" lon="14.840467">
        <ele>373.00</ele>
        <time>2012-10-25T09:19:52Z</time>
      </trkpt>
      <trkpt lat="46.742016" lon="14.840513">
        <ele>373.00</ele>
        <time>2012-10-25T09:19:53Z</time>
      </trkpt>
      <trkpt lat="46.741848" lon="14.840685">
        <ele>373.00</ele>
        <time>2012-10-25T09:19:58Z</time>
      </trkpt>
      <trkpt lat="46.741817" lon="14.840734">
        <ele>373.00</ele>
        <time>2012-10-25T09:19:59Z</time>
      </trkpt>
      <trkpt lat="46.741726" lon="14.840899">
        <ele>373.00</ele>
        <time>2012-10-25T09:20:02Z</time>
      </trkpt>
      <trkpt lat="46.741695" lon="14.840961">
        <ele>373.00</ele>
        <time>2012-10-25T09:20:03Z</time>
      </trkpt>
      <trkpt lat="46.741497" lon="14.841319">
        <ele>373.00</ele>
        <time>2012-10-25T09:20:09Z</time>
      </trkpt>
      <trkpt lat="46.741253" lon="14.841756">
        <ele>373.00</ele>
        <time>2012-10-25T09:20:16Z</time>
      </trkpt>
      <trkpt lat="46.741219" lon="14.841821">
        <ele>373.00</ele>
        <time>2012-10-25T09:20:17Z</time>
      </trkpt>
      <trkpt lat="46.740948" lon="14.842328">
        <ele>373.00</ele>
        <time>2012-10-25T09:20:25Z</time>
      </trkpt>
      <trkpt lat="46.740879" lon="14.842451">
        <ele>373.00</ele>
        <time>2012-10-25T09:20:27Z</time>
      </trkpt>
      <trkpt lat="46.740559" lon="14.843010">
        <ele>373.00</ele>
        <time>2012-10-25T09:20:36Z</time>
      </trkpt>
      <trkpt lat="46.740280" lon="14.843518">
        <ele>373.00</ele>
        <time>2012-10-25T09:20:44Z</time>
      </trkpt>
      <trkpt lat="46.740059" lon="14.843871">
        <ele>373.00</ele>
        <time>2012-10-25T09:20:50Z</time>
      </trkpt>
      <trkpt lat="46.739822" lon="14.844218">
        <ele>373.00</ele>
        <time>2012-10-25T09:20:56Z</time>
      </trkpt>
      <trkpt lat="46.739502" lon="14.844557">
        <ele>373.00</ele>
        <time>2012-10-25T09:21:03Z</time>
      </trkpt>
      <trkpt lat="46.739048" lon="14.844886">
        <ele>373.00</ele>
        <time>2012-10-25T09:21:12Z</time>
      </trkpt>
      <trkpt lat="46.738533" lon="14.845158">
        <ele>373.00</ele>
        <time>2012-10-25T09:21:22Z</time>
      </trkpt>
      <trkpt lat="46.738182" lon="14.845353">
        <ele>373.00</ele>
        <time>2012-10-25T09:21:29Z</time>
      </trkpt>
      <trkpt lat="46.738094" lon="14.845426">
        <ele>373.00</ele>
        <time>2012-10-25T09:21:31Z</time>
      </trkpt>
      <trkpt lat="46.737915" lon="14.845606">
        <ele>373.00</ele>
        <time>2012-10-25T09:21:35Z</time>
      </trkpt>
      <trkpt lat="46.737835" lon="14.845700">
        <ele>373.00</ele>
        <time>2012-10-25T09:21:37Z</time>
      </trkpt>
      <trkpt lat="46.737503" lon="14.846059">
        <ele>372.00</ele>
        <time>2012-10-25T09:21:45Z</time>
      </trkpt>
      <trkpt lat="46.737347" lon="14.846267">
        <ele>372.00</ele>
        <time>2012-10-25T09:21:49Z</time>
      </trkpt>
      <trkpt lat="46.737309" lon="14.846319">
        <ele>372.00</ele>
        <time>2012-10-25T09:21:50Z</time>
      </trkpt>
      <trkpt lat="46.737274" lon="14.846373">
        <ele>372.00</ele>
        <time>2012-10-25T09:21:51Z</time>
      </trkpt>
      <trkpt lat="46.737236" lon="14.846424">
        <ele>371.00</ele>
        <time>2012-10-25T09:21:52Z</time>
      </trkpt>
      <trkpt lat="46.737198" lon="14.846474">
        <ele>371.00</ele>
        <time>2012-10-25T09:21:53Z</time>
      </trkpt>
      <trkpt lat="46.737160" lon="14.846527">
        <ele>371.00</ele>
        <time>2012-10-25T09:21:54Z</time>
      </trkpt>
      <trkpt lat="46.737026" lon="14.846761">
        <ele>371.00</ele>
        <time>2012-10-25T09:21:58Z</time>
      </trkpt>
      <trkpt lat="46.736931" lon="14.846933">
        <ele>371.00</ele>
        <time>2012-10-25T09:22:01Z</time>
      </trkpt>
      <trkpt lat="46.736679" lon="14.847398">
        <ele>371.00</ele>
        <time>2012-10-25T09:22:09Z</time>
      </trkpt>
      <trkpt lat="46.736397" lon="14.847840">
        <ele>371.00</ele>
        <time>2012-10-25T09:22:17Z</time>
      </trkpt>
      <trkpt lat="46.736118" lon="14.848156">
        <ele>371.00</ele>
        <time>2012-10-25T09:22:24Z</time>
      </trkpt>
      <trkpt lat="46.735752" lon="14.848513">
        <ele>371.00</ele>
        <time>2012-10-25T09:22:33Z</time>
      </trkpt>
      <trkpt lat="46.735458" lon="14.848784">
        <ele>371.00</ele>
        <time>2012-10-25T09:22:40Z</time>
      </trkpt>
      <trkpt lat="46.735210" lon="14.849022">
        <ele>371.00</ele>
        <time>2012-10-25T09:22:46Z</time>
      </trkpt>
      <trkpt lat="46.735168" lon="14.849052">
        <ele>371.00</ele>
        <time>2012-10-25T09:22:47Z</time>
      </trkpt>
      <trkpt lat="46.734768" lon="14.849372">
        <ele>371.00</ele>
        <time>2012-10-25T09:22:56Z</time>
      </trkpt>
      <trkpt lat="46.734417" lon="14.849689">
        <ele>371.00</ele>
        <time>2012-10-25T09:23:04Z</time>
      </trkpt>
      <trkpt lat="46.734085" lon="14.850022">
        <ele>371.00</ele>
        <time>2012-10-25T09:23:12Z</time>
      </trkpt>
      <trkpt lat="46.734005" lon="14.850112">
        <ele>371.00</ele>
        <time>2012-10-25T09:23:14Z</time>
      </trkpt>
      <trkpt lat="46.733578" lon="14.850563">
        <ele>371.00</ele>
        <time>2012-10-25T09:23:24Z</time>
      </trkpt>
      <trkpt lat="46.733170" lon="14.850990">
        <ele>371.00</ele>
        <time>2012-10-25T09:23:33Z</time>
      </trkpt>
      <trkpt lat="46.732777" lon="14.851406">
        <ele>371.00</ele>
        <time>2012-10-25T09:23:42Z</time>
      </trkpt>
      <trkpt lat="46.732559" lon="14.851644">
        <ele>371.00</ele>
        <time>2012-10-25T09:23:47Z</time>
      </trkpt>
      <trkpt lat="46.732475" lon="14.851748">
        <ele>371.00</ele>
        <time>2012-10-25T09:23:49Z</time>
      </trkpt>
      <trkpt lat="46.732121" lon="14.852108">
        <ele>371.00</ele>
        <time>2012-10-25T09:23:57Z</time>
      </trkpt>
      <trkpt lat="46.731949" lon="14.852295">
        <ele>371.00</ele>
        <time>2012-10-25T09:24:01Z</time>
      </trkpt>
      <trkpt lat="46.731819" lon="14.852435">
        <ele>371.00</ele>
        <time>2012-10-25T09:24:04Z</time>
      </trkpt>
      <trkpt lat="46.731770" lon="14.852474">
        <ele>371.00</ele>
        <time>2012-10-25T09:24:05Z</time>
      </trkpt>
      <trkpt lat="46.731552" lon="14.852585">
        <ele>371.00</ele>
        <time>2012-10-25T09:24:09Z</time>
      </trkpt>
      <trkpt lat="46.731495" lon="14.852593">
        <ele>371.00</ele>
        <time>2012-10-25T09:24:10Z</time>
      </trkpt>
      <trkpt lat="46.731381" lon="14.852597">
        <ele>370.00</ele>
        <time>2012-10-25T09:24:12Z</time>
      </trkpt>
      <trkpt lat="46.731323" lon="14.852592">
        <ele>370.00</ele>
        <time>2012-10-25T09:24:13Z</time>
      </trkpt>
      <trkpt lat="46.731266" lon="14.852590">
        <ele>370.00</ele>
        <time>2012-10-25T09:24:14Z</time>
      </trkpt>
      <trkpt lat="46.731209" lon="14.852584">
        <ele>369.00</ele>
        <time>2012-10-25T09:24:15Z</time>
      </trkpt>
      <trkpt lat="46.731155" lon="14.852573">
        <ele>369.00</ele>
        <time>2012-10-25T09:24:16Z</time>
      </trkpt>
      <trkpt lat="46.731098" lon="14.852555">
        <ele>369.00</ele>
        <time>2012-10-25T09:24:17Z</time>
      </trkpt>
      <trkpt lat="46.730942" lon="14.852490">
        <ele>369.00</ele>
        <time>2012-10-25T09:24:20Z</time>
      </trkpt>
      <trkpt lat="46.730545" lon="14.852257">
        <ele>369.00</ele>
        <time>2012-10-25T09:24:28Z</time>
      </trkpt>
      <trkpt lat="46.730099" lon="14.851995">
        <ele>369.00</ele>
        <time>2012-10-25T09:24:37Z</time>
      </trkpt>
      <trkpt lat="46.729694" lon="14.851764">
        <ele>369.00</ele>
        <time>2012-10-25T09:24:45Z</time>
      </trkpt>
      <trkpt lat="46.729588" lon="14.851747">
        <ele>369.00</ele>
        <time>2012-10-25T09:24:47Z</time>
      </trkpt>
      <trkpt lat="46.729420" lon="14.851765">
        <ele>369.00</ele>
        <time>2012-10-25T09:24:50Z</time>
      </trkpt>
      <trkpt lat="46.729370" lon="14.851787">
        <ele>369.00</ele>
        <time>2012-10-25T09:24:51Z</time>
      </trkpt>
      <trkpt lat="46.729225" lon="14.851892">
        <ele>369.00</ele>
        <time>2012-10-25T09:24:54Z</time>
      </trkpt>
      <trkpt lat="46.729134" lon="14.851990">
        <ele>369.00</ele>
        <time>2012-10-25T09:24:56Z</time>
      </trkpt>
      <trkpt lat="46.729095" lon="14.852043">
        <ele>369.00</ele>
        <time>2012-10-25T09:24:57Z</time>
      </trkpt>
      <trkpt lat="46.729031" lon="14.852164">
        <ele>369.00</ele>
        <time>2012-10-25T09:24:59Z</time>
      </trkpt>
      <trkpt lat="46.728928" lon="14.852520">
        <ele>369.00</ele>
        <time>2012-10-25T09:25:04Z</time>
      </trkpt>
      <trkpt lat="46.728916" lon="14.852594">
        <ele>369.00</ele>
        <time>2012-10-25T09:25:05Z</time>
      </trkpt>
      <trkpt lat="46.728840" lon="14.853193">
        <ele>369.00</ele>
        <time>2012-10-25T09:25:13Z</time>
      </trkpt>
      <trkpt lat="46.728821" lon="14.853261">
        <ele>369.00</ele>
        <time>2012-10-25T09:25:14Z</time>
      </trkpt>
      <trkpt lat="46.728703" lon="14.853502">
        <ele>369.00</ele>
        <time>2012-10-25T09:25:18Z</time>
      </trkpt>
      <trkpt lat="46.728497" lon="14.853703">
        <ele>369.00</ele>
        <time>2012-10-25T09:25:23Z</time>
      </trkpt>
      <trkpt lat="46.728355" lon="14.853770">
        <ele>369.00</ele>
        <time>2012-10-25T09:25:26Z</time>
      </trkpt>
      <trkpt lat="46.728256" lon="14.853792">
        <ele>369.00</ele>
        <time>2012-10-25T09:25:28Z</time>
      </trkpt>
      <trkpt lat="46.727909" lon="14.853776">
        <ele>369.00</ele>
        <time>2012-10-25T09:25:35Z</time>
      </trkpt>
      <trkpt lat="46.727562" lon="14.853758">
        <ele>369.00</ele>
        <time>2012-10-25T09:25:42Z</time>
      </trkpt>
      <trkpt lat="46.727306" lon="14.853696">
        <ele>368.00</ele>
        <time>2012-10-25T09:25:47Z</time>
      </trkpt>
      <trkpt lat="46.727253" lon="14.853712">
        <ele>368.00</ele>
        <time>2012-10-25T09:25:48Z</time>
      </trkpt>
      <trkpt lat="46.727207" lon="14.853745">
        <ele>368.00</ele>
        <time>2012-10-25T09:25:49Z</time>
      </trkpt>
      <trkpt lat="46.727161" lon="14.853782">
        <ele>368.00</ele>
        <time>2012-10-25T09:25:50Z</time>
      </trkpt>
      <trkpt lat="46.727116" lon="14.853827">
        <ele>367.00</ele>
        <time>2012-10-25T09:25:51Z</time>
      </trkpt>
      <trkpt lat="46.727074" lon="14.853866">
        <ele>367.00</ele>
        <time>2012-10-25T09:25:52Z</time>
      </trkpt>
      <trkpt lat="46.726765" lon="14.854094">
        <ele>367.00</ele>
        <time>2012-10-25T09:25:59Z</time>
      </trkpt>
      <trkpt lat="46.726479" lon="14.854381">
        <ele>367.00</ele>
        <time>2012-10-25T09:26:06Z</time>
      </trkpt>
      <trkpt lat="46.726337" lon="14.854575">
        <ele>367.00</ele>
        <time>2012-10-25T09:26:10Z</time>
      </trkpt>
      <trkpt lat="46.726231" lon="14.854729">
        <ele>367.00</ele>
        <time>2012-10-25T09:26:13Z</time>
      </trkpt>
      <trkpt lat="46.726006" lon="14.855215">
        <ele>367.00</ele>
        <time>2012-10-25T09:26:21Z</time>
      </trkpt>
      <trkpt lat="46.725910" lon="14.855741">
        <ele>367.00</ele>
        <time>2012-10-25T09:26:28Z</time>
      </trkpt>
      <trkpt lat="46.725788" lon="14.856257">
        <ele>367.00</ele>
        <time>2012-10-25T09:26:35Z</time>
      </trkpt>
      <trkpt lat="46.725586" lon="14.856801">
        <ele>367.00</ele>
        <time>2012-10-25T09:26:43Z</time>
      </trkpt>
      <trkpt lat="46.725399" lon="14.857309">
        <ele>366.00</ele>
        <time>2012-10-25T09:26:50Z</time>
      </trkpt>
      <trkpt lat="46.725265" lon="14.857791">
        <ele>366.00</ele>
        <time>2012-10-25T09:26:56Z</time>
      </trkpt>
      <trkpt lat="46.725239" lon="14.857881">
        <ele>366.00</ele>
        <time>2012-10-25T09:26:57Z</time>
      </trkpt>
      <trkpt lat="46.725204" lon="14.857967">
        <ele>365.00</ele>
        <time>2012-10-25T09:26:58Z</time>
      </trkpt>
      <trkpt lat="46.725174" lon="14.858052">
        <ele>365.00</ele>
        <time>2012-10-25T09:26:59Z</time>
      </trkpt>
      <trkpt lat="46.725147" lon="14.858137">
        <ele>365.00</ele>
        <time>2012-10-25T09:27:00Z</time>
      </trkpt>
      <trkpt lat="46.725040" lon="14.858486">
        <ele>365.00</ele>
        <time>2012-10-25T09:27:04Z</time>
      </trkpt>
      <trkpt lat="46.724953" lon="14.858723">
        <ele>365.00</ele>
        <time>2012-10-25T09:27:07Z</time>
      </trkpt>
      <trkpt lat="46.724815" lon="14.858799">
        <ele>365.00</ele>
        <time>2012-10-25T09:27:10Z</time>
      </trkpt>
      <trkpt lat="46.724693" lon="14.858703">
        <ele>365.00</ele>
        <time>2012-10-25T09:27:13Z</time>
      </trkpt>
      <trkpt lat="46.724617" lon="14.858650">
        <ele>365.00</ele>
        <time>2012-10-25T09:27:15Z</time>
      </trkpt>
      <trkpt lat="46.724400" lon="14.858540">
        <ele>365.00</ele>
        <time>2012-10-25T09:27:20Z</time>
      </trkpt>
      <trkpt lat="46.724304" lon="14.858534">
        <ele>365.00</ele>
        <time>2012-10-25T09:27:22Z</time>
      </trkpt>
      <trkpt lat="46.724159" lon="14.858569">
        <ele>365.00</ele>
        <time>2012-10-25T09:27:25Z</time>
      </trkpt>
      <trkpt lat="46.724110" lon="14.858589">
        <ele>365.00</ele>
        <time>2012-10-25T09:27:26Z</time>
      </trkpt>
      <trkpt lat="46.723774" lon="14.858698">
        <ele>365.00</ele>
        <time>2012-10-25T09:27:33Z</time>
      </trkpt>
      <trkpt lat="46.723522" lon="14.858791">
        <ele>365.00</ele>
        <time>2012-10-25T09:27:38Z</time>
      </trkpt>
      <trkpt lat="46.723370" lon="14.858839">
        <ele>365.00</ele>
        <time>2012-10-25T09:27:41Z</time>
      </trkpt>
      <trkpt lat="46.722961" lon="14.858987">
        <ele>365.00</ele>
        <time>2012-10-25T09:27:49Z</time>
      </trkpt>
      <trkpt lat="46.722622" lon="14.859169">
        <ele>365.00</ele>
        <time>2012-10-25T09:27:56Z</time>
      </trkpt>
      <trkpt lat="46.722263" lon="14.859438">
        <ele>365.00</ele>
        <time>2012-10-25T09:28:04Z</time>
      </trkpt>
      <trkpt lat="46.721954" lon="14.859690">
        <ele>365.00</ele>
        <time>2012-10-25T09:28:11Z</time>
      </trkpt>
      <trkpt lat="46.721897" lon="14.859710">
        <ele>365.00</ele>
        <time>2012-10-25T09:28:12Z</time>
      </trkpt>
      <trkpt lat="46.721741" lon="14.859768">
        <ele>365.00</ele>
        <time>2012-10-25T09:28:15Z</time>
      </trkpt>
      <trkpt lat="46.721619" lon="14.859947">
        <ele>364.00</ele>
        <time>2012-10-25T09:28:18Z</time>
      </trkpt>
      <trkpt lat="46.721340" lon="14.860376">
        <ele>364.00</ele>
        <time>2012-10-25T09:28:25Z</time>
      </trkpt>
      <trkpt lat="46.721252" lon="14.860476">
        <ele>364.00</ele>
        <time>2012-10-25T09:28:27Z</time>
      </trkpt>
      <trkpt lat="46.721214" lon="14.860527">
        <ele>364.00</ele>
        <time>2012-10-25T09:28:28Z</time>
      </trkpt>
      <trkpt lat="46.721176" lon="14.860576">
        <ele>363.00</ele>
        <time>2012-10-25T09:28:29Z</time>
      </trkpt>
      <trkpt lat="46.721134" lon="14.860623">
        <ele>363.00</ele>
        <time>2012-10-25T09:28:30Z</time>
      </trkpt>
      <trkpt lat="46.721096" lon="14.860667">
        <ele>363.00</ele>
        <time>2012-10-25T09:28:31Z</time>
      </trkpt>
      <trkpt lat="46.720928" lon="14.860834">
        <ele>363.00</ele>
        <time>2012-10-25T09:28:35Z</time>
      </trkpt>
      <trkpt lat="46.720818" lon="14.860923">
        <ele>362.00</ele>
        <time>2012-10-25T09:28:38Z</time>
      </trkpt>
      <trkpt lat="46.720692" lon="14.860979">
        <ele>362.00</ele>
        <time>2012-10-25T09:28:43Z</time>
      </trkpt>
      <trkpt lat="46.720650" lon="14.861026">
        <ele>362.00</ele>
        <time>2012-10-25T09:28:45Z</time>
      </trkpt>
      <trkpt lat="46.720615" lon="14.861074">
        <ele>362.00</ele>
        <time>2012-10-25T09:28:47Z</time>
      </trkpt>
      <trkpt lat="46.720570" lon="14.861124">
        <ele>362.00</ele>
        <time>2012-10-25T09:28:49Z</time>
      </trkpt>
      <trkpt lat="46.720486" lon="14.861252">
        <ele>362.00</ele>
        <time>2012-10-25T09:28:52Z</time>
      </trkpt>
      <trkpt lat="46.720451" lon="14.861293">
        <ele>362.00</ele>
        <time>2012-10-25T09:28:53Z</time>
      </trkpt>
      <trkpt lat="46.720272" lon="14.861527">
        <ele>362.00</ele>
        <time>2012-10-25T09:28:58Z</time>
      </trkpt>
      <trkpt lat="46.719994" lon="14.861829">
        <ele>362.00</ele>
        <time>2012-10-25T09:29:05Z</time>
      </trkpt>
      <trkpt lat="46.719700" lon="14.862128">
        <ele>362.00</ele>
        <time>2012-10-25T09:29:12Z</time>
      </trkpt>
      <trkpt lat="46.719391" lon="14.862425">
        <ele>362.00</ele>
        <time>2012-10-25T09:29:19Z</time>
      </trkpt>
      <trkpt lat="46.719070" lon="14.862667">
        <ele>362.00</ele>
        <time>2012-10-25T09:29:26Z</time>
      </trkpt>
      <trkpt lat="46.718594" lon="14.862906">
        <ele>362.00</ele>
        <time>2012-10-25T09:29:36Z</time>
      </trkpt>
      <trkpt lat="46.718201" lon="14.863099">
        <ele>362.00</ele>
        <time>2012-10-25T09:29:44Z</time>
      </trkpt>
      <trkpt lat="46.717854" lon="14.863252">
        <ele>362.00</ele>
        <time>2012-10-25T09:29:51Z</time>
      </trkpt>
      <trkpt lat="46.717491" lon="14.863385">
        <ele>362.00</ele>
        <time>2012-10-25T09:29:58Z</time>
      </trkpt>
      <trkpt lat="46.716972" lon="14.863542">
        <ele>362.00</ele>
        <time>2012-10-25T09:30:08Z</time>
      </trkpt>
      <trkpt lat="46.716721" lon="14.863613">
        <ele>362.00</ele>
        <time>2012-10-25T09:30:13Z</time>
      </trkpt>
      <trkpt lat="46.716675" lon="14.863626">
        <ele>361.00</ele>
        <time>2012-10-25T09:30:14Z</time>
      </trkpt>
      <trkpt lat="46.716621" lon="14.863641">
        <ele>361.00</ele>
        <time>2012-10-25T09:30:15Z</time>
      </trkpt>
      <trkpt lat="46.716572" lon="14.863658">
        <ele>361.00</ele>
        <time>2012-10-25T09:30:16Z</time>
      </trkpt>
      <trkpt lat="46.716522" lon="14.863670">
        <ele>361.00</ele>
        <time>2012-10-25T09:30:17Z</time>
      </trkpt>
      <trkpt lat="46.716221" lon="14.863770">
        <ele>361.00</ele>
        <time>2012-10-25T09:30:23Z</time>
      </trkpt>
      <trkpt lat="46.715874" lon="14.863955">
        <ele>360.00</ele>
        <time>2012-10-25T09:30:30Z</time>
      </trkpt>
      <trkpt lat="46.715546" lon="14.864200">
        <ele>360.00</ele>
        <time>2012-10-25T09:30:37Z</time>
      </trkpt>
      <trkpt lat="46.715500" lon="14.864231">
        <ele>360.00</ele>
        <time>2012-10-25T09:30:38Z</time>
      </trkpt>
      <trkpt lat="46.715145" lon="14.864556">
        <ele>360.00</ele>
        <time>2012-10-25T09:30:46Z</time>
      </trkpt>
      <trkpt lat="46.714897" lon="14.864864">
        <ele>360.00</ele>
        <time>2012-10-25T09:30:52Z</time>
      </trkpt>
      <trkpt lat="46.714577" lon="14.865390">
        <ele>360.00</ele>
        <time>2012-10-25T09:31:01Z</time>
      </trkpt>
      <trkpt lat="46.714352" lon="14.865808">
        <ele>360.00</ele>
        <time>2012-10-25T09:31:08Z</time>
      </trkpt>
      <trkpt lat="46.714180" lon="14.866282">
        <ele>360.00</ele>
        <time>2012-10-25T09:31:15Z</time>
      </trkpt>
      <trkpt lat="46.713997" lon="14.866921">
        <ele>360.00</ele>
        <time>2012-10-25T09:31:24Z</time>
      </trkpt>
      <trkpt lat="46.713810" lon="14.867482">
        <ele>360.00</ele>
        <time>2012-10-25T09:31:32Z</time>
      </trkpt>
      <trkpt lat="46.713585" lon="14.868003">
        <ele>360.00</ele>
        <time>2012-10-25T09:31:40Z</time>
      </trkpt>
      <trkpt lat="46.713356" lon="14.868438">
        <ele>360.00</ele>
        <time>2012-10-25T09:31:47Z</time>
      </trkpt>
      <trkpt lat="46.713085" lon="14.868829">
        <ele>360.00</ele>
        <time>2012-10-25T09:31:54Z</time>
      </trkpt>
      <trkpt lat="46.712799" lon="14.869191">
        <ele>360.00</ele>
        <time>2012-10-25T09:32:01Z</time>
      </trkpt>
      <trkpt lat="46.712627" lon="14.869385">
        <ele>360.00</ele>
        <time>2012-10-25T09:32:05Z</time>
      </trkpt>
      <trkpt lat="46.712490" lon="14.869511">
        <ele>360.00</ele>
        <time>2012-10-25T09:32:08Z</time>
      </trkpt>
      <trkpt lat="46.712112" lon="14.869804">
        <ele>360.00</ele>
        <time>2012-10-25T09:32:16Z</time>
      </trkpt>
      <trkpt lat="46.711750" lon="14.870017">
        <ele>360.00</ele>
        <time>2012-10-25T09:32:23Z</time>
      </trkpt>
      <trkpt lat="46.711319" lon="14.870172">
        <ele>360.00</ele>
        <time>2012-10-25T09:32:31Z</time>
      </trkpt>
      <trkpt lat="46.710896" lon="14.870259">
        <ele>360.00</ele>
        <time>2012-10-25T09:32:39Z</time>
      </trkpt>
      <trkpt lat="46.710522" lon="14.870241">
        <ele>360.00</ele>
        <time>2012-10-25T09:32:46Z</time>
      </trkpt>
      <trkpt lat="46.709999" lon="14.870160">
        <ele>360.00</ele>
        <time>2012-10-25T09:32:56Z</time>
      </trkpt>
      <trkpt lat="46.709785" lon="14.870136">
        <ele>360.00</ele>
        <time>2012-10-25T09:33:00Z</time>
      </trkpt>
      <trkpt lat="46.709686" lon="14.870137">
        <ele>360.00</ele>
        <time>2012-10-25T09:33:02Z</time>
      </trkpt>
      <trkpt lat="46.709530" lon="14.870132">
        <ele>360.00</ele>
        <time>2012-10-25T09:33:05Z</time>
      </trkpt>
      <trkpt lat="46.709480" lon="14.870135">
        <ele>359.00</ele>
        <time>2012-10-25T09:33:06Z</time>
      </trkpt>
      <trkpt lat="46.709423" lon="14.870147">
        <ele>359.00</ele>
        <time>2012-10-25T09:33:07Z</time>
      </trkpt>
      <trkpt lat="46.709373" lon="14.870155">
        <ele>359.00</ele>
        <time>2012-10-25T09:33:08Z</time>
      </trkpt>
      <trkpt lat="46.709320" lon="14.870166">
        <ele>359.00</ele>
        <time>2012-10-25T09:33:09Z</time>
      </trkpt>
      <trkpt lat="46.709011" lon="14.870235">
        <ele>358.00</ele>
        <time>2012-10-25T09:33:15Z</time>
      </trkpt>
      <trkpt lat="46.708813" lon="14.870284">
        <ele>358.00</ele>
        <time>2012-10-25T09:33:19Z</time>
      </trkpt>
      <trkpt lat="46.708660" lon="14.870345">
        <ele>358.00</ele>
        <time>2012-10-25T09:33:22Z</time>
      </trkpt>
      <trkpt lat="46.708244" lon="14.870594">
        <ele>358.00</ele>
        <time>2012-10-25T09:33:30Z</time>
      </trkpt>
      <trkpt lat="46.708054" lon="14.870718">
        <ele>358.00</ele>
        <time>2012-10-25T09:33:34Z</time>
      </trkpt>
      <trkpt lat="46.707973" lon="14.870776">
        <ele>358.00</ele>
        <time>2012-10-25T09:33:36Z</time>
      </trkpt>
      <trkpt lat="46.707832" lon="14.870885">
        <ele>358.00</ele>
        <time>2012-10-25T09:33:40Z</time>
      </trkpt>
      <trkpt lat="46.707775" lon="14.870915">
        <ele>358.00</ele>
        <time>2012-10-25T09:33:42Z</time>
      </trkpt>
      <trkpt lat="46.707733" lon="14.870924">
        <ele>358.00</ele>
        <time>2012-10-25T09:33:46Z</time>
      </trkpt>
      <trkpt lat="46.707676" lon="14.870946">
        <ele>358.00</ele>
        <time>2012-10-25T09:33:52Z</time>
      </trkpt>
      <trkpt lat="46.707630" lon="14.871017">
        <ele>358.00</ele>
        <time>2012-10-25T09:33:57Z</time>
      </trkpt>
      <trkpt lat="46.707561" lon="14.871129">
        <ele>358.00</ele>
        <time>2012-10-25T09:34:01Z</time>
      </trkpt>
      <trkpt lat="46.707520" lon="14.871191">
        <ele>358.00</ele>
        <time>2012-10-25T09:34:03Z</time>
      </trkpt>
      <trkpt lat="46.707409" lon="14.871325">
        <ele>358.00</ele>
        <time>2012-10-25T09:34:07Z</time>
      </trkpt>
      <trkpt lat="46.707344" lon="14.871410">
        <ele>358.00</ele>
        <time>2012-10-25T09:34:09Z</time>
      </trkpt>
      <trkpt lat="46.707127" lon="14.871772">
        <ele>358.00</ele>
        <time>2012-10-25T09:34:16Z</time>
      </trkpt>
      <trkpt lat="46.707096" lon="14.871827">
        <ele>358.00</ele>
        <time>2012-10-25T09:34:17Z</time>
      </trkpt>
      <trkpt lat="46.706940" lon="14.872116">
        <ele>358.00</ele>
        <time>2012-10-25T09:34:22Z</time>
      </trkpt>
      <trkpt lat="46.706650" lon="14.872559">
        <ele>358.00</ele>
        <time>2012-10-25T09:34:30Z</time>
      </trkpt>
      <trkpt lat="46.706402" lon="14.872889">
        <ele>358.00</ele>
        <time>2012-10-25T09:34:36Z</time>
      </trkpt>
      <trkpt lat="46.706173" lon="14.873303">
        <ele>358.00</ele>
        <time>2012-10-25T09:34:42Z</time>
      </trkpt>
      <trkpt lat="46.706028" lon="14.873672">
        <ele>358.00</ele>
        <time>2012-10-25T09:34:47Z</time>
      </trkpt>
      <trkpt lat="46.705944" lon="14.873986">
        <ele>357.00</ele>
        <time>2012-10-25T09:34:51Z</time>
      </trkpt>
      <trkpt lat="46.705925" lon="14.874064">
        <ele>357.00</ele>
        <time>2012-10-25T09:34:52Z</time>
      </trkpt>
      <trkpt lat="46.705906" lon="14.874146">
        <ele>357.00</ele>
        <time>2012-10-25T09:34:53Z</time>
      </trkpt>
      <trkpt lat="46.705891" lon="14.874222">
        <ele>357.00</ele>
        <time>2012-10-25T09:34:54Z</time>
      </trkpt>
      <trkpt lat="46.705784" lon="14.874660">
        <ele>356.00</ele>
        <time>2012-10-25T09:35:00Z</time>
      </trkpt>
      <trkpt lat="46.705647" lon="14.875179">
        <ele>356.00</ele>
        <time>2012-10-25T09:35:07Z</time>
      </trkpt>
      <trkpt lat="46.705429" lon="14.875802">
        <ele>356.00</ele>
        <time>2012-10-25T09:35:16Z</time>
      </trkpt>
      <trkpt lat="46.705158" lon="14.876388">
        <ele>356.00</ele>
        <time>2012-10-25T09:35:25Z</time>
      </trkpt>
      <trkpt lat="46.704868" lon="14.876840">
        <ele>356.00</ele>
        <time>2012-10-25T09:35:33Z</time>
      </trkpt>
      <trkpt lat="46.704586" lon="14.877189">
        <ele>356.00</ele>
        <time>2012-10-25T09:35:40Z</time>
      </trkpt>
      <trkpt lat="46.704208" lon="14.877602">
        <ele>356.00</ele>
        <time>2012-10-25T09:35:49Z</time>
      </trkpt>
      <trkpt lat="46.704029" lon="14.877704">
        <ele>356.00</ele>
        <time>2012-10-25T09:35:53Z</time>
      </trkpt>
      <trkpt lat="46.703869" lon="14.877908">
        <ele>356.00</ele>
        <time>2012-10-25T09:35:57Z</time>
      </trkpt>
      <trkpt lat="46.703663" lon="14.878224">
        <ele>356.00</ele>
        <time>2012-10-25T09:36:02Z</time>
      </trkpt>
      <trkpt lat="46.703617" lon="14.878283">
        <ele>355.00</ele>
        <time>2012-10-25T09:36:03Z</time>
      </trkpt>
      <trkpt lat="46.703571" lon="14.878337">
        <ele>355.00</ele>
        <time>2012-10-25T09:36:04Z</time>
      </trkpt>
      <trkpt lat="46.703526" lon="14.878391">
        <ele>355.00</ele>
        <time>2012-10-25T09:36:05Z</time>
      </trkpt>
      <trkpt lat="46.703243" lon="14.878695">
        <ele>354.00</ele>
        <time>2012-10-25T09:36:11Z</time>
      </trkpt>
      <trkpt lat="46.702908" lon="14.879023">
        <ele>354.00</ele>
        <time>2012-10-25T09:36:18Z</time>
      </trkpt>
      <trkpt lat="46.702580" lon="14.879363">
        <ele>354.00</ele>
        <time>2012-10-25T09:36:25Z</time>
      </trkpt>
      <trkpt lat="46.702358" lon="14.879627">
        <ele>354.00</ele>
        <time>2012-10-25T09:36:31Z</time>
      </trkpt>
      <trkpt lat="46.702213" lon="14.879874">
        <ele>354.00</ele>
        <time>2012-10-25T09:36:37Z</time>
      </trkpt>
      <trkpt lat="46.701984" lon="14.880322">
        <ele>354.00</ele>
        <time>2012-10-25T09:36:45Z</time>
      </trkpt>
      <trkpt lat="46.701767" lon="14.880896">
        <ele>354.00</ele>
        <time>2012-10-25T09:36:54Z</time>
      </trkpt>
      <trkpt lat="46.701607" lon="14.881315">
        <ele>354.00</ele>
        <time>2012-10-25T09:37:01Z</time>
      </trkpt>
      <trkpt lat="46.701591" lon="14.881378">
        <ele>354.00</ele>
        <time>2012-10-25T09:37:02Z</time>
      </trkpt>
      <trkpt lat="46.701527" lon="14.881742">
        <ele>354.00</ele>
        <time>2012-10-25T09:37:07Z</time>
      </trkpt>
      <trkpt lat="46.701386" lon="14.882376">
        <ele>354.00</ele>
        <time>2012-10-25T09:37:15Z</time>
      </trkpt>
      <trkpt lat="46.701275" lon="14.882915">
        <ele>354.00</ele>
        <time>2012-10-25T09:37:21Z</time>
      </trkpt>
      <trkpt lat="46.701153" lon="14.883559">
        <ele>354.00</ele>
        <time>2012-10-25T09:37:28Z</time>
      </trkpt>
      <trkpt lat="46.701073" lon="14.883911">
        <ele>353.00</ele>
        <time>2012-10-25T09:37:32Z</time>
      </trkpt>
      <trkpt lat="46.701054" lon="14.883997">
        <ele>353.00</ele>
        <time>2012-10-25T09:37:33Z</time>
      </trkpt>
      <trkpt lat="46.701035" lon="14.884080">
        <ele>353.00</ele>
        <time>2012-10-25T09:37:34Z</time>
      </trkpt>
      <trkpt lat="46.701015" lon="14.884164">
        <ele>353.00</ele>
        <time>2012-10-25T09:37:35Z</time>
      </trkpt>
      <trkpt lat="46.701000" lon="14.884246">
        <ele>353.00</ele>
        <time>2012-10-25T09:37:36Z</time>
      </trkpt>
      <trkpt lat="46.700851" lon="14.884882">
        <ele>352.00</ele>
        <time>2012-10-25T09:37:44Z</time>
      </trkpt>
      <trkpt lat="46.700726" lon="14.885445">
        <ele>352.00</ele>
        <time>2012-10-25T09:37:51Z</time>
      </trkpt>
      <trkpt lat="46.700680" lon="14.885693">
        <ele>352.00</ele>
        <time>2012-10-25T09:37:54Z</time>
      </trkpt>
      <trkpt lat="46.700581" lon="14.886451">
        <ele>352.00</ele>
        <time>2012-10-25T09:38:03Z</time>
      </trkpt>
      <trkpt lat="46.700535" lon="14.887033">
        <ele>352.00</ele>
        <time>2012-10-25T09:38:10Z</time>
      </trkpt>
      <trkpt lat="46.700531" lon="14.887711">
        <ele>352.00</ele>
        <time>2012-10-25T09:38:18Z</time>
      </trkpt>
      <trkpt lat="46.700562" lon="14.888306">
        <ele>352.00</ele>
        <time>2012-10-25T09:38:25Z</time>
      </trkpt>
      <trkpt lat="46.700623" lon="14.888907">
        <ele>352.00</ele>
        <time>2012-10-25T09:38:32Z</time>
      </trkpt>
      <trkpt lat="46.700745" lon="14.889651">
        <ele>352.00</ele>
        <time>2012-10-25T09:38:41Z</time>
      </trkpt>
      <trkpt lat="46.700893" lon="14.890394">
        <ele>352.00</ele>
        <time>2012-10-25T09:38:50Z</time>
      </trkpt>
      <trkpt lat="46.700981" lon="14.890967">
        <ele>352.00</ele>
        <time>2012-10-25T09:38:57Z</time>
      </trkpt>
      <trkpt lat="46.700993" lon="14.891047">
        <ele>352.00</ele>
        <time>2012-10-25T09:38:58Z</time>
      </trkpt>
      <trkpt lat="46.701000" lon="14.891126">
        <ele>351.00</ele>
        <time>2012-10-25T09:38:59Z</time>
      </trkpt>
      <trkpt lat="46.701008" lon="14.891206">
        <ele>351.00</ele>
        <time>2012-10-25T09:39:00Z</time>
      </trkpt>
      <trkpt lat="46.701019" lon="14.891287">
        <ele>351.00</ele>
        <time>2012-10-25T09:39:01Z</time>
      </trkpt>
      <trkpt lat="46.701023" lon="14.891364">
        <ele>350.00</ele>
        <time>2012-10-25T09:39:02Z</time>
      </trkpt>
      <trkpt lat="46.701042" lon="14.891609">
        <ele>350.00</ele>
        <time>2012-10-25T09:39:05Z</time>
      </trkpt>
      <trkpt lat="46.701073" lon="14.892209">
        <ele>350.00</ele>
        <time>2012-10-25T09:39:12Z</time>
      </trkpt>
      <trkpt lat="46.701054" lon="14.892971">
        <ele>350.00</ele>
        <time>2012-10-25T09:39:21Z</time>
      </trkpt>
      <trkpt lat="46.700977" lon="14.893723">
        <ele>350.00</ele>
        <time>2012-10-25T09:39:30Z</time>
      </trkpt>
      <trkpt lat="46.700867" lon="14.894375">
        <ele>350.00</ele>
        <time>2012-10-25T09:39:38Z</time>
      </trkpt>
      <trkpt lat="46.700760" lon="14.894862">
        <ele>350.00</ele>
        <time>2012-10-25T09:39:44Z</time>
      </trkpt>
      <trkpt lat="46.700714" lon="14.895018">
        <ele>350.00</ele>
        <time>2012-10-25T09:39:46Z</time>
      </trkpt>
      <trkpt lat="46.700558" lon="14.895567">
        <ele>350.00</ele>
        <time>2012-10-25T09:39:53Z</time>
      </trkpt>
      <trkpt lat="46.700356" lon="14.896267">
        <ele>350.00</ele>
        <time>2012-10-25T09:40:02Z</time>
      </trkpt>
      <trkpt lat="46.700153" lon="14.896957">
        <ele>350.00</ele>
        <time>2012-10-25T09:40:11Z</time>
      </trkpt>
      <trkpt lat="46.699966" lon="14.897558">
        <ele>350.00</ele>
        <time>2012-10-25T09:40:19Z</time>
      </trkpt>
      <trkpt lat="46.699776" lon="14.898132">
        <ele>350.00</ele>
        <time>2012-10-25T09:40:27Z</time>
      </trkpt>
      <trkpt lat="46.699642" lon="14.898416">
        <ele>351.00</ele>
        <time>2012-10-25T09:40:33Z</time>
      </trkpt>
      <trkpt lat="46.699562" lon="14.898613">
        <ele>351.00</ele>
        <time>2012-10-25T09:40:40Z</time>
      </trkpt>
      <trkpt lat="46.699554" lon="14.898630">
        <ele>351.00</ele>
        <time>2012-10-25T09:40:41Z</time>
      </trkpt>
      <trkpt lat="46.699547" lon="14.898644">
        <ele>351.00</ele>
        <time>2012-10-25T09:40:42Z</time>
      </trkpt>
      <trkpt lat="46.699539" lon="14.898665">
        <ele>352.00</ele>
        <time>2012-10-25T09:40:43Z</time>
      </trkpt>
      <trkpt lat="46.699528" lon="14.898692">
        <ele>352.00</ele>
        <time>2012-10-25T09:40:44Z</time>
      </trkpt>
      <trkpt lat="46.699524" lon="14.898717">
        <ele>352.00</ele>
        <time>2012-10-25T09:40:45Z</time>
      </trkpt>
      <trkpt lat="46.699509" lon="14.898730">
        <ele>352.00</ele>
        <time>2012-10-25T09:40:49Z</time>
      </trkpt>
      <trkpt lat="46.699539" lon="14.898652">
        <ele>352.00</ele>
        <time>2012-10-25T09:40:54Z</time>
      </trkpt>
      <trkpt lat="46.699585" lon="14.898576">
        <ele>352.00</ele>
        <time>2012-10-25T09:41:02Z</time>
      </trkpt>
      <trkpt lat="46.699589" lon="14.898580">
        <ele>352.00</ele>
        <time>2012-10-25T09:41:08Z</time>
      </trkpt>
      <trkpt lat="46.699589" lon="14.898580">
        <ele>352.00</ele>
        <time>2012-10-25T09:41:15Z</time>
      </trkpt>
      <trkpt lat="46.699589" lon="14.898580">
        <ele>352.00</ele>
        <time>2012-10-25T09:41:22Z</time>
      </trkpt>
      <trkpt lat="46.699589" lon="14.898586">
        <ele>352.00</ele>
        <time>2012-10-25T09:41:24Z</time>
      </trkpt>
      <trkpt lat="46.699577" lon="14.898632">
        <ele>352.00</ele>
        <time>2012-10-25T09:41:30Z</time>
      </trkpt>
      <trkpt lat="46.699570" lon="14.898686">
        <ele>352.00</ele>
        <time>2012-10-25T09:41:33Z</time>
      </trkpt>
      <trkpt lat="46.699593" lon="14.898737">
        <ele>352.00</ele>
        <time>2012-10-25T09:41:35Z</time>
      </trkpt>
      <trkpt lat="46.699711" lon="14.898835">
        <ele>352.00</ele>
        <time>2012-10-25T09:41:40Z</time>
      </trkpt>
      <trkpt lat="46.699818" lon="14.898894">
        <ele>352.00</ele>
        <time>2012-10-25T09:41:44Z</time>
      </trkpt>
      <trkpt lat="46.699867" lon="14.898929">
        <ele>352.00</ele>
        <time>2012-10-25T09:41:46Z</time>
      </trkpt>
      <trkpt lat="46.699932" lon="14.898971">
        <ele>352.00</ele>
        <time>2012-10-25T09:41:50Z</time>
      </trkpt>
      <trkpt lat="46.699951" lon="14.898986">
        <ele>352.00</ele>
        <time>2012-10-25T09:41:51Z</time>
      </trkpt>
      <trkpt lat="46.699959" lon="14.899056">
        <ele>352.00</ele>
        <time>2012-10-25T09:41:53Z</time>
      </trkpt>
      <trkpt lat="46.699924" lon="14.899131">
        <ele>352.00</ele>
        <time>2012-10-25T09:41:55Z</time>
      </trkpt>
      <trkpt lat="46.699886" lon="14.899220">
        <ele>352.00</ele>
        <time>2012-10-25T09:41:57Z</time>
      </trkpt>
      <trkpt lat="46.699757" lon="14.899574">
        <ele>352.00</ele>
        <time>2012-10-25T09:42:03Z</time>
      </trkpt>
      <trkpt lat="46.699623" lon="14.899952">
        <ele>351.00</ele>
        <time>2012-10-25T09:42:08Z</time>
      </trkpt>
      <trkpt lat="46.699593" lon="14.900036">
        <ele>351.00</ele>
        <time>2012-10-25T09:42:09Z</time>
      </trkpt>
      <trkpt lat="46.699566" lon="14.900121">
        <ele>351.00</ele>
        <time>2012-10-25T09:42:10Z</time>
      </trkpt>
      <trkpt lat="46.699539" lon="14.900205">
        <ele>351.00</ele>
        <time>2012-10-25T09:42:11Z</time>
      </trkpt>
      <trkpt lat="46.699513" lon="14.900291">
        <ele>351.00</ele>
        <time>2012-10-25T09:42:12Z</time>
      </trkpt>
      <trkpt lat="46.699383" lon="14.900694">
        <ele>350.00</ele>
        <time>2012-10-25T09:42:17Z</time>
      </trkpt>
      <trkpt lat="46.699196" lon="14.901309">
        <ele>350.00</ele>
        <time>2012-10-25T09:42:25Z</time>
      </trkpt>
      <trkpt lat="46.699139" lon="14.901459">
        <ele>350.00</ele>
        <time>2012-10-25T09:42:27Z</time>
      </trkpt>
      <trkpt lat="46.699020" lon="14.901830">
        <ele>350.00</ele>
        <time>2012-10-25T09:42:32Z</time>
      </trkpt>
      <trkpt lat="46.698921" lon="14.902131">
        <ele>350.00</ele>
        <time>2012-10-25T09:42:36Z</time>
      </trkpt>
      <trkpt lat="46.698818" lon="14.902409">
        <ele>350.00</ele>
        <time>2012-10-25T09:42:40Z</time>
      </trkpt>
      <trkpt lat="46.698601" lon="14.902970">
        <ele>350.00</ele>
        <time>2012-10-25T09:42:48Z</time>
      </trkpt>
      <trkpt lat="46.698368" lon="14.903530">
        <ele>350.00</ele>
        <time>2012-10-25T09:42:56Z</time>
      </trkpt>
      <trkpt lat="46.698235" lon="14.903807">
        <ele>349.00</ele>
        <time>2012-10-25T09:43:00Z</time>
      </trkpt>
      <trkpt lat="46.698200" lon="14.903874">
        <ele>349.00</ele>
        <time>2012-10-25T09:43:01Z</time>
      </trkpt>
      <trkpt lat="46.698166" lon="14.903941">
        <ele>349.00</ele>
        <time>2012-10-25T09:43:02Z</time>
      </trkpt>
      <trkpt lat="46.698128" lon="14.904006">
        <ele>349.00</ele>
        <time>2012-10-25T09:43:03Z</time>
      </trkpt>
      <trkpt lat="46.698093" lon="14.904074">
        <ele>349.00</ele>
        <time>2012-10-25T09:43:04Z</time>
      </trkpt>
      <trkpt lat="46.697857" lon="14.904524">
        <ele>348.00</ele>
        <time>2012-10-25T09:43:11Z</time>
      </trkpt>
      <trkpt lat="46.697521" lon="14.905152">
        <ele>348.00</ele>
        <time>2012-10-25T09:43:21Z</time>
      </trkpt>
      <trkpt lat="46.697189" lon="14.905775">
        <ele>348.00</ele>
        <time>2012-10-25T09:43:31Z</time>
      </trkpt>
      <trkpt lat="46.696915" lon="14.906271">
        <ele>348.00</ele>
        <time>2012-10-25T09:43:39Z</time>
      </trkpt>
      <trkpt lat="46.696636" lon="14.906655">
        <ele>348.00</ele>
        <time>2012-10-25T09:43:46Z</time>
      </trkpt>
      <trkpt lat="46.696346" lon="14.906990">
        <ele>348.00</ele>
        <time>2012-10-25T09:43:53Z</time>
      </trkpt>
      <trkpt lat="46.695980" lon="14.907338">
        <ele>348.00</ele>
        <time>2012-10-25T09:44:01Z</time>
      </trkpt>
      <trkpt lat="46.695610" lon="14.907629">
        <ele>348.00</ele>
        <time>2012-10-25T09:44:09Z</time>
      </trkpt>
      <trkpt lat="46.695225" lon="14.907852">
        <ele>348.00</ele>
        <time>2012-10-25T09:44:17Z</time>
      </trkpt>
      <trkpt lat="46.694969" lon="14.907956">
        <ele>348.00</ele>
        <time>2012-10-25T09:44:22Z</time>
      </trkpt>
      <trkpt lat="46.694866" lon="14.907991">
        <ele>348.00</ele>
        <time>2012-10-25T09:44:24Z</time>
      </trkpt>
      <trkpt lat="46.694496" lon="14.908087">
        <ele>348.00</ele>
        <time>2012-10-25T09:44:31Z</time>
      </trkpt>
      <trkpt lat="46.694126" lon="14.908132">
        <ele>348.00</ele>
        <time>2012-10-25T09:44:38Z</time>
      </trkpt>
      <trkpt lat="46.693699" lon="14.908156">
        <ele>348.00</ele>
        <time>2012-10-25T09:44:46Z</time>
      </trkpt>
      <trkpt lat="46.693321" lon="14.908141">
        <ele>348.00</ele>
        <time>2012-10-25T09:44:54Z</time>
      </trkpt>
      <trkpt lat="46.692993" lon="14.908054">
        <ele>348.00</ele>
        <time>2012-10-25T09:45:01Z</time>
      </trkpt>
      <trkpt lat="46.692650" lon="14.907918">
        <ele>348.00</ele>
        <time>2012-10-25T09:45:08Z</time>
      </trkpt>
      <trkpt lat="46.692265" lon="14.907717">
        <ele>348.00</ele>
        <time>2012-10-25T09:45:16Z</time>
      </trkpt>
      <trkpt lat="46.691887" lon="14.907506">
        <ele>348.00</ele>
        <time>2012-10-25T09:45:24Z</time>
      </trkpt>
      <trkpt lat="46.691498" lon="14.907350">
        <ele>348.00</ele>
        <time>2012-10-25T09:45:32Z</time>
      </trkpt>
      <trkpt lat="46.691093" lon="14.907244">
        <ele>348.00</ele>
        <time>2012-10-25T09:45:40Z</time>
      </trkpt>
      <trkpt lat="46.690632" lon="14.907220">
        <ele>348.00</ele>
        <time>2012-10-25T09:45:49Z</time>
      </trkpt>
      <trkpt lat="46.690159" lon="14.907288">
        <ele>348.00</ele>
        <time>2012-10-25T09:45:58Z</time>
      </trkpt>
      <trkpt lat="46.690109" lon="14.907302">
        <ele>348.00</ele>
        <time>2012-10-25T09:45:59Z</time>
      </trkpt>
      <trkpt lat="46.689800" lon="14.907393">
        <ele>348.00</ele>
        <time>2012-10-25T09:46:05Z</time>
      </trkpt>
      <trkpt lat="46.689610" lon="14.907480">
        <ele>348.00</ele>
        <time>2012-10-25T09:46:09Z</time>
      </trkpt>
      <trkpt lat="46.689533" lon="14.907519">
        <ele>348.00</ele>
        <time>2012-10-25T09:46:11Z</time>
      </trkpt>
      <trkpt lat="46.689491" lon="14.907537">
        <ele>348.00</ele>
        <time>2012-10-25T09:46:12Z</time>
      </trkpt>
      <trkpt lat="46.689262" lon="14.907656">
        <ele>348.00</ele>
        <time>2012-10-25T09:46:17Z</time>
      </trkpt>
      <trkpt lat="46.689117" lon="14.907713">
        <ele>348.00</ele>
        <time>2012-10-25T09:46:20Z</time>
      </trkpt>
      <trkpt lat="46.689022" lon="14.907761">
        <ele>348.00</ele>
        <time>2012-10-25T09:46:22Z</time>
      </trkpt>
      <trkpt lat="46.688713" lon="14.907935">
        <ele>348.00</ele>
        <time>2012-10-25T09:46:28Z</time>
      </trkpt>
      <trkpt lat="46.688663" lon="14.907984">
        <ele>348.00</ele>
        <time>2012-10-25T09:46:29Z</time>
      </trkpt>
      <trkpt lat="46.688618" lon="14.908031">
        <ele>347.00</ele>
        <time>2012-10-25T09:46:30Z</time>
      </trkpt>
      <trkpt lat="46.688572" lon="14.908078">
        <ele>347.00</ele>
        <time>2012-10-25T09:46:31Z</time>
      </trkpt>
      <trkpt lat="46.688526" lon="14.908129">
        <ele>347.00</ele>
        <time>2012-10-25T09:46:32Z</time>
      </trkpt>
      <trkpt lat="46.688484" lon="14.908181">
        <ele>346.00</ele>
        <time>2012-10-25T09:46:33Z</time>
      </trkpt>
      <trkpt lat="46.688442" lon="14.908232">
        <ele>346.00</ele>
        <time>2012-10-25T09:46:34Z</time>
      </trkpt>
      <trkpt lat="46.688084" lon="14.908630">
        <ele>346.00</ele>
        <time>2012-10-25T09:46:42Z</time>
      </trkpt>
      <trkpt lat="46.687840" lon="14.908969">
        <ele>346.00</ele>
        <time>2012-10-25T09:46:48Z</time>
      </trkpt>
      <trkpt lat="46.687492" lon="14.909359">
        <ele>346.00</ele>
        <time>2012-10-25T09:46:56Z</time>
      </trkpt>
      <trkpt lat="46.687088" lon="14.909751">
        <ele>346.00</ele>
        <time>2012-10-25T09:47:05Z</time>
      </trkpt>
      <trkpt lat="46.686649" lon="14.910123">
        <ele>346.00</ele>
        <time>2012-10-25T09:47:14Z</time>
      </trkpt>
      <trkpt lat="46.686214" lon="14.910454">
        <ele>346.00</ele>
        <time>2012-10-25T09:47:23Z</time>
      </trkpt>
      <trkpt lat="46.685928" lon="14.910712">
        <ele>346.00</ele>
        <time>2012-10-25T09:47:30Z</time>
      </trkpt>
      <trkpt lat="46.685581" lon="14.910902">
        <ele>346.00</ele>
        <time>2012-10-25T09:47:38Z</time>
      </trkpt>
      <trkpt lat="46.685158" lon="14.911117">
        <ele>346.00</ele>
        <time>2012-10-25T09:47:47Z</time>
      </trkpt>
      <trkpt lat="46.684822" lon="14.911289">
        <ele>346.00</ele>
        <time>2012-10-25T09:47:54Z</time>
      </trkpt>
      <trkpt lat="46.684540" lon="14.911427">
        <ele>346.00</ele>
        <time>2012-10-25T09:48:00Z</time>
      </trkpt>
      <trkpt lat="46.684120" lon="14.911633">
        <ele>346.00</ele>
        <time>2012-10-25T09:48:09Z</time>
      </trkpt>
      <trkpt lat="46.683701" lon="14.911844">
        <ele>346.00</ele>
        <time>2012-10-25T09:48:18Z</time>
      </trkpt>
      <trkpt lat="46.683327" lon="14.912009">
        <ele>346.00</ele>
        <time>2012-10-25T09:48:26Z</time>
      </trkpt>
      <trkpt lat="46.682880" lon="14.912263">
        <ele>346.00</ele>
        <time>2012-10-25T09:48:35Z</time>
      </trkpt>
      <trkpt lat="46.682526" lon="14.912449">
        <ele>346.00</ele>
        <time>2012-10-25T09:48:42Z</time>
      </trkpt>
      <trkpt lat="46.682121" lon="14.912653">
        <ele>346.00</ele>
        <time>2012-10-25T09:48:50Z</time>
      </trkpt>
      <trkpt lat="46.681873" lon="14.912782">
        <ele>346.00</ele>
        <time>2012-10-25T09:48:55Z</time>
      </trkpt>
      <trkpt lat="46.681778" lon="14.912829">
        <ele>346.00</ele>
        <time>2012-10-25T09:48:57Z</time>
      </trkpt>
      <trkpt lat="46.681374" lon="14.913017">
        <ele>346.00</ele>
        <time>2012-10-25T09:49:05Z</time>
      </trkpt>
      <trkpt lat="46.680916" lon="14.913239">
        <ele>346.00</ele>
        <time>2012-10-25T09:49:14Z</time>
      </trkpt>
      <trkpt lat="46.680569" lon="14.913437">
        <ele>346.00</ele>
        <time>2012-10-25T09:49:21Z</time>
      </trkpt>
      <trkpt lat="46.680229" lon="14.913660">
        <ele>346.00</ele>
        <time>2012-10-25T09:49:28Z</time>
      </trkpt>
      <trkpt lat="46.679905" lon="14.913901">
        <ele>346.00</ele>
        <time>2012-10-25T09:49:35Z</time>
      </trkpt>
      <trkpt lat="46.679615" lon="14.914163">
        <ele>346.00</ele>
        <time>2012-10-25T09:49:42Z</time>
      </trkpt>
      <trkpt lat="46.679310" lon="14.914492">
        <ele>346.00</ele>
        <time>2012-10-25T09:49:50Z</time>
      </trkpt>
      <trkpt lat="46.679073" lon="14.914765">
        <ele>346.00</ele>
        <time>2012-10-25T09:49:56Z</time>
      </trkpt>
      <trkpt lat="46.678772" lon="14.915179">
        <ele>346.00</ele>
        <time>2012-10-25T09:50:04Z</time>
      </trkpt>
      <trkpt lat="46.678482" lon="14.915654">
        <ele>346.00</ele>
        <time>2012-10-25T09:50:12Z</time>
      </trkpt>
      <trkpt lat="46.678265" lon="14.916072">
        <ele>346.00</ele>
        <time>2012-10-25T09:50:19Z</time>
      </trkpt>
      <trkpt lat="46.678036" lon="14.916565">
        <ele>346.00</ele>
        <time>2012-10-25T09:50:27Z</time>
      </trkpt>
      <trkpt lat="46.677864" lon="14.917006">
        <ele>346.00</ele>
        <time>2012-10-25T09:50:34Z</time>
      </trkpt>
      <trkpt lat="46.677670" lon="14.917552">
        <ele>346.00</ele>
        <time>2012-10-25T09:50:42Z</time>
      </trkpt>
      <trkpt lat="46.677521" lon="14.918064">
        <ele>346.00</ele>
        <time>2012-10-25T09:50:49Z</time>
      </trkpt>
      <trkpt lat="46.677376" lon="14.918646">
        <ele>346.00</ele>
        <time>2012-10-25T09:50:57Z</time>
      </trkpt>
      <trkpt lat="46.677288" lon="14.919100">
        <ele>346.00</ele>
        <time>2012-10-25T09:51:03Z</time>
      </trkpt>
      <trkpt lat="46.677261" lon="14.919250">
        <ele>346.00</ele>
        <time>2012-10-25T09:51:05Z</time>
      </trkpt>
      <trkpt lat="46.677166" lon="14.919769">
        <ele>345.00</ele>
        <time>2012-10-25T09:51:12Z</time>
      </trkpt>
      <trkpt lat="46.677151" lon="14.919844">
        <ele>345.00</ele>
        <time>2012-10-25T09:51:13Z</time>
      </trkpt>
      <trkpt lat="46.677136" lon="14.919921">
        <ele>345.00</ele>
        <time>2012-10-25T09:51:14Z</time>
      </trkpt>
      <trkpt lat="46.677120" lon="14.919997">
        <ele>345.00</ele>
        <time>2012-10-25T09:51:15Z</time>
      </trkpt>
      <trkpt lat="46.677105" lon="14.920073">
        <ele>345.00</ele>
        <time>2012-10-25T09:51:16Z</time>
      </trkpt>
      <trkpt lat="46.677006" lon="14.920522">
        <ele>344.00</ele>
        <time>2012-10-25T09:51:22Z</time>
      </trkpt>
      <trkpt lat="46.676853" lon="14.921211">
        <ele>344.00</ele>
        <time>2012-10-25T09:51:31Z</time>
      </trkpt>
      <trkpt lat="46.676743" lon="14.921814">
        <ele>344.00</ele>
        <time>2012-10-25T09:51:39Z</time>
      </trkpt>
      <trkpt lat="46.676632" lon="14.922363">
        <ele>344.00</ele>
        <time>2012-10-25T09:51:47Z</time>
      </trkpt>
      <trkpt lat="46.676460" lon="14.922873">
        <ele>344.00</ele>
        <time>2012-10-25T09:51:54Z</time>
      </trkpt>
      <trkpt lat="46.676281" lon="14.923363">
        <ele>344.00</ele>
        <time>2012-10-25T09:52:01Z</time>
      </trkpt>
      <trkpt lat="46.676254" lon="14.923429">
        <ele>344.00</ele>
        <time>2012-10-25T09:52:02Z</time>
      </trkpt>
      <trkpt lat="46.676212" lon="14.923542">
        <ele>344.00</ele>
        <time>2012-10-25T09:52:04Z</time>
      </trkpt>
      <trkpt lat="46.676163" lon="14.923674">
        <ele>344.00</ele>
        <time>2012-10-25T09:52:07Z</time>
      </trkpt>
      <trkpt lat="46.676071" lon="14.923893">
        <ele>344.00</ele>
        <time>2012-10-25T09:52:13Z</time>
      </trkpt>
      <trkpt lat="46.675999" lon="14.924023">
        <ele>344.00</ele>
        <time>2012-10-25T09:52:16Z</time>
      </trkpt>
      <trkpt lat="46.675961" lon="14.924066">
        <ele>344.00</ele>
        <time>2012-10-25T09:52:17Z</time>
      </trkpt>
      <trkpt lat="46.675903" lon="14.924151">
        <ele>344.00</ele>
        <time>2012-10-25T09:52:19Z</time>
      </trkpt>
      <trkpt lat="46.675827" lon="14.924317">
        <ele>344.00</ele>
        <time>2012-10-25T09:52:22Z</time>
      </trkpt>
      <trkpt lat="46.675796" lon="14.924374">
        <ele>344.00</ele>
        <time>2012-10-25T09:52:23Z</time>
      </trkpt>
      <trkpt lat="46.675735" lon="14.924476">
        <ele>344.00</ele>
        <time>2012-10-25T09:52:25Z</time>
      </trkpt>
      <trkpt lat="46.675629" lon="14.924620">
        <ele>344.00</ele>
        <time>2012-10-25T09:52:28Z</time>
      </trkpt>
      <trkpt lat="46.675392" lon="14.924976">
        <ele>344.00</ele>
        <time>2012-10-25T09:52:35Z</time>
      </trkpt>
      <trkpt lat="46.675133" lon="14.925341">
        <ele>344.00</ele>
        <time>2012-10-25T09:52:42Z</time>
      </trkpt>
      <trkpt lat="46.674873" lon="14.925710">
        <ele>344.00</ele>
        <time>2012-10-25T09:52:49Z</time>
      </trkpt>
      <trkpt lat="46.674606" lon="14.926089">
        <ele>344.00</ele>
        <time>2012-10-25T09:52:56Z</time>
      </trkpt>
      <trkpt lat="46.674301" lon="14.926532">
        <ele>344.00</ele>
        <time>2012-10-25T09:53:04Z</time>
      </trkpt>
      <trkpt lat="46.674259" lon="14.926594">
        <ele>344.00</ele>
        <time>2012-10-25T09:53:05Z</time>
      </trkpt>
      <trkpt lat="46.673935" lon="14.927088">
        <ele>344.00</ele>
        <time>2012-10-25T09:53:13Z</time>
      </trkpt>
      <trkpt lat="46.673813" lon="14.927260">
        <ele>343.00</ele>
        <time>2012-10-25T09:53:16Z</time>
      </trkpt>
      <trkpt lat="46.673767" lon="14.927322">
        <ele>343.00</ele>
        <time>2012-10-25T09:53:17Z</time>
      </trkpt>
      <trkpt lat="46.673729" lon="14.927382">
        <ele>343.00</ele>
        <time>2012-10-25T09:53:18Z</time>
      </trkpt>
      <trkpt lat="46.673687" lon="14.927444">
        <ele>342.00</ele>
        <time>2012-10-25T09:53:19Z</time>
      </trkpt>
      <trkpt lat="46.673649" lon="14.927502">
        <ele>342.00</ele>
        <time>2012-10-25T09:53:20Z</time>
      </trkpt>
      <trkpt lat="46.673611" lon="14.927561">
        <ele>342.00</ele>
        <time>2012-10-25T09:53:21Z</time>
      </trkpt>
      <trkpt lat="46.673260" lon="14.928083">
        <ele>342.00</ele>
        <time>2012-10-25T09:53:30Z</time>
      </trkpt>
      <trkpt lat="46.672913" lon="14.928586">
        <ele>342.00</ele>
        <time>2012-10-25T09:53:39Z</time>
      </trkpt>
      <trkpt lat="46.672527" lon="14.929167">
        <ele>342.00</ele>
        <time>2012-10-25T09:53:49Z</time>
      </trkpt>
      <trkpt lat="46.672260" lon="14.929568">
        <ele>342.00</ele>
        <time>2012-10-25T09:53:56Z</time>
      </trkpt>
      <trkpt lat="46.671959" lon="14.930022">
        <ele>342.00</ele>
        <time>2012-10-25T09:54:04Z</time>
      </trkpt>
      <trkpt lat="46.671635" lon="14.930490">
        <ele>342.00</ele>
        <time>2012-10-25T09:54:12Z</time>
      </trkpt>
      <trkpt lat="46.671276" lon="14.930967">
        <ele>342.00</ele>
        <time>2012-10-25T09:54:21Z</time>
      </trkpt>
      <trkpt lat="46.670868" lon="14.931483">
        <ele>342.00</ele>
        <time>2012-10-25T09:54:31Z</time>
      </trkpt>
      <trkpt lat="46.670437" lon="14.932001">
        <ele>342.00</ele>
        <time>2012-10-25T09:54:41Z</time>
      </trkpt>
      <trkpt lat="46.670097" lon="14.932430">
        <ele>342.00</ele>
        <time>2012-10-25T09:54:49Z</time>
      </trkpt>
      <trkpt lat="46.669666" lon="14.932952">
        <ele>342.00</ele>
        <time>2012-10-25T09:54:59Z</time>
      </trkpt>
      <trkpt lat="46.669373" lon="14.933303">
        <ele>342.00</ele>
        <time>2012-10-25T09:55:07Z</time>
      </trkpt>
      <trkpt lat="46.668999" lon="14.933780">
        <ele>342.00</ele>
        <time>2012-10-25T09:55:16Z</time>
      </trkpt>
      <trkpt lat="46.668678" lon="14.934214">
        <ele>342.00</ele>
        <time>2012-10-25T09:55:24Z</time>
      </trkpt>
      <trkpt lat="46.668526" lon="14.934466">
        <ele>342.00</ele>
        <time>2012-10-25T09:55:29Z</time>
      </trkpt>
      <trkpt lat="46.668335" lon="14.934863">
        <ele>342.00</ele>
        <time>2012-10-25T09:55:35Z</time>
      </trkpt>
      <trkpt lat="46.668140" lon="14.935366">
        <ele>342.00</ele>
        <time>2012-10-25T09:55:42Z</time>
      </trkpt>
      <trkpt lat="46.667973" lon="14.935957">
        <ele>342.00</ele>
        <time>2012-10-25T09:55:50Z</time>
      </trkpt>
      <trkpt lat="46.667828" lon="14.936380">
        <ele>342.00</ele>
        <time>2012-10-25T09:55:56Z</time>
      </trkpt>
      <trkpt lat="46.667645" lon="14.936809">
        <ele>342.00</ele>
        <time>2012-10-25T09:56:02Z</time>
      </trkpt>
      <trkpt lat="46.667511" lon="14.937064">
        <ele>342.00</ele>
        <time>2012-10-25T09:56:06Z</time>
      </trkpt>
      <trkpt lat="46.667267" lon="14.937476">
        <ele>342.00</ele>
        <time>2012-10-25T09:56:13Z</time>
      </trkpt>
      <trkpt lat="46.666958" lon="14.937929">
        <ele>342.00</ele>
        <time>2012-10-25T09:56:21Z</time>
      </trkpt>
      <trkpt lat="46.666584" lon="14.938394">
        <ele>341.00</ele>
        <time>2012-10-25T09:56:30Z</time>
      </trkpt>
      <trkpt lat="46.666462" lon="14.938545">
        <ele>341.00</ele>
        <time>2012-10-25T09:56:33Z</time>
      </trkpt>
      <trkpt lat="46.666424" lon="14.938596">
        <ele>341.00</ele>
        <time>2012-10-25T09:56:34Z</time>
      </trkpt>
      <trkpt lat="46.666382" lon="14.938651">
        <ele>341.00</ele>
        <time>2012-10-25T09:56:35Z</time>
      </trkpt>
      <trkpt lat="46.666344" lon="14.938713">
        <ele>340.00</ele>
        <time>2012-10-25T09:56:36Z</time>
      </trkpt>
      <trkpt lat="46.666302" lon="14.938773">
        <ele>340.00</ele>
        <time>2012-10-25T09:56:37Z</time>
      </trkpt>
      <trkpt lat="46.666264" lon="14.938833">
        <ele>340.00</ele>
        <time>2012-10-25T09:56:38Z</time>
      </trkpt>
      <trkpt lat="46.665951" lon="14.939366">
        <ele>340.00</ele>
        <time>2012-10-25T09:56:47Z</time>
      </trkpt>
      <trkpt lat="46.665745" lon="14.939820">
        <ele>340.00</ele>
        <time>2012-10-25T09:56:54Z</time>
      </trkpt>
      <trkpt lat="46.665527" lon="14.940463">
        <ele>340.00</ele>
        <time>2012-10-25T09:57:03Z</time>
      </trkpt>
      <trkpt lat="46.665386" lon="14.941054">
        <ele>340.00</ele>
        <time>2012-10-25T09:57:11Z</time>
      </trkpt>
      <trkpt lat="46.665302" lon="14.941478">
        <ele>340.00</ele>
        <time>2012-10-25T09:57:17Z</time>
      </trkpt>
      <trkpt lat="46.665188" lon="14.941983">
        <ele>340.00</ele>
        <time>2012-10-25T09:57:24Z</time>
      </trkpt>
      <trkpt lat="46.664997" lon="14.942541">
        <ele>340.00</ele>
        <time>2012-10-25T09:57:32Z</time>
      </trkpt>
      <trkpt lat="46.664784" lon="14.943009">
        <ele>340.00</ele>
        <time>2012-10-25T09:57:39Z</time>
      </trkpt>
      <trkpt lat="46.664444" lon="14.943517">
        <ele>340.00</ele>
        <time>2012-10-25T09:57:48Z</time>
      </trkpt>
      <trkpt lat="46.664341" lon="14.943657">
        <ele>340.00</ele>
        <time>2012-10-25T09:57:51Z</time>
      </trkpt>
      <trkpt lat="46.664200" lon="14.943844">
        <ele>340.00</ele>
        <time>2012-10-25T09:57:55Z</time>
      </trkpt>
      <trkpt lat="46.663769" lon="14.944344">
        <ele>340.00</ele>
        <time>2012-10-25T09:58:06Z</time>
      </trkpt>
      <trkpt lat="46.663670" lon="14.944449">
        <ele>340.00</ele>
        <time>2012-10-25T09:58:09Z</time>
      </trkpt>
      <trkpt lat="46.663620" lon="14.944498">
        <ele>340.00</ele>
        <time>2012-10-25T09:58:11Z</time>
      </trkpt>
      <trkpt lat="46.663445" lon="14.944587">
        <ele>340.00</ele>
        <time>2012-10-25T09:58:16Z</time>
      </trkpt>
      <trkpt lat="46.663280" lon="14.944716">
        <ele>340.00</ele>
        <time>2012-10-25T09:58:20Z</time>
      </trkpt>
      <trkpt lat="46.663242" lon="14.944756">
        <ele>340.00</ele>
        <time>2012-10-25T09:58:21Z</time>
      </trkpt>
      <trkpt lat="46.663124" lon="14.944886">
        <ele>340.00</ele>
        <time>2012-10-25T09:58:24Z</time>
      </trkpt>
      <trkpt lat="46.662979" lon="14.945039">
        <ele>340.00</ele>
        <time>2012-10-25T09:58:28Z</time>
      </trkpt>
      <trkpt lat="46.662899" lon="14.945093">
        <ele>340.00</ele>
        <time>2012-10-25T09:58:30Z</time>
      </trkpt>
      <trkpt lat="46.662811" lon="14.945094">
        <ele>340.00</ele>
        <time>2012-10-25T09:58:32Z</time>
      </trkpt>
      <trkpt lat="46.662666" lon="14.944990">
        <ele>340.00</ele>
        <time>2012-10-25T09:58:36Z</time>
      </trkpt>
      <trkpt lat="46.662411" lon="14.944819">
        <ele>340.00</ele>
        <time>2012-10-25T09:58:43Z</time>
      </trkpt>
      <trkpt lat="46.662273" lon="14.944823">
        <ele>340.00</ele>
        <time>2012-10-25T09:58:48Z</time>
      </trkpt>
      <trkpt lat="46.662170" lon="14.944930">
        <ele>340.00</ele>
        <time>2012-10-25T09:58:53Z</time>
      </trkpt>
      <trkpt lat="46.662151" lon="14.944961">
        <ele>340.00</ele>
        <time>2012-10-25T09:58:54Z</time>
      </trkpt>
      <trkpt lat="46.662109" lon="14.945026">
        <ele>341.00</ele>
        <time>2012-10-25T09:58:56Z</time>
      </trkpt>
      <trkpt lat="46.662094" lon="14.945054">
        <ele>341.00</ele>
        <time>2012-10-25T09:58:57Z</time>
      </trkpt>
      <trkpt lat="46.662079" lon="14.945090">
        <ele>341.00</ele>
        <time>2012-10-25T09:58:58Z</time>
      </trkpt>
      <trkpt lat="46.662064" lon="14.945128">
        <ele>342.00</ele>
        <time>2012-10-25T09:58:59Z</time>
      </trkpt>
      <trkpt lat="46.662048" lon="14.945167">
        <ele>342.00</ele>
        <time>2012-10-25T09:59:00Z</time>
      </trkpt>
      <trkpt lat="46.662037" lon="14.945202">
        <ele>342.00</ele>
        <time>2012-10-25T09:59:01Z</time>
      </trkpt>
      <trkpt lat="46.661964" lon="14.945360">
        <ele>343.00</ele>
        <time>2012-10-25T09:59:06Z</time>
      </trkpt>
      <trkpt lat="46.661945" lon="14.945389">
        <ele>343.00</ele>
        <time>2012-10-25T09:59:07Z</time>
      </trkpt>
      <trkpt lat="46.661930" lon="14.945417">
        <ele>343.00</ele>
        <time>2012-10-25T09:59:08Z</time>
      </trkpt>
      <trkpt lat="46.661911" lon="14.945449">
        <ele>343.00</ele>
        <time>2012-10-25T09:59:09Z</time>
      </trkpt>
      <trkpt lat="46.661892" lon="14.945488">
        <ele>344.00</ele>
        <time>2012-10-25T09:59:10Z</time>
      </trkpt>
      <trkpt lat="46.661812" lon="14.945642">
        <ele>344.00</ele>
        <time>2012-10-25T09:59:13Z</time>
      </trkpt>
      <trkpt lat="46.661629" lon="14.946012">
        <ele>344.00</ele>
        <time>2012-10-25T09:59:19Z</time>
      </trkpt>
      <trkpt lat="46.661362" lon="14.946467">
        <ele>344.00</ele>
        <time>2012-10-25T09:59:26Z</time>
      </trkpt>
      <trkpt lat="46.661274" lon="14.946619">
        <ele>343.00</ele>
        <time>2012-10-25T09:59:28Z</time>
      </trkpt>
      <trkpt lat="46.661228" lon="14.946697">
        <ele>343.00</ele>
        <time>2012-10-25T09:59:29Z</time>
      </trkpt>
      <trkpt lat="46.661182" lon="14.946776">
        <ele>343.00</ele>
        <time>2012-10-25T09:59:30Z</time>
      </trkpt>
      <trkpt lat="46.661137" lon="14.946848">
        <ele>343.00</ele>
        <time>2012-10-25T09:59:31Z</time>
      </trkpt>
      <trkpt lat="46.661091" lon="14.946920">
        <ele>342.00</ele>
        <time>2012-10-25T09:59:32Z</time>
      </trkpt>
      <trkpt lat="46.661045" lon="14.946983">
        <ele>342.00</ele>
        <time>2012-10-25T09:59:33Z</time>
      </trkpt>
      <trkpt lat="46.660858" lon="14.947213">
        <ele>342.00</ele>
        <time>2012-10-25T09:59:37Z</time>
      </trkpt>
      <trkpt lat="46.660568" lon="14.947633">
        <ele>342.00</ele>
        <time>2012-10-25T09:59:44Z</time>
      </trkpt>
      <trkpt lat="46.660458" lon="14.947834">
        <ele>341.00</ele>
        <time>2012-10-25T09:59:47Z</time>
      </trkpt>
      <trkpt lat="46.660427" lon="14.947903">
        <ele>341.00</ele>
        <time>2012-10-25T09:59:48Z</time>
      </trkpt>
      <trkpt lat="46.660397" lon="14.947970">
        <ele>341.00</ele>
        <time>2012-10-25T09:59:49Z</time>
      </trkpt>
      <trkpt lat="46.660366" lon="14.948036">
        <ele>340.00</ele>
        <time>2012-10-25T09:59:50Z</time>
      </trkpt>
      <trkpt lat="46.660336" lon="14.948101">
        <ele>340.00</ele>
        <time>2012-10-25T09:59:51Z</time>
      </trkpt>
      <trkpt lat="46.660057" lon="14.948579">
        <ele>340.00</ele>
        <time>2012-10-25T09:59:59Z</time>
      </trkpt>
      <trkpt lat="46.659782" lon="14.949038">
        <ele>340.00</ele>
        <time>2012-10-25T10:00:06Z</time>
      </trkpt>
      <trkpt lat="46.659641" lon="14.949268">
        <ele>339.00</ele>
        <time>2012-10-25T10:00:09Z</time>
      </trkpt>
      <trkpt lat="46.659595" lon="14.949344">
        <ele>339.00</ele>
        <time>2012-10-25T10:00:10Z</time>
      </trkpt>
      <trkpt lat="46.659554" lon="14.949416">
        <ele>339.00</ele>
        <time>2012-10-25T10:00:11Z</time>
      </trkpt>
      <trkpt lat="46.659512" lon="14.949489">
        <ele>339.00</ele>
        <time>2012-10-25T10:00:12Z</time>
      </trkpt>
      <trkpt lat="46.659477" lon="14.949561">
        <ele>339.00</ele>
        <time>2012-10-25T10:00:13Z</time>
      </trkpt>
      <trkpt lat="46.659241" lon="14.950056">
        <ele>338.00</ele>
        <time>2012-10-25T10:00:20Z</time>
      </trkpt>
      <trkpt lat="46.659092" lon="14.950322">
        <ele>338.00</ele>
        <time>2012-10-25T10:00:25Z</time>
      </trkpt>
      <trkpt lat="46.658894" lon="14.950610">
        <ele>338.00</ele>
        <time>2012-10-25T10:00:32Z</time>
      </trkpt>
      <trkpt lat="46.658855" lon="14.950647">
        <ele>338.00</ele>
        <time>2012-10-25T10:00:33Z</time>
      </trkpt>
      <trkpt lat="46.658718" lon="14.950769">
        <ele>338.00</ele>
        <time>2012-10-25T10:00:36Z</time>
      </trkpt>
      <trkpt lat="46.658424" lon="14.951003">
        <ele>338.00</ele>
        <time>2012-10-25T10:00:41Z</time>
      </trkpt>
      <trkpt lat="46.658314" lon="14.951065">
        <ele>338.00</ele>
        <time>2012-10-25T10:00:43Z</time>
      </trkpt>
      <trkpt lat="46.658146" lon="14.951135">
        <ele>338.00</ele>
        <time>2012-10-25T10:00:46Z</time>
      </trkpt>
      <trkpt lat="46.657795" lon="14.951251">
        <ele>338.00</ele>
        <time>2012-10-25T10:00:53Z</time>
      </trkpt>
      <trkpt lat="46.657650" lon="14.951310">
        <ele>338.00</ele>
        <time>2012-10-25T10:00:57Z</time>
      </trkpt>
      <trkpt lat="46.657558" lon="14.951342">
        <ele>339.00</ele>
        <time>2012-10-25T10:01:00Z</time>
      </trkpt>
      <trkpt lat="46.657524" lon="14.951354">
        <ele>339.00</ele>
        <time>2012-10-25T10:01:01Z</time>
      </trkpt>
      <trkpt lat="46.657494" lon="14.951365">
        <ele>339.00</ele>
        <time>2012-10-25T10:01:02Z</time>
      </trkpt>
      <trkpt lat="46.657463" lon="14.951375">
        <ele>339.00</ele>
        <time>2012-10-25T10:01:03Z</time>
      </trkpt>
      <trkpt lat="46.657429" lon="14.951388">
        <ele>339.00</ele>
        <time>2012-10-25T10:01:04Z</time>
      </trkpt>
      <trkpt lat="46.657219" lon="14.951485">
        <ele>340.00</ele>
        <time>2012-10-25T10:01:09Z</time>
      </trkpt>
      <trkpt lat="46.656929" lon="14.951588">
        <ele>340.00</ele>
        <time>2012-10-25T10:01:15Z</time>
      </trkpt>
      <trkpt lat="46.656876" lon="14.951605">
        <ele>340.00</ele>
        <time>2012-10-25T10:01:16Z</time>
      </trkpt>
      <trkpt lat="46.656567" lon="14.951735">
        <ele>340.00</ele>
        <time>2012-10-25T10:01:21Z</time>
      </trkpt>
      <trkpt lat="46.656189" lon="14.951870">
        <ele>340.00</ele>
        <time>2012-10-25T10:01:28Z</time>
      </trkpt>
      <trkpt lat="46.655907" lon="14.951945">
        <ele>340.00</ele>
        <time>2012-10-25T10:01:34Z</time>
      </trkpt>
      <trkpt lat="46.655628" lon="14.952025">
        <ele>340.00</ele>
        <time>2012-10-25T10:01:41Z</time>
      </trkpt>
      <trkpt lat="46.655586" lon="14.952044">
        <ele>340.00</ele>
        <time>2012-10-25T10:01:42Z</time>
      </trkpt>
      <trkpt lat="46.655411" lon="14.952121">
        <ele>340.00</ele>
        <time>2012-10-25T10:01:46Z</time>
      </trkpt>
      <trkpt lat="46.655125" lon="14.952270">
        <ele>340.00</ele>
        <time>2012-10-25T10:01:51Z</time>
      </trkpt>
      <trkpt lat="46.655067" lon="14.952312">
        <ele>340.00</ele>
        <time>2012-10-25T10:01:52Z</time>
      </trkpt>
      <trkpt lat="46.654835" lon="14.952525">
        <ele>340.00</ele>
        <time>2012-10-25T10:01:56Z</time>
      </trkpt>
      <trkpt lat="46.654545" lon="14.952923">
        <ele>340.00</ele>
        <time>2012-10-25T10:02:02Z</time>
      </trkpt>
      <trkpt lat="46.654305" lon="14.953387">
        <ele>340.00</ele>
        <time>2012-10-25T10:02:09Z</time>
      </trkpt>
      <trkpt lat="46.654221" lon="14.953664">
        <ele>340.00</ele>
        <time>2012-10-25T10:02:14Z</time>
      </trkpt>
      <trkpt lat="46.654182" lon="14.953913">
        <ele>340.00</ele>
        <time>2012-10-25T10:02:18Z</time>
      </trkpt>
      <trkpt lat="46.654182" lon="14.954115">
        <ele>340.00</ele>
        <time>2012-10-25T10:02:21Z</time>
      </trkpt>
      <trkpt lat="46.654175" lon="14.954183">
        <ele>340.00</ele>
        <time>2012-10-25T10:02:22Z</time>
      </trkpt>
      <trkpt lat="46.654141" lon="14.954502">
        <ele>340.00</ele>
        <time>2012-10-25T10:02:26Z</time>
      </trkpt>
      <trkpt lat="46.654037" lon="14.955015">
        <ele>340.00</ele>
        <time>2012-10-25T10:02:32Z</time>
      </trkpt>
      <trkpt lat="46.653866" lon="14.955535">
        <ele>340.00</ele>
        <time>2012-10-25T10:02:39Z</time>
      </trkpt>
      <trkpt lat="46.653828" lon="14.955598">
        <ele>340.00</ele>
        <time>2012-10-25T10:02:40Z</time>
      </trkpt>
      <trkpt lat="46.653698" lon="14.955759">
        <ele>340.00</ele>
        <time>2012-10-25T10:02:43Z</time>
      </trkpt>
      <trkpt lat="46.653614" lon="14.955839">
        <ele>340.00</ele>
        <time>2012-10-25T10:02:45Z</time>
      </trkpt>
      <trkpt lat="46.653492" lon="14.955961">
        <ele>340.00</ele>
        <time>2012-10-25T10:02:50Z</time>
      </trkpt>
      <trkpt lat="46.653393" lon="14.956048">
        <ele>341.00</ele>
        <time>2012-10-25T10:02:54Z</time>
      </trkpt>
      <trkpt lat="46.653358" lon="14.956074">
        <ele>341.00</ele>
        <time>2012-10-25T10:02:55Z</time>
      </trkpt>
      <trkpt lat="46.653320" lon="14.956104">
        <ele>341.00</ele>
        <time>2012-10-25T10:02:56Z</time>
      </trkpt>
      <trkpt lat="46.653286" lon="14.956127">
        <ele>342.00</ele>
        <time>2012-10-25T10:02:57Z</time>
      </trkpt>
      <trkpt lat="46.653259" lon="14.956156">
        <ele>342.00</ele>
        <time>2012-10-25T10:02:58Z</time>
      </trkpt>
      <trkpt lat="46.653141" lon="14.956215">
        <ele>342.00</ele>
        <time>2012-10-25T10:03:01Z</time>
      </trkpt>
      <trkpt lat="46.652828" lon="14.956321">
        <ele>342.00</ele>
        <time>2012-10-25T10:03:07Z</time>
      </trkpt>
      <trkpt lat="46.652489" lon="14.956285">
        <ele>342.00</ele>
        <time>2012-10-25T10:03:13Z</time>
      </trkpt>
      <trkpt lat="46.652172" lon="14.956141">
        <ele>342.00</ele>
        <time>2012-10-25T10:03:20Z</time>
      </trkpt>
      <trkpt lat="46.652088" lon="14.956099">
        <ele>342.00</ele>
        <time>2012-10-25T10:03:22Z</time>
      </trkpt>
      <trkpt lat="46.652016" lon="14.956044">
        <ele>341.00</ele>
        <time>2012-10-25T10:03:24Z</time>
      </trkpt>
      <trkpt lat="46.651989" lon="14.956016">
        <ele>341.00</ele>
        <time>2012-10-25T10:03:25Z</time>
      </trkpt>
      <trkpt lat="46.651962" lon="14.955996">
        <ele>341.00</ele>
        <time>2012-10-25T10:03:26Z</time>
      </trkpt>
      <trkpt lat="46.651936" lon="14.955972">
        <ele>341.00</ele>
        <time>2012-10-25T10:03:27Z</time>
      </trkpt>
      <trkpt lat="46.651905" lon="14.955945">
        <ele>340.00</ele>
        <time>2012-10-25T10:03:28Z</time>
      </trkpt>
      <trkpt lat="46.651810" lon="14.955830">
        <ele>340.00</ele>
        <time>2012-10-25T10:03:31Z</time>
      </trkpt>
      <trkpt lat="46.651775" lon="14.955778">
        <ele>340.00</ele>
        <time>2012-10-25T10:03:32Z</time>
      </trkpt>
      <trkpt lat="46.651669" lon="14.955602">
        <ele>339.00</ele>
        <time>2012-10-25T10:03:35Z</time>
      </trkpt>
      <trkpt lat="46.651634" lon="14.955537">
        <ele>339.00</ele>
        <time>2012-10-25T10:03:36Z</time>
      </trkpt>
      <trkpt lat="46.651604" lon="14.955472">
        <ele>339.00</ele>
        <time>2012-10-25T10:03:37Z</time>
      </trkpt>
      <trkpt lat="46.651577" lon="14.955406">
        <ele>338.00</ele>
        <time>2012-10-25T10:03:38Z</time>
      </trkpt>
      <trkpt lat="46.651550" lon="14.955338">
        <ele>338.00</ele>
        <time>2012-10-25T10:03:39Z</time>
      </trkpt>
      <trkpt lat="46.651474" lon="14.955131">
        <ele>338.00</ele>
        <time>2012-10-25T10:03:42Z</time>
      </trkpt>
      <trkpt lat="46.651421" lon="14.954908">
        <ele>338.00</ele>
        <time>2012-10-25T10:03:45Z</time>
      </trkpt>
      <trkpt lat="46.651337" lon="14.954345">
        <ele>338.00</ele>
        <time>2012-10-25T10:03:52Z</time>
      </trkpt>
      <trkpt lat="46.651268" lon="14.953705">
        <ele>338.00</ele>
        <time>2012-10-25T10:04:00Z</time>
      </trkpt>
      <trkpt lat="46.651234" lon="14.953239">
        <ele>338.00</ele>
        <time>2012-10-25T10:04:07Z</time>
      </trkpt>
      <trkpt lat="46.651203" lon="14.952680">
        <ele>338.00</ele>
        <time>2012-10-25T10:04:16Z</time>
      </trkpt>
      <trkpt lat="46.651169" lon="14.952253">
        <ele>338.00</ele>
        <time>2012-10-25T10:04:24Z</time>
      </trkpt>
      <trkpt lat="46.651138" lon="14.951880">
        <ele>338.00</ele>
        <time>2012-10-25T10:04:31Z</time>
      </trkpt>
      <trkpt lat="46.651142" lon="14.951786">
        <ele>338.00</ele>
        <time>2012-10-25T10:04:33Z</time>
      </trkpt>
      <trkpt lat="46.651150" lon="14.951742">
        <ele>338.00</ele>
        <time>2012-10-25T10:04:34Z</time>
      </trkpt>
      <trkpt lat="46.651154" lon="14.951694">
        <ele>339.00</ele>
        <time>2012-10-25T10:04:35Z</time>
      </trkpt>
      <trkpt lat="46.651157" lon="14.951641">
        <ele>339.00</ele>
        <time>2012-10-25T10:04:36Z</time>
      </trkpt>
      <trkpt lat="46.651161" lon="14.951575">
        <ele>339.00</ele>
        <time>2012-10-25T10:04:37Z</time>
      </trkpt>
      <trkpt lat="46.651157" lon="14.951513">
        <ele>340.00</ele>
        <time>2012-10-25T10:04:38Z</time>
      </trkpt>
      <trkpt lat="46.651154" lon="14.951451">
        <ele>340.00</ele>
        <time>2012-10-25T10:04:39Z</time>
      </trkpt>
      <trkpt lat="46.651028" lon="14.951006">
        <ele>340.00</ele>
        <time>2012-10-25T10:04:46Z</time>
      </trkpt>
      <trkpt lat="46.650860" lon="14.950543">
        <ele>340.00</ele>
        <time>2012-10-25T10:04:52Z</time>
      </trkpt>
      <trkpt lat="46.650753" lon="14.950262">
        <ele>340.00</ele>
        <time>2012-10-25T10:04:55Z</time>
      </trkpt>
      <trkpt lat="46.650650" lon="14.949974">
        <ele>339.00</ele>
        <time>2012-10-25T10:04:58Z</time>
      </trkpt>
      <trkpt lat="46.650623" lon="14.949878">
        <ele>339.00</ele>
        <time>2012-10-25T10:04:59Z</time>
      </trkpt>
      <trkpt lat="46.650604" lon="14.949780">
        <ele>338.00</ele>
        <time>2012-10-25T10:05:00Z</time>
      </trkpt>
      <trkpt lat="46.650585" lon="14.949680">
        <ele>338.00</ele>
        <time>2012-10-25T10:05:01Z</time>
      </trkpt>
      <trkpt lat="46.650570" lon="14.949585">
        <ele>338.00</ele>
        <time>2012-10-25T10:05:02Z</time>
      </trkpt>
      <trkpt lat="46.650559" lon="14.949491">
        <ele>338.00</ele>
        <time>2012-10-25T10:05:03Z</time>
      </trkpt>
      <trkpt lat="46.650555" lon="14.949096">
        <ele>338.00</ele>
        <time>2012-10-25T10:05:08Z</time>
      </trkpt>
      <trkpt lat="46.650559" lon="14.948866">
        <ele>338.00</ele>
        <time>2012-10-25T10:05:13Z</time>
      </trkpt>
      <trkpt lat="46.650532" lon="14.948617">
        <ele>338.00</ele>
        <time>2012-10-25T10:05:19Z</time>
      </trkpt>
      <trkpt lat="46.650482" lon="14.948432">
        <ele>338.00</ele>
        <time>2012-10-25T10:05:24Z</time>
      </trkpt>
      <trkpt lat="46.650475" lon="14.948399">
        <ele>339.00</ele>
        <time>2012-10-25T10:05:25Z</time>
      </trkpt>
      <trkpt lat="46.650467" lon="14.948365">
        <ele>339.00</ele>
        <time>2012-10-25T10:05:26Z</time>
      </trkpt>
      <trkpt lat="46.650455" lon="14.948334">
        <ele>339.00</ele>
        <time>2012-10-25T10:05:27Z</time>
      </trkpt>
      <trkpt lat="46.650448" lon="14.948300">
        <ele>339.00</ele>
        <time>2012-10-25T10:05:28Z</time>
      </trkpt>
      <trkpt lat="46.650413" lon="14.948179">
        <ele>340.00</ele>
        <time>2012-10-25T10:05:32Z</time>
      </trkpt>
      <trkpt lat="46.650394" lon="14.948090">
        <ele>341.00</ele>
        <time>2012-10-25T10:05:35Z</time>
      </trkpt>
      <trkpt lat="46.650394" lon="14.948069">
        <ele>341.00</ele>
        <time>2012-10-25T10:05:36Z</time>
      </trkpt>
      <trkpt lat="46.650394" lon="14.948044">
        <ele>341.00</ele>
        <time>2012-10-25T10:05:37Z</time>
      </trkpt>
      <trkpt lat="46.650394" lon="14.948016">
        <ele>341.00</ele>
        <time>2012-10-25T10:05:38Z</time>
      </trkpt>
      <trkpt lat="46.650391" lon="14.947988">
        <ele>342.00</ele>
        <time>2012-10-25T10:05:39Z</time>
      </trkpt>
      <trkpt lat="46.650383" lon="14.947846">
        <ele>343.00</ele>
        <time>2012-10-25T10:05:45Z</time>
      </trkpt>
      <trkpt lat="46.650375" lon="14.947825">
        <ele>343.00</ele>
        <time>2012-10-25T10:05:46Z</time>
      </trkpt>
      <trkpt lat="46.650372" lon="14.947801">
        <ele>343.00</ele>
        <time>2012-10-25T10:05:47Z</time>
      </trkpt>
      <trkpt lat="46.650364" lon="14.947772">
        <ele>344.00</ele>
        <time>2012-10-25T10:05:48Z</time>
      </trkpt>
      <trkpt lat="46.650356" lon="14.947628">
        <ele>344.00</ele>
        <time>2012-10-25T10:05:53Z</time>
      </trkpt>
      <trkpt lat="46.650352" lon="14.947600">
        <ele>344.00</ele>
        <time>2012-10-25T10:05:54Z</time>
      </trkpt>
      <trkpt lat="46.650364" lon="14.947456">
        <ele>345.00</ele>
        <time>2012-10-25T10:06:00Z</time>
      </trkpt>
      <trkpt lat="46.650368" lon="14.947437">
        <ele>345.00</ele>
        <time>2012-10-25T10:06:01Z</time>
      </trkpt>
      <trkpt lat="46.650364" lon="14.947410">
        <ele>345.00</ele>
        <time>2012-10-25T10:06:02Z</time>
      </trkpt>
      <trkpt lat="46.650364" lon="14.947379">
        <ele>345.00</ele>
        <time>2012-10-25T10:06:03Z</time>
      </trkpt>
      <trkpt lat="46.650364" lon="14.947354">
        <ele>346.00</ele>
        <time>2012-10-25T10:06:04Z</time>
      </trkpt>
      <trkpt lat="46.650364" lon="14.947304">
        <ele>346.00</ele>
        <time>2012-10-25T10:06:06Z</time>
      </trkpt>
      <trkpt lat="46.650368" lon="14.947283">
        <ele>346.00</ele>
        <time>2012-10-25T10:06:07Z</time>
      </trkpt>
      <trkpt lat="46.650368" lon="14.947257">
        <ele>346.00</ele>
        <time>2012-10-25T10:06:08Z</time>
      </trkpt>
      <trkpt lat="46.650360" lon="14.947170">
        <ele>347.00</ele>
        <time>2012-10-25T10:06:11Z</time>
      </trkpt>
      <trkpt lat="46.650356" lon="14.947143">
        <ele>347.00</ele>
        <time>2012-10-25T10:06:12Z</time>
      </trkpt>
      <trkpt lat="46.650356" lon="14.947123">
        <ele>347.00</ele>
        <time>2012-10-25T10:06:13Z</time>
      </trkpt>
      <trkpt lat="46.650352" lon="14.947100">
        <ele>348.00</ele>
        <time>2012-10-25T10:06:14Z</time>
      </trkpt>
      <trkpt lat="46.650345" lon="14.947077">
        <ele>348.00</ele>
        <time>2012-10-25T10:06:15Z</time>
      </trkpt>
      <trkpt lat="46.650276" lon="14.946978">
        <ele>348.00</ele>
        <time>2012-10-25T10:06:20Z</time>
      </trkpt>
      <trkpt lat="46.650162" lon="14.946810">
        <ele>349.00</ele>
        <time>2012-10-25T10:06:27Z</time>
      </trkpt>
      <trkpt lat="46.650135" lon="14.946775">
        <ele>349.00</ele>
        <time>2012-10-25T10:06:29Z</time>
      </trkpt>
      <trkpt lat="46.650124" lon="14.946757">
        <ele>349.00</ele>
        <time>2012-10-25T10:06:30Z</time>
      </trkpt>
      <trkpt lat="46.650112" lon="14.946733">
        <ele>349.00</ele>
        <time>2012-10-25T10:06:31Z</time>
      </trkpt>
      <trkpt lat="46.650097" lon="14.946707">
        <ele>350.00</ele>
        <time>2012-10-25T10:06:32Z</time>
      </trkpt>
      <trkpt lat="46.650089" lon="14.946681">
        <ele>350.00</ele>
        <time>2012-10-25T10:06:33Z</time>
      </trkpt>
      <trkpt lat="46.650009" lon="14.946471">
        <ele>350.00</ele>
        <time>2012-10-25T10:06:39Z</time>
      </trkpt>
      <trkpt lat="46.649902" lon="14.946172">
        <ele>350.00</ele>
        <time>2012-10-25T10:06:45Z</time>
      </trkpt>
      <trkpt lat="46.649868" lon="14.946130">
        <ele>350.00</ele>
        <time>2012-10-25T10:06:46Z</time>
      </trkpt>
      <trkpt lat="46.649773" lon="14.946040">
        <ele>350.00</ele>
        <time>2012-10-25T10:06:49Z</time>
      </trkpt>
      <trkpt lat="46.649738" lon="14.946022">
        <ele>350.00</ele>
        <time>2012-10-25T10:06:50Z</time>
      </trkpt>
      <trkpt lat="46.649654" lon="14.946013">
        <ele>350.00</ele>
        <time>2012-10-25T10:06:52Z</time>
      </trkpt>
      <trkpt lat="46.649597" lon="14.946026">
        <ele>349.00</ele>
        <time>2012-10-25T10:06:53Z</time>
      </trkpt>
      <trkpt lat="46.649544" lon="14.946034">
        <ele>349.00</ele>
        <time>2012-10-25T10:06:54Z</time>
      </trkpt>
      <trkpt lat="46.649483" lon="14.946041">
        <ele>348.00</ele>
        <time>2012-10-25T10:06:55Z</time>
      </trkpt>
      <trkpt lat="46.649414" lon="14.946041">
        <ele>348.00</ele>
        <time>2012-10-25T10:06:56Z</time>
      </trkpt>
      <trkpt lat="46.649345" lon="14.946033">
        <ele>347.00</ele>
        <time>2012-10-25T10:06:57Z</time>
      </trkpt>
      <trkpt lat="46.649273" lon="14.946004">
        <ele>347.00</ele>
        <time>2012-10-25T10:06:58Z</time>
      </trkpt>
      <trkpt lat="46.649193" lon="14.945979">
        <ele>346.00</ele>
        <time>2012-10-25T10:06:59Z</time>
      </trkpt>
      <trkpt lat="46.649116" lon="14.945948">
        <ele>345.00</ele>
        <time>2012-10-25T10:07:00Z</time>
      </trkpt>
      <trkpt lat="46.649040" lon="14.945920">
        <ele>344.00</ele>
        <time>2012-10-25T10:07:01Z</time>
      </trkpt>
      <trkpt lat="46.648968" lon="14.945874">
        <ele>344.00</ele>
        <time>2012-10-25T10:07:02Z</time>
      </trkpt>
      <trkpt lat="46.648899" lon="14.945812">
        <ele>343.00</ele>
        <time>2012-10-25T10:07:03Z</time>
      </trkpt>
      <trkpt lat="46.648827" lon="14.945742">
        <ele>342.00</ele>
        <time>2012-10-25T10:07:04Z</time>
      </trkpt>
      <trkpt lat="46.648754" lon="14.945677">
        <ele>342.00</ele>
        <time>2012-10-25T10:07:05Z</time>
      </trkpt>
      <trkpt lat="46.648678" lon="14.945625">
        <ele>341.00</ele>
        <time>2012-10-25T10:07:06Z</time>
      </trkpt>
      <trkpt lat="46.648601" lon="14.945579">
        <ele>340.00</ele>
        <time>2012-10-25T10:07:07Z</time>
      </trkpt>
      <trkpt lat="46.648529" lon="14.945532">
        <ele>340.00</ele>
        <time>2012-10-25T10:07:08Z</time>
      </trkpt>
      <trkpt lat="46.648457" lon="14.945482">
        <ele>339.00</ele>
        <time>2012-10-25T10:07:09Z</time>
      </trkpt>
      <trkpt lat="46.648388" lon="14.945432">
        <ele>339.00</ele>
        <time>2012-10-25T10:07:10Z</time>
      </trkpt>
      <trkpt lat="46.648178" lon="14.945254">
        <ele>338.00</ele>
        <time>2012-10-25T10:07:13Z</time>
      </trkpt>
      <trkpt lat="46.648106" lon="14.945182">
        <ele>338.00</ele>
        <time>2012-10-25T10:07:14Z</time>
      </trkpt>
      <trkpt lat="46.648025" lon="14.945098">
        <ele>337.00</ele>
        <time>2012-10-25T10:07:15Z</time>
      </trkpt>
      <trkpt lat="46.647942" lon="14.945004">
        <ele>337.00</ele>
        <time>2012-10-25T10:07:16Z</time>
      </trkpt>
      <trkpt lat="46.647854" lon="14.944906">
        <ele>336.00</ele>
        <time>2012-10-25T10:07:17Z</time>
      </trkpt>
      <trkpt lat="46.647774" lon="14.944811">
        <ele>336.00</ele>
        <time>2012-10-25T10:07:18Z</time>
      </trkpt>
      <trkpt lat="46.647697" lon="14.944707">
        <ele>335.00</ele>
        <time>2012-10-25T10:07:19Z</time>
      </trkpt>
      <trkpt lat="46.647621" lon="14.944626">
        <ele>335.00</ele>
        <time>2012-10-25T10:07:20Z</time>
      </trkpt>
      <trkpt lat="46.647358" lon="14.944319">
        <ele>334.00</ele>
        <time>2012-10-25T10:07:24Z</time>
      </trkpt>
      <trkpt lat="46.647190" lon="14.944118">
        <ele>334.00</ele>
        <time>2012-10-25T10:07:27Z</time>
      </trkpt>
      <trkpt lat="46.647133" lon="14.944063">
        <ele>334.00</ele>
        <time>2012-10-25T10:07:28Z</time>
      </trkpt>
      <trkpt lat="46.647076" lon="14.943998">
        <ele>333.00</ele>
        <time>2012-10-25T10:07:29Z</time>
      </trkpt>
      <trkpt lat="46.647022" lon="14.943937">
        <ele>333.00</ele>
        <time>2012-10-25T10:07:30Z</time>
      </trkpt>
      <trkpt lat="46.646973" lon="14.943862">
        <ele>333.00</ele>
        <time>2012-10-25T10:07:31Z</time>
      </trkpt>
      <trkpt lat="46.646923" lon="14.943780">
        <ele>333.00</ele>
        <time>2012-10-25T10:07:32Z</time>
      </trkpt>
      <trkpt lat="46.646824" lon="14.943627">
        <ele>332.00</ele>
        <time>2012-10-25T10:07:34Z</time>
      </trkpt>
      <trkpt lat="46.646767" lon="14.943561">
        <ele>332.00</ele>
        <time>2012-10-25T10:07:35Z</time>
      </trkpt>
      <trkpt lat="46.646706" lon="14.943500">
        <ele>331.00</ele>
        <time>2012-10-25T10:07:36Z</time>
      </trkpt>
      <trkpt lat="46.646645" lon="14.943439">
        <ele>331.00</ele>
        <time>2012-10-25T10:07:37Z</time>
      </trkpt>
      <trkpt lat="46.646587" lon="14.943379">
        <ele>331.00</ele>
        <time>2012-10-25T10:07:38Z</time>
      </trkpt>
      <trkpt lat="46.646534" lon="14.943319">
        <ele>331.00</ele>
        <time>2012-10-25T10:07:39Z</time>
      </trkpt>
      <trkpt lat="46.646370" lon="14.943150">
        <ele>330.00</ele>
        <time>2012-10-25T10:07:42Z</time>
      </trkpt>
      <trkpt lat="46.646221" lon="14.942955">
        <ele>330.00</ele>
        <time>2012-10-25T10:07:45Z</time>
      </trkpt>
      <trkpt lat="46.645870" lon="14.942498">
        <ele>329.00</ele>
        <time>2012-10-25T10:07:52Z</time>
      </trkpt>
      <trkpt lat="46.645817" lon="14.942431">
        <ele>329.00</ele>
        <time>2012-10-25T10:07:53Z</time>
      </trkpt>
      <trkpt lat="46.645763" lon="14.942370">
        <ele>329.00</ele>
        <time>2012-10-25T10:07:54Z</time>
      </trkpt>
      <trkpt lat="46.645710" lon="14.942312">
        <ele>329.00</ele>
        <time>2012-10-25T10:07:55Z</time>
      </trkpt>
      <trkpt lat="46.645660" lon="14.942256">
        <ele>328.00</ele>
        <time>2012-10-25T10:07:56Z</time>
      </trkpt>
      <trkpt lat="46.645565" lon="14.942160">
        <ele>328.00</ele>
        <time>2012-10-25T10:07:58Z</time>
      </trkpt>
      <trkpt lat="46.645321" lon="14.941953">
        <ele>328.00</ele>
        <time>2012-10-25T10:08:04Z</time>
      </trkpt>
      <trkpt lat="46.645126" lon="14.941833">
        <ele>328.00</ele>
        <time>2012-10-25T10:08:09Z</time>
      </trkpt>
      <trkpt lat="46.644794" lon="14.941652">
        <ele>328.00</ele>
        <time>2012-10-25T10:08:16Z</time>
      </trkpt>
      <trkpt lat="46.644745" lon="14.941633">
        <ele>328.00</ele>
        <time>2012-10-25T10:08:17Z</time>
      </trkpt>
      <trkpt lat="46.644501" lon="14.941546">
        <ele>328.00</ele>
        <time>2012-10-25T10:08:22Z</time>
      </trkpt>
      <trkpt lat="46.644352" lon="14.941504">
        <ele>328.00</ele>
        <time>2012-10-25T10:08:25Z</time>
      </trkpt>
      <trkpt lat="46.644207" lon="14.941512">
        <ele>328.00</ele>
        <time>2012-10-25T10:08:28Z</time>
      </trkpt>
      <trkpt lat="46.643993" lon="14.941517">
        <ele>328.00</ele>
        <time>2012-10-25T10:08:32Z</time>
      </trkpt>
      <trkpt lat="46.643894" lon="14.941522">
        <ele>328.00</ele>
        <time>2012-10-25T10:08:34Z</time>
      </trkpt>
      <trkpt lat="46.643780" lon="14.941531">
        <ele>328.00</ele>
        <time>2012-10-25T10:08:37Z</time>
      </trkpt>
      <trkpt lat="46.643753" lon="14.941531">
        <ele>328.00</ele>
        <time>2012-10-25T10:08:38Z</time>
      </trkpt>
      <trkpt lat="46.643734" lon="14.941538">
        <ele>328.00</ele>
        <time>2012-10-25T10:08:39Z</time>
      </trkpt>
      <trkpt lat="46.643715" lon="14.941533">
        <ele>327.00</ele>
        <time>2012-10-25T10:08:40Z</time>
      </trkpt>
      <trkpt lat="46.643692" lon="14.941531">
        <ele>327.00</ele>
        <time>2012-10-25T10:08:41Z</time>
      </trkpt>
      <trkpt lat="46.643665" lon="14.941523">
        <ele>327.00</ele>
        <time>2012-10-25T10:08:42Z</time>
      </trkpt>
      <trkpt lat="46.643635" lon="14.941515">
        <ele>327.00</ele>
        <time>2012-10-25T10:08:43Z</time>
      </trkpt>
      <trkpt lat="46.643444" lon="14.941521">
        <ele>326.00</ele>
        <time>2012-10-25T10:08:48Z</time>
      </trkpt>
      <trkpt lat="46.643349" lon="14.941524">
        <ele>326.00</ele>
        <time>2012-10-25T10:08:50Z</time>
      </trkpt>
      <trkpt lat="46.643215" lon="14.941518">
        <ele>326.00</ele>
        <time>2012-10-25T10:08:53Z</time>
      </trkpt>
      <trkpt lat="46.642960" lon="14.941485">
        <ele>326.00</ele>
        <time>2012-10-25T10:08:59Z</time>
      </trkpt>
      <trkpt lat="46.642872" lon="14.941468">
        <ele>326.00</ele>
        <time>2012-10-25T10:09:01Z</time>
      </trkpt>
      <trkpt lat="46.642769" lon="14.941384">
        <ele>326.00</ele>
        <time>2012-10-25T10:09:04Z</time>
      </trkpt>
      <trkpt lat="46.642715" lon="14.941306">
        <ele>326.00</ele>
        <time>2012-10-25T10:09:06Z</time>
      </trkpt>
      <trkpt lat="46.642658" lon="14.941182">
        <ele>326.00</ele>
        <time>2012-10-25T10:09:09Z</time>
      </trkpt>
      <trkpt lat="46.642555" lon="14.940950">
        <ele>326.00</ele>
        <time>2012-10-25T10:09:15Z</time>
      </trkpt>
      <trkpt lat="46.642429" lon="14.940768">
        <ele>326.00</ele>
        <time>2012-10-25T10:09:20Z</time>
      </trkpt>
      <trkpt lat="46.642387" lon="14.940715">
        <ele>326.00</ele>
        <time>2012-10-25T10:09:22Z</time>
      </trkpt>
      <trkpt lat="46.642361" lon="14.940672">
        <ele>326.00</ele>
        <time>2012-10-25T10:09:25Z</time>
      </trkpt>
      <trkpt lat="46.642353" lon="14.940665">
        <ele>326.00</ele>
        <time>2012-10-25T10:09:26Z</time>
      </trkpt>
      <trkpt lat="46.642319" lon="14.940658">
        <ele>326.00</ele>
        <time>2012-10-25T10:09:29Z</time>
      </trkpt>
      <trkpt lat="46.642288" lon="14.940688">
        <ele>326.00</ele>
        <time>2012-10-25T10:09:31Z</time>
      </trkpt>
      <trkpt lat="46.642246" lon="14.940742">
        <ele>326.00</ele>
        <time>2012-10-25T10:09:33Z</time>
      </trkpt>
      <trkpt lat="46.642174" lon="14.940840">
        <ele>326.00</ele>
        <time>2012-10-25T10:09:36Z</time>
      </trkpt>
      <trkpt lat="46.641945" lon="14.941192">
        <ele>326.00</ele>
        <time>2012-10-25T10:09:45Z</time>
      </trkpt>
      <trkpt lat="46.641869" lon="14.941297">
        <ele>326.00</ele>
        <time>2012-10-25T10:09:48Z</time>
      </trkpt>
      <trkpt lat="46.641823" lon="14.941355">
        <ele>325.00</ele>
        <time>2012-10-25T10:09:51Z</time>
      </trkpt>
      <trkpt lat="46.641811" lon="14.941359">
        <ele>325.00</ele>
        <time>2012-10-25T10:09:53Z</time>
      </trkpt>
      <trkpt lat="46.641811" lon="14.941359">
        <ele>325.00</ele>
        <time>2012-10-25T10:09:54Z</time>
      </trkpt>
      <trkpt lat="46.641811" lon="14.941359">
        <ele>325.00</ele>
        <time>2012-10-25T10:09:55Z</time>
      </trkpt>
      <trkpt lat="46.641811" lon="14.941359">
        <ele>325.00</ele>
        <time>2012-10-25T10:09:56Z</time>
      </trkpt>
      <trkpt lat="46.641811" lon="14.941359">
        <ele>325.00</ele>
        <time>2012-10-25T10:09:57Z</time>
      </trkpt>
      <trkpt lat="46.641811" lon="14.941359">
        <ele>325.00</ele>
        <time>2012-10-25T10:10:06Z</time>
      </trkpt>
      <trkpt lat="46.641789" lon="14.941370">
        <ele>325.00</ele>
        <time>2012-10-25T10:10:11Z</time>
      </trkpt>
    </trkseg>
  </trk>
</gpx>
